# Wetter Temperatur Luftdruck Luftfeuchtigkeit Sichtweite Windgeschwindigkeit Windrichtung Zeit
1 Clouds 17 1024 82 10000 5.7 120 20:37 17.10.2019
2 Clouds 17 1024 82 10000 5.7 120 20:18 17.10.2019
3 Clouds 17 1024 82 10000 5.7 120 19:42 17.10.2019
4 Clouds 17 1024 82 10000 5.7 120 19:42 17.10.2019
5 Clouds 17 1024 82 10000 5.7 120 19:42 17.10.2019
6 Clouds 17 1024 88 10000 5.7 120 19:20 17.10.2019
7 Clouds 18 1023 82 10000 4.6 130 18:59 17.10.2019
8 Clouds 18 1023 82 10000 4.6 130 18:39 17.10.2019
9 Clouds 18 1023 82 10000 5.1 140 18:20 17.10.2019
10 Clouds 18 1023 82 10000 5.7 140 17:44 17.10.2019
11 Clouds 19 1022 77 10000 7.2 120 17:25 17.10.2019
12 Rain 20 1022 72 10000 6.7 120 16:59 17.10.2019
13 Rain 20 1022 72 10000 6.7 120 16:41 17.10.2019
14 Clouds 21 1021 68 10000 6.7 150 16:19 17.10.2019
15 -273 0 0 0 0 0 15:57 17.10.2019
16 Clouds 22 1021 60 10000 7.7 110 15:57 17.10.2019
17 Clouds 22 1021 60 10000 7.7 110 15:38 17.10.2019
18 Clouds 22 1021 60 10000 7.7 110 15:38 17.10.2019
19 Clouds 23 1021 60 10000 9.8 120 15:20 17.10.2019
20 Clouds 24 1020 57 10000 7.7 110 14:56 17.10.2019
21 Clouds 24 1020 57 10000 7.7 110 14:38 17.10.2019
22 Clouds 24 1020 53 10000 7.2 120 14:20 17.10.2019
23 Clouds 24 1020 53 10000 7.2 110 13:40 17.10.2019
24 Clouds 25 1020 47 10000 6.7 110 13:20 17.10.2019
25 Clouds 25 1021 50 10000 6.2 120 12:58 17.10.2019
26 Clouds 24 1021 50 10000 6.7 120 12:37 17.10.2019
27 Clouds 24 1021 50 10000 6.7 120 12:19 17.10.2019
28 Clouds 23 1022 56 10000 6.2 100 11:42 17.10.2019
29 Clouds 23 1022 56 10000 6.2 100 11:42 17.10.2019
30 Clouds 22 1022 56 10000 6.2 110 11:22 17.10.2019
31 Clouds 22 1023 60 10000 5.1 140 10:59 17.10.2019
32 Clouds 22 1023 60 10000 5.1 140 10:41 17.10.2019
33 Clouds 21 1023 64 10000 5.1 120 10:19 17.10.2019
34 Clouds 20 1023 64 10000 4.1 150 09:56 17.10.2019
35 Clouds 20 1023 64 10000 5.7 120 09:37 17.10.2019
36 Clouds 20 1023 64 10000 5.7 120 09:19 17.10.2019
37 Clouds 19 1023 68 10000 5.1 130 08:48 17.10.2019
38 Clouds 18 1023 72 10000 5.7 160 08:27 17.10.2019
39 Clouds 19 1023 68 10000 4.6 150 07:58 17.10.2019
40 Clouds 19 1023 68 10000 4.6 150 07:40 17.10.2019
41 Clouds 18 1023 72 10000 4.6 140 07:20 17.10.2019
42 Clouds 18 1023 72 10000 4.6 140 07:20 17.10.2019
43 Clouds 18 1023 72 10000 5.1 140 06:42 17.10.2019
44 Clouds 18 1023 72 10000 4.6 140 06:23 17.10.2019
45 Clouds 16 1022 82 10000 4.6 150 05:58 17.10.2019
46 Clouds 16 1022 82 10000 3.6 150 05:34 17.10.2019
47 Clouds 15 1022 87 10000 4.1 140 04:57 17.10.2019
48 Clouds 15 1022 82 10000 4.1 140 03:58 17.10.2019
49 Clouds 15 1021 82 10000 3.6 150 03:38 17.10.2019
50 Clouds 15 1022 82 10000 4.1 150 01:55 17.10.2019
51 Clouds 16 1022 77 10000 5.1 140 00:41 17.10.2019
52 Clouds 16 1022 77 10000 5.1 150 00:20 17.10.2019
53 Clouds 16 1022 77 10000 5.1 150 00:20 17.10.2019
54 Clouds 16 1022 77 10000 4.6 140 23:42 16.10.2019
55 Clouds 16 1023 77 10000 5.7 150 23:21 16.10.2019
56 Clouds 16 1023 82 10000 4.1 150 22:56 16.10.2019
57 Clouds 16 1023 82 10000 4.1 160 22:38 16.10.2019
58 Clouds 16 1023 82 10000 4.1 160 22:19 16.10.2019
59 Clouds 17 1023 82 10000 4.6 140 21:58 16.10.2019
60 Clouds 17 1023 82 10000 5.1 130 21:38 16.10.2019
61 Clouds 17 1023 82 10000 5.1 130 21:19 16.10.2019
62 Clouds 17 1023 82 10000 5.1 130 20:58 16.10.2019
63 Clouds 17 1023 82 10000 5.1 130 20:58 16.10.2019
64 Clouds 17 1023 82 10000 5.1 130 20:39 16.10.2019
65 Clouds 17 1023 82 10000 5.1 130 20:21 16.10.2019
66 Clouds 17 1022 82 10000 6.7 120 19:59 16.10.2019
67 Clouds 17 1022 82 10000 6.7 120 19:39 16.10.2019
68 Clouds 18 1022 77 10000 5.7 130 19:20 16.10.2019
69 Clouds 18 1022 77 10000 5.7 130 18:40 16.10.2019
70 Clouds 19 1021 77 10000 5.1 130 18:20 16.10.2019
71 Rain 19 1021 77 10000 4.6 110 17:58 16.10.2019
72 Rain 19 1021 77 10000 4.6 110 17:58 16.10.2019
73 Rain 19 1021 77 10000 4.6 110 17:39 16.10.2019
74 Clouds 19 1021 72 10000 6.2 110 17:21 16.10.2019
75 Clouds 20 1020 64 10000 4.6 150 17:00 16.10.2019
76 Clouds 20 1020 64 10000 4.6 150 16:41 16.10.2019
77 Clouds 21 1020 60 10000 6.7 120 16:21 16.10.2019
78 Clouds 22 1020 60 10000 6.2 110 15:57 16.10.2019
79 Clouds 22 1020 60 10000 6.2 110 15:56 16.10.2019
80 Clouds 22 1020 60 10000 6.2 110 15:56 16.10.2019
81 Clouds 22 1020 60 10000 6.2 110 15:56 16.10.2019
82 Clouds 22 1019 60 10000 6.2 100 15:38 16.10.2019
83 Clouds 22 1019 60 10000 6.2 100 15:18 16.10.2019
84 Clouds 24 1019 50 10000 6.7 110 14:56 16.10.2019
85 Clouds 24 1019 50 10000 6.7 110 14:56 16.10.2019
86 Clouds 24 1019 50 10000 6.7 110 14:37 16.10.2019
87 Clouds 24 1019 50 10000 6.7 110 14:37 16.10.2019
88 Clouds 24 1019 50 10000 6.7 110 14:18 16.10.2019
89 Clouds 24 1019 53 10000 6.2 130 13:55 16.10.2019
90 Clouds 24 1019 53 10000 6.2 130 13:55 16.10.2019
91 Clouds 23 1020 56 10000 6.2 140 13:36 16.10.2019
92 Clouds 23 1020 56 10000 6.2 140 13:18 16.10.2019
93 Clouds 23 1020 56 10000 6.2 100 12:40 16.10.2019
94 Clouds 22 1020 60 10000 7.2 100 12:18 16.10.2019
95 Clouds 22 1021 60 10000 5.1 100 11:42 16.10.2019
96 Clouds 23 1021 60 10000 6.7 110 11:18 16.10.2019
97 Clouds 23 1021 60 10000 6.7 110 11:18 16.10.2019
98 Clouds 21 1021 68 10000 7.2 120 10:39 16.10.2019
99 Clouds 21 1022 64 10000 5.7 110 10:20 16.10.2019
100 Clouds 21 1022 64 10000 4.1 140 09:55 16.10.2019
101 Clouds 21 1022 64 10000 3.6 140 09:37 16.10.2019
102 Clouds 21 1022 64 10000 3.6 140 09:19 16.10.2019
103 Clouds 20 1022 72 10000 4.6 120 08:42 16.10.2019
104 Clouds 20 1022 72 10000 5.1 120 08:24 16.10.2019
105 Clouds 18 1022 77 10000 4.1 140 07:45 16.10.2019
106 Clouds 18 1022 77 10000 4.1 140 07:45 16.10.2019
107 -273 0 0 0 0 0 07:25 16.10.2019
108 Clouds 17 1022 82 10000 4.6 150 06:58 16.10.2019
109 Clouds 17 1022 82 10000 4.6 150 06:58 16.10.2019
110 Clouds 17 1022 82 10000 4.6 150 06:39 16.10.2019
111 Clouds 16 1021 87 10000 3.1 140 05:44 16.10.2019
112 Clouds 16 1020 93 10000 4.1 110 02:58 16.10.2019
113 Clouds 17 1020 88 10000 4.1 120 02:38 16.10.2019
114 Clouds 17 1021 93 10000 3.1 110 01:19 16.10.2019
115 Clouds 17 1021 88 10000 4.6 110 00:47 16.10.2019
116 Clouds 17 1021 88 10000 3.6 110 00:27 16.10.2019
117 Clouds 17 1021 93 10000 3.1 120 23:40 15.10.2019
118 Clouds 17 1021 93 10000 4.1 110 23:22 15.10.2019
119 Clouds 17 1021 93 10000 4.1 110 23:22 15.10.2019
120 Clouds 17 1021 93 10000 3.6 140 22:56 15.10.2019
121 Clouds 17 1021 93 10000 4.6 130 22:38 15.10.2019
122 Clouds 17 1021 93 10000 4.6 130 22:19 15.10.2019
123 Clouds 17 1021 93 10000 5.1 120 21:56 15.10.2019
124 Clouds 17 1021 93 10000 3.6 110 21:38 15.10.2019
125 Clouds 17 1021 93 10000 3.6 110 21:19 15.10.2019
126 Rain 18 1021 88 8000 3.6 100 20:57 15.10.2019
127 Rain 18 1021 88 8000 3.6 100 20:57 15.10.2019
128 Rain 18 1021 88 8000 3.6 100 20:39 15.10.2019
129 Thunderstorm 18 1021 88 10000 3.1 140 20:20 15.10.2019
130 Thunderstorm 18 1021 88 10000 3.1 140 20:20 15.10.2019
131 Thunderstorm 18 1021 88 10000 4.1 120 19:57 15.10.2019
132 Thunderstorm 18 1021 88 10000 4.1 120 19:39 15.10.2019
133 Thunderstorm 18 1020 93 6000 4.1 110 19:19 15.10.2019
134 Thunderstorm 18 1020 93 6000 4.1 110 19:19 15.10.2019
135 Thunderstorm 18 1020 93 6000 4.6 110 18:47 15.10.2019
136 Thunderstorm 18 1020 93 4000 3.6 90 18:28 15.10.2019
137 Thunderstorm 17 1019 100 4000 3.1 70 17:58 15.10.2019
138 Thunderstorm 17 1019 100 4000 3.1 70 17:38 15.10.2019
139 Thunderstorm 18 1019 93 2500 3.1 0 17:19 15.10.2019
140 Thunderstorm 19 1017 88 10000 7.2 160 16:46 15.10.2019
141 Thunderstorm 21 1017 73 10000 7.2 110 16:23 15.10.2019
142 Thunderstorm 24 1017 60 10000 5.1 60 15:59 15.10.2019
143 Thunderstorm 24 1017 60 10000 5.1 60 15:40 15.10.2019
144 Thunderstorm 24 1017 60 10000 6.2 40 15:20 15.10.2019
145 Thunderstorm 26 1016 50 10000 5.1 30 14:57 15.10.2019
146 Thunderstorm 26 1016 54 10000 5.1 30 14:38 15.10.2019
147 Thunderstorm 26 1016 54 10000 5.1 30 14:19 15.10.2019
148 Clouds 28 1017 45 10000 4.6 40 13:44 15.10.2019
149 Clouds 28 1017 45 10000 3.1 0 13:21 15.10.2019
150 Clouds 28 1017 42 10000 2.1 110 12:59 15.10.2019
151 Clouds 28 1017 42 10000 2.1 110 12:39 15.10.2019
152 Clouds 28 1017 45 10000 3.1 110 12:20 15.10.2019
153 Clouds 28 1018 48 10000 2.1 0 11:44 15.10.2019
154 Clouds 27 1019 47 10000 2.1 0 11:21 15.10.2019
155 Clouds 27 1019 47 10000 2.6 0 10:58 15.10.2019
156 Clouds 27 1019 47 10000 2.6 0 10:39 15.10.2019
157 Clouds 25 1019 53 10000 1.5 0 10:19 15.10.2019
158 Clouds 25 1020 53 10000 1.5 0 09:57 15.10.2019
159 Clouds 25 1020 53 10000 3.6 70 09:37 15.10.2019
160 Clouds 25 1020 53 10000 3.6 70 09:19 15.10.2019
161 Clouds 24 1020 53 10000 2.6 80 08:42 15.10.2019
162 Clouds 23 1020 60 10000 2.1 50 08:21 15.10.2019
163 Clouds 22 1020 73 10000 2.1 60 07:56 15.10.2019
164 Clouds 22 1020 73 10000 2.1 60 07:56 15.10.2019
165 -273 0 0 0 0 0 07:56 15.10.2019
166 Clouds 20 1020 82 8000 2.1 100 07:38 15.10.2019
167 Clouds 20 1020 82 8000 2.1 100 07:18 15.10.2019
168 Mist 19 1020 88 5000 1.5 70 06:43 15.10.2019
169 Mist 17 1020 100 3500 1 0 06:22 15.10.2019
170 Mist 17 1020 93 1500 1.5 0 05:41 15.10.2019
171 Mist 17 1019 93 2000 0.5 0 05:22 15.10.2019
172 Mist 16 1019 100 3000 1 0 04:23 15.10.2019
173 Clouds 17 1019 93 10000 0.91 156.552 03:36 15.10.2019
174 Clouds 16 1019 100 10000 1.27 159.762 02:23 15.10.2019
175 Clouds 17 1019 93 10000 1.27 159.762 01:47 15.10.2019
176 Clouds 17 1019 93 10000 1 50 01:19 15.10.2019
177 Clouds 17 1020 93 10000 0.71 151.545 00:47 15.10.2019
178 Clouds 17 1020 93 10000 1 0 00:20 15.10.2019
179 Clouds 17 1020 93 10000 2.1 70 23:40 14.10.2019
180 Clouds 17 1020 93 10000 2.1 50 23:19 14.10.2019
181 Clouds 17 1021 93 10000 2.1 80 22:41 14.10.2019
182 Rain 18 1021 93 10000 2.1 60 22:21 14.10.2019
183 Rain 18 1021 93 10000 2.1 60 22:21 14.10.2019
184 Clouds 18 1021 88 10000 1.5 0 21:59 14.10.2019
185 Clouds 18 1021 88 10000 1.5 0 21:40 14.10.2019
186 Clouds 18 1021 88 10000 2.1 70 21:21 14.10.2019
187 Thunderstorm 17 1021 93 10000 1 0 20:59 14.10.2019
188 Thunderstorm 17 1021 93 10000 1 0 20:39 14.10.2019
189 Thunderstorm 17 1021 100 10000 2.6 60 20:20 14.10.2019
190 Thunderstorm 18 1021 88 7000 1.5 50 19:58 14.10.2019
191 Thunderstorm 18 1021 88 7000 1.5 50 19:40 14.10.2019
192 Thunderstorm 18 1021 88 7000 0.5 0 19:21 14.10.2019
193 Thunderstorm 18 1021 88 7000 2.6 50 18:57 14.10.2019
194 Thunderstorm 17 1021 93 7000 3.1 30 18:38 14.10.2019
195 Thunderstorm 17 1021 93 7000 3.1 30 18:18 14.10.2019
196 Thunderstorm 17 1021 93 7000 3.1 30 18:18 14.10.2019
197 Thunderstorm 19 1020 88 7000 3.6 40 17:44 14.10.2019
198 Thunderstorm 20 1020 77 7000 1 0 17:25 14.10.2019
199 Thunderstorm 21 1019 68 9000 3.6 190 16:58 14.10.2019
200 Thunderstorm 21 1019 68 9000 3.6 190 16:40 14.10.2019
201 Clouds 23 1019 56 9000 5.7 200 16:20 14.10.2019
202 Clouds 24 1018 53 10000 4.1 190 15:41 14.10.2019
203 Clouds 26 1017 41 10000 3.6 140 15:22 14.10.2019
204 Clouds 28 1017 37 10000 2.1 180 14:44 14.10.2019
205 Clouds 25 1017 50 10000 3.6 190 14:26 14.10.2019
206 Clouds 23 1018 53 10000 7.7 200 13:59 14.10.2019
207 Clouds 23 1018 53 10000 7.7 200 13:40 14.10.2019
208 Clouds 26 1018 47 10000 9.8 220 13:21 14.10.2019
209 Clouds 28 1018 37 10000 2.6 180 12:42 14.10.2019
210 Clouds 28 1019 39 10000 1.5 0 12:21 14.10.2019
211 Clouds 28 1019 37 10000 2.1 40 11:57 14.10.2019
212 Clouds 28 1019 37 10000 2.1 40 11:39 14.10.2019
213 Clouds 28 1020 37 10000 2.1 0 11:20 14.10.2019
214 Clouds 29 1020 37 10000 2.6 0 10:44 14.10.2019
215 Clouds 28 1021 42 10000 2.6 0 10:21 14.10.2019
216 Clouds 26 1021 47 10000 2.6 250 09:59 14.10.2019
217 Clouds 26 1021 47 10000 2.6 250 09:40 14.10.2019
218 Clouds 25 1021 50 10000 2.6 0 09:20 14.10.2019
219 Clouds 24 1021 53 10000 3.6 230 08:48 14.10.2019
220 Clouds 23 1022 60 10000 2.6 250 08:23 14.10.2019
221 Clouds 23 1022 60 10000 2.6 190 07:44 14.10.2019
222 Clouds 21 1022 64 10000 1 0 07:22 14.10.2019
223 Clouds 20 1022 68 10000 0.5 0 06:55 14.10.2019
224 Clouds 18 1021 82 10000 0.5 0 06:27 14.10.2019
225 Clouds 16 1021 87 10000 1 0 05:52 14.10.2019
226 Clouds 15 1021 87 10000 0.5 0 04:51 14.10.2019
227 Clouds 15 1021 87 10000 2.1 330 03:48 14.10.2019
228 Clouds 15 1021 87 10000 1 0 03:22 14.10.2019
229 Clouds 16 1020 87 10000 2.1 60 01:46 14.10.2019
230 Clouds 16 1021 87 10000 2.6 80 01:18 14.10.2019
231 Clouds 17 1021 82 10000 3.6 100 00:23 14.10.2019
232 Clouds 17 1021 82 10000 4.1 80 23:46 13.10.2019
233 Clouds 17 1021 82 10000 2.6 50 23:21 13.10.2019
234 Clouds 17 1021 82 10000 3.1 70 23:00 13.10.2019
235 Clouds 17 1021 82 10000 3.1 70 22:41 13.10.2019
236 Clouds 17 1022 82 10000 3.1 60 22:22 13.10.2019
237 Clouds 17 1022 82 10000 3.1 60 22:22 13.10.2019
238 Clouds 17 1022 82 10000 3.1 90 21:58 13.10.2019
239 Clouds 17 1022 82 10000 5.1 90 21:38 13.10.2019
240 Clouds 17 1022 82 10000 5.1 90 21:19 13.10.2019
241 Clouds 18 1021 77 10000 4.1 80 20:58 13.10.2019
242 Clouds 18 1021 77 10000 4.1 80 20:40 13.10.2019
243 Clouds 18 1021 77 10000 3.6 100 20:21 13.10.2019
244 Clouds 18 1021 77 10000 3.6 100 20:21 13.10.2019
245 -273 0 0 0 0 0 19:59 13.10.2019
246 Clouds 19 1021 72 10000 4.1 110 19:39 13.10.2019
247 Clouds 19 1021 72 10000 4.1 110 19:39 13.10.2019
248 Clouds 19 1021 72 10000 6.2 110 19:21 13.10.2019
249 -273 0 0 0 0 0 18:59 13.10.2019
250 Clouds 20 1020 64 10000 4.6 120 18:58 13.10.2019
251 Clouds 20 1020 64 10000 4.6 120 18:58 13.10.2019
252 Clouds 21 1020 56 10000 6.7 90 18:37 13.10.2019
253 Clouds 21 1020 56 10000 6.7 90 18:19 13.10.2019
254 Clouds 21 1020 56 10000 4.6 100 17:57 13.10.2019
255 Clouds 21 1020 56 10000 4.6 100 17:39 13.10.2019
256 Clouds 22 1019 53 10000 5.7 90 17:21 13.10.2019
257 Clouds 24 1019 44 10000 6.2 100 16:43 13.10.2019
258 Clouds 25 1019 41 10000 5.7 80 16:19 13.10.2019
259 Clouds 26 1018 39 10000 5.1 100 15:57 13.10.2019
260 -273 0 0 0 0 0 15:57 13.10.2019
261 Clouds 27 1018 34 10000 4.1 110 15:38 13.10.2019
262 Clouds 27 1018 34 10000 4.1 110 15:18 13.10.2019
263 Clouds 27 1018 34 10000 5.1 110 14:57 13.10.2019
264 Clouds 27 1018 34 10000 5.1 110 14:38 13.10.2019
265 Clouds 27 1018 34 10000 4.6 140 14:19 13.10.2019
266 Clouds 28 1018 32 10000 3.1 130 13:41 13.10.2019
267 Clouds 27 1018 34 10000 3.1 90 13:23 13.10.2019
268 Clouds 27 1019 36 10000 3.6 130 12:59 13.10.2019
269 Clouds 27 1019 34 10000 4.1 120 12:39 13.10.2019
270 Clouds 27 1019 34 10000 4.1 120 12:20 13.10.2019
271 Clouds 27 1019 34 10000 4.6 120 11:58 13.10.2019
272 Clouds 27 1019 34 10000 4.6 120 11:39 13.10.2019
273 Clouds 26 1020 41 10000 4.1 140 11:20 13.10.2019
274 -273 0 0 0 0 0 10:56 13.10.2019
275 Clouds 24 1021 44 10000 4.6 100 10:38 13.10.2019
276 Clouds 24 1021 44 10000 4.6 100 10:19 13.10.2019
277 Clouds 23 1022 53 10000 3.6 150 09:39 13.10.2019
278 Clouds 23 1022 53 10000 3.6 150 09:21 13.10.2019
279 Clouds 22 1022 56 10000 3.6 120 08:43 13.10.2019
280 Clouds 21 1022 60 10000 3.6 130 08:25 13.10.2019
281 Clouds 21 1022 60 10000 3.6 130 08:25 13.10.2019
282 Clouds 21 1022 60 10000 3.1 110 07:51 13.10.2019
283 Clouds 20 1022 60 10000 3.1 130 07:33 13.10.2019
284 Clouds 19 1022 68 10000 3.6 160 06:51 13.10.2019
285 Clouds 18 1021 72 10000 3.1 140 06:23 13.10.2019
286 Clouds 18 1021 72 10000 3.1 140 06:23 13.10.2019
287 Clouds 15 1021 87 10000 4.6 110 05:19 13.10.2019
288 Clouds 16 1020 87 10000 3.6 110 04:34 13.10.2019
289 Clouds 17 1019 82 10000 3.1 100 02:53 13.10.2019
290 Clouds 16 1019 87 10000 3.1 80 02:27 13.10.2019
291 Clouds 16 1019 87 10000 4.1 90 01:36 13.10.2019
292 Clouds 16 1020 87 10000 2.1 90 00:55 13.10.2019
293 Clouds 17 1020 88 10000 3.1 60 00:37 13.10.2019
294 Clouds 17 1020 88 10000 3.1 60 00:18 13.10.2019
295 Clouds 16 1020 93 10000 3.6 70 23:41 12.10.2019
296 Clouds 17 1020 88 10000 4.1 70 23:22 12.10.2019
297 Drizzle 17 1021 88 10000 4.1 80 22:58 12.10.2019
298 Drizzle 17 1021 88 10000 4.1 80 22:58 12.10.2019
299 Drizzle 17 1021 88 10000 4.1 80 22:40 12.10.2019
300 Drizzle 17 1021 88 10000 3.1 80 22:21 12.10.2019
301 Clouds 18 1021 82 10000 3.6 70 21:57 12.10.2019
302 Clouds 18 1021 82 10000 3.6 70 21:38 12.10.2019
303 Clouds 18 1022 82 10000 4.6 80 21:20 12.10.2019
304 Clouds 18 1022 82 10000 4.6 80 21:20 12.10.2019
305 Clouds 19 1021 77 10000 4.6 90 20:45 12.10.2019
306 Clouds 19 1021 77 10000 4.6 90 20:27 12.10.2019
307 Clouds 19 1021 77 10000 5.1 110 19:42 12.10.2019
308 Clouds 19 1020 77 10000 5.7 130 19:23 12.10.2019
309 Clouds 20 1020 72 10000 6.2 120 18:59 12.10.2019
310 Clouds 20 1020 72 10000 6.2 120 18:41 12.10.2019
311 Clouds 20 1020 72 10000 6.2 120 18:41 12.10.2019
312 Clouds 21 1019 68 10000 7.7 100 18:23 12.10.2019
313 Clouds 22 1019 60 10000 7.7 100 17:45 12.10.2019
314 Clouds 23 1018 56 10000 6.7 110 17:21 12.10.2019
315 Clouds 24 1018 50 10000 5.1 90 16:57 12.10.2019
316 Clouds 24 1018 50 10000 5.1 90 16:57 12.10.2019
317 Clouds 25 1018 44 10000 5.7 120 16:38 12.10.2019
318 Clouds 25 1018 44 10000 5.7 120 16:19 12.10.2019
319 -273 0 0 0 0 0 15:44 12.10.2019
320 Clouds 28 1017 37 10000 4.1 110 15:25 12.10.2019
321 Clouds 28 1017 34 10000 4.1 180 14:59 12.10.2019
322 Clouds 28 1017 32 10000 3.6 140 14:38 12.10.2019
323 Clouds 28 1017 32 10000 3.6 140 14:19 12.10.2019
324 Clouds 28 1017 34 10000 3.6 130 13:45 12.10.2019
325 Clouds 28 1017 32 10000 3.1 160 13:27 12.10.2019
326 Clouds 28 1018 32 10000 3.1 140 12:41 12.10.2019
327 Clouds 28 1018 34 10000 3.6 150 12:22 12.10.2019
328 Clouds 28 1018 34 10000 3.6 150 12:22 12.10.2019
329 Clouds 27 1019 39 10000 3.6 130 11:59 12.10.2019
330 Clouds 27 1019 39 10000 3.6 130 11:40 12.10.2019
331 Clouds 27 1019 39 10000 3.6 0 11:22 12.10.2019
332 Clouds 25 1020 44 10000 4.1 0 10:56 12.10.2019
333 Clouds 25 1020 50 10000 3.6 130 10:37 12.10.2019
334 Clouds 25 1020 50 10000 3.6 130 10:18 12.10.2019
335 Clouds 25 1021 50 10000 4.1 180 09:55 12.10.2019
336 Clouds 25 1021 50 10000 4.1 180 09:54 12.10.2019
337 Clouds 24 1021 50 10000 3.1 140 09:36 12.10.2019
338 Clouds 24 1021 50 10000 3.1 140 09:18 12.10.2019
339 Clouds 24 1021 50 10000 3.1 140 09:18 12.10.2019
340 -273 0 0 0 0 0 08:41 12.10.2019
341 Clouds 23 1021 56 10000 2.6 140 08:20 12.10.2019
342 Clouds 23 1021 56 10000 2.6 140 08:20 12.10.2019
343 Clouds 23 1021 56 10000 2.6 140 08:20 12.10.2019
344 Clouds 21 1021 60 10000 3.1 110 07:35 12.10.2019
345 Clouds 20 1021 64 10000 3.6 80 06:59 12.10.2019
346 Clouds 17 1020 82 10000 2.6 70 05:49 12.10.2019
347 Clouds 16 1020 87 10000 1.5 60 05:24 12.10.2019
348 Clouds 16 1020 87 10000 3.6 80 04:26 12.10.2019
349 Clouds 17 1020 82 10000 3.6 80 03:41 12.10.2019
350 Clouds 17 1020 82 10000 3.1 80 01:56 12.10.2019
351 Clouds 17 1020 88 10000 2.6 80 01:24 12.10.2019
352 Clouds 17 1020 88 10000 2.6 80 00:42 12.10.2019
353 Clouds 17 1020 88 10000 4.1 90 00:19 12.10.2019
354 Clouds 17 1020 88 10000 3.6 60 23:40 11.10.2019
355 Clouds 18 1021 82 10000 4.6 70 23:20 11.10.2019
356 Clouds 18 1021 82 10000 2.6 70 22:41 11.10.2019
357 Clouds 18 1021 82 10000 2.1 60 22:22 11.10.2019
358 Clouds 19 1022 77 10000 2.1 30 21:58 11.10.2019
359 Clouds 19 1022 77 10000 2.1 30 21:39 11.10.2019
360 Clouds 19 1022 77 10000 2.6 90 21:21 11.10.2019
361 Clouds 19 1022 77 10000 4.1 130 20:45 11.10.2019
362 Clouds 20 1022 68 10000 3.1 190 20:27 11.10.2019
363 Clouds 20 1022 68 10000 3.1 190 20:27 11.10.2019
364 Clouds 19 1022 77 10000 3.1 130 19:59 11.10.2019
365 Clouds 19 1022 77 10000 3.1 130 19:39 11.10.2019
366 Clouds 20 1021 72 10000 3.6 140 19:18 11.10.2019
367 Clouds 20 1021 72 10000 3.6 140 19:18 11.10.2019
368 Clouds 20 1021 72 10000 3.6 140 19:18 11.10.2019
369 Clouds 20 1021 72 10000 3.6 140 19:18 11.10.2019
370 Clouds 21 1021 64 10000 5.1 100 18:59 11.10.2019
371 Clouds 21 1021 64 10000 5.1 100 18:59 11.10.2019
372 Clouds 21 1020 60 10000 3.1 110 18:38 11.10.2019
373 Clouds 21 1020 60 10000 3.1 110 18:19 11.10.2019
374 Clouds 21 1020 60 10000 3.1 110 18:19 11.10.2019
375 Clouds 21 1020 60 10000 3.1 110 18:19 11.10.2019
376 Clouds 21 1020 60 10000 4.6 120 17:58 11.10.2019
377 Clouds 22 1020 53 10000 6.2 170 17:38 11.10.2019
378 Clouds 22 1020 53 10000 6.2 170 17:19 11.10.2019
379 Clouds 24 1019 50 10000 5.7 180 16:58 11.10.2019
380 Clouds 25 1019 41 10000 5.1 180 16:39 11.10.2019
381 Clouds 25 1019 41 10000 5.1 180 16:19 11.10.2019
382 Clouds 26 1019 39 10000 6.2 190 15:41 11.10.2019
383 Clouds 26 1019 39 10000 6.2 190 15:41 11.10.2019
384 Clouds 26 1018 44 10000 2.6 160 15:20 11.10.2019
385 Clouds 26 1018 44 10000 3.6 100 14:58 11.10.2019
386 Clouds 26 1018 44 10000 3.6 100 14:58 11.10.2019
387 Clouds 28 1018 37 10000 4.1 120 14:38 11.10.2019
388 Clouds 28 1018 37 10000 4.1 120 14:19 11.10.2019
389 Clouds 28 1018 37 10000 4.1 120 14:19 11.10.2019
390 Clouds 27 1019 42 10000 3.6 150 13:45 11.10.2019
391 Clouds 27 1019 39 10000 3.6 120 13:25 11.10.2019
392 Clouds 27 1019 39 10000 3.1 140 12:57 11.10.2019
393 Clouds 27 1020 42 10000 2.6 0 12:38 11.10.2019
394 Clouds 27 1020 42 10000 2.6 0 12:20 11.10.2019
395 Clouds 26 1021 44 10000 3.6 0 11:58 11.10.2019
396 Clouds 26 1021 44 10000 3.6 160 11:38 11.10.2019
397 Clouds 26 1021 44 10000 3.6 160 11:20 11.10.2019
398 -273 0 0 0 0 0 10:54 11.10.2019
399 Clouds 24 1022 47 10000 4.1 90 10:36 11.10.2019
400 Clouds 24 1022 47 10000 4.1 90 10:18 11.10.2019
401 Clouds 23 1023 49 10000 4.1 120 09:41 11.10.2019
402 Clouds 23 1023 49 10000 2.6 0 09:20 11.10.2019
403 Clouds 21 1023 56 10000 3.1 130 08:56 11.10.2019
404 Clouds 21 1023 56 10000 3.1 130 08:38 11.10.2019
405 Clouds 21 1023 56 10000 3.1 130 08:19 11.10.2019
406 Clouds 20 1023 60 10000 4.6 100 07:51 11.10.2019
407 Clouds 20 1023 60 10000 3.6 100 07:33 11.10.2019
408 Clouds 19 1023 63 10000 4.1 100 06:49 11.10.2019
409 Clouds 18 1023 68 10000 3.1 90 06:24 11.10.2019
410 Clouds 16 1023 82 10000 1.5 70 05:41 11.10.2019
411 Clouds 14 1023 93 10000 2.1 60 05:23 11.10.2019
412 Clouds 13 1022 93 10000 3.1 80 04:38 11.10.2019
413 Clouds 14 1022 93 10000 2.1 60 02:47 11.10.2019
414 Clouds 17 1023 77 10000 2.6 120 00:52 11.10.2019
415 Clouds 17 1024 77 10000 3.6 100 00:30 11.10.2019
416 Clouds 17 1024 82 10000 2.6 90 23:48 10.10.2019
417 Clouds 17 1024 82 10000 4.1 90 23:23 10.10.2019
418 Clouds 16 1024 87 10000 4.6 90 22:59 10.10.2019
419 Clouds 16 1024 87 10000 4.6 90 22:40 10.10.2019
420 Clouds 17 1024 82 10000 4.1 100 22:21 10.10.2019
421 Clouds 17 1024 82 10000 4.1 100 22:21 10.10.2019
422 Clouds 17 1024 82 10000 4.6 100 21:58 10.10.2019
423 Clouds 17 1024 82 10000 4.6 100 21:40 10.10.2019
424 Clouds 17 1024 82 10000 4.1 110 21:22 10.10.2019
425 Clouds 17 1024 82 10000 4.1 70 20:57 10.10.2019
426 Clouds 17 1024 82 10000 4.1 70 20:39 10.10.2019
427 Clouds 17 1023 82 10000 4.1 60 20:18 10.10.2019
428 Clouds 17 1023 82 10000 4.1 60 20:18 10.10.2019
429 Clouds 17 1023 82 10000 4.1 60 20:18 10.10.2019
430 Clouds 17 1023 82 10000 5.1 80 19:54 10.10.2019
431 Clouds 18 1023 77 10000 6.2 100 19:36 10.10.2019
432 Clouds 18 1023 77 10000 6.2 100 19:18 10.10.2019
433 Clouds 19 1024 68 10000 5.7 130 18:41 10.10.2019
434 Clouds 19 1023 68 10000 4.6 140 18:20 10.10.2019
435 Clouds 19 1022 68 10000 6.2 100 17:55 10.10.2019
436 Clouds 20 1022 64 10000 6.2 110 17:37 10.10.2019
437 Clouds 20 1022 64 10000 6.2 110 17:18 10.10.2019
438 Clouds 21 1021 60 10000 5.7 100 16:46 10.10.2019
439 Clouds 23 1021 53 10000 5.7 110 16:26 10.10.2019
440 Clouds 23 1021 53 10000 5.7 110 16:26 10.10.2019
441 Clouds 24 1021 50 10000 5.1 120 15:58 10.10.2019
442 Clouds 25 1021 47 10000 6.2 90 15:38 10.10.2019
443 Clouds 25 1021 47 10000 6.2 90 15:19 10.10.2019
444 Clouds 26 1020 44 10000 4.1 130 14:55 10.10.2019
445 Clouds 26 1020 44 10000 4.6 120 14:36 10.10.2019
446 Clouds 26 1020 44 10000 4.6 120 14:18 10.10.2019
447 Clouds 26 1021 41 10000 4.1 130 13:42 10.10.2019
448 Clouds 26 1021 41 10000 4.1 130 13:24 10.10.2019
449 Clouds 26 1021 41 10000 5.1 130 12:57 10.10.2019
450 Clouds 26 1021 41 10000 5.1 130 12:57 10.10.2019
451 Clouds 26 1021 41 10000 5.1 130 12:39 10.10.2019
452 Clouds 25 1021 44 10000 3.6 160 12:20 10.10.2019
453 Clouds 25 1021 44 10000 3.6 160 12:20 10.10.2019
454 Clouds 25 1022 44 10000 4.1 140 11:56 10.10.2019
455 Clouds 25 1022 44 10000 4.6 120 11:38 10.10.2019
456 Clouds 25 1022 44 10000 4.6 120 11:19 10.10.2019
457 Clouds 24 1023 47 10000 4.1 120 10:44 10.10.2019
458 Clear 23 1023 49 10000 4.6 120 10:26 10.10.2019
459 Clouds 22 1024 53 10000 5.1 120 09:56 10.10.2019
460 Clouds 21 1024 56 10000 5.1 110 09:38 10.10.2019
461 Clouds 21 1024 56 10000 5.1 110 09:38 10.10.2019
462 Clouds 21 1024 56 10000 5.1 110 09:19 10.10.2019
463 Clouds 20 1024 60 10000 5.1 100 08:56 10.10.2019
464 Clouds 19 1024 63 10000 4.6 110 08:37 10.10.2019
465 Clouds 19 1024 63 10000 4.6 110 08:18 10.10.2019
466 Clouds 20 1024 60 10000 6.2 90 07:42 10.10.2019
467 Clouds 20 1024 60 10000 6.2 90 07:20 10.10.2019
468 Clouds 19 1024 68 10000 3.1 130 06:46 10.10.2019
469 Clouds 17 1024 77 10000 2.6 100 06:26 10.10.2019
470 Rain 16 1023 82 10000 4.6 100 05:25 10.10.2019
471 Clouds 16 1023 82 10000 4.1 100 04:37 10.10.2019
472 Clouds 16 1023 82 10000 5.1 110 03:42 10.10.2019
473 Clouds 15 1023 93 10000 2.1 150 01:43 10.10.2019
474 Clouds 16 1023 87 10000 3.1 140 01:24 10.10.2019
475 Clouds 16 1023 87 10000 2.1 160 00:53 10.10.2019
476 Clouds 16 1023 87 10000 3.1 100 00:21 10.10.2019
477 Clouds 17 1024 82 10000 3.1 130 23:39 09.10.2019
478 Clouds 17 1024 82 10000 3.1 130 23:20 09.10.2019
479 Clouds 17 1024 82 10000 4.1 90 22:43 09.10.2019
480 Clouds 17 1024 82 10000 4.6 100 22:24 09.10.2019
481 Clouds 16 1024 87 10000 4.6 100 21:59 09.10.2019
482 Clouds 16 1024 87 10000 4.6 100 21:59 09.10.2019
483 Clouds 16 1024 87 10000 4.6 100 21:39 09.10.2019
484 Clouds 16 1024 87 10000 5.1 100 21:20 09.10.2019
485 Clouds 16 1024 87 10000 5.1 100 20:56 09.10.2019
486 Clouds 17 1024 82 10000 4.6 90 20:37 09.10.2019
487 Clouds 17 1024 82 10000 4.6 90 20:18 09.10.2019
488 Clouds 17 1024 82 10000 4.6 90 20:18 09.10.2019
489 Clouds 17 1024 82 10000 4.6 90 20:18 09.10.2019
490 Clouds 17 1024 82 10000 5.1 100 19:45 09.10.2019
491 Clouds 17 1024 82 10000 4.6 100 19:24 09.10.2019
492 Clouds 17 1023 82 10000 4.6 110 18:58 09.10.2019
493 Clouds 18 1023 77 10000 5.7 110 18:38 09.10.2019
494 Clouds 18 1023 77 10000 5.7 110 18:18 09.10.2019
495 Clouds 18 1023 77 10000 5.7 110 17:55 09.10.2019
496 Clouds 19 1022 72 10000 6.2 90 17:37 09.10.2019
497 Clouds 19 1022 72 10000 6.2 90 17:18 09.10.2019
498 Clouds 21 1022 64 10000 5.7 100 16:41 09.10.2019
499 Clouds 22 1021 56 10000 6.7 90 16:23 09.10.2019
500 Clouds 23 1021 49 10000 6.7 110 15:58 09.10.2019
501 Clouds 23 1021 49 10000 6.7 110 15:58 09.10.2019
502 Clouds 23 1021 49 10000 6.7 110 15:39 09.10.2019
503 Clouds 24 1021 53 10000 6.7 110 15:20 09.10.2019
504 Clouds 25 1021 44 10000 5.7 110 14:58 09.10.2019
505 Clouds 25 1021 44 10000 5.7 110 14:58 09.10.2019
506 Clouds 25 1021 44 10000 5.7 110 14:40 09.10.2019
507 Clouds 25 1021 47 10000 5.7 110 14:18 09.10.2019
508 Clouds 24 1021 50 10000 6.2 140 13:40 09.10.2019
509 Clouds 24 1021 47 10000 6.2 110 13:21 09.10.2019
510 Clouds 24 1022 47 10000 4.6 140 12:59 09.10.2019
511 Clouds 24 1022 47 10000 4.6 140 12:59 09.10.2019
512 Clouds 24 1022 47 10000 4.6 140 12:40 09.10.2019
513 Clouds 23 1022 53 10000 5.7 110 12:21 09.10.2019
514 Clouds 24 1023 50 10000 5.7 100 11:55 09.10.2019
515 Clouds 23 1023 53 10000 5.1 90 11:37 09.10.2019
516 Clouds 23 1023 53 10000 5.1 90 11:19 09.10.2019
517 Clouds 21 1023 60 10000 6.7 100 10:43 09.10.2019
518 Clouds 21 1023 60 10000 6.7 100 10:43 09.10.2019
519 Clouds 22 1024 53 10000 6.7 110 10:21 09.10.2019
520 Clouds 22 1024 53 10000 6.7 110 10:21 09.10.2019
521 Clouds 22 1024 53 10000 6.2 120 09:59 09.10.2019
522 Clouds 22 1024 53 10000 6.2 120 09:40 09.10.2019
523 Clouds 22 1024 53 10000 6.2 120 09:40 09.10.2019
524 Clouds 22 1024 53 10000 6.2 120 09:40 09.10.2019
525 Clouds 21 1024 56 10000 6.2 120 09:18 09.10.2019
526 Clouds 22 1024 56 10000 7.2 100 08:41 09.10.2019
527 Clouds 20 1024 68 10000 4.6 120 08:21 09.10.2019
528 Clouds 20 1024 68 10000 4.6 120 08:21 09.10.2019
529 Clouds 18 1024 77 10000 3.1 120 07:56 09.10.2019
530 Rain 17 1024 82 10000 2.6 130 07:37 09.10.2019
531 Rain 17 1024 82 10000 2.6 130 07:19 09.10.2019
532 Clouds 16 1024 87 7000 2.6 140 06:49 09.10.2019
533 Rain 16 1023 82 8000 2.6 90 05:55 09.10.2019
534 Clouds 15 1023 87 10000 3.1 130 05:23 09.10.2019
535 Clouds 14 1023 93 10000 2.6 160 04:20 09.10.2019
536 Clouds 15 1022 87 10000 2.6 120 02:45 09.10.2019
537 Clouds 15 1023 82 10000 3.1 130 01:42 09.10.2019
538 Clouds 15 1023 82 10000 3.1 150 01:19 09.10.2019
539 Clouds 15 1023 82 10000 3.1 140 00:56 09.10.2019
540 Clouds 14 1024 87 10000 2.6 140 00:38 09.10.2019
541 Clouds 14 1024 87 10000 2.6 140 00:38 09.10.2019
542 Clouds 14 1024 87 10000 2.6 140 00:38 09.10.2019
543 Clouds 14 1024 87 10000 2.6 140 00:19 09.10.2019
544 Clouds 15 1024 82 10000 3.1 140 23:39 08.10.2019
545 Clouds 15 1024 77 10000 4.1 120 23:18 08.10.2019
546 Clouds 15 1024 82 10000 5.1 110 22:56 08.10.2019
547 Clouds 15 1025 82 10000 2.6 140 22:37 08.10.2019
548 Clouds 15 1025 82 10000 2.6 140 22:18 08.10.2019
549 Clouds 15 1025 82 10000 4.1 140 21:56 08.10.2019
550 Clouds 15 1025 82 10000 3.6 130 21:38 08.10.2019
551 Clouds 15 1025 82 10000 3.6 130 21:18 08.10.2019
552 Clouds 15 1025 82 10000 3.1 140 20:55 08.10.2019
553 Clouds 15 1025 82 10000 4.1 130 20:37 08.10.2019
554 Clouds 15 1025 82 10000 4.1 130 20:18 08.10.2019
555 Clouds 16 1025 77 10000 4.1 120 19:55 08.10.2019
556 Clouds 16 1025 82 10000 5.1 130 19:36 08.10.2019
557 Clouds 16 1025 82 10000 5.1 130 19:18 08.10.2019
558 Clouds 16 1025 77 10000 5.7 120 18:42 08.10.2019
559 Clouds 17 1024 72 10000 6.2 110 18:24 08.10.2019
560 Clouds 18 1024 77 10000 5.7 100 17:57 08.10.2019
561 Clouds 18 1024 77 10000 5.7 100 17:57 08.10.2019
562 Clouds 18 1024 77 10000 5.7 100 17:57 08.10.2019
563 Clouds 18 1023 77 10000 7.2 90 17:39 08.10.2019
564 Clouds 18 1023 77 10000 7.2 90 17:19 08.10.2019
565 Clouds 20 1023 64 10000 8.7 110 16:56 08.10.2019
566 Clouds 22 1022 56 10000 7.2 110 16:37 08.10.2019
567 Clouds 22 1022 56 10000 7.2 110 16:18 08.10.2019
568 Clouds 23 1022 49 10000 7.7 100 15:38 08.10.2019
569 Clouds 23 1022 49 10000 7.7 100 15:20 08.10.2019
570 Clouds 23 1022 53 10000 6.2 120 14:56 08.10.2019
571 Clouds 25 1022 47 10000 7.2 120 14:37 08.10.2019
572 Clouds 25 1022 47 10000 7.2 120 14:19 08.10.2019
573 Clouds 24 1022 50 10000 7.2 90 13:55 08.10.2019
574 Clouds 24 1022 47 10000 6.2 120 13:37 08.10.2019
575 Clouds 24 1022 47 10000 6.2 120 13:18 08.10.2019
576 Clouds 24 1022 47 10000 6.2 120 13:18 08.10.2019
577 Clouds 24 1022 50 10000 5.7 120 12:40 08.10.2019
578 Clouds 24 1023 50 10000 6.2 120 12:20 08.10.2019
579 Clouds 23 1023 53 10000 7.2 120 11:57 08.10.2019
580 Clouds 23 1023 53 10000 7.2 120 11:57 08.10.2019
581 Clouds 23 1024 53 10000 7.2 110 11:38 08.10.2019
582 Clouds 23 1024 53 10000 7.2 110 11:20 08.10.2019
583 Clouds 23 1025 53 10000 7.2 100 10:42 08.10.2019
584 Clouds 23 1025 53 10000 7.2 100 10:23 08.10.2019
585 Clouds 23 1025 49 10000 6.2 120 09:59 08.10.2019
586 Clouds 23 1025 49 10000 6.2 120 09:40 08.10.2019
587 Clouds 23 1025 49 10000 6.2 120 09:40 08.10.2019
588 Clouds 23 1025 49 10000 6.7 110 09:22 08.10.2019
589 Clouds 20 1025 64 10000 5.1 110 08:45 08.10.2019
590 Clouds 19 1025 72 10000 4.6 110 08:25 08.10.2019
591 Clouds 18 1025 72 10000 4.6 130 07:48 08.10.2019
592 Clouds 17 1025 77 10000 4.1 120 07:23 08.10.2019
593 Clouds 17 1025 77 10000 4.6 120 06:59 08.10.2019
594 Clouds 16 1024 82 10000 3.1 140 06:39 08.10.2019
595 Clouds 16 1024 82 10000 3.1 140 06:21 08.10.2019
596 Clouds 15 1024 82 10000 2.6 140 05:40 08.10.2019
597 Clouds 13 1024 93 10000 2.6 160 04:56 08.10.2019
598 Clouds 13 1021 85 0 2.43 133.382 03:31 08.10.2019
599 Clouds 14 1023 87 10000 2.6 140 02:41 08.10.2019
600 Clouds 14 1023 87 10000 3.1 80 01:56 08.10.2019
601 Clouds 14 1023 93 10000 3.1 80 01:38 08.10.2019
602 Clouds 14 1023 93 10000 4.1 90 00:55 08.10.2019
603 Clouds 15 1024 87 10000 4.6 120 00:23 08.10.2019
604 Clouds 15 1024 87 10000 3.1 130 23:44 07.10.2019
605 Clouds 15 1024 87 10000 5.1 120 23:21 07.10.2019
606 Clouds 15 1024 87 10000 5.1 120 23:21 07.10.2019
607 Clouds 15 1024 87 10000 5.1 120 23:21 07.10.2019
608 Clouds 15 1025 87 10000 5.1 100 22:59 07.10.2019
609 Clouds 15 1025 87 10000 5.1 100 22:40 07.10.2019
610 Clouds 15 1025 87 10000 4.6 110 22:21 07.10.2019
611 Clouds 15 1025 87 10000 5.1 100 21:59 07.10.2019
612 Clouds 15 1025 87 10000 5.1 100 21:40 07.10.2019
613 Clouds 16 1025 87 10000 5.1 100 21:20 07.10.2019
614 Clouds 16 1025 87 10000 5.1 100 21:20 07.10.2019
615 Clouds 16 1025 87 10000 6.2 110 20:59 07.10.2019
616 Clouds 16 1025 87 10000 6.2 110 20:39 07.10.2019
617 Clouds 16 1025 87 10000 6.2 110 20:39 07.10.2019
618 Clouds 16 1025 82 10000 5.7 90 20:21 07.10.2019
619 Clouds 16 1025 82 10000 5.7 80 19:59 07.10.2019
620 Clouds 16 1024 82 10000 6.7 90 19:41 07.10.2019
621 Clouds 16 1024 82 10000 6.7 90 19:41 07.10.2019
622 Clouds 16 1024 82 10000 6.7 90 19:20 07.10.2019
623 Clouds 17 1024 82 10000 5.1 90 18:59 07.10.2019
624 Clouds 17 1024 82 10000 5.1 90 18:39 07.10.2019
625 Clouds 17 1024 82 10000 6.2 100 18:19 07.10.2019
626 Clouds 17 1023 82 10000 5.7 90 17:43 07.10.2019
627 Rain 18 1023 72 10000 7.7 100 17:23 07.10.2019
628 Rain 19 1023 68 10000 7.7 110 16:59 07.10.2019
629 Rain 19 1023 68 10000 7.7 110 16:41 07.10.2019
630 Clouds 20 1022 64 10000 7.2 110 16:22 07.10.2019
631 Clouds 22 1022 56 10000 6.7 120 15:46 07.10.2019
632 Clouds 22 1022 53 10000 6.2 110 15:26 07.10.2019
633 Clouds 24 1021 50 10000 7.7 110 14:58 07.10.2019
634 Clouds 24 1021 50 10000 8.2 110 14:40 07.10.2019
635 Clouds 24 1021 50 10000 8.2 110 14:21 07.10.2019
636 Clouds 25 1021 44 10000 7.7 110 13:43 07.10.2019
637 Clouds 25 1021 41 10000 6.7 120 13:21 07.10.2019
638 Clouds 25 1021 41 10000 6.7 130 12:57 07.10.2019
639 Clouds 25 1021 41 10000 6.7 130 12:39 07.10.2019
640 Clouds 24 1022 47 10000 6.2 140 12:19 07.10.2019
641 Clouds 25 1022 41 10000 7.2 110 11:57 07.10.2019
642 Clouds 24 1023 44 10000 6.7 110 11:38 07.10.2019
643 Clouds 24 1023 44 10000 6.7 110 11:20 07.10.2019
644 Clouds 24 1023 47 10000 6.7 120 10:42 07.10.2019
645 Clouds 23 1023 46 10000 7.7 120 10:20 07.10.2019
646 Clouds 23 1024 46 10000 7.7 120 09:43 07.10.2019
647 Clouds 23 1024 46 10000 7.7 120 09:24 07.10.2019
648 Clouds 22 1024 49 10000 6.7 140 08:57 07.10.2019
649 Clouds 21 1024 56 10000 7.2 130 08:39 07.10.2019
650 Clouds 21 1024 56 10000 7.2 130 08:19 07.10.2019
651 Clouds 20 1024 56 10000 6.7 130 07:41 07.10.2019
652 Clouds 19 1025 59 10000 7.2 110 07:23 07.10.2019
653 Clouds 18 1025 68 10000 6.2 120 06:54 07.10.2019
654 Clouds 17 1024 72 10000 4.1 110 06:34 07.10.2019
655 Clouds 16 1024 77 10000 2.6 70 05:49 07.10.2019
656 Clouds 14 1024 87 10000 2.6 140 05:23 07.10.2019
657 Clouds 13 1024 93 10000 3.1 120 04:28 07.10.2019
658 Clouds 14 1023 87 10000 2.6 140 03:45 07.10.2019
659 Clouds 14 1023 87 10000 2.6 140 03:45 07.10.2019
660 Clouds 14 1023 87 10000 3.1 100 03:21 07.10.2019
661 Clouds 14 1023 87 10000 3.1 100 03:21 07.10.2019
662 Clouds 15 1023 87 10000 3.1 120 02:22 07.10.2019
663 Clouds 15 1023 87 10000 3.1 120 02:22 07.10.2019
664 Clouds 15 1023 87 10000 3.6 90 01:52 07.10.2019
665 Clouds 15 1023 87 10000 3.6 90 01:21 07.10.2019
666 Clouds 15 1023 87 10000 3.6 110 00:39 07.10.2019
667 Clouds 14 1024 87 10000 1 0 00:20 07.10.2019
668 Clouds 15 1024 82 10000 3.6 110 23:42 06.10.2019
669 Clouds 15 1024 82 10000 3.6 110 23:42 06.10.2019
670 Clouds 15 1024 82 10000 3.6 110 23:42 06.10.2019
671 Clouds 15 1024 82 10000 3.6 110 23:42 06.10.2019
672 Clouds 15 1024 82 10000 3.6 110 23:22 06.10.2019
673 Clouds 15 1024 87 10000 4.6 90 22:59 06.10.2019
674 Clouds 15 1024 87 10000 4.6 90 22:41 06.10.2019
675 Clouds 15 1025 87 10000 5.1 110 22:22 06.10.2019
676 Clouds 16 1025 82 10000 5.1 120 21:58 06.10.2019
677 Clouds 16 1025 82 10000 4.1 110 21:38 06.10.2019
678 Clouds 16 1025 82 10000 4.1 110 21:19 06.10.2019
679 Clouds 16 1025 82 10000 3.1 120 20:58 06.10.2019
680 Clouds 16 1025 82 10000 3.1 120 20:58 06.10.2019
681 Clouds 16 1025 82 10000 3.1 120 20:40 06.10.2019
682 Clouds 17 1024 82 10000 4.6 90 20:21 06.10.2019
683 Clouds 17 1024 82 10000 5.1 100 19:57 06.10.2019
684 Clouds 17 1024 82 10000 4.1 90 19:37 06.10.2019
685 Clouds 17 1024 82 10000 4.1 90 19:19 06.10.2019
686 Clouds 18 1024 77 10000 5.1 90 18:57 06.10.2019
687 Clouds 18 1024 77 10000 6.7 100 18:38 06.10.2019
688 Clouds 18 1024 77 10000 6.7 100 18:19 06.10.2019
689 Clouds 18 1024 77 10000 6.7 100 18:19 06.10.2019
690 Clouds 18 1023 77 10000 6.2 90 17:57 06.10.2019
691 Clouds 18 1023 77 10000 6.2 90 17:39 06.10.2019
692 Clouds 19 1023 72 10000 6.2 100 17:19 06.10.2019
693 Clouds 20 1022 68 10000 5.7 90 16:42 06.10.2019
694 Clouds 21 1022 64 10000 6.2 110 16:23 06.10.2019
695 Clouds 22 1022 56 10000 6.7 100 15:54 06.10.2019
696 Clouds 21 1022 64 10000 7.2 100 15:36 06.10.2019
697 Clouds 21 1022 64 10000 7.2 100 15:18 06.10.2019
698 Clouds 21 1022 60 10000 8.2 110 14:42 06.10.2019
699 Clouds 21 1022 60 10000 8.2 110 14:42 06.10.2019
700 Clouds 21 1022 60 10000 8.2 110 14:42 06.10.2019
701 Clouds 22 1022 60 10000 10.3 110 14:24 06.10.2019
702 Clouds 24 1021 50 10000 6.7 130 13:56 06.10.2019
703 Clouds 24 1021 50 10000 6.7 130 13:56 06.10.2019
704 Clouds 25 1021 47 10000 6.2 120 13:37 06.10.2019
705 Clouds 25 1021 47 10000 6.2 120 13:19 06.10.2019
706 Clouds 25 1022 44 10000 6.2 110 12:56 06.10.2019
707 Clouds 25 1022 47 10000 6.2 120 12:37 06.10.2019
708 Clouds 25 1022 47 10000 6.2 120 12:19 06.10.2019
709 Clouds 24 1022 47 10000 5.7 130 11:43 06.10.2019
710 Clouds 25 1023 44 10000 6.2 110 11:25 06.10.2019
711 Clouds 23 1023 49 10000 6.2 120 10:58 06.10.2019
712 Clouds 24 1024 47 10000 7.2 110 10:39 06.10.2019
713 Clouds 24 1024 47 10000 7.2 110 10:21 06.10.2019
714 Clouds 24 1024 47 10000 6.7 110 09:42 06.10.2019
715 Clouds 24 1024 47 10000 6.7 110 09:42 06.10.2019
716 Clouds 22 1024 56 10000 5.7 120 09:21 06.10.2019
717 Clouds 22 1024 56 10000 5.7 120 09:21 06.10.2019
718 Clouds 21 1024 56 10000 5.1 140 08:59 06.10.2019
719 Clouds 21 1024 56 10000 5.1 140 08:39 06.10.2019
720 Clouds 20 1024 64 10000 5.7 120 08:19 06.10.2019
721 Clouds 19 1025 68 10000 3.1 100 07:41 06.10.2019
722 Clouds 19 1024 68 10000 2.6 120 06:59 06.10.2019
723 Clouds 17 1024 77 10000 2.6 150 06:18 06.10.2019
724 Clouds 15 1023 87 10000 3.1 160 04:44 06.10.2019
725 Clouds 15 1023 87 10000 2.6 140 02:56 06.10.2019
726 Clouds 15 1023 87 10000 3.1 150 02:37 06.10.2019
727 Clouds 16 1023 82 10000 4.1 110 01:50 06.10.2019
728 Clouds 15 1023 87 10000 3.6 90 01:31 06.10.2019
729 Clouds 16 1023 82 10000 4.6 100 00:59 06.10.2019
730 Clouds 16 1023 82 10000 4.6 100 00:40 06.10.2019
731 Clouds 16 1023 82 10000 3.6 90 00:20 06.10.2019
732 Clouds 16 1023 82 10000 4.1 90 23:42 05.10.2019
733 Clouds 17 1024 82 10000 4.6 90 23:20 05.10.2019
734 Clouds 17 1024 82 10000 4.6 100 22:56 05.10.2019
735 Clouds 17 1024 82 10000 3.1 80 22:37 05.10.2019
736 Clouds 17 1024 82 10000 3.1 80 22:19 05.10.2019
737 Clouds 17 1024 82 10000 3.6 80 21:42 05.10.2019
738 Clouds 17 1024 82 10000 3.6 80 21:22 05.10.2019
739 Clouds 17 1024 82 10000 4.1 80 20:58 05.10.2019
740 Clouds 17 1024 82 10000 4.1 80 20:58 05.10.2019
741 Clouds 17 1024 82 10000 4.1 80 20:39 05.10.2019
742 Clouds 17 1024 88 10000 5.7 110 20:19 05.10.2019
743 Clouds 17 1024 88 10000 5.7 110 20:19 05.10.2019
744 Clouds 18 1024 77 10000 5.1 90 19:56 05.10.2019
745 Clouds 18 1023 82 10000 6.7 100 19:36 05.10.2019
746 Clouds 18 1023 82 10000 6.7 100 19:18 05.10.2019
747 Clouds 19 1023 77 10000 6.2 100 18:54 05.10.2019
748 Clouds 20 1023 68 10000 6.7 100 18:36 05.10.2019
749 Clouds 20 1023 68 10000 6.7 100 18:18 05.10.2019
750 Clouds 20 1023 68 10000 6.7 100 18:18 05.10.2019
751 Clouds 21 1023 60 10000 6.2 100 17:41 05.10.2019
752 Clouds 21 1022 60 10000 6.7 110 17:21 05.10.2019
753 Clouds 22 1021 56 10000 7.2 110 16:55 05.10.2019
754 Clouds 23 1021 49 10000 7.2 100 16:36 05.10.2019
755 Clouds 23 1021 49 10000 7.2 100 16:18 05.10.2019
756 Clouds 24 1021 47 10000 7.2 100 15:55 05.10.2019
757 Clouds 24 1021 47 10000 7.2 100 15:55 05.10.2019
758 Clouds 25 1020 44 10000 5.1 100 15:36 05.10.2019
759 Clouds 25 1020 44 10000 5.1 100 15:18 05.10.2019
760 Clouds 25 1021 44 10000 4.6 110 14:41 05.10.2019
761 Clouds 27 1021 39 10000 4.6 120 14:20 05.10.2019
762 Clouds 27 1021 39 10000 4.1 120 13:43 05.10.2019
763 Clouds 27 1021 39 10000 5.7 110 13:24 05.10.2019
764 Clouds 27 1021 39 10000 5.1 120 12:58 05.10.2019
765 Clouds 27 1021 39 10000 5.1 120 12:40 05.10.2019
766 Clouds 28 1021 34 10000 3.6 90 12:18 05.10.2019
767 Clouds 28 1022 34 10000 5.1 70 11:39 05.10.2019
768 Clouds 27 1022 34 10000 3.1 0 11:19 05.10.2019
769 Clouds 26 1023 44 10000 3.6 0 10:54 05.10.2019
770 Clouds 25 1023 44 10000 4.1 170 10:36 05.10.2019
771 Clouds 25 1023 44 10000 4.1 170 10:18 05.10.2019
772 Clouds 25 1023 44 10000 3.1 170 09:39 05.10.2019
773 Clouds 24 1023 50 10000 3.6 170 09:21 05.10.2019
774 Clouds 23 1023 53 10000 3.1 150 08:41 05.10.2019
775 Clouds 23 1023 53 10000 3.1 150 08:21 05.10.2019
776 Clouds 23 1023 53 10000 3.1 150 08:21 05.10.2019
777 Clouds 21 1023 60 10000 4.1 100 07:58 05.10.2019
778 Clouds 20 1024 64 10000 3.1 100 07:37 05.10.2019
779 Clouds 20 1024 64 10000 3.1 100 07:19 05.10.2019
780 Clouds 17 1023 77 10000 2.6 140 06:28 05.10.2019
781 Clouds 15 1023 87 10000 3.6 110 05:59 05.10.2019
782 Clouds 14 1022 93 10000 3.1 100 04:42 05.10.2019
783 Clouds 15 1022 87 10000 3.6 100 03:29 05.10.2019
784 Clouds 16 1022 87 10000 1.5 80 01:55 05.10.2019
785 Clouds 16 1023 87 10000 2.1 90 01:23 05.10.2019
786 Clouds 16 1023 87 10000 3.1 70 00:45 05.10.2019
787 Clouds 16 1023 87 10000 4.1 110 00:26 05.10.2019
788 Clouds 17 1023 82 10000 2.1 140 23:45 04.10.2019
789 Clouds 17 1023 82 10000 3.1 120 23:26 04.10.2019
790 Clouds 17 1023 88 10000 3.1 140 22:59 04.10.2019
791 Clouds 17 1023 88 10000 3.1 140 22:40 04.10.2019
792 Clouds 17 1024 88 10000 3.6 140 22:22 04.10.2019
793 Clouds 18 1024 82 10000 3.1 130 21:57 04.10.2019
794 Clouds 18 1024 82 10000 3.1 130 21:39 04.10.2019
795 Clouds 18 1024 82 10000 4.1 110 21:20 04.10.2019
796 Clouds 18 1024 82 10000 3.6 140 20:57 04.10.2019
797 Clouds 18 1024 82 10000 3.6 140 20:57 04.10.2019
798 Clouds 19 1024 77 10000 3.6 130 20:38 04.10.2019
799 Clouds 19 1024 77 10000 3.6 130 20:38 04.10.2019
800 Clouds 19 1024 77 10000 3.6 130 20:20 04.10.2019
801 Clouds 19 1024 77 10000 4.1 120 19:48 04.10.2019
802 Clouds 19 1023 77 10000 5.1 100 19:29 04.10.2019
803 Clouds 20 1023 68 10000 4.6 100 18:59 04.10.2019
804 Clouds 21 1023 64 10000 4.6 100 18:39 04.10.2019
805 Clouds 21 1023 64 10000 4.6 100 18:19 04.10.2019
806 Clouds 21 1022 64 10000 5.1 100 17:55 04.10.2019
807 Clouds 22 1022 56 10000 5.1 100 17:36 04.10.2019
808 Clouds 22 1022 56 10000 5.1 100 17:18 04.10.2019
809 Clouds 23 1021 53 10000 5.1 90 16:42 04.10.2019
810 Clouds 24 1021 47 10000 5.7 100 16:19 04.10.2019
811 Clouds 25 1021 44 10000 4.6 90 15:59 04.10.2019
812 Clouds 25 1021 44 10000 4.6 90 15:40 04.10.2019
813 Clouds 27 1021 39 10000 3.6 100 15:21 04.10.2019
814 Clouds 27 1021 39 10000 2.6 110 14:59 04.10.2019
815 Clouds 27 1021 39 10000 2.6 110 14:41 04.10.2019
816 Clouds 27 1021 39 10000 3.1 110 14:22 04.10.2019
817 Clouds 27 1021 39 10000 3.6 140 13:54 04.10.2019
818 Clouds 27 1022 39 10000 4.1 110 13:36 04.10.2019
819 Clouds 27 1022 39 10000 4.1 110 13:18 04.10.2019
820 Clouds 27 1022 42 10000 3.6 110 12:42 04.10.2019
821 Clouds 26 1022 41 10000 4.1 120 12:24 04.10.2019
822 Clouds 26 1023 41 10000 4.6 110 11:43 04.10.2019
823 Clouds 26 1023 41 10000 4.6 110 11:43 04.10.2019
824 Clouds 26 1023 41 10000 4.6 110 11:43 04.10.2019
825 Clouds 26 1023 41 10000 4.6 110 11:43 04.10.2019
826 Clouds 26 1023 44 10000 4.6 120 11:22 04.10.2019
827 Clouds 25 1024 47 10000 4.6 140 10:57 04.10.2019
828 Clouds 25 1024 47 10000 4.1 120 10:38 04.10.2019
829 Clouds 25 1024 47 10000 4.1 120 10:19 04.10.2019
830 Clouds 24 1025 50 10000 4.1 120 09:43 04.10.2019
831 Clouds 23 1025 53 10000 4.6 110 09:25 04.10.2019
832 Clouds 23 1025 53 10000 4.6 100 08:46 04.10.2019
833 Clouds 22 1025 56 10000 4.1 110 08:27 04.10.2019
834 Clouds 20 1025 64 10000 4.1 130 07:56 04.10.2019
835 Clouds 20 1025 64 10000 5.1 90 07:37 04.10.2019
836 Clouds 20 1025 64 10000 5.1 90 07:18 04.10.2019
837 Clouds 19 1025 68 10000 3.6 100 06:40 04.10.2019
838 Clouds 18 1024 72 10000 3.6 100 06:21 04.10.2019
839 Clouds 16 1024 82 10000 4.6 100 05:21 04.10.2019
840 Clouds 16 1024 82 10000 4.6 100 04:39 04.10.2019
841 Clouds 16 1023 87 10000 3.6 80 03:28 04.10.2019
842 Clouds 16 1023 87 10000 4.6 100 02:44 04.10.2019
843 Clouds 17 1023 88 10000 4.6 120 01:54 04.10.2019
844 Clouds 17 1023 88 10000 4.1 100 01:26 04.10.2019
845 Clouds 18 1024 82 10000 3.6 110 00:33 04.10.2019
846 Clouds 18 1024 82 10000 3.6 100 23:40 03.10.2019
847 Clouds 18 1024 88 10000 5.1 100 23:21 03.10.2019
848 Clouds 18 1024 88 10000 3.6 90 22:57 03.10.2019
849 Clouds 18 1024 88 10000 3.6 90 22:39 03.10.2019
850 Clouds 18 1024 88 10000 3.6 90 22:39 03.10.2019
851 Clouds 18 1024 88 10000 3.6 90 22:39 03.10.2019
852 Clouds 19 1025 77 10000 4.1 100 22:21 03.10.2019
853 Clouds 19 1025 77 10000 4.1 100 22:21 03.10.2019
854 Clouds 19 1025 82 10000 3.1 100 21:58 03.10.2019
855 Clouds 19 1025 82 10000 3.1 100 21:39 03.10.2019
856 Clouds 19 1025 82 10000 4.6 110 21:19 03.10.2019
857 Clouds 19 1024 82 10000 4.1 120 20:58 03.10.2019
858 Clouds 19 1025 82 10000 4.6 90 20:38 03.10.2019
859 Clouds 19 1025 82 10000 4.6 90 20:38 03.10.2019
860 Clouds 19 1025 82 10000 4.6 90 20:20 03.10.2019
861 Clouds 19 1024 82 10000 7.2 110 19:55 03.10.2019
862 Clouds 19 1024 82 10000 7.2 110 19:55 03.10.2019
863 Clouds 20 1024 77 10000 6.7 110 19:37 03.10.2019
864 Clouds 20 1024 77 10000 6.7 110 19:19 03.10.2019
865 Clouds 20 1024 77 10000 7.2 110 18:55 03.10.2019
866 Clouds 21 1024 68 10000 6.7 110 18:37 03.10.2019
867 Clouds 21 1024 68 10000 6.7 110 18:18 03.10.2019
868 Clouds 21 1023 73 10000 6.2 100 17:42 03.10.2019
869 Clouds 23 1023 64 10000 6.2 100 17:21 03.10.2019
870 Clouds 24 1022 57 10000 6.2 90 16:55 03.10.2019
871 Clouds 24 1022 57 10000 6.2 90 16:54 03.10.2019
872 Clouds 24 1022 57 10000 6.2 90 16:54 03.10.2019
873 Clouds 25 1022 47 10000 4.6 80 16:36 03.10.2019
874 Clouds 25 1022 47 10000 4.6 80 16:18 03.10.2019
875 Clouds 27 1021 42 10000 4.6 70 15:42 03.10.2019
876 Clouds 26 1021 44 10000 3.6 70 15:23 03.10.2019
877 Clouds 27 1021 42 10000 4.1 120 14:56 03.10.2019
878 Clouds 27 1021 42 10000 4.1 120 14:56 03.10.2019
879 Clouds 27 1021 42 10000 4.6 130 14:36 03.10.2019
880 Clouds 27 1021 42 10000 4.6 130 14:36 03.10.2019
881 Clouds 27 1021 42 10000 4.6 130 14:18 03.10.2019
882 Clouds 30 1021 33 10000 3.6 160 13:43 03.10.2019
883 Clouds 30 1021 33 10000 3.6 160 13:22 03.10.2019
884 Clouds 29 1022 35 10000 2.1 0 12:58 03.10.2019
885 Clouds 28 1022 42 10000 3.1 180 12:39 03.10.2019
886 Clouds 28 1022 42 10000 3.1 180 12:19 03.10.2019
887 Clouds 28 1022 42 10000 3.1 180 12:19 03.10.2019
888 Clouds 27 1022 42 10000 3.6 180 11:55 03.10.2019
889 Clouds 26 1023 41 10000 2.6 150 11:37 03.10.2019
890 Clouds 26 1023 41 10000 2.6 150 11:18 03.10.2019
891 Clouds 26 1024 39 10000 4.1 120 10:41 03.10.2019
892 Clouds 26 1024 39 10000 4.1 120 10:19 03.10.2019
893 Clouds 26 1024 39 10000 4.1 120 10:19 03.10.2019
894 Clouds 25 1024 41 10000 4.1 120 09:58 03.10.2019
895 Clouds 25 1024 41 10000 4.1 120 09:40 03.10.2019
896 Clouds 24 1024 50 10000 3.6 80 09:21 03.10.2019
897 Clouds 23 1025 56 10000 2.6 70 08:46 03.10.2019
898 Clouds 22 1025 56 10000 3.6 120 08:28 03.10.2019
899 Clouds 22 1025 60 10000 3.6 130 07:59 03.10.2019
900 Clouds 22 1025 60 10000 3.6 130 07:59 03.10.2019
901 Clouds 22 1025 60 10000 3.6 130 07:41 03.10.2019
902 Clouds 21 1025 64 10000 3.1 80 07:19 03.10.2019
903 Clouds 19 1025 72 10000 4.6 60 06:50 03.10.2019
904 Clouds 17 1025 82 10000 3.1 60 06:24 03.10.2019
905 Clouds 16 1024 87 10000 2.6 70 05:46 03.10.2019
906 Clouds 16 1024 87 10000 2.1 70 05:19 03.10.2019
907 Clouds 16 1025 87 10000 2.6 90 04:27 03.10.2019
908 Clouds 16 1024 87 10000 2.6 60 03:24 03.10.2019
909 Clouds 16 1024 87 10000 1.5 0 02:39 03.10.2019
910 Clouds 16 1024 93 10000 3.1 80 01:52 03.10.2019
911 Clouds 16 1024 93 10000 3.6 90 01:33 03.10.2019
912 Clouds 17 1024 88 10000 2.6 110 00:49 03.10.2019
913 Clouds 17 1024 88 10000 1.5 0 00:19 03.10.2019
914 Clouds 17 1025 88 10000 2.1 170 23:43 02.10.2019
915 Clouds 17 1024 88 10000 2.6 130 23:21 02.10.2019
916 Clouds 17 1025 88 10000 2.1 160 22:44 02.10.2019
917 Clouds 17 1025 88 10000 2.1 160 22:44 02.10.2019
918 Clouds 17 1025 88 10000 2.6 140 22:22 02.10.2019
919 Clouds 17 1024 88 10000 3.6 140 21:57 02.10.2019
920 Clouds 17 1024 88 10000 3.6 140 21:57 02.10.2019
921 Clouds 17 1024 88 10000 2.6 140 21:38 02.10.2019
922 Clouds 17 1024 88 10000 2.6 140 21:20 02.10.2019
923 Clouds 17 1024 88 10000 2.6 140 21:20 02.10.2019
924 Clouds 17 1024 88 10000 3.6 100 20:57 02.10.2019
925 Clouds 18 1024 82 10000 5.1 110 20:38 02.10.2019
926 Clouds 18 1024 82 10000 5.1 110 20:20 02.10.2019
927 Clouds 18 1024 82 10000 4.6 120 19:54 02.10.2019
928 Clouds 18 1023 82 10000 3.6 120 19:36 02.10.2019
929 Clouds 18 1023 82 10000 3.6 120 19:36 02.10.2019
930 Clouds 18 1023 82 10000 3.6 120 19:18 02.10.2019
931 Clouds 19 1022 77 10000 4.1 90 18:55 02.10.2019
932 Clouds 19 1022 77 10000 3.1 90 18:36 02.10.2019
933 Clouds 19 1022 77 10000 3.1 90 18:18 02.10.2019
934 Clouds 21 1021 64 10000 4.6 90 17:42 02.10.2019
935 Clouds 21 1021 64 10000 4.6 90 17:21 02.10.2019
936 Clouds 21 1021 64 10000 4.6 90 17:21 02.10.2019
937 Clouds 22 1021 60 10000 4.6 90 16:58 02.10.2019
938 Clouds 25 1020 47 10000 5.7 80 16:38 02.10.2019
939 Clouds 25 1020 47 10000 5.7 80 16:20 02.10.2019
940 Clouds 25 1020 47 10000 5.7 80 15:56 02.10.2019
941 Clouds 26 1020 44 10000 5.7 90 15:37 02.10.2019
942 Clouds 26 1020 44 10000 5.7 90 15:18 02.10.2019
943 Clouds 26 1020 44 10000 5.7 90 15:18 02.10.2019
944 Clouds 27 1020 39 10000 5.7 70 14:44 02.10.2019
945 Clouds 27 1020 42 10000 6.2 90 14:25 02.10.2019
946 Clouds 28 1021 34 10000 5.7 60 13:57 02.10.2019
947 Clouds 28 1021 34 10000 5.7 60 13:39 02.10.2019
948 Clouds 28 1021 32 10000 4.6 80 13:21 02.10.2019
949 Clouds 28 1021 37 10000 5.1 110 12:40 02.10.2019
950 Clouds 28 1022 34 10000 4.6 90 12:22 02.10.2019
951 Clouds 28 1022 34 10000 4.6 90 12:22 02.10.2019
952 Clouds 27 1022 42 10000 5.1 120 11:59 02.10.2019
953 Clouds 27 1022 42 10000 5.1 120 11:41 02.10.2019
954 Clouds 27 1022 42 10000 4.1 120 11:20 02.10.2019
955 Clouds 26 1023 47 10000 4.6 130 10:38 02.10.2019
956 Clouds 26 1023 47 10000 4.1 130 10:19 02.10.2019
957 Clouds 26 1023 41 10000 5.1 100 09:41 02.10.2019
958 Clouds 25 1023 47 10000 4.1 110 09:20 02.10.2019
959 Clouds 24 1023 57 10000 4.6 90 08:56 02.10.2019
960 Clouds 24 1023 57 10000 4.6 90 08:56 02.10.2019
961 Clouds 24 1023 57 10000 4.6 90 08:38 02.10.2019
962 Clouds 23 1023 60 10000 4.1 110 08:19 02.10.2019
963 Clouds 20 1023 77 10000 3.6 100 07:41 02.10.2019
964 Clouds 19 1023 82 10000 1.5 0 07:22 02.10.2019
965 Clouds 18 1023 82 10000 2.1 160 06:57 02.10.2019
966 Clouds 17 1023 93 10000 2.6 110 05:56 02.10.2019
967 Clouds 17 1022 88 10000 2.1 130 05:25 02.10.2019
968 Clouds 17 1022 88 10000 2.1 130 05:25 02.10.2019
969 Clouds 17 1022 88 10000 2.1 120 04:58 02.10.2019
970 Clouds 17 1021 93 10000 3.6 90 03:53 02.10.2019
971 Clouds 17 1021 93 10000 3.6 90 03:19 02.10.2019
972 Clouds 17 1021 93 10000 1 0 02:25 02.10.2019
973 Clouds 17 1021 93 10000 1 0 02:25 02.10.2019
974 Clouds 17 1021 93 10000 1 0 01:52 02.10.2019
975 Clouds 17 1021 93 10000 2.1 340 00:51 02.10.2019
976 Clouds 17 1021 93 10000 1 0 00:29 02.10.2019
977 Clouds 17 1021 93 10000 0.5 0 23:46 01.10.2019
978 Clouds 17 1022 93 10000 1 0 23:27 01.10.2019
979 Clouds 17 1022 93 10000 1.5 100 22:59 01.10.2019
980 Clouds 17 1022 93 10000 1.5 100 22:41 01.10.2019
981 Clouds 17 1023 93 10000 3.6 70 22:20 01.10.2019
982 Rain 17 1024 93 8000 0.5 0 21:58 01.10.2019
983 Rain 17 1024 93 8000 0.5 0 21:39 01.10.2019
984 Rain 17 1024 93 8000 1.81 92.97 21:21 01.10.2019
985 Thunderstorm 17 1024 93 7000 1.5 0 20:57 01.10.2019
986 Thunderstorm 17 1024 93 7000 1.5 0 20:38 01.10.2019
987 Thunderstorm 16 1024 100 7000 2.6 210 20:19 01.10.2019
988 Thunderstorm 17 1024 93 7000 3.1 270 19:56 01.10.2019
989 Thunderstorm 17 1023 93 7000 2.1 300 19:38 01.10.2019
990 Thunderstorm 17 1023 93 7000 2.1 300 19:18 01.10.2019
991 Thunderstorm 17 1022 88 7000 1.5 110 18:40 01.10.2019
992 Thunderstorm 17 1022 93 8000 3.6 160 18:22 01.10.2019
993 Thunderstorm 17 1022 93 6000 3.6 150 17:58 01.10.2019
994 Thunderstorm 17 1022 93 6000 3.6 150 17:40 01.10.2019
995 Thunderstorm 17 1022 93 6000 3.6 140 17:19 01.10.2019
996 Thunderstorm 17 1021 93 6000 5.7 200 16:57 01.10.2019
997 Thunderstorm 17 1021 93 6000 5.7 200 16:39 01.10.2019
998 Thunderstorm 19 1021 82 4500 5.7 200 16:21 01.10.2019
999 Thunderstorm 19 1021 82 4500 5.7 200 16:21 01.10.2019
1000 Thunderstorm 23 1020 56 10000 6.2 270 15:42 01.10.2019
1001 Clouds 27 1018 51 10000 5.7 60 15:23 01.10.2019
1002 Clouds 27 1018 51 10000 6.7 50 14:41 01.10.2019
1003 Clouds 29 1018 42 10000 5.7 60 14:21 01.10.2019
1004 Clouds 29 1018 42 10000 5.7 70 13:58 01.10.2019
1005 Clouds 29 1018 42 10000 5.7 70 13:39 01.10.2019
1006 Clouds 29 1019 45 10000 4.1 30 13:21 01.10.2019
1007 Clouds 29 1019 45 10000 2.6 60 12:58 01.10.2019
1008 Clouds 29 1019 45 10000 2.6 60 12:39 01.10.2019
1009 Clouds 29 1020 45 10000 4.1 40 12:19 01.10.2019
1010 Clouds 28 1020 51 10000 5.7 360 11:58 01.10.2019
1011 Clouds 28 1020 51 10000 5.7 360 11:38 01.10.2019
1012 Clouds 28 1020 51 10000 4.6 50 11:18 01.10.2019
1013 Clouds 27 1021 54 10000 3.6 40 10:49 01.10.2019
1014 Clouds 26 1021 57 10000 2.6 40 10:29 01.10.2019
1015 Clouds 26 1021 57 10000 3.1 50 09:49 01.10.2019
1016 Clouds 25 1021 61 10000 2.6 0 09:31 01.10.2019
1017 Clouds 24 1022 64 10000 4.1 30 08:57 01.10.2019
1018 Clouds 24 1022 64 10000 4.1 30 08:39 01.10.2019
1019 Clouds 24 1022 64 10000 4.1 30 08:39 01.10.2019
1020 Clouds 24 1022 64 10000 3.1 50 08:21 01.10.2019
1021 Clouds 23 1022 69 10000 2.1 50 07:43 01.10.2019
1022 Clouds 22 1022 73 10000 2.1 60 07:24 01.10.2019
1023 Clouds 21 1022 77 10000 2.1 60 06:46 01.10.2019
1024 Clouds 20 1021 82 10000 1 0 06:18 01.10.2019
1025 Clouds 17 1021 100 10000 1 70 05:45 01.10.2019
1026 Clouds 16 1021 100 10000 1 40 04:50 01.10.2019
1027 Clouds 16 1020 100 10000 1.5 60 04:26 01.10.2019
1028 Clouds 16 1020 100 10000 1.5 40 02:26 01.10.2019
1029 Clouds 17 1020 93 10000 1 0 01:58 01.10.2019
1030 Clouds 17 1020 93 10000 2.1 30 00:53 01.10.2019
1031 Clouds 17 1020 93 10000 1.5 30 00:26 01.10.2019
1032 Clouds 18 1021 88 10000 2.6 30 23:55 30.09.2019
1033 Clouds 18 1021 93 10000 4.6 20 23:37 30.09.2019
1034 Clouds 18 1021 93 10000 4.6 20 23:18 30.09.2019
1035 Clouds 18 1021 93 10000 1.5 60 22:42 30.09.2019
1036 Clouds 18 1021 93 10000 1.5 60 22:24 30.09.2019
1037 Clouds 18 1021 93 10000 2.1 120 21:56 30.09.2019
1038 Clouds 18 1021 93 10000 3.1 80 21:38 30.09.2019
1039 Clouds 18 1021 93 10000 3.1 80 21:19 30.09.2019
1040 Rain 18 1021 93 10000 2.6 70 20:55 30.09.2019
1041 Rain 18 1021 93 10000 2.6 70 20:55 30.09.2019
1042 Rain 18 1021 93 10000 2.6 100 20:36 30.09.2019
1043 Rain 18 1021 93 10000 2.6 100 20:36 30.09.2019
1044 Rain 18 1021 93 10000 2.6 100 20:18 30.09.2019
1045 Clouds 18 1021 93 10000 2.1 90 19:54 30.09.2019
1046 Clouds 18 1021 93 10000 2.1 90 19:36 30.09.2019
1047 Clouds 18 1020 93 10000 3.6 90 19:18 30.09.2019
1048 Thunderstorm 18 1019 93 10000 4.1 60 18:41 30.09.2019
1049 Thunderstorm 18 1019 88 10000 5.7 50 18:21 30.09.2019
1050 Thunderstorm 19 1018 82 10000 6.2 60 17:57 30.09.2019
1051 Thunderstorm 19 1018 82 10000 6.2 60 17:57 30.09.2019
1052 Thunderstorm 19 1018 82 10000 6.2 60 17:57 30.09.2019
1053 Thunderstorm 19 1018 82 10000 6.2 60 17:39 30.09.2019
1054 Thunderstorm 20 1018 77 10000 6.7 50 17:19 30.09.2019
1055 Clouds 22 1017 73 10000 3.6 80 16:54 30.09.2019
1056 Clouds 22 1017 73 10000 3.6 80 16:36 30.09.2019
1057 Clouds 23 1016 69 10000 1.5 40 16:18 30.09.2019
1058 Clouds 22 1016 88 10000 2.6 80 15:39 30.09.2019
1059 Clouds 22 1016 88 10000 2.6 80 15:39 30.09.2019
1060 Clouds 23 1016 69 10000 3.6 20 15:39 30.09.2019
1061 Clouds 22 1016 88 10000 2.6 80 15:20 30.09.2019
1062 Thunderstorm 20 1017 77 6000 5.1 70 14:58 30.09.2019
1063 Thunderstorm 20 1017 77 6000 5.1 70 14:38 30.09.2019
1064 Thunderstorm 24 1016 60 4000 8.2 70 14:19 30.09.2019
1065 Clouds 28 1016 51 10000 2.1 310 13:59 30.09.2019
1066 Clouds 28 1016 51 10000 2.1 310 13:41 30.09.2019
1067 Clouds 29 1016 39 10000 3.1 0 13:22 30.09.2019
1068 Clouds 29 1017 37 10000 2.6 330 12:55 30.09.2019
1069 Clouds 29 1017 37 10000 2.6 330 12:55 30.09.2019
1070 -273 0 0 0 0 0 12:55 30.09.2019
1071 Clouds 31 1017 35 10000 2.6 10 12:36 30.09.2019
1072 Clouds 31 1017 35 10000 2.6 10 12:18 30.09.2019
1073 Clouds 29 1018 37 10000 2.1 300 11:43 30.09.2019
1074 Clouds 29 1018 37 10000 2.1 0 11:21 30.09.2019
1075 Clouds 28 1018 39 10000 3.1 300 10:57 30.09.2019
1076 Clouds 28 1018 39 10000 3.1 300 10:38 30.09.2019
1077 Clouds 29 1019 37 10000 3.1 0 10:18 30.09.2019
1078 Clouds 29 1019 37 10000 3.1 0 10:18 30.09.2019
1079 Clouds 29 1019 39 10000 4.1 30 09:55 30.09.2019
1080 Clouds 29 1020 42 10000 2.1 0 09:36 30.09.2019
1081 Clouds 29 1020 42 10000 2.1 0 09:18 30.09.2019
1082 Clouds 28 1020 48 10000 2.1 0 08:45 30.09.2019
1083 Clouds 26 1020 57 10000 1 0 08:27 30.09.2019
1084 Clouds 24 1020 64 10000 1.5 0 07:40 30.09.2019
1085 Clouds 24 1020 64 10000 1 0 07:19 30.09.2019
1086 Clouds 22 1020 73 10000 1.5 0 06:47 30.09.2019
1087 Clouds 20 1020 82 10000 2.1 70 06:27 30.09.2019
1088 Clouds 19 1019 88 10000 1.5 0 05:41 30.09.2019
1089 Clouds 17 1019 88 10000 0.9 101.97 02:54 30.09.2019
1090 Clouds 18 1019 88 10000 1.5 50 02:36 30.09.2019
1091 Clouds 19 1019 82 10000 2.6 350 01:31 30.09.2019
1092 Clouds 20 1019 77 10000 2.1 20 00:38 30.09.2019
1093 Clouds 20 1019 77 10000 2.1 20 00:19 30.09.2019
1094 Clouds 20 1019 77 10000 2.1 50 23:42 29.09.2019
1095 Clouds 21 1019 73 10000 2.6 50 23:21 29.09.2019
1096 Clouds 21 1020 73 10000 2.6 50 22:55 29.09.2019
1097 Clouds 21 1020 73 10000 2.6 50 22:36 29.09.2019
1098 Clouds 21 1020 73 10000 2.6 50 22:36 29.09.2019
1099 Clouds 21 1020 73 10000 3.6 40 22:18 29.09.2019
1100 Clouds 22 1020 68 10000 3.6 20 21:55 29.09.2019
1101 Clouds 22 1020 68 10000 2.1 50 21:36 29.09.2019
1102 Clouds 22 1020 68 10000 2.1 50 21:18 29.09.2019
1103 Clouds 22 1020 73 10000 1 0 20:43 29.09.2019
1104 Clouds 21 1020 73 10000 1 0 20:19 29.09.2019
1105 Clouds 21 1019 73 10000 1 0 19:57 29.09.2019
1106 Clouds 21 1019 73 10000 2.6 90 19:37 29.09.2019
1107 Clouds 21 1019 73 10000 2.6 90 19:18 29.09.2019
1108 Clouds 22 1019 68 10000 1.5 0 18:55 29.09.2019
1109 Clouds 24 1018 57 10000 1.5 0 18:37 29.09.2019
1110 Clouds 24 1018 57 10000 1.5 0 18:18 29.09.2019
1111 Clouds 24 1018 47 10000 1.5 270 17:55 29.09.2019
1112 Clouds 24 1018 47 10000 1.5 270 17:55 29.09.2019
1113 Clouds 24 1018 47 10000 1.5 270 17:55 29.09.2019
1114 Clouds 25 1018 47 10000 2.6 320 17:37 29.09.2019
1115 Clouds 25 1018 47 10000 2.6 320 17:19 29.09.2019
1116 Clouds 26 1017 41 10000 3.1 310 16:55 29.09.2019
1117 Clouds 26 1017 41 10000 3.1 310 16:55 29.09.2019
1118 Clouds 27 1017 42 10000 3.1 310 16:37 29.09.2019
1119 Clouds 27 1017 42 10000 3.1 310 16:18 29.09.2019
1120 Clouds 27 1017 39 10000 3.1 330 15:41 29.09.2019
1121 Clouds 27 1017 39 10000 4.6 310 15:19 29.09.2019
1122 Clouds 27 1017 42 10000 3.1 0 14:59 29.09.2019
1123 Clouds 27 1017 42 10000 3.1 0 14:39 29.09.2019
1124 Clouds 28 1017 39 10000 3.1 310 14:20 29.09.2019
1125 Clouds 28 1017 39 10000 4.1 60 13:57 29.09.2019
1126 Clouds 28 1017 39 10000 4.1 60 13:39 29.09.2019
1127 Clouds 29 1018 37 10000 2.6 0 13:18 29.09.2019
1128 Clouds 27 1018 42 10000 3.1 50 12:57 29.09.2019
1129 Clouds 27 1018 42 10000 3.1 50 12:38 29.09.2019
1130 Clouds 28 1018 42 10000 1.5 0 12:20 29.09.2019
1131 Clouds 27 1019 44 10000 2.1 120 11:55 29.09.2019
1132 Clouds 27 1019 44 10000 2.1 0 11:36 29.09.2019
1133 Clouds 27 1019 44 10000 2.1 0 11:18 29.09.2019
1134 Clouds 27 1020 44 10000 1.5 0 10:55 29.09.2019
1135 Clouds 25 1021 53 10000 1.5 0 10:36 29.09.2019
1136 Clouds 25 1021 53 10000 1.5 0 10:18 29.09.2019
1137 Clouds 25 1021 53 10000 2.6 180 09:42 29.09.2019
1138 Clouds 24 1022 60 10000 3.1 200 09:20 29.09.2019
1139 Clouds 24 1022 57 10000 1.5 0 08:43 29.09.2019
1140 Clouds 24 1022 60 10000 2.1 30 08:22 29.09.2019
1141 Clouds 21 1022 68 10000 2.6 20 07:46 29.09.2019
1142 Clouds 21 1022 73 10000 3.1 30 07:27 29.09.2019
1143 Clouds 19 1022 82 10000 3.6 40 06:57 29.09.2019
1144 Clouds 18 1021 88 10000 2.1 70 06:34 29.09.2019
1145 Clouds 17 1021 93 10000 1 0 04:54 29.09.2019
1146 Clouds 17 1020 93 10000 2.1 50 04:24 29.09.2019
1147 Clouds 17 1020 93 10000 2.1 30 03:42 29.09.2019
1148 Clouds 17 1020 93 10000 2.1 50 02:28 29.09.2019
1149 Clouds 17 1020 93 10000 2.1 50 01:46 29.09.2019
1150 Clouds 17 1020 93 10000 2.1 60 01:23 29.09.2019
1151 Clouds 18 1021 88 10000 2.1 20 00:41 29.09.2019
1152 Clouds 17 1021 93 10000 2.1 40 00:19 29.09.2019
1153 Clouds 17 1021 93 10000 2.1 30 23:40 28.09.2019
1154 Clouds 17 1021 88 10000 3.1 50 23:21 28.09.2019
1155 Clouds 17 1022 88 10000 3.6 30 22:42 28.09.2019
1156 Clouds 18 1022 88 10000 4.6 40 22:23 28.09.2019
1157 Clouds 18 1022 82 10000 3.6 30 21:59 28.09.2019
1158 Clouds 18 1022 82 10000 3.6 30 21:40 28.09.2019
1159 Clouds 18 1022 88 10000 2.1 30 21:21 28.09.2019
1160 Clouds 18 1022 88 10000 2.1 60 20:59 28.09.2019
1161 Clouds 18 1022 88 10000 2.1 60 20:41 28.09.2019
1162 Clouds 18 1022 88 10000 3.1 60 20:21 28.09.2019
1163 Clouds 18 1022 88 10000 3.6 50 19:58 28.09.2019
1164 Clouds 18 1021 88 10000 4.6 60 19:39 28.09.2019
1165 Clouds 18 1021 88 10000 4.6 60 19:21 28.09.2019
1166 Clouds 18 1021 88 10000 5.1 60 18:58 28.09.2019
1167 Clouds 18 1021 88 10000 5.1 60 18:58 28.09.2019
1168 Clouds 18 1021 88 10000 5.1 60 18:39 28.09.2019
1169 Clouds 19 1021 82 10000 5.1 60 18:21 28.09.2019
1170 Clouds 19 1021 82 10000 4.6 60 17:57 28.09.2019
1171 Clouds 19 1021 82 10000 4.6 60 17:38 28.09.2019
1172 Clouds 20 1020 77 10000 5.1 60 17:20 28.09.2019
1173 Clouds 20 1020 72 10000 5.7 60 16:44 28.09.2019
1174 Clouds 21 1020 68 10000 6.7 60 16:25 28.09.2019
1175 Clouds 22 1020 64 10000 6.7 50 15:42 28.09.2019
1176 Clouds 23 1019 56 10000 7.7 50 15:23 28.09.2019
1177 Clouds 24 1019 57 10000 6.7 50 14:58 28.09.2019
1178 Clouds 24 1019 57 10000 6.7 50 14:40 28.09.2019
1179 Clouds 25 1019 50 10000 6.7 60 14:21 28.09.2019
1180 Clouds 25 1019 50 10000 5.1 50 13:58 28.09.2019
1181 Clouds 25 1019 50 10000 5.1 50 13:38 28.09.2019
1182 Clouds 26 1020 50 10000 5.1 70 13:20 28.09.2019
1183 Clouds 23 1020 56 10000 5.1 40 12:45 28.09.2019
1184 Clouds 23 1020 56 10000 2.6 90 12:20 28.09.2019
1185 Clouds 24 1021 53 10000 2.1 80 11:56 28.09.2019
1186 Clouds 24 1021 53 10000 2.1 80 11:37 28.09.2019
1187 Clouds 24 1021 50 10000 3.6 60 11:18 28.09.2019
1188 Clouds 24 1021 53 10000 4.1 70 10:43 28.09.2019
1189 Clouds 23 1022 56 10000 5.1 60 10:20 28.09.2019
1190 Clouds 23 1023 56 10000 4.1 50 09:57 28.09.2019
1191 Clouds 23 1023 56 10000 4.1 50 09:39 28.09.2019
1192 Clouds 22 1023 60 10000 4.6 60 09:18 28.09.2019
1193 Clouds 21 1023 64 10000 5.1 60 08:46 28.09.2019
1194 Clouds 19 1023 68 10000 3.1 100 08:28 28.09.2019
1195 Clouds 18 1023 72 10000 2.6 110 07:45 28.09.2019
1196 Clouds 18 1023 72 10000 2.6 110 07:45 28.09.2019
1197 Clouds 17 1023 72 10000 2.6 130 07:23 28.09.2019
1198 Clouds 17 1023 72 10000 2.6 100 06:55 28.09.2019
1199 Clouds 16 1023 72 10000 2.1 140 06:32 28.09.2019
1200 Clouds 15 1023 77 10000 2.1 130 05:55 28.09.2019
1201 Clouds 15 1022 77 10000 2.1 130 05:21 28.09.2019
1202 Clouds 15 1022 77 10000 2.1 130 04:40 28.09.2019
1203 Clouds 15 1022 82 10000 4.6 100 03:59 28.09.2019
1204 Clouds 15 1022 82 10000 4.6 100 03:24 28.09.2019
1205 Clouds 15 1022 82 10000 3.6 90 02:57 28.09.2019
1206 Clouds 15 1022 82 10000 3.6 90 02:34 28.09.2019
1207 Clouds 15 1022 87 10000 3.1 140 01:50 28.09.2019
1208 Clouds 16 1022 82 10000 3.6 140 01:27 28.09.2019
1209 Clouds 15 1022 87 10000 2.6 130 00:58 28.09.2019
1210 Clouds 15 1022 87 10000 2.6 130 00:38 28.09.2019
1211 Clouds 15 1022 87 10000 2.6 150 00:18 28.09.2019
1212 Clouds 15 1023 82 10000 3.1 110 23:38 27.09.2019
1213 Clouds 15 1023 82 10000 3.1 110 23:38 27.09.2019
1214 Clouds 15 1023 82 10000 3.1 110 23:19 27.09.2019
1215 Clouds 16 1023 77 10000 3.1 140 22:47 27.09.2019
1216 Clouds 16 1023 82 10000 2.6 150 22:20 27.09.2019
1217 Clouds 16 1023 82 10000 4.1 100 21:58 27.09.2019
1218 Clouds 16 1023 82 10000 4.1 100 21:39 27.09.2019
1219 Clouds 16 1023 82 10000 4.1 120 21:20 27.09.2019
1220 Clouds 17 1023 77 10000 3.6 90 20:58 27.09.2019
1221 Clouds 17 1023 77 10000 3.6 90 20:39 27.09.2019
1222 Clouds 17 1023 77 10000 5.1 90 20:19 27.09.2019
1223 Clouds 17 1023 77 10000 5.1 80 19:57 27.09.2019
1224 Clouds 17 1023 77 10000 5.1 80 19:57 27.09.2019
1225 Clouds 17 1023 77 10000 5.1 80 19:37 27.09.2019
1226 Clouds 17 1023 77 10000 5.7 100 19:18 27.09.2019
1227 Clouds 18 1023 72 10000 5.1 100 18:41 27.09.2019
1228 Clouds 18 1023 68 10000 4.6 100 18:22 27.09.2019
1229 Clouds 18 1023 68 10000 4.6 100 18:22 27.09.2019
1230 Clouds 19 1023 63 10000 5.7 100 17:56 27.09.2019
1231 Clouds 19 1022 59 10000 6.7 100 17:37 27.09.2019
1232 Clouds 19 1022 59 10000 6.7 100 17:18 27.09.2019
1233 Clouds 21 1022 52 10000 6.7 100 16:57 27.09.2019
1234 Clouds 21 1022 52 10000 6.7 100 16:56 27.09.2019
1235 Clouds 21 1022 52 10000 6.7 100 16:37 27.09.2019
1236 Clouds 21 1022 52 10000 6.7 100 16:37 27.09.2019
1237 Clouds 22 1022 49 10000 7.2 110 16:18 27.09.2019
1238 Clouds 22 1021 46 10000 4.6 120 15:44 27.09.2019
1239 Clouds 23 1021 43 10000 7.2 120 15:20 27.09.2019
1240 Clouds 24 1021 41 10000 6.7 90 14:57 27.09.2019
1241 Clouds 24 1021 41 10000 6.7 90 14:39 27.09.2019
1242 Clouds 23 1021 46 10000 7.2 130 14:20 27.09.2019
1243 Clouds 24 1021 44 10000 7.7 120 13:57 27.09.2019
1244 Clouds 24 1021 44 10000 7.7 120 13:38 27.09.2019
1245 Clouds 24 1022 44 10000 7.7 100 13:19 27.09.2019
1246 Clouds 23 1022 49 10000 7.7 120 12:51 27.09.2019
1247 Clouds 23 1022 49 10000 6.7 120 12:22 27.09.2019
1248 Clouds 22 1023 49 10000 8.2 100 11:57 27.09.2019
1249 Clouds 22 1023 49 10000 8.2 100 11:37 27.09.2019
1250 Clouds 22 1023 53 10000 7.2 110 11:19 27.09.2019
1251 Clouds 22 1023 56 10000 6.7 120 10:42 27.09.2019
1252 Clouds 22 1024 56 10000 6.7 110 10:21 27.09.2019
1253 Clouds 22 1024 56 10000 6.7 110 09:56 27.09.2019
1254 Clouds 22 1024 56 10000 6.7 110 09:56 27.09.2019
1255 Clouds 22 1024 56 10000 6.7 110 09:37 27.09.2019
1256 Clouds 21 1024 60 10000 8.2 100 09:18 27.09.2019
1257 Clouds 21 1024 60 10000 5.7 120 08:41 27.09.2019
1258 Clouds 20 1024 60 10000 5.1 130 08:20 27.09.2019
1259 Clouds 19 1024 63 10000 3.6 150 07:49 27.09.2019
1260 Clouds 18 1024 68 10000 4.1 120 07:24 27.09.2019
1261 Clouds 17 1024 72 10000 3.1 120 06:46 27.09.2019
1262 Clouds 17 1024 72 10000 3.6 90 06:27 27.09.2019
1263 Clouds 15 1024 82 10000 3.1 90 05:52 27.09.2019
1264 Clouds 15 1023 77 10000 3.1 100 05:33 27.09.2019
1265 Clouds 15 1023 77 10000 4.1 100 03:59 27.09.2019
1266 Clouds 15 1023 77 10000 4.6 100 03:37 27.09.2019
1267 Clouds 15 1023 77 10000 4.6 120 01:53 27.09.2019
1268 Clouds 16 1023 72 10000 6.2 110 01:28 27.09.2019
1269 Clouds 16 1023 77 10000 5.1 120 00:30 27.09.2019
1270 Clouds 16 1024 77 10000 5.1 120 23:57 26.09.2019
1271 Clouds 16 1024 77 10000 5.1 120 23:38 26.09.2019
1272 Clouds 16 1024 77 10000 4.6 120 23:19 26.09.2019
1273 Clouds 16 1024 77 10000 5.1 120 22:57 26.09.2019
1274 Clouds 16 1024 82 10000 5.1 100 22:39 26.09.2019
1275 Clouds 16 1024 82 10000 5.1 100 22:18 26.09.2019
1276 Clouds 17 1024 77 10000 5.7 100 21:57 26.09.2019
1277 Clouds 17 1024 77 10000 5.7 100 21:37 26.09.2019
1278 Clouds 17 1023 77 10000 5.7 100 21:18 26.09.2019
1279 Clouds 17 1023 82 10000 6.2 100 20:58 26.09.2019
1280 Clouds 17 1023 82 10000 6.2 100 20:39 26.09.2019
1281 Clouds 17 1023 82 10000 6.7 90 20:21 26.09.2019
1282 Clouds 18 1023 77 10000 6.7 100 19:41 26.09.2019
1283 Clouds 18 1023 77 10000 4.1 130 19:20 26.09.2019
1284 Clouds 19 1022 72 10000 5.7 110 18:59 26.09.2019
1285 Clouds 19 1022 72 10000 5.7 110 18:40 26.09.2019
1286 Clouds 20 1022 64 10000 7.2 100 18:22 26.09.2019
1287 Clouds 20 1022 64 10000 7.2 100 18:22 26.09.2019
1288 Clouds 20 1022 64 10000 7.2 100 17:57 26.09.2019
1289 Clouds 20 1022 64 10000 7.2 100 17:37 26.09.2019
1290 Clouds 21 1021 60 10000 6.7 110 17:18 26.09.2019
1291 Clouds 22 1021 53 10000 7.2 100 16:40 26.09.2019
1292 Clouds 23 1020 46 10000 6.2 110 16:21 26.09.2019
1293 Clouds 24 1020 47 10000 5.7 90 16:00 26.09.2019
1294 Clouds 24 1020 47 10000 5.7 90 15:39 26.09.2019
1295 Clouds 24 1020 47 10000 6.2 90 15:20 26.09.2019
1296 Clouds 25 1020 41 10000 6.2 100 14:57 26.09.2019
1297 Clouds 25 1020 41 10000 6.2 100 14:38 26.09.2019
1298 Clouds 26 1019 39 10000 5.1 90 14:20 26.09.2019
1299 Clouds 24 1020 44 10000 5.7 80 13:55 26.09.2019
1300 Clouds 24 1020 44 10000 5.7 80 13:36 26.09.2019
1301 Clouds 27 1020 36 10000 5.7 80 13:18 26.09.2019
1302 Clouds 28 1020 34 10000 6.2 90 12:41 26.09.2019
1303 Clouds 28 1020 34 10000 7.2 90 12:21 26.09.2019
1304 Clouds 27 1021 36 10000 6.2 80 11:55 26.09.2019
1305 Clouds 27 1021 36 10000 6.2 80 11:55 26.09.2019
1306 Clouds 27 1021 34 10000 5.7 80 11:36 26.09.2019
1307 Clouds 27 1021 34 10000 5.7 80 11:18 26.09.2019
1308 Clouds 26 1021 36 10000 6.2 70 10:41 26.09.2019
1309 Clouds 27 1021 34 10000 6.2 90 10:23 26.09.2019
1310 Clouds 27 1021 34 10000 5.1 70 09:45 26.09.2019
1311 Clouds 26 1021 34 10000 5.7 50 09:27 26.09.2019
1312 Clouds 25 1022 38 10000 2.1 60 08:59 26.09.2019
1313 Clouds 25 1022 38 10000 2.1 60 08:41 26.09.2019
1314 Clouds 23 1022 49 10000 2.1 130 08:23 26.09.2019
1315 Clouds 21 1021 60 10000 2.1 150 07:44 26.09.2019
1316 Clouds 20 1021 64 10000 2.6 130 07:22 26.09.2019
1317 Clouds 19 1021 68 10000 2.6 120 06:50 26.09.2019
1318 Clouds 17 1021 82 10000 3.1 90 06:27 26.09.2019
1319 Clouds 15 1021 93 10000 2.1 100 05:46 26.09.2019
1320 Clouds 14 1020 93 10000 2.1 110 05:25 26.09.2019
1321 Clouds 16 1020 82 10000 2.1 60 03:18 26.09.2019
1322 Clouds 16 1020 87 10000 1 0 01:54 26.09.2019
1323 Clouds 16 1020 87 10000 1 60 01:31 26.09.2019
1324 Clouds 16 1020 87 10000 1.5 70 00:56 26.09.2019
1325 Clouds 16 1020 87 10000 1.5 70 00:38 26.09.2019
1326 Clouds 17 1020 82 10000 1.5 60 00:19 26.09.2019
1327 Clouds 16 1020 87 10000 2.1 90 23:42 25.09.2019
1328 Clouds 17 1021 82 10000 2.1 100 23:19 25.09.2019
1329 Clouds 17 1021 82 10000 2.6 100 22:42 25.09.2019
1330 Clouds 18 1021 82 10000 3.6 120 22:21 25.09.2019
1331 Clouds 18 1021 77 10000 3.1 140 21:58 25.09.2019
1332 Clouds 18 1021 77 10000 3.1 140 21:39 25.09.2019
1333 Clouds 19 1021 77 10000 3.1 130 21:19 25.09.2019
1334 Clouds 19 1021 77 10000 3.6 100 20:58 25.09.2019
1335 Clouds 19 1021 77 10000 3.6 100 20:40 25.09.2019
1336 Clouds 19 1021 77 10000 3.1 120 20:22 25.09.2019
1337 Clouds 19 1020 77 10000 4.1 110 19:54 25.09.2019
1338 Clouds 19 1020 77 10000 4.1 110 19:36 25.09.2019
1339 Clouds 20 1020 72 10000 6.2 120 19:18 25.09.2019
1340 Clouds 21 1020 68 10000 6.2 120 18:55 25.09.2019
1341 Clouds 23 1019 40 10000 2.6 270 18:37 25.09.2019
1342 Clouds 23 1019 40 10000 2.6 270 18:18 25.09.2019
1343 Clouds 23 1019 40 10000 2.1 290 17:38 25.09.2019
1344 Clouds 24 1018 38 10000 3.1 290 17:19 25.09.2019
1345 Clouds 25 1018 33 10000 5.7 300 16:56 25.09.2019
1346 Clouds 26 1018 31 10000 4.6 300 16:36 25.09.2019
1347 Clouds 26 1018 31 10000 4.6 300 16:18 25.09.2019
1348 Clouds 27 1017 28 10000 5.1 280 15:41 25.09.2019
1349 Clouds 27 1017 28 10000 5.1 280 15:41 25.09.2019
1350 Clouds 27 1017 28 10000 5.1 280 15:41 25.09.2019
1351 Clouds 27 1017 28 10000 5.1 290 15:23 25.09.2019
1352 Clouds 27 1017 30 10000 3.6 270 14:57 25.09.2019
1353 Clouds 27 1017 30 10000 3.6 270 14:39 25.09.2019
1354 Clouds 27 1017 30 10000 3.6 270 14:39 25.09.2019
1355 Clouds 28 1017 28 10000 4.1 280 14:21 25.09.2019
1356 Clouds 27 1018 28 10000 3.6 320 13:42 25.09.2019
1357 Clouds 27 1019 34 10000 2.1 0 13:24 25.09.2019
1358 Clouds 27 1019 34 10000 2.1 0 12:59 25.09.2019
1359 Clouds 27 1019 34 10000 2.1 0 12:39 25.09.2019
1360 Clouds 27 1019 34 10000 2.1 0 12:21 25.09.2019
1361 Clouds 25 1019 41 10000 2.1 200 11:55 25.09.2019
1362 Clouds 25 1019 38 10000 3.6 0 11:36 25.09.2019
1363 Clouds 25 1019 38 10000 3.6 0 11:18 25.09.2019
1364 Clouds 26 1020 41 10000 4.1 190 10:43 25.09.2019
1365 Clouds 25 1021 44 10000 3.6 180 10:24 25.09.2019
1366 Clouds 25 1021 47 10000 4.1 180 09:56 25.09.2019
1367 Clouds 25 1021 47 10000 4.1 180 09:37 25.09.2019
1368 Clouds 25 1021 47 10000 2.6 0 09:19 25.09.2019
1369 Clouds 24 1021 50 10000 2.6 120 08:42 25.09.2019
1370 Clouds 24 1022 50 10000 2.1 110 08:21 25.09.2019
1371 Clouds 24 1022 50 10000 2.1 110 08:21 25.09.2019
1372 Clouds 22 1022 53 10000 1.5 100 07:57 25.09.2019
1373 Clouds 22 1022 53 10000 1.5 100 07:38 25.09.2019
1374 Clouds 20 1021 68 10000 1.5 0 07:19 25.09.2019
1375 Clouds 19 1021 72 10000 2.6 50 06:43 25.09.2019
1376 Clouds 17 1021 82 10000 2.1 60 06:21 25.09.2019
1377 Clouds 15 1021 93 10000 1.5 80 05:27 25.09.2019
1378 Clouds 14 1020 100 10000 1.5 70 04:50 25.09.2019
1379 Clouds 14 1020 93 10000 0.5 0 02:19 25.09.2019
1380 Clouds 16 1021 87 10000 1.5 70 00:45 25.09.2019
1381 Clouds 16 1021 87 10000 2.1 70 00:24 25.09.2019
1382 Clouds 16 1021 87 10000 1 60 23:56 24.09.2019
1383 Clouds 16 1021 87 10000 2.1 70 23:37 24.09.2019
1384 Clouds 16 1021 87 10000 2.1 70 23:18 24.09.2019
1385 Clouds 16 1021 87 10000 3.1 120 22:39 24.09.2019
1386 Clouds 15 1022 93 10000 2.1 80 22:20 24.09.2019
1387 Clouds 16 1022 87 10000 2.6 70 21:56 24.09.2019
1388 Clouds 16 1022 87 10000 4.1 100 21:37 24.09.2019
1389 Clouds 16 1022 87 10000 4.1 100 21:19 24.09.2019
1390 Clouds 16 1022 87 10000 4.1 100 21:19 24.09.2019
1391 Clouds 17 1022 82 10000 4.6 120 20:57 24.09.2019
1392 Clouds 17 1022 82 10000 4.6 120 20:39 24.09.2019
1393 Clouds 17 1022 82 10000 3.6 140 20:20 24.09.2019
1394 Clouds 17 1022 82 10000 3.6 130 19:44 24.09.2019
1395 Clouds 18 1021 77 10000 5.7 100 19:22 24.09.2019
1396 Clouds 18 1021 77 10000 5.1 100 18:59 24.09.2019
1397 Clouds 18 1021 77 10000 5.1 100 18:41 24.09.2019
1398 Clouds 20 1020 64 10000 5.1 80 18:22 24.09.2019
1399 Clouds 21 1020 56 10000 5.7 70 17:58 24.09.2019
1400 Clouds 21 1020 56 10000 5.7 70 17:58 24.09.2019
1401 Clouds 21 1020 56 10000 5.7 70 17:38 24.09.2019
1402 Clouds 22 1020 53 10000 4.6 90 17:20 24.09.2019
1403 Clouds 23 1019 49 10000 5.7 90 16:57 24.09.2019
1404 Clouds 23 1019 49 10000 5.7 90 16:38 24.09.2019
1405 Clouds 25 1019 41 10000 4.6 90 16:18 24.09.2019
1406 -273 0 0 0 0 0 15:41 24.09.2019
1407 Clouds 28 1019 34 10000 3.1 120 15:23 24.09.2019
1408 Clouds 28 1019 34 10000 3.1 120 15:23 24.09.2019
1409 Clouds 27 1019 36 10000 3.1 150 14:43 24.09.2019
1410 Clouds 28 1019 32 10000 3.6 170 14:20 24.09.2019
1411 Clouds 28 1019 34 10000 4.1 180 13:56 24.09.2019
1412 Clouds 28 1019 34 10000 4.1 180 13:37 24.09.2019
1413 Clouds 28 1020 30 10000 3.6 160 13:19 24.09.2019
1414 Clouds 28 1020 28 10000 1.5 0 12:40 24.09.2019
1415 Clouds 28 1020 28 10000 2.1 0 12:20 24.09.2019
1416 Clear 26 1018 28 0 2.47 65.147 11:43 24.09.2019
1417 Clouds 27 1021 34 10000 2.1 0 11:22 24.09.2019
1418 Clouds 26 1022 36 10000 2.6 180 10:58 24.09.2019
1419 Clouds 26 1022 36 10000 2.6 180 10:39 24.09.2019
1420 Clouds 25 1023 41 10000 3.1 360 10:20 24.09.2019
1421 Clouds 25 1023 38 10000 2.1 0 09:46 24.09.2019
1422 Clouds 25 1023 38 10000 2.1 0 09:46 24.09.2019
1423 Clouds 25 1023 38 10000 2.1 0 09:46 24.09.2019
1424 Clouds 24 1023 50 10000 2.1 0 09:27 24.09.2019
1425 Clouds 21 1024 60 10000 2.6 170 08:58 24.09.2019
1426 Clouds 21 1024 60 10000 2.6 170 08:40 24.09.2019
1427 Clouds 20 1024 60 10000 2.1 0 08:21 24.09.2019
1428 Clouds 18 1024 68 10000 2.1 150 07:57 24.09.2019
1429 Clouds 18 1024 68 10000 2.1 150 07:37 24.09.2019
1430 Clouds 18 1024 68 10000 2.1 150 07:18 24.09.2019
1431 Clouds 14 1024 87 10000 2.1 160 06:37 24.09.2019
1432 Clouds 14 1024 87 10000 2.1 170 05:53 24.09.2019
1433 Clouds 14 1024 87 10000 2.6 120 05:21 24.09.2019
1434 Clouds 13 1024 87 10000 2.6 120 03:46 24.09.2019
1435 Clouds 14 1024 87 10000 1.5 80 03:20 24.09.2019
1436 Clouds 14 1024 87 10000 2.6 90 02:43 24.09.2019
1437 Clouds 14 1024 87 10000 1.5 60 01:40 24.09.2019
1438 Clouds 14 1025 87 10000 2.1 110 00:40 24.09.2019
1439 Clouds 15 1025 82 10000 2.1 120 00:21 24.09.2019
1440 Clouds 15 1025 82 10000 2.1 130 23:41 23.09.2019
1441 Clouds 15 1026 82 10000 1.5 110 23:22 23.09.2019
1442 Clouds 14 1026 87 10000 2.1 140 22:40 23.09.2019
1443 Clouds 14 1026 87 10000 2.1 140 22:21 23.09.2019
1444 Clouds 14 1026 87 10000 2.1 140 22:21 23.09.2019
1445 Clouds 14 1026 87 10000 3.1 120 21:59 23.09.2019
1446 Clouds 14 1026 87 10000 3.1 120 21:41 23.09.2019
1447 Clouds 14 1026 82 10000 3.1 100 21:20 23.09.2019
1448 Clouds 14 1026 82 10000 3.1 100 21:20 23.09.2019
1449 Clouds 15 1026 82 10000 3.6 90 20:58 23.09.2019
1450 Clouds 15 1026 82 10000 3.6 90 20:39 23.09.2019
1451 Clouds 15 1026 82 10000 3.6 90 20:18 23.09.2019
1452 Clouds 15 1026 77 10000 4.1 100 19:40 23.09.2019
1453 Clouds 15 1026 77 10000 4.1 100 19:21 23.09.2019
1454 Clouds 16 1026 72 10000 3.6 90 18:58 23.09.2019
1455 Clouds 16 1026 72 10000 3.6 90 18:40 23.09.2019
1456 Clouds 16 1025 67 10000 3.6 90 18:18 23.09.2019
1457 Clouds 16 1025 63 10000 3.1 100 17:56 23.09.2019
1458 Clouds 17 1025 59 10000 4.6 110 17:37 23.09.2019
1459 Clouds 17 1025 59 10000 4.6 110 17:19 23.09.2019
1460 Clouds 19 1025 48 10000 6.2 100 16:54 23.09.2019
1461 Clouds 20 1024 45 10000 5.7 110 16:36 23.09.2019
1462 Clouds 20 1024 45 10000 5.7 110 16:18 23.09.2019
1463 Clouds 21 1024 43 10000 7.2 110 15:41 23.09.2019
1464 Clouds 22 1024 35 10000 7.7 120 15:20 23.09.2019
1465 Clouds 23 1024 33 10000 6.7 120 14:59 23.09.2019
1466 Clouds 23 1024 33 10000 6.7 120 14:39 23.09.2019
1467 Clouds 23 1024 35 10000 5.7 120 14:19 23.09.2019
1468 Clouds 22 1024 37 10000 5.7 130 13:58 23.09.2019
1469 Clouds 21 1024 43 10000 7.2 110 13:37 23.09.2019
1470 Clouds 21 1024 43 10000 7.2 110 13:18 23.09.2019
1471 Clouds 20 1025 52 10000 6.2 130 12:41 23.09.2019
1472 Clouds 20 1025 52 10000 6.2 130 12:22 23.09.2019
1473 Clouds 20 1025 49 10000 6.7 130 11:55 23.09.2019
1474 Clouds 21 1025 46 10000 7.7 120 11:37 23.09.2019
1475 Clouds 21 1025 46 10000 7.7 120 11:19 23.09.2019
1476 Clouds 23 1025 43 10000 6.2 130 10:48 23.09.2019
1477 Clouds 22 1025 43 10000 5.7 130 10:21 23.09.2019
1478 Clouds 22 1025 43 10000 6.2 120 09:49 23.09.2019
1479 Clouds 20 1026 45 10000 7.2 110 09:29 23.09.2019
1480 Clouds 19 1026 52 10000 5.1 140 08:59 23.09.2019
1481 Clouds 19 1026 52 10000 5.1 140 08:39 23.09.2019
1482 Clouds 18 1026 55 10000 3.6 160 08:19 23.09.2019
1483 Clouds 17 1026 59 10000 4.6 160 07:38 23.09.2019
1484 Clouds 16 1026 63 10000 4.6 160 07:20 23.09.2019
1485 Clouds 14 1026 71 10000 2.1 170 06:20 23.09.2019
1486 Clouds 11 1026 87 10000 2.6 150 05:38 23.09.2019
1487 Clouds 11 1025 87 10000 2.1 150 04:58 23.09.2019
1488 Clouds 12 1025 81 0 2.6 140 04:00 23.09.2019
1489 Clouds 13 1025 82 10000 3.6 130 01:26 23.09.2019
1490 Clouds 13 1025 87 10000 4.6 110 00:38 23.09.2019
1491 Clouds 13 1025 87 10000 2.1 160 00:18 23.09.2019
1492 Clouds 13 1026 87 10000 2.1 160 23:41 22.09.2019
1493 Clouds 12 1026 87 10000 2.6 140 23:21 22.09.2019
1494 Clouds 12 1026 87 10000 3.1 130 22:55 22.09.2019
1495 Clouds 12 1026 87 10000 2.6 120 22:37 22.09.2019
1496 Clouds 12 1026 87 10000 2.6 120 22:18 22.09.2019
1497 Clouds 13 1026 82 10000 4.1 130 21:42 22.09.2019
1498 Clouds 13 1026 82 10000 3.6 90 21:20 22.09.2019
1499 Clouds 13 1026 87 10000 4.6 100 20:45 22.09.2019
1500 Clouds 14 1026 82 10000 4.6 90 20:27 22.09.2019
1501 Clouds 14 1026 82 10000 5.7 100 19:57 22.09.2019
1502 Clouds 15 1025 77 10000 5.7 100 19:39 22.09.2019
1503 Clouds 15 1025 77 10000 5.7 100 19:20 22.09.2019
1504 Clouds 15 1025 72 10000 6.2 110 18:57 22.09.2019
1505 Clouds 15 1025 72 10000 6.2 110 18:37 22.09.2019
1506 Clouds 16 1025 67 10000 5.7 100 18:18 22.09.2019
1507 Clouds 17 1024 59 10000 6.2 100 17:45 22.09.2019
1508 Clouds 18 1024 52 10000 6.2 120 17:26 22.09.2019
1509 Clouds 18 1024 48 10000 7.2 110 16:56 22.09.2019
1510 Clouds 18 1024 48 10000 7.2 110 16:56 22.09.2019
1511 Clouds 18 1024 48 10000 7.2 110 16:56 22.09.2019
1512 Clouds 18 1024 48 10000 7.2 110 16:38 22.09.2019
1513 Clouds 20 1023 42 10000 6.2 130 16:19 22.09.2019
1514 Clouds 21 1023 40 10000 7.7 110 15:43 22.09.2019
1515 Clouds 21 1023 43 10000 8.2 120 15:25 22.09.2019
1516 Clouds 22 1023 40 10000 5.1 130 14:55 22.09.2019
1517 Clouds 22 1023 40 10000 6.7 120 14:36 22.09.2019
1518 Clouds 22 1023 40 10000 6.7 120 14:18 22.09.2019
1519 Clouds 23 1023 40 10000 6.7 120 13:41 22.09.2019
1520 Clouds 23 1023 38 10000 6.2 110 13:23 22.09.2019
1521 Clouds 23 1024 40 10000 6.2 100 12:56 22.09.2019
1522 Clouds 23 1024 40 10000 6.2 100 12:38 22.09.2019
1523 Clouds 23 1024 40 10000 6.2 100 12:18 22.09.2019
1524 Clouds 23 1024 40 10000 6.2 100 12:18 22.09.2019
1525 Clouds 21 1024 46 10000 6.2 130 11:43 22.09.2019
1526 Clouds 21 1024 46 10000 6.2 130 11:43 22.09.2019
1527 Clouds 22 1024 43 10000 6.2 120 11:25 22.09.2019
1528 Clouds 22 1024 43 10000 6.2 120 11:25 22.09.2019
1529 Clouds 21 1024 46 10000 6.2 120 10:57 22.09.2019
1530 Clouds 21 1024 46 10000 6.2 120 10:39 22.09.2019
1531 Clouds 19 1025 52 10000 6.7 130 10:19 22.09.2019
1532 Clouds 20 1025 49 10000 7.7 110 09:43 22.09.2019
1533 Clouds 20 1025 49 10000 7.7 110 09:43 22.09.2019
1534 Clouds 18 1025 59 10000 7.2 110 09:21 22.09.2019
1535 Clouds 18 1026 59 10000 7.2 110 08:55 22.09.2019
1536 Clouds 18 1026 59 10000 7.2 110 08:37 22.09.2019
1537 Clouds 18 1025 55 10000 7.2 110 08:18 22.09.2019
1538 Clouds 17 1025 63 10000 5.7 130 07:41 22.09.2019
1539 Clouds 15 1025 77 10000 4.6 150 07:23 22.09.2019
1540 Drizzle 14 1025 82 10000 4.1 170 06:56 22.09.2019
1541 Clouds 13 1024 87 10000 2.6 160 05:45 22.09.2019
1542 Clouds 13 1024 87 10000 4.1 140 03:53 22.09.2019
1543 Clouds 13 1024 87 10000 4.6 160 02:43 22.09.2019
1544 Clouds 13 1024 82 10000 3.1 160 02:23 22.09.2019
1545 Clouds 13 1024 82 10000 3.6 150 01:34 22.09.2019
1546 Clouds 13 1024 82 10000 3.6 150 00:40 22.09.2019
1547 Clouds 13 1024 82 10000 4.6 140 00:21 22.09.2019
1548 Clouds 13 1024 82 10000 4.6 140 00:21 22.09.2019
1549 Clouds 13 1024 82 10000 4.1 140 23:45 21.09.2019
1550 Clouds 13 1025 82 10000 3.6 140 23:27 21.09.2019
1551 Clouds 13 1025 82 10000 3.1 130 22:40 21.09.2019
1552 Clouds 14 1025 76 10000 3.6 150 22:21 21.09.2019
1553 Clouds 14 1025 76 10000 3.6 140 21:57 21.09.2019
1554 Clouds 14 1025 76 10000 3.6 140 21:38 21.09.2019
1555 Clouds 14 1025 76 10000 4.1 120 21:18 21.09.2019
1556 Clouds 14 1025 76 10000 4.1 120 21:18 21.09.2019
1557 Clouds 14 1025 76 10000 4.6 120 20:40 21.09.2019
1558 Clouds 15 1025 77 10000 5.7 120 20:22 21.09.2019
1559 Clouds 15 1025 77 10000 5.1 120 19:55 21.09.2019
1560 Clouds 15 1024 77 10000 3.6 130 19:36 21.09.2019
1561 Clouds 15 1024 77 10000 3.6 130 19:18 21.09.2019
1562 Clouds 15 1024 77 10000 4.1 130 18:39 21.09.2019
1563 Clouds 15 1024 77 10000 5.7 120 18:20 21.09.2019
1564 Clouds 16 1023 72 10000 6.2 120 17:42 21.09.2019
1565 Clouds 16 1023 72 10000 6.2 120 17:42 21.09.2019
1566 Clouds 17 1023 63 10000 6.2 120 17:23 21.09.2019
1567 Clouds 18 1022 55 10000 5.7 140 16:45 21.09.2019
1568 Clouds 19 1022 48 10000 5.7 120 16:25 21.09.2019
1569 Clouds 19 1022 48 10000 5.7 120 16:25 21.09.2019
1570 Clouds 20 1022 45 10000 6.7 120 15:59 21.09.2019
1571 Clouds 20 1022 45 10000 6.7 120 15:40 21.09.2019
1572 Clouds 21 1022 46 10000 6.7 120 15:20 21.09.2019
1573 Clouds 21 1021 43 10000 7.2 120 14:44 21.09.2019
1574 Clouds 21 1021 43 10000 7.2 120 14:44 21.09.2019
1575 Clouds 21 1021 43 10000 7.2 120 14:44 21.09.2019
1576 Clouds 22 1021 43 10000 7.2 120 14:26 21.09.2019
1577 Clouds 23 1021 40 10000 6.7 130 13:43 21.09.2019
1578 Clouds 22 1021 43 10000 6.7 160 13:25 21.09.2019
1579 Clouds 22 1021 43 10000 6.7 160 13:25 21.09.2019
1580 Clouds 22 1022 43 10000 6.7 150 12:58 21.09.2019
1581 Clouds 22 1022 43 10000 6.7 150 12:39 21.09.2019
1582 Clouds 22 1022 43 10000 6.7 150 12:39 21.09.2019
1583 Clouds 22 1022 43 10000 6.2 140 12:20 21.09.2019
1584 Clouds 21 1022 46 10000 6.7 140 11:51 21.09.2019
1585 Clouds 21 1022 46 10000 6.2 140 11:26 21.09.2019
1586 Clouds 21 1023 46 10000 6.2 170 10:57 21.09.2019
1587 Clouds 21 1023 46 10000 6.2 170 10:38 21.09.2019
1588 Clouds 20 1023 49 10000 6.2 130 10:20 21.09.2019
1589 Clouds 21 1024 49 10000 6.2 130 09:55 21.09.2019
1590 Clouds 21 1024 49 10000 6.2 130 09:37 21.09.2019
1591 Clouds 19 1024 55 10000 6.2 140 09:18 21.09.2019
1592 Clouds 18 1024 59 10000 5.7 120 08:43 21.09.2019
1593 Clouds 18 1024 59 10000 5.7 120 08:43 21.09.2019
1594 Rain 17 1024 67 10000 6.7 160 07:58 21.09.2019
1595 Clouds 16 1024 72 10000 6.2 150 07:39 21.09.2019
1596 Clouds 16 1024 72 10000 6.2 150 07:19 21.09.2019
1597 Clouds 15 1023 72 10000 3.6 130 06:35 21.09.2019
1598 Clouds 14 1023 76 10000 4.6 140 05:51 21.09.2019
1599 Clouds 13 1022 87 10000 5.7 120 04:39 21.09.2019
1600 Clouds 14 1022 82 10000 5.7 120 03:31 21.09.2019
1601 Clouds 14 1022 82 10000 5.7 130 02:25 21.09.2019
1602 Clouds 14 1022 82 10000 5.1 120 01:48 21.09.2019
1603 Clouds 14 1022 82 10000 6.2 120 01:23 21.09.2019
1604 Clouds 15 1022 82 10000 3.1 140 00:23 21.09.2019
1605 Clouds 15 1022 82 10000 4.1 120 23:48 20.09.2019
1606 Clouds 15 1023 82 10000 5.1 110 23:30 20.09.2019
1607 Clouds 15 1023 82 10000 2.1 120 22:47 20.09.2019
1608 Clouds 15 1023 82 10000 2.1 160 22:27 20.09.2019
1609 Clouds 15 1023 82 10000 3.1 160 21:58 20.09.2019
1610 Clouds 15 1023 82 10000 3.1 160 21:39 20.09.2019
1611 Clouds 15 1023 82 10000 3.1 160 21:21 20.09.2019
1612 Clouds 15 1023 82 10000 3.1 160 21:21 20.09.2019
1613 Clouds 14 1023 87 10000 3.1 140 20:59 20.09.2019
1614 Clouds 14 1023 87 10000 3.1 140 20:41 20.09.2019
1615 Clouds 15 1023 82 10000 5.1 120 20:20 20.09.2019
1616 Clouds 14 1023 82 10000 3.6 120 19:56 20.09.2019
1617 Clouds 15 1023 77 10000 6.2 120 19:36 20.09.2019
1618 Clouds 15 1023 77 10000 6.2 120 19:18 20.09.2019
1619 Clouds 15 1023 82 10000 5.1 120 18:39 20.09.2019
1620 Clouds 16 1023 77 10000 6.2 120 18:20 20.09.2019
1621 Clouds 17 1023 72 10000 6.7 120 17:47 20.09.2019
1622 Clouds 17 1022 72 10000 7.2 110 17:27 20.09.2019
1623 Clouds 17 1022 72 10000 7.2 110 17:27 20.09.2019
1624 Clouds 19 1022 59 10000 7.2 120 16:57 20.09.2019
1625 Clouds 19 1022 59 10000 7.2 120 16:37 20.09.2019
1626 Clouds 21 1021 52 10000 5.7 120 16:18 20.09.2019
1627 Clouds 22 1021 53 10000 6.2 150 15:41 20.09.2019
1628 Clouds 22 1021 53 10000 6.2 150 15:41 20.09.2019
1629 Clouds 23 1021 46 10000 4.6 160 15:22 20.09.2019
1630 Clouds 25 1021 44 10000 5.7 90 14:44 20.09.2019
1631 Clouds 25 1021 44 10000 5.7 90 14:20 20.09.2019
1632 Clouds 24 1021 41 10000 3.6 100 14:00 20.09.2019
1633 Clouds 24 1021 41 10000 4.1 0 13:40 20.09.2019
1634 Clouds 24 1021 41 10000 4.1 0 13:21 20.09.2019
1635 Clouds 23 1022 46 10000 5.7 120 12:40 20.09.2019
1636 Clouds 23 1022 46 10000 5.7 120 12:22 20.09.2019
1637 Clouds 24 1022 47 10000 5.1 170 11:51 20.09.2019
1638 Clouds 24 1023 44 10000 5.7 100 11:26 20.09.2019
1639 Clouds 23 1023 46 10000 5.1 120 10:58 20.09.2019
1640 Clouds 23 1023 46 10000 5.1 120 10:40 20.09.2019
1641 Clouds 23 1023 46 10000 5.1 120 10:40 20.09.2019
1642 Clouds 23 1023 46 10000 5.1 110 10:22 20.09.2019
1643 Clouds 23 1023 46 10000 5.1 110 10:22 20.09.2019
1644 Clouds 21 1024 52 10000 5.7 110 09:38 20.09.2019
1645 Clouds 21 1024 52 10000 5.7 110 09:19 20.09.2019
1646 Clouds 18 1024 59 10000 5.7 150 08:47 20.09.2019
1647 Clouds 18 1024 59 10000 5.7 140 08:28 20.09.2019
1648 Clouds 17 1024 63 10000 5.1 140 07:51 20.09.2019
1649 Clouds 18 1024 55 10000 5.7 130 07:29 20.09.2019
1650 Clouds 16 1024 67 10000 5.1 150 06:59 20.09.2019
1651 Clouds 16 1024 67 10000 5.1 150 06:40 20.09.2019
1652 Clouds 16 1024 67 10000 5.1 150 06:40 20.09.2019
1653 Clouds 15 1024 72 10000 4.1 130 06:18 20.09.2019
1654 Clouds 14 1023 82 10000 4.6 110 04:31 20.09.2019
1655 Clouds 14 1022 76 10000 4.1 130 03:27 20.09.2019
1656 Clouds 14 1022 76 10000 2.6 130 01:58 20.09.2019
1657 Clouds 14 1023 82 10000 3.1 140 01:37 20.09.2019
1658 Clouds 15 1023 82 10000 3.6 140 00:33 20.09.2019
1659 Clouds 15 1023 87 10000 2.6 140 23:48 19.09.2019
1660 Clouds 15 1023 87 10000 3.1 100 23:28 19.09.2019
1661 Clouds 15 1024 87 10000 3.1 80 22:59 19.09.2019
1662 Clouds 15 1024 87 10000 3.1 80 22:39 19.09.2019
1663 Clouds 15 1023 87 10000 3.6 90 22:21 19.09.2019
1664 Clouds 16 1023 82 10000 3.6 100 21:57 19.09.2019
1665 Clouds 16 1023 82 10000 3.6 100 21:38 19.09.2019
1666 Clouds 16 1023 82 10000 4.1 100 21:19 19.09.2019
1667 Clouds 17 1023 77 10000 4.6 100 20:43 19.09.2019
1668 Clouds 17 1023 82 10000 5.1 110 20:23 19.09.2019
1669 Clouds 18 1023 77 10000 3.6 110 19:57 19.09.2019
1670 Clouds 19 1023 72 10000 5.7 120 19:39 19.09.2019
1671 Clouds 19 1023 72 10000 5.7 120 19:21 19.09.2019
1672 Clouds 19 1022 72 10000 6.7 110 18:55 19.09.2019
1673 Clouds 20 1022 60 10000 5.1 140 18:37 19.09.2019
1674 Clouds 20 1022 60 10000 5.1 140 18:18 19.09.2019
1675 Clouds 20 1022 60 10000 5.1 140 18:18 19.09.2019
1676 Clouds 21 1022 49 10000 7.2 110 17:42 19.09.2019
1677 Clouds 22 1021 43 10000 6.7 130 17:23 19.09.2019
1678 Clouds 24 1021 36 10000 5.7 130 16:58 19.09.2019
1679 Clouds 24 1021 36 10000 5.7 130 16:39 19.09.2019
1680 Clouds 25 1020 31 10000 6.2 130 16:18 19.09.2019
1681 Clouds 26 1020 29 10000 7.2 120 15:39 19.09.2019
1682 Clouds 28 1020 30 10000 6.2 130 15:19 19.09.2019
1683 Clouds 28 1020 28 10000 5.7 130 14:42 19.09.2019
1684 Clouds 29 1019 26 10000 5.1 110 14:24 19.09.2019
1685 Clouds 30 1019 25 10000 5.7 100 13:59 19.09.2019
1686 Clouds 30 1019 25 10000 5.7 100 13:59 19.09.2019
1687 Clouds 30 1019 23 10000 3.6 180 13:39 19.09.2019
1688 Clouds 30 1019 23 10000 3.6 180 13:19 19.09.2019
1689 Clouds 30 1020 19 10000 3.6 0 12:40 19.09.2019
1690 Clouds 30 1020 19 10000 3.6 160 12:20 19.09.2019
1691 Clear 29 1021 23 10000 2.6 0 11:57 19.09.2019
1692 Clear 29 1021 23 10000 2.6 0 11:39 19.09.2019
1693 Clouds 28 1022 26 10000 2.6 0 11:20 19.09.2019
1694 Clouds 27 1022 28 10000 2.1 0 10:41 19.09.2019
1695 Clouds 26 1022 39 10000 4.1 160 10:22 19.09.2019
1696 Clouds 25 1023 41 10000 4.1 200 09:59 19.09.2019
1697 Clouds 25 1023 41 10000 4.1 200 09:41 19.09.2019
1698 Clouds 24 1023 50 10000 2.1 150 09:21 19.09.2019
1699 Clouds 22 1024 56 10000 2.1 160 08:55 19.09.2019
1700 Clouds 21 1024 60 10000 1.5 140 08:28 19.09.2019
1701 Clouds 21 1024 60 10000 1.5 0 07:56 19.09.2019
1702 Clouds 19 1024 68 10000 2.1 130 07:38 19.09.2019
1703 Clouds 19 1024 68 10000 2.1 130 07:19 19.09.2019
1704 Clouds 18 1023 72 10000 2.6 80 06:43 19.09.2019
1705 Clouds 18 1023 72 10000 2.6 80 06:43 19.09.2019
1706 Clouds 16 1023 82 10000 2.6 70 06:25 19.09.2019
1707 Clouds 15 1023 87 10000 2.1 70 05:50 19.09.2019
1708 Clouds 15 1023 87 10000 2.1 70 05:50 19.09.2019
1709 Clouds 14 1023 93 10000 3.1 90 04:27 19.09.2019
1710 Clouds 14 1022 93 10000 1.5 70 03:21 19.09.2019
1711 Clouds 15 1022 87 10000 1.5 50 01:50 19.09.2019
1712 Clouds 15 1023 87 10000 2.6 80 01:21 19.09.2019
1713 Clouds 16 1023 87 10000 2.6 100 00:47 19.09.2019
1714 Clouds 15 1023 87 10000 2.6 120 00:24 19.09.2019
1715 Clouds 15 1023 93 10000 3.1 110 23:39 18.09.2019
1716 Clouds 16 1024 87 10000 4.6 120 23:20 18.09.2019
1717 Clouds 16 1024 87 10000 4.6 120 23:20 18.09.2019
1718 Clouds 16 1024 87 10000 3.6 90 22:43 18.09.2019
1719 Clouds 17 1024 82 10000 4.1 100 22:20 18.09.2019
1720 Clouds 17 1024 82 10000 4.6 100 21:58 18.09.2019
1721 Clouds 17 1024 82 10000 4.6 100 21:40 18.09.2019
1722 Clouds 17 1024 82 10000 4.6 100 21:40 18.09.2019
1723 Clouds 17 1024 82 10000 4.6 100 21:19 18.09.2019
1724 Clouds 17 1024 82 10000 5.1 100 20:58 18.09.2019
1725 Clouds 17 1024 82 10000 5.1 100 20:40 18.09.2019
1726 Clouds 17 1024 82 10000 4.6 110 20:22 18.09.2019
1727 Clouds 17 1023 82 10000 4.6 100 19:57 18.09.2019
1728 Clouds 17 1023 82 10000 4.6 100 19:38 18.09.2019
1729 Clouds 17 1023 82 10000 4.6 100 19:19 18.09.2019
1730 Clouds 18 1023 77 10000 5.1 90 18:55 18.09.2019
1731 Clouds 18 1023 77 10000 5.1 90 18:37 18.09.2019
1732 Clouds 19 1022 68 10000 5.1 110 18:18 18.09.2019
1733 Clouds 20 1022 60 10000 5.1 130 17:57 18.09.2019
1734 Clouds 20 1022 60 10000 5.1 130 17:57 18.09.2019
1735 Clouds 20 1022 60 10000 5.1 130 17:38 18.09.2019
1736 Clouds 20 1022 60 10000 6.7 120 17:18 18.09.2019
1737 Clouds 21 1021 56 10000 6.7 110 16:55 18.09.2019
1738 Clouds 21 1021 56 10000 6.7 110 16:36 18.09.2019
1739 Clouds 23 1021 53 10000 6.2 120 16:18 18.09.2019
1740 Clouds 24 1020 50 10000 6.7 100 15:54 18.09.2019
1741 Clouds 26 1020 41 10000 5.7 110 15:36 18.09.2019
1742 Clouds 26 1020 41 10000 5.7 110 15:36 18.09.2019
1743 Clouds 26 1020 41 10000 5.7 110 15:18 18.09.2019
1744 Clouds 26 1020 44 10000 5.7 120 14:55 18.09.2019
1745 Clouds 28 1020 32 10000 4.1 100 14:36 18.09.2019
1746 Clouds 28 1020 32 10000 4.1 100 14:18 18.09.2019
1747 Clouds 28 1020 32 10000 2.6 50 13:40 18.09.2019
1748 Clouds 28 1020 32 10000 4.1 100 13:19 18.09.2019
1749 Clouds 27 1020 34 10000 2.6 0 12:53 18.09.2019
1750 Clouds 26 1021 39 10000 2.1 0 12:31 18.09.2019
1751 Clouds 26 1021 39 10000 2.1 0 11:57 18.09.2019
1752 Clouds 24 1022 44 10000 4.1 0 11:38 18.09.2019
1753 Clouds 24 1022 44 10000 4.1 0 11:19 18.09.2019
1754 Clouds 25 1022 44 10000 5.1 110 10:40 18.09.2019
1755 Clouds 24 1022 47 10000 4.1 140 10:21 18.09.2019
1756 Clouds 24 1022 47 10000 4.1 140 10:21 18.09.2019
1757 Clouds 23 1023 46 10000 4.1 150 09:58 18.09.2019
1758 Clouds 23 1023 46 10000 4.1 150 09:38 18.09.2019
1759 Clouds 22 1023 53 10000 4.6 130 09:20 18.09.2019
1760 Clouds 21 1023 56 10000 4.6 120 08:44 18.09.2019
1761 Clouds 19 1023 68 10000 4.1 110 08:25 18.09.2019
1762 Clouds 19 1023 63 10000 4.1 120 07:59 18.09.2019
1763 Clouds 19 1023 63 10000 4.1 120 07:40 18.09.2019
1764 Clouds 18 1023 72 10000 4.1 160 07:22 18.09.2019
1765 Clouds 16 1023 82 10000 3.6 160 06:40 18.09.2019
1766 Clouds 16 1022 82 10000 4.1 170 05:50 18.09.2019
1767 Clouds 16 1022 82 10000 2.1 100 04:57 18.09.2019
1768 Clouds 16 1021 87 10000 1 80 03:19 18.09.2019
1769 Clouds 15 1021 87 10000 1.5 0 02:29 18.09.2019
1770 Clouds 16 1022 82 10000 3.6 130 01:21 18.09.2019
1771 Clouds 17 1022 82 10000 4.1 100 00:49 18.09.2019
1772 Clouds 17 1022 82 10000 4.1 90 00:21 18.09.2019
1773 Clouds 17 1022 82 10000 4.6 100 23:45 17.09.2019
1774 Clouds 17 1023 82 10000 4.6 90 23:22 17.09.2019
1775 Clouds 17 1023 82 10000 5.1 90 22:43 17.09.2019
1776 Clouds 17 1023 82 10000 4.6 90 22:24 17.09.2019
1777 Clouds 17 1023 82 10000 4.6 90 22:24 17.09.2019
1778 Clouds 17 1023 82 10000 5.7 110 21:55 17.09.2019
1779 Clouds 17 1023 82 10000 5.7 110 21:55 17.09.2019
1780 Clouds 17 1023 82 10000 5.7 110 21:37 17.09.2019
1781 Clouds 17 1023 82 10000 5.7 110 21:37 17.09.2019
1782 Clouds 18 1023 77 10000 4.1 130 21:19 17.09.2019
1783 Clouds 17 1023 82 10000 4.1 140 20:58 17.09.2019
1784 Clouds 17 1023 82 10000 4.1 140 20:58 17.09.2019
1785 Clouds 17 1022 82 10000 4.6 130 20:40 17.09.2019
1786 Clouds 17 1022 82 10000 4.6 130 20:22 17.09.2019
1787 Clouds 17 1022 82 10000 4.1 120 19:58 17.09.2019
1788 Clouds 18 1022 72 10000 3.6 130 19:39 17.09.2019
1789 Clouds 18 1022 72 10000 3.6 130 19:19 17.09.2019
1790 Clouds 18 1022 72 10000 4.1 140 18:56 17.09.2019
1791 Clouds 19 1021 72 10000 6.2 110 18:38 17.09.2019
1792 Clouds 19 1021 72 10000 6.2 110 18:20 17.09.2019
1793 Clouds 19 1021 72 10000 6.2 110 18:20 17.09.2019
1794 Clouds 20 1021 64 10000 7.2 120 17:45 17.09.2019
1795 Clouds 21 1020 60 10000 6.7 120 17:20 17.09.2019
1796 Clouds 22 1020 56 10000 5.7 130 16:57 17.09.2019
1797 Clouds 22 1020 56 10000 5.7 130 16:37 17.09.2019
1798 Clouds 24 1019 47 10000 6.2 130 16:19 17.09.2019
1799 Clouds 26 1019 39 10000 4.1 100 15:40 17.09.2019
1800 Clouds 26 1019 39 10000 4.1 100 15:20 17.09.2019
1801 Clouds 26 1019 39 10000 5.7 110 14:56 17.09.2019
1802 Clouds 28 1019 30 10000 3.1 190 14:38 17.09.2019
1803 Clouds 28 1019 30 10000 3.1 190 14:19 17.09.2019
1804 Clouds 29 1019 26 10000 2.6 0 13:54 17.09.2019
1805 Clouds 29 1019 26 10000 2.1 190 13:36 17.09.2019
1806 Clouds 29 1019 26 10000 2.1 190 13:18 17.09.2019
1807 Clouds 29 1019 25 10000 2.6 0 12:41 17.09.2019
1808 Clouds 28 1020 28 10000 2.6 190 12:19 17.09.2019
1809 Clouds 28 1020 26 10000 1.5 0 11:44 17.09.2019
1810 Clouds 26 1020 29 10000 1.5 0 11:26 17.09.2019
1811 -273 0 0 0 0 0 10:57 17.09.2019
1812 Clouds 25 1022 31 10000 2.1 90 10:39 17.09.2019
1813 Clouds 25 1022 31 10000 2.1 90 10:20 17.09.2019
1814 Clear 25 1022 33 10000 1.5 0 09:43 17.09.2019
1815 Clear 23 1022 33 10000 2.1 0 09:23 17.09.2019
1816 Clear 21 1023 46 10000 2.1 130 08:57 17.09.2019
1817 Clear 20 1023 49 8000 1.5 0 08:38 17.09.2019
1818 Clear 20 1023 49 8000 1.5 0 08:19 17.09.2019
1819 Clouds 18 1023 63 8000 1.5 0 07:42 17.09.2019
1820 Clouds 16 1023 77 6000 2.1 180 07:24 17.09.2019
1821 Clouds 15 1023 82 6000 2.1 160 06:51 17.09.2019
1822 Clouds 14 1022 82 10000 1 0 06:25 17.09.2019
1823 Clouds 11 1022 100 10000 1.5 60 05:50 17.09.2019
1824 Clouds 11 1022 100 10000 1.44 126.1 04:32 17.09.2019
1825 Clouds 12 1022 93 10000 2.1 60 02:59 17.09.2019
1826 Clouds 12 1022 93 10000 2.1 70 02:39 17.09.2019
1827 Clouds 13 1022 93 10000 3.1 80 01:29 17.09.2019
1828 Clouds 13 1022 93 10000 3.1 80 00:43 17.09.2019
1829 Clouds 14 1023 87 10000 5.1 110 23:40 16.09.2019
1830 Clouds 14 1023 82 10000 3.6 110 23:19 16.09.2019
1831 Clouds 14 1023 82 10000 2.1 90 22:56 16.09.2019
1832 Clouds 14 1023 82 10000 2.1 90 22:56 16.09.2019
1833 Clouds 14 1023 82 10000 2.1 90 22:38 16.09.2019
1834 Clouds 15 1023 77 10000 3.6 100 22:20 16.09.2019
1835 Clouds 15 1023 77 10000 2.1 60 21:55 16.09.2019
1836 Clouds 15 1023 77 10000 2.1 60 21:55 16.09.2019
1837 Clouds 16 1023 72 10000 2.6 90 21:36 16.09.2019
1838 Clouds 16 1023 72 10000 2.6 90 21:18 16.09.2019
1839 Clouds 17 1023 67 10000 4.6 120 20:40 16.09.2019
1840 Clouds 17 1022 67 10000 3.1 130 20:21 16.09.2019
1841 Clouds 18 1022 59 10000 4.1 100 19:57 16.09.2019
1842 Clouds 18 1022 59 10000 4.1 100 19:39 16.09.2019
1843 Clouds 19 1022 55 10000 4.1 100 19:19 16.09.2019
1844 Clouds 19 1022 55 10000 3.6 90 18:47 16.09.2019
1845 Clouds 20 1021 52 10000 4.1 90 18:28 16.09.2019
1846 Clouds 21 1021 46 10000 5.7 100 17:57 16.09.2019
1847 Clouds 21 1021 46 10000 5.7 100 17:57 16.09.2019
1848 Clouds 22 1020 37 10000 5.1 100 17:38 16.09.2019
1849 Clouds 22 1020 37 10000 5.1 100 17:20 16.09.2019
1850 Clouds 24 1020 33 10000 5.7 90 16:54 16.09.2019
1851 Clouds 24 1020 33 10000 5.7 90 16:36 16.09.2019
1852 Clouds 26 1019 27 10000 6.2 110 16:18 16.09.2019
1853 Clear 27 1019 26 10000 4.6 80 15:54 16.09.2019
1854 Clear 29 1019 18 10000 2.6 80 15:36 16.09.2019
1855 Clear 29 1019 18 10000 2.6 80 15:18 16.09.2019
1856 Clear 29 1019 17 10000 2.1 10 14:40 16.09.2019
1857 Clear 29 1019 17 10000 2.1 0 14:22 16.09.2019
1858 -273 0 0 0 0 0 13:55 16.09.2019
1859 Clear 29 1019 17 10000 1.5 0 13:37 16.09.2019
1860 Clear 29 1020 17 10000 3.1 110 13:18 16.09.2019
1861 Clear 29 1020 17 10000 3.1 110 13:18 16.09.2019
1862 Clear 28 1020 20 10000 2.6 110 12:39 16.09.2019
1863 Clear 28 1020 20 10000 2.6 110 12:21 16.09.2019
1864 Clear 28 1021 20 10000 3.6 110 11:46 16.09.2019
1865 Clear 28 1021 20 10000 4.1 140 11:23 16.09.2019
1866 Clear 27 1022 21 10000 4.1 160 10:56 16.09.2019
1867 Clear 27 1022 21 10000 4.1 160 10:38 16.09.2019
1868 Clear 26 1022 22 10000 5.1 110 10:19 16.09.2019
1869 Clear 25 1023 22 10000 3.6 130 09:55 16.09.2019
1870 Clear 25 1023 22 10000 3.6 130 09:36 16.09.2019
1871 Clear 24 1023 27 10000 3.6 160 09:18 16.09.2019
1872 Clear 22 1023 30 10000 4.1 170 08:41 16.09.2019
1873 Clear 22 1023 30 10000 4.1 170 08:41 16.09.2019
1874 Clear 22 1023 28 10000 3.6 160 08:22 16.09.2019
1875 Clouds 20 1023 42 10000 2.1 170 07:43 16.09.2019
1876 Clouds 18 1023 52 10000 2.1 130 07:24 16.09.2019
1877 Clouds 16 1023 63 10000 1.5 0 06:58 16.09.2019
1878 Clouds 14 1022 76 10000 2.1 110 06:39 16.09.2019
1879 Clouds 14 1022 76 10000 2.1 110 06:21 16.09.2019
1880 Clouds 12 1022 81 10000 2.1 150 05:43 16.09.2019
1881 Clouds 11 1022 87 10000 2.1 120 05:21 16.09.2019
1882 Clouds 12 1022 93 10000 1.5 80 03:46 16.09.2019
1883 Clouds 14 1022 82 10000 1 90 01:31 16.09.2019
1884 Clouds 14 1023 82 10000 1.5 0 00:38 16.09.2019
1885 Clouds 14 1023 82 10000 1.5 0 00:20 16.09.2019
1886 Clouds 15 1023 72 10000 1 70 23:39 15.09.2019
1887 Clouds 15 1023 77 10000 2.1 50 23:20 15.09.2019
1888 Clouds 15 1024 77 10000 2.1 70 22:40 15.09.2019
1889 Clouds 16 1024 77 10000 1 60 22:21 15.09.2019
1890 Clouds 16 1024 77 10000 1 60 22:21 15.09.2019
1891 Clouds 16 1024 77 10000 1.5 50 21:58 15.09.2019
1892 Clouds 16 1024 77 10000 2.1 110 21:39 15.09.2019
1893 Clouds 16 1024 77 10000 2.1 110 21:21 15.09.2019
1894 Clouds 16 1024 77 10000 2.1 120 20:55 15.09.2019
1895 Clouds 16 1024 77 10000 2.1 120 20:55 15.09.2019
1896 Clouds 17 1024 72 10000 3.6 100 20:37 15.09.2019
1897 Clouds 17 1024 72 10000 3.6 100 20:19 15.09.2019
1898 Clouds 18 1024 68 10000 3.6 90 19:42 15.09.2019
1899 Clouds 18 1023 68 10000 4.1 100 19:22 15.09.2019
1900 Clouds 19 1023 63 10000 5.7 100 18:42 15.09.2019
1901 Clouds 20 1022 56 10000 6.2 110 18:24 15.09.2019
1902 Clouds 21 1022 52 10000 5.7 110 17:56 15.09.2019
1903 Clouds 21 1022 52 10000 5.7 110 17:56 15.09.2019
1904 Clouds 21 1022 52 10000 5.7 110 17:37 15.09.2019
1905 Clouds 22 1021 46 10000 5.7 110 17:19 15.09.2019
1906 Clouds 22 1021 46 10000 5.7 110 17:19 15.09.2019
1907 Clouds 24 1021 41 10000 6.2 90 16:42 15.09.2019
1908 Clouds 26 1021 31 10000 3.6 120 16:24 15.09.2019
1909 Clouds 27 1021 28 10000 2.1 0 15:58 15.09.2019
1910 Clouds 27 1021 28 10000 2.1 0 15:39 15.09.2019
1911 Clouds 27 1021 28 10000 3.6 120 15:20 15.09.2019
1912 Clouds 28 1021 26 10000 2.6 140 14:56 15.09.2019
1913 Clouds 28 1020 26 10000 3.6 80 14:38 15.09.2019
1914 Clouds 28 1020 26 10000 3.6 80 14:20 15.09.2019
1915 Clouds 28 1021 24 10000 4.1 90 13:45 15.09.2019
1916 Clouds 28 1021 24 10000 2.6 140 13:23 15.09.2019
1917 Clouds 28 1021 24 10000 3.6 200 12:44 15.09.2019
1918 Clouds 28 1022 23 10000 3.6 160 12:25 15.09.2019
1919 Clouds 27 1022 24 10000 3.6 170 11:59 15.09.2019
1920 Clouds 27 1022 24 10000 3.6 170 11:41 15.09.2019
1921 Clouds 28 1023 24 10000 1.5 140 11:22 15.09.2019
1922 -273 0 0 0 0 0 10:55 15.09.2019
1923 Clouds 27 1023 26 10000 2.1 0 10:37 15.09.2019
1924 Clouds 26 1023 31 10000 3.1 210 10:18 15.09.2019
1925 Clouds 26 1024 29 10000 2.6 0 09:39 15.09.2019
1926 Clouds 25 1024 38 10000 2.1 0 09:19 15.09.2019
1927 Clouds 24 1024 44 10000 2.1 0 08:46 15.09.2019
1928 Clouds 22 1024 49 10000 2.1 140 08:27 15.09.2019
1929 Clouds 21 1024 64 10000 2.1 150 07:49 15.09.2019
1930 Clouds 19 1024 77 10000 2.1 140 07:28 15.09.2019
1931 Clouds 18 1023 82 10000 2.1 130 06:43 15.09.2019
1932 Clouds 17 1022 82 10000 2.6 90 03:31 15.09.2019
1933 Clouds 17 1022 88 10000 2.6 90 02:35 15.09.2019
1934 Clouds 17 1022 88 10000 2.1 90 01:40 15.09.2019
1935 Clouds 17 1022 88 10000 2.1 90 01:40 15.09.2019
1936 Clouds 17 1022 88 10000 2.6 110 01:19 15.09.2019
1937 Clouds 17 1022 88 10000 2.1 90 00:43 15.09.2019
1938 Clouds 17 1023 88 10000 2.6 100 00:21 15.09.2019
1939 Clouds 17 1023 88 10000 3.1 70 23:58 14.09.2019
1940 Clouds 17 1023 88 10000 3.1 70 23:39 14.09.2019
1941 Clouds 17 1023 88 10000 3.1 70 23:39 14.09.2019
1942 Clouds 18 1023 82 10000 3.1 80 23:21 14.09.2019
1943 Clouds 18 1023 82 10000 3.6 80 22:59 14.09.2019
1944 Clouds 18 1023 82 10000 3.6 80 22:40 14.09.2019
1945 Clouds 18 1023 82 10000 3.1 80 22:19 14.09.2019
1946 Clouds 18 1023 82 10000 3.6 90 21:55 14.09.2019
1947 Clouds 18 1023 82 10000 3.6 90 21:36 14.09.2019
1948 Clouds 19 1023 77 10000 2.6 90 21:18 14.09.2019
1949 Clouds 19 1023 77 10000 4.6 110 20:40 14.09.2019
1950 Clouds 19 1023 77 10000 4.6 110 20:22 14.09.2019
1951 Clouds 19 1023 77 10000 3.6 140 19:53 14.09.2019
1952 Clouds 20 1023 68 10000 4.6 110 19:23 14.09.2019
1953 Clouds 20 1022 64 10000 3.6 110 18:59 14.09.2019
1954 Clouds 20 1022 64 10000 3.6 110 18:40 14.09.2019
1955 Clouds 20 1022 64 10000 2.6 130 18:21 14.09.2019
1956 Clouds 21 1022 60 10000 2.6 150 17:58 14.09.2019
1957 Clouds 21 1022 60 10000 2.6 150 17:39 14.09.2019
1958 Clouds 21 1022 56 10000 3.1 150 17:21 14.09.2019
1959 Clouds 21 1022 56 10000 3.6 140 16:43 14.09.2019
1960 Clouds 22 1021 53 10000 4.1 140 16:21 14.09.2019
1961 Clouds 23 1021 53 10000 5.1 140 15:43 14.09.2019
1962 Clouds 24 1020 41 10000 4.1 210 15:24 14.09.2019
1963 Clouds 25 1020 38 10000 2.1 210 14:59 14.09.2019
1964 Clouds 25 1020 38 10000 2.1 210 14:39 14.09.2019
1965 Clouds 26 1020 36 10000 1 0 14:18 14.09.2019
1966 Clouds 27 1020 34 10000 1.5 0 13:47 14.09.2019
1967 Clouds 27 1020 34 10000 1.5 0 13:47 14.09.2019
1968 Clouds 27 1020 34 10000 1.5 0 13:47 14.09.2019
1969 Clouds 27 1021 36 10000 2.1 0 13:22 14.09.2019
1970 Clouds 27 1021 36 10000 2.6 0 12:47 14.09.2019
1971 Clouds 26 1022 39 10000 2.1 130 12:25 14.09.2019
1972 Clouds 26 1022 41 10000 3.1 70 11:42 14.09.2019
1973 Clouds 25 1022 44 10000 2.1 0 11:21 14.09.2019
1974 Clouds 24 1023 50 10000 2.1 0 10:57 14.09.2019
1975 Clouds 24 1023 50 10000 2.1 0 10:36 14.09.2019
1976 Clouds 23 1023 53 10000 3.1 80 10:18 14.09.2019
1977 Clouds 22 1023 56 10000 3.1 80 09:55 14.09.2019
1978 Clouds 22 1023 56 10000 3.1 80 09:37 14.09.2019
1979 Clouds 20 1024 64 10000 3.1 50 09:18 14.09.2019
1980 Clouds 18 1024 72 10000 3.6 50 08:41 14.09.2019
1981 Clouds 17 1024 77 10000 2.6 40 08:22 14.09.2019
1982 Clouds 17 1024 72 10000 2.6 50 07:43 14.09.2019
1983 Clouds 16 1024 77 10000 1.5 60 07:23 14.09.2019
1984 Clouds 15 1023 82 10000 1 0 06:36 14.09.2019
1985 Clouds 14 1023 87 10000 1.5 60 05:55 14.09.2019
1986 Clouds 14 1023 87 10000 2.1 60 04:34 14.09.2019
1987 Clouds 14 1022 87 10000 3.6 70 03:25 14.09.2019
1988 Clouds 14 1022 93 10000 3.1 90 02:48 14.09.2019
1989 Clouds 14 1022 93 10000 3.1 90 02:48 14.09.2019
1990 Clouds 13 1023 93 10000 2.1 50 01:45 14.09.2019
1991 Clouds 13 1023 93 10000 2.1 50 01:19 14.09.2019
1992 Clouds 13 1023 93 10000 1.5 50 00:40 14.09.2019
1993 Clouds 13 1023 93 10000 1.5 50 00:22 14.09.2019
1994 Clouds 13 1023 93 10000 1 0 23:56 13.09.2019
1995 Clouds 14 1023 87 10000 1 40 23:37 13.09.2019
1996 Clouds 14 1023 87 10000 1 40 23:18 13.09.2019
1997 Clouds 14 1023 87 10000 2.6 80 22:41 13.09.2019
1998 Clouds 14 1023 87 10000 4.1 100 22:22 13.09.2019
1999 Clouds 15 1023 82 10000 3.1 90 21:59 13.09.2019
2000 Clouds 15 1023 82 10000 3.1 90 21:39 13.09.2019
2001 Clouds 15 1023 87 10000 4.1 100 21:19 13.09.2019
2002 Clouds 16 1023 82 10000 4.1 90 20:57 13.09.2019
2003 Clouds 16 1023 82 10000 4.1 90 20:57 13.09.2019
2004 Clouds 16 1023 82 10000 4.1 90 20:57 13.09.2019
2005 Clouds 16 1023 82 10000 4.1 90 20:37 13.09.2019
2006 Clouds 16 1024 82 10000 3.6 90 20:19 13.09.2019
2007 Clouds 17 1024 72 10000 5.7 90 19:44 13.09.2019
2008 Clouds 17 1023 72 10000 3.1 90 19:22 13.09.2019
2009 Clouds 17 1023 72 10000 5.1 100 18:59 13.09.2019
2010 Clouds 17 1022 67 10000 5.1 100 18:38 13.09.2019
2011 Clouds 17 1022 67 10000 5.1 100 18:19 13.09.2019
2012 Clouds 18 1022 63 10000 5.1 100 17:44 13.09.2019
2013 Clouds 19 1022 59 10000 5.7 100 17:21 13.09.2019
2014 Clouds 20 1022 56 10000 6.7 100 16:59 13.09.2019
2015 Clouds 20 1022 56 10000 6.7 100 16:39 13.09.2019
2016 Clouds 21 1022 52 10000 5.7 90 16:19 13.09.2019
2017 Clouds 23 1022 46 10000 6.2 90 15:42 13.09.2019
2018 Clouds 24 1021 41 10000 4.6 90 15:23 13.09.2019
2019 -273 0 0 0 0 0 14:55 13.09.2019
2020 Clouds 24 1021 41 10000 4.6 100 14:37 13.09.2019
2021 Clouds 25 1021 38 10000 4.1 130 14:18 13.09.2019
2022 Clouds 25 1021 38 10000 4.1 130 14:18 13.09.2019
2023 Clouds 25 1022 38 10000 5.1 100 13:41 13.09.2019
2024 Clouds 25 1022 38 10000 4.6 120 13:22 13.09.2019
2025 Clouds 25 1022 36 10000 4.1 100 12:45 13.09.2019
2026 Clouds 24 1022 41 10000 4.6 130 12:25 13.09.2019
2027 Clouds 24 1023 41 10000 4.1 90 11:57 13.09.2019
2028 Clouds 24 1023 38 10000 5.1 100 11:20 13.09.2019
2029 Clouds 24 1024 38 10000 5.1 100 10:42 13.09.2019
2030 Clouds 22 1024 43 10000 4.1 100 10:21 13.09.2019
2031 Clouds 22 1024 43 10000 3.6 120 09:56 13.09.2019
2032 Clouds 22 1024 43 10000 3.6 120 09:37 13.09.2019
2033 Clouds 22 1024 43 10000 3.6 120 09:37 13.09.2019
2034 Clouds 21 1025 49 10000 4.1 110 09:19 13.09.2019
2035 Clouds 21 1025 49 10000 5.1 90 08:42 13.09.2019
2036 Clouds 19 1025 55 10000 4.6 90 08:21 13.09.2019
2037 Clouds 19 1025 59 10000 3.1 110 07:59 13.09.2019
2038 Clouds 19 1025 59 10000 3.1 110 07:40 13.09.2019
2039 Clouds 14 1025 82 10000 2.6 120 06:54 13.09.2019
2040 Clouds 14 1025 82 10000 2.6 80 06:34 13.09.2019
2041 Clouds 12 1024 93 10000 3.6 100 05:30 13.09.2019
2042 Clouds 14 1024 82 10000 2.1 80 03:44 13.09.2019
2043 Clouds 14 1023 82 10000 2.1 150 02:54 13.09.2019
2044 Clouds 15 1023 77 10000 2.6 120 02:19 13.09.2019
2045 Clouds 15 1024 77 10000 4.1 110 01:35 13.09.2019
2046 Clouds 15 1024 77 10000 3.6 130 00:59 13.09.2019
2047 Clouds 15 1024 82 10000 3.1 100 00:33 13.09.2019
2048 Clouds 15 1024 82 10000 3.1 80 23:46 12.09.2019
2049 Clouds 15 1024 82 10000 2.6 80 23:22 12.09.2019
2050 Clouds 15 1025 87 10000 3.1 80 22:56 12.09.2019
2051 Clouds 15 1025 82 10000 3.1 90 22:38 12.09.2019
2052 Clouds 15 1025 82 10000 3.1 90 22:18 12.09.2019
2053 Clouds 15 1025 82 10000 3.1 80 21:54 12.09.2019
2054 Clouds 15 1025 82 10000 3.6 90 21:36 12.09.2019
2055 Clouds 15 1025 82 10000 3.6 90 21:18 12.09.2019
2056 Clouds 16 1025 77 10000 4.1 100 20:41 12.09.2019
2057 Clouds 16 1025 77 10000 4.6 120 20:21 12.09.2019
2058 Clouds 16 1025 77 10000 5.7 120 19:56 12.09.2019
2059 Clouds 16 1025 77 10000 5.7 120 19:37 12.09.2019
2060 Clouds 17 1025 72 10000 6.2 100 19:19 12.09.2019
2061 Clouds 17 1025 72 10000 6.2 100 19:19 12.09.2019
2062 Clouds 18 1024 68 10000 6.2 100 18:38 12.09.2019
2063 Clouds 18 1024 68 10000 6.7 100 18:20 12.09.2019
2064 Clouds 19 1023 59 10000 6.2 110 17:59 12.09.2019
2065 Clouds 19 1023 59 10000 7.7 100 17:39 12.09.2019
2066 Clouds 19 1023 59 10000 7.7 100 17:19 12.09.2019
2067 Clouds 20 1023 56 10000 6.7 110 16:42 12.09.2019
2068 Clouds 21 1022 52 10000 7.2 110 16:22 12.09.2019
2069 Clouds 23 1022 46 10000 6.7 110 15:58 12.09.2019
2070 Clouds 23 1022 46 10000 6.7 110 15:38 12.09.2019
2071 Clouds 24 1021 44 10000 6.2 100 15:20 12.09.2019
2072 Clouds 25 1021 38 10000 5.7 100 14:44 12.09.2019
2073 Clouds 25 1021 41 10000 5.7 110 14:21 12.09.2019
2074 Clouds 26 1021 39 10000 5.7 120 13:40 12.09.2019
2075 Clouds 25 1022 44 10000 5.1 120 13:22 12.09.2019
2076 Clouds 26 1022 39 10000 3.6 140 12:49 12.09.2019
2077 Clouds 27 1022 36 10000 2.1 0 12:20 12.09.2019
2078 Clouds 25 1023 44 10000 2.1 0 12:00 12.09.2019
2079 Clouds 25 1023 44 10000 2.1 0 11:41 12.09.2019
2080 Clouds 24 1023 44 10000 1.5 0 11:22 12.09.2019
2081 Clouds 24 1024 44 10000 2.1 130 10:57 12.09.2019
2082 Clouds 24 1024 44 10000 2.1 130 10:39 12.09.2019
2083 Clouds 22 1024 49 10000 2.1 0 10:20 12.09.2019
2084 Clear 21 1025 52 10000 1.5 0 09:43 12.09.2019
2085 Clear 20 1025 52 10000 2.6 120 09:20 12.09.2019
2086 Clear 20 1025 52 10000 2.1 170 08:45 12.09.2019
2087 Clouds 18 1025 59 10000 2.6 130 08:25 12.09.2019
2088 Clouds 17 1025 67 10000 2.6 140 07:56 12.09.2019
2089 Clouds 17 1025 67 10000 2.6 140 07:38 12.09.2019
2090 Clouds 16 1025 67 10000 3.1 110 07:18 12.09.2019
2091 Clouds 14 1025 76 10000 3.6 120 06:46 12.09.2019
2092 Clouds 14 1025 76 10000 2.6 80 06:19 12.09.2019
2093 Clouds 13 1024 82 10000 3.6 100 05:43 12.09.2019
2094 Clouds 13 1024 87 10000 3.6 110 05:19 12.09.2019
2095 Clouds 12 1024 93 10000 1 0 03:59 12.09.2019
2096 Clouds 13 1023 87 10000 3.1 70 01:45 12.09.2019
2097 Clouds 14 1024 82 10000 2.6 80 01:27 12.09.2019
2098 Clouds 14 1024 87 10000 2.6 60 00:50 12.09.2019
2099 Clouds 14 1024 87 10000 4.1 70 00:31 12.09.2019
2100 Clouds 14 1024 87 10000 3.1 90 23:49 11.09.2019
2101 Clouds 14 1024 87 10000 3.1 90 23:27 11.09.2019
2102 Clouds 15 1025 82 10000 3.1 90 22:58 11.09.2019
2103 Clouds 15 1025 82 10000 3.1 90 22:38 11.09.2019
2104 Clouds 14 1025 87 10000 3.1 110 22:20 11.09.2019
2105 Clouds 14 1025 87 10000 3.1 110 22:20 11.09.2019
2106 Clouds 14 1025 87 10000 3.1 110 22:20 11.09.2019
2107 Clouds 14 1025 87 10000 4.1 100 21:59 11.09.2019
2108 Clouds 14 1025 87 10000 4.1 100 21:41 11.09.2019
2109 Clouds 15 1025 82 10000 4.6 100 21:22 11.09.2019
2110 Clouds 16 1025 77 10000 5.1 130 20:56 11.09.2019
2111 Clouds 16 1025 77 10000 5.1 130 20:38 11.09.2019
2112 Clouds 16 1025 77 10000 5.1 130 20:19 11.09.2019
2113 Clouds 17 1024 72 10000 4.1 130 19:56 11.09.2019
2114 Clouds 17 1024 72 10000 3.6 140 19:37 11.09.2019
2115 Clouds 17 1024 72 10000 3.6 140 19:37 11.09.2019
2116 Clouds 17 1024 72 10000 3.6 140 19:19 11.09.2019
2117 Clouds 17 1023 72 10000 5.1 100 18:43 11.09.2019
2118 Clouds 18 1023 68 10000 5.1 110 18:24 11.09.2019
2119 Clouds 19 1022 59 10000 5.7 100 17:58 11.09.2019
2120 Clouds 19 1022 59 10000 5.7 100 17:40 11.09.2019
2121 Clouds 19 1022 59 10000 5.7 100 17:21 11.09.2019
2122 -273 0 0 0 0 0 16:56 11.09.2019
2123 Clouds 21 1022 52 10000 5.7 90 16:56 11.09.2019
2124 Clouds 21 1022 52 10000 5.7 90 16:36 11.09.2019
2125 Clouds 23 1021 46 10000 5.7 80 16:18 11.09.2019
2126 Clouds 24 1021 44 10000 5.1 90 15:46 11.09.2019
2127 Clouds 25 1021 41 10000 6.2 90 15:23 11.09.2019
2128 Clouds 24 1021 44 10000 5.7 90 14:57 11.09.2019
2129 Clouds 26 1021 41 10000 3.6 130 14:38 11.09.2019
2130 Clouds 26 1021 41 10000 3.6 130 14:19 11.09.2019
2131 Clouds 27 1021 36 10000 2.6 0 13:55 11.09.2019
2132 Clouds 27 1021 36 10000 2.1 0 13:36 11.09.2019
2133 Clouds 27 1021 36 10000 2.1 0 13:18 11.09.2019
2134 Clouds 27 1021 32 10000 2.6 0 12:41 11.09.2019
2135 Clouds 26 1022 39 10000 2.6 200 12:21 11.09.2019
2136 Clouds 25 1022 41 10000 2.1 0 11:55 11.09.2019
2137 Clouds 25 1022 41 10000 2.1 0 11:55 11.09.2019
2138 Clouds 25 1022 44 10000 2.1 0 11:36 11.09.2019
2139 Clouds 25 1022 44 10000 2.1 0 11:36 11.09.2019
2140 Clouds 25 1022 44 10000 2.1 0 11:18 11.09.2019
2141 Clouds 23 1023 46 10000 1.5 0 10:40 11.09.2019
2142 Clouds 22 1023 49 10000 2.1 60 10:21 11.09.2019
2143 Clouds 20 1024 60 10000 2.6 140 09:40 11.09.2019
2144 Clouds 19 1024 59 10000 2.1 0 09:20 11.09.2019
2145 Clouds 19 1024 59 10000 2.1 0 09:20 11.09.2019
2146 Clouds 17 1024 67 10000 2.6 140 08:59 11.09.2019
2147 Clouds 17 1024 67 10000 2.6 140 08:39 11.09.2019
2148 Clouds 16 1025 72 10000 3.1 140 08:20 11.09.2019
2149 Clouds 14 1025 82 10000 2.6 150 07:43 11.09.2019
2150 Clouds 15 1024 77 10000 2.6 110 07:23 11.09.2019
2151 Clouds 14 1024 82 10000 2.6 110 06:52 11.09.2019
2152 Clouds 12 1024 93 10000 1.5 0 06:33 11.09.2019
2153 Clouds 11 1023 100 10000 1.5 0 05:46 11.09.2019
2154 Clouds 10 1023 100 10000 1 130 05:28 11.09.2019
2155 Clouds 10 1023 100 10000 1 0 04:42 11.09.2019
2156 Clouds 11 1022 93 10000 1 80 03:33 11.09.2019
2157 Clouds 11 1022 93 10000 1 0 02:46 11.09.2019
2158 Clouds 12 1022 93 10000 1.5 140 02:18 11.09.2019
2159 Clouds 12 1023 87 10000 1.5 130 00:52 11.09.2019
2160 Clouds 12 1023 93 10000 3.1 100 00:23 11.09.2019
2161 Clouds 12 1023 93 10000 3.1 100 23:55 10.09.2019
2162 Clouds 13 1024 87 10000 4.1 100 23:37 10.09.2019
2163 Clouds 13 1024 87 10000 4.1 100 23:18 10.09.2019
2164 Clouds 13 1024 87 10000 4.1 110 22:41 10.09.2019
2165 Clouds 13 1024 87 10000 3.1 100 22:19 10.09.2019
2166 Clouds 13 1024 87 10000 3.6 110 21:55 10.09.2019
2167 Clouds 13 1024 87 10000 3.6 110 21:37 10.09.2019
2168 Clouds 13 1024 87 10000 4.1 100 21:18 10.09.2019
2169 Clouds 14 1024 82 10000 4.1 110 20:57 10.09.2019
2170 Clouds 14 1024 87 10000 4.1 100 20:38 10.09.2019
2171 Clouds 14 1024 87 10000 4.1 100 20:20 10.09.2019
2172 Clouds 14 1024 87 10000 4.6 90 19:56 10.09.2019
2173 Clouds 15 1024 82 10000 4.1 100 19:37 10.09.2019
2174 Clouds 15 1024 82 10000 4.1 100 19:19 10.09.2019
2175 Clouds 15 1023 82 10000 4.6 90 18:55 10.09.2019
2176 Clouds 16 1023 77 10000 4.6 100 18:37 10.09.2019
2177 Clouds 16 1023 77 10000 4.6 100 18:18 10.09.2019
2178 Clouds 17 1023 72 10000 5.1 90 17:42 10.09.2019
2179 Clouds 17 1023 72 10000 5.1 90 17:21 10.09.2019
2180 Clouds 18 1022 63 10000 4.6 80 16:58 10.09.2019
2181 Clouds 19 1022 59 10000 6.2 110 16:39 10.09.2019
2182 Clouds 19 1022 59 10000 6.2 110 16:20 10.09.2019
2183 Clouds 21 1022 52 10000 5.7 100 15:57 10.09.2019
2184 Clouds 21 1022 52 10000 5.7 100 15:39 10.09.2019
2185 Clouds 22 1022 53 10000 5.1 100 15:20 10.09.2019
2186 Clouds 23 1021 46 10000 4.6 100 14:40 10.09.2019
2187 Clouds 22 1021 49 10000 4.6 90 14:22 10.09.2019
2188 Clouds 22 1022 49 10000 4.6 90 13:49 10.09.2019
2189 Clouds 22 1022 49 10000 5.1 110 13:24 10.09.2019
2190 Clouds 22 1022 49 10000 6.2 110 12:56 10.09.2019
2191 Clouds 22 1022 49 10000 6.2 110 12:38 10.09.2019
2192 Clouds 22 1023 49 10000 6.7 120 12:19 10.09.2019
2193 Clouds 22 1023 53 10000 4.6 110 11:42 10.09.2019
2194 Clouds 22 1023 53 10000 4.6 110 11:23 10.09.2019
2195 Clouds 22 1024 49 10000 5.1 100 10:59 10.09.2019
2196 Clouds 21 1024 52 10000 5.7 80 10:38 10.09.2019
2197 Clouds 21 1024 52 10000 5.7 80 10:18 10.09.2019
2198 Clouds 20 1024 56 10000 5.7 90 09:46 10.09.2019
2199 Clouds 20 1025 60 10000 5.1 90 09:20 10.09.2019
2200 Clouds 18 1025 63 10000 4.1 120 08:57 10.09.2019
2201 Clouds 17 1025 67 10000 4.6 120 08:38 10.09.2019
2202 Clouds 17 1025 67 10000 4.6 120 08:20 10.09.2019
2203 Clouds 16 1025 72 10000 4.1 130 07:44 10.09.2019
2204 Clouds 16 1025 72 10000 5.1 120 07:25 10.09.2019
2205 Clouds 15 1025 77 10000 5.1 120 06:46 10.09.2019
2206 Clouds 15 1025 77 10000 4.6 110 06:28 10.09.2019
2207 Clouds 12 1024 100 10000 2.1 140 04:38 10.09.2019
2208 Clouds 13 1023 93 10000 2.1 150 02:44 10.09.2019
2209 Clouds 13 1023 93 10000 2.1 150 02:22 10.09.2019
2210 Clouds 13 1023 93 10000 2.1 150 02:22 10.09.2019
2211 Clouds 13 1024 93 10000 2.6 160 01:52 10.09.2019
2212 Clouds 13 1024 93 10000 2.6 160 01:52 10.09.2019
2213 Clouds 13 1024 93 10000 2.6 160 01:52 10.09.2019
2214 Clouds 13 1024 93 10000 2.6 160 01:52 10.09.2019
2215 Clouds 13 1024 93 10000 2.1 140 01:23 10.09.2019
2216 Clouds 14 1024 87 10000 2.6 130 00:44 10.09.2019
2217 Clouds 14 1024 87 10000 3.1 140 00:23 10.09.2019
2218 Clouds 14 1025 87 10000 4.6 110 23:41 09.09.2019
2219 Clouds 14 1025 87 10000 4.6 110 23:19 09.09.2019
2220 Clouds 15 1025 82 10000 4.1 110 22:55 09.09.2019
2221 Clouds 15 1025 87 10000 3.6 90 22:37 09.09.2019
2222 Clouds 15 1025 87 10000 3.6 90 22:19 09.09.2019
2223 Clouds 15 1025 87 10000 3.6 100 21:56 09.09.2019
2224 Clouds 15 1026 82 10000 4.1 120 21:37 09.09.2019
2225 Clouds 15 1026 82 10000 4.1 120 21:19 09.09.2019
2226 Clouds 16 1026 77 10000 4.6 100 20:55 09.09.2019
2227 Clouds 16 1026 77 10000 4.6 110 20:36 09.09.2019
2228 Clouds 16 1026 77 10000 4.6 110 20:18 09.09.2019
2229 Clouds 16 1026 77 10000 4.6 110 20:18 09.09.2019
2230 Clouds 16 1026 82 10000 3.1 130 19:56 09.09.2019
2231 Clouds 16 1025 82 10000 4.1 90 19:37 09.09.2019
2232 Clouds 16 1025 82 10000 4.1 90 19:19 09.09.2019
2233 Clouds 15 1025 82 10000 4.1 90 18:55 09.09.2019
2234 Clouds 15 1025 82 10000 4.1 90 18:37 09.09.2019
2235 Clouds 15 1025 82 10000 4.1 90 18:18 09.09.2019
2236 Clouds 16 1025 77 10000 4.6 110 17:56 09.09.2019
2237 Clouds 17 1025 72 10000 5.7 100 17:38 09.09.2019
2238 Clouds 17 1025 72 10000 5.7 100 17:20 09.09.2019
2239 Clouds 20 1024 56 10000 6.7 120 16:40 09.09.2019
2240 Clouds 20 1024 56 10000 6.7 120 16:21 09.09.2019
2241 Clouds 20 1024 56 10000 6.7 120 16:21 09.09.2019
2242 Clouds 20 1024 56 10000 5.7 90 15:56 09.09.2019
2243 Clouds 21 1024 49 10000 5.1 110 15:38 09.09.2019
2244 Clouds 21 1024 49 10000 5.1 110 15:20 09.09.2019
2245 Clouds 20 1024 56 10000 6.7 120 14:57 09.09.2019
2246 Clouds 21 1024 52 10000 6.2 90 14:38 09.09.2019
2247 Clouds 21 1024 52 10000 6.2 90 14:20 09.09.2019
2248 Clouds 21 1024 52 10000 6.7 100 13:45 09.09.2019
2249 Clouds 23 1024 46 10000 6.2 100 13:22 09.09.2019
2250 Clouds 23 1024 46 10000 6.2 100 13:22 09.09.2019
2251 Clouds 23 1024 46 10000 6.7 90 12:59 09.09.2019
2252 Clouds 23 1025 46 10000 7.2 90 12:41 09.09.2019
2253 Clouds 23 1025 46 10000 7.2 90 12:21 09.09.2019
2254 -273 0 0 0 0 0 11:55 09.09.2019
2255 -273 0 0 0 0 0 11:55 09.09.2019
2256 Clouds 20 1026 56 10000 5.7 120 11:36 09.09.2019
2257 Clouds 20 1026 56 10000 5.7 120 11:18 09.09.2019
2258 Clouds 20 1026 56 10000 5.7 120 10:42 09.09.2019
2259 Clouds 19 1027 63 10000 5.1 140 10:21 09.09.2019
2260 Clouds 18 1027 68 10000 5.7 150 09:57 09.09.2019
2261 Clouds 17 1028 72 10000 5.7 150 09:38 09.09.2019
2262 Clouds 17 1028 72 10000 5.7 150 09:20 09.09.2019
2263 Clouds 16 1028 77 10000 5.7 140 08:39 09.09.2019
2264 Clouds 16 1028 77 10000 5.7 140 08:20 09.09.2019
2265 Clouds 15 1028 82 10000 5.1 160 07:48 09.09.2019
2266 Clouds 14 1028 87 10000 4.6 150 07:23 09.09.2019
2267 Drizzle 14 1027 87 10000 4.1 140 06:58 09.09.2019
2268 Drizzle 13 1027 100 6000 3.6 150 06:40 09.09.2019
2269 Drizzle 13 1026 93 9000 3.1 140 04:56 09.09.2019
2270 Clouds 14 1026 87 10000 3.1 140 02:59 09.09.2019
2271 Clouds 14 1026 87 10000 4.1 130 02:39 09.09.2019
2272 Clouds 14 1026 87 10000 3.6 160 00:46 09.09.2019
2273 Clouds 14 1027 87 10000 3.6 160 00:22 09.09.2019
2274 Clouds 14 1027 87 10000 3.6 150 23:46 08.09.2019
2275 Clouds 14 1027 87 10000 4.6 140 23:24 08.09.2019
2276 Clouds 14 1028 87 10000 3.1 140 22:57 08.09.2019
2277 Clouds 14 1028 87 10000 3.6 140 22:38 08.09.2019
2278 Clouds 14 1028 87 10000 3.6 140 22:19 08.09.2019
2279 Clouds 14 1028 87 10000 3.6 130 21:42 08.09.2019
2280 Clouds 14 1028 87 10000 3.6 130 21:23 08.09.2019
2281 Clouds 14 1028 87 10000 3.1 140 20:58 08.09.2019
2282 Clouds 14 1028 87 10000 4.1 140 20:39 08.09.2019
2283 Clouds 14 1028 87 10000 4.1 140 20:20 08.09.2019
2284 Clouds 14 1028 87 10000 5.7 140 19:58 08.09.2019
2285 Clouds 15 1028 82 10000 4.6 140 19:38 08.09.2019
2286 Clouds 15 1028 82 10000 4.6 140 19:19 08.09.2019
2287 Clouds 14 1028 82 10000 4.1 140 18:57 08.09.2019
2288 Clouds 14 1028 87 10000 4.6 150 18:38 08.09.2019
2289 Clouds 14 1028 87 10000 4.6 150 18:18 08.09.2019
2290 Drizzle 14 1028 87 8000 4.6 150 17:54 08.09.2019
2291 Clouds 15 1027 77 10000 5.7 150 17:36 08.09.2019
2292 Clouds 15 1027 77 10000 5.7 150 17:18 08.09.2019
2293 Clouds 16 1026 72 10000 5.1 130 16:42 08.09.2019
2294 Clouds 16 1026 72 10000 7.7 110 16:21 08.09.2019
2295 Clouds 17 1026 67 10000 6.2 130 15:58 08.09.2019
2296 Clouds 17 1026 67 10000 6.2 120 15:39 08.09.2019
2297 Clouds 17 1026 67 10000 6.2 120 15:21 08.09.2019
2298 Clouds 17 1026 67 10000 6.7 140 14:54 08.09.2019
2299 Clouds 18 1026 63 10000 7.7 150 14:36 08.09.2019
2300 Clouds 18 1026 63 10000 7.7 150 14:18 08.09.2019
2301 Clouds 19 1025 59 10000 6.7 140 13:54 08.09.2019
2302 Clouds 19 1025 59 10000 7.7 150 13:36 08.09.2019
2303 Clouds 19 1025 59 10000 7.7 150 13:18 08.09.2019
2304 Clouds 20 1025 56 10000 7.7 140 12:41 08.09.2019
2305 Clouds 20 1025 56 10000 7.7 140 12:22 08.09.2019
2306 Clouds 18 1026 59 10000 8.2 140 11:58 08.09.2019
2307 Clouds 18 1027 59 10000 8.2 140 11:38 08.09.2019
2308 Clouds 18 1027 59 10000 8.2 140 11:19 08.09.2019
2309 Clouds 18 1027 59 10000 7.2 140 10:55 08.09.2019
2310 Clouds 18 1028 59 10000 8.2 150 10:36 08.09.2019
2311 Clouds 18 1028 59 10000 8.2 150 10:18 08.09.2019
2312 Clouds 18 1028 59 10000 8.7 140 09:38 08.09.2019
2313 Clouds 18 1028 59 10000 8.7 140 09:19 08.09.2019
2314 Clouds 15 1028 72 10000 7.7 150 08:40 08.09.2019
2315 Clouds 15 1028 72 10000 7.7 150 08:19 08.09.2019
2316 Clouds 14 1028 71 10000 7.7 160 07:59 08.09.2019
2317 Clouds 14 1028 71 10000 8.2 150 07:37 08.09.2019
2318 Clouds 14 1028 71 10000 8.2 150 07:19 08.09.2019
2319 Clouds 14 1028 71 10000 8.2 160 06:44 08.09.2019
2320 Clouds 13 1027 76 10000 6.2 150 05:44 08.09.2019
2321 Clouds 13 1027 76 10000 6.7 160 05:26 08.09.2019
2322 Clouds 13 1026 76 10000 6.7 160 03:24 08.09.2019
2323 Clouds 13 1026 76 10000 6.7 160 02:48 08.09.2019
2324 Clouds 13 1026 76 10000 6.7 150 01:54 08.09.2019
2325 Clouds 13 1026 76 10000 7.7 160 01:29 08.09.2019
2326 Clouds 13 1027 76 10000 6.7 150 00:49 08.09.2019
2327 Clouds 13 1027 76 10000 7.2 160 00:30 08.09.2019
2328 Clouds 14 1027 76 10000 6.2 150 23:57 07.09.2019
2329 Clouds 14 1027 71 10000 8.2 160 23:37 07.09.2019
2330 Clouds 14 1027 71 10000 8.2 160 23:18 07.09.2019
2331 Clouds 15 1027 72 10000 6.7 160 22:43 07.09.2019
2332 Clouds 15 1027 72 10000 6.7 160 22:25 07.09.2019
2333 Clouds 15 1027 72 10000 6.7 160 21:56 07.09.2019
2334 Clouds 15 1027 72 10000 6.7 150 21:38 07.09.2019
2335 Clouds 15 1027 72 10000 6.7 150 21:20 07.09.2019
2336 Clouds 15 1027 72 10000 7.2 160 20:40 07.09.2019
2337 Clouds 15 1027 72 10000 7.2 160 20:21 07.09.2019
2338 Clouds 15 1027 72 10000 6.2 160 19:56 07.09.2019
2339 Clouds 15 1027 72 10000 6.2 160 19:38 07.09.2019
2340 Clouds 15 1027 72 10000 6.2 160 19:19 07.09.2019
2341 Clouds 16 1027 72 10000 5.7 150 18:58 07.09.2019
2342 Clouds 16 1026 72 10000 6.7 150 18:38 07.09.2019
2343 Clouds 16 1026 72 10000 6.7 150 18:20 07.09.2019
2344 Clouds 16 1026 72 10000 5.1 150 17:58 07.09.2019
2345 Clouds 17 1025 67 10000 5.1 140 17:39 07.09.2019
2346 Clouds 17 1025 67 10000 5.1 140 17:18 07.09.2019
2347 Clouds 17 1025 67 10000 5.7 150 16:55 07.09.2019
2348 Clouds 19 1025 59 10000 7.2 160 16:36 07.09.2019
2349 Clouds 19 1025 59 10000 7.2 160 16:18 07.09.2019
2350 Clouds 20 1024 56 10000 6.7 150 15:43 07.09.2019
2351 Clouds 22 1024 49 10000 7.2 130 15:24 07.09.2019
2352 Clouds 21 1023 52 10000 6.7 130 14:56 07.09.2019
2353 Clouds 23 1023 46 10000 8.2 150 14:36 07.09.2019
2354 Clouds 23 1023 46 10000 8.2 150 14:18 07.09.2019
2355 Clouds 24 1023 41 10000 6.7 120 13:44 07.09.2019
2356 Clouds 24 1023 38 10000 4.6 150 13:25 07.09.2019
2357 Clouds 24 1023 41 10000 5.1 130 12:54 07.09.2019
2358 Clouds 23 1023 43 10000 5.1 130 12:36 07.09.2019
2359 Clouds 23 1023 43 10000 5.1 130 12:36 07.09.2019
2360 Clouds 23 1023 43 10000 5.1 130 12:18 07.09.2019
2361 Clouds 24 1024 41 10000 4.1 130 11:40 07.09.2019
2362 Clouds 24 1024 41 10000 4.1 130 11:21 07.09.2019
2363 Clouds 22 1025 46 10000 4.1 160 10:41 07.09.2019
2364 Clouds 22 1025 46 10000 4.1 160 10:23 07.09.2019
2365 Clouds 21 1025 49 10000 4.1 140 09:59 07.09.2019
2366 Clouds 20 1025 49 10000 4.6 170 09:40 07.09.2019
2367 Clouds 20 1025 49 10000 4.6 170 09:40 07.09.2019
2368 Clouds 20 1025 49 10000 4.6 170 09:21 07.09.2019
2369 Clouds 20 1025 52 10000 4.1 150 08:49 07.09.2019
2370 Clouds 18 1025 59 10000 5.1 140 08:30 07.09.2019
2371 Clouds 17 1025 67 10000 4.6 150 07:49 07.09.2019
2372 Clouds 17 1026 67 10000 3.6 140 07:29 07.09.2019
2373 Clouds 16 1025 72 10000 3.6 130 06:57 07.09.2019
2374 Clouds 14 1025 82 10000 2.6 150 06:39 07.09.2019
2375 Clouds 13 1025 87 10000 4.1 120 05:38 07.09.2019
2376 Clouds 14 1024 76 10000 3.6 140 04:26 07.09.2019
2377 Clouds 14 1023 76 10000 2.1 130 03:31 07.09.2019
2378 Clouds 13 1023 82 10000 2.39 137.19 02:22 07.09.2019
2379 Clouds 14 1023 82 10000 0.5 70 01:27 07.09.2019
2380 Clouds 15 1023 77 10000 1 90 00:52 07.09.2019
2381 Clouds 15 1023 77 10000 1 80 00:23 07.09.2019
2382 Clouds 15 1024 77 10000 1.5 40 23:57 06.09.2019
2383 Clouds 15 1024 77 10000 1 0 23:37 06.09.2019
2384 Clouds 15 1024 77 10000 1 0 23:18 06.09.2019
2385 Clouds 15 1024 77 10000 1 0 22:55 06.09.2019
2386 Clouds 15 1024 77 10000 1.5 70 22:36 06.09.2019
2387 Clouds 15 1024 77 10000 1.5 70 22:18 06.09.2019
2388 Clouds 16 1024 72 10000 1 0 21:41 06.09.2019
2389 Clouds 16 1024 72 10000 1 0 21:41 06.09.2019
2390 Clouds 16 1024 72 10000 2.1 110 21:23 06.09.2019
2391 Clouds 17 1024 67 10000 2.1 140 20:59 06.09.2019
2392 Clouds 17 1024 67 10000 2.6 150 20:40 06.09.2019
2393 Clouds 17 1024 67 10000 2.6 150 20:21 06.09.2019
2394 Clouds 17 1024 67 10000 2.6 120 19:58 06.09.2019
2395 Clouds 17 1024 67 10000 4.1 100 19:40 06.09.2019
2396 Clouds 17 1024 67 10000 4.1 100 19:20 06.09.2019
2397 Clouds 18 1023 59 10000 3.1 80 18:47 06.09.2019
2398 Clouds 19 1023 52 10000 5.1 100 18:29 06.09.2019
2399 Clouds 20 1023 49 10000 5.7 110 17:59 06.09.2019
2400 Clouds 20 1023 49 10000 5.7 110 17:59 06.09.2019
2401 Clouds 21 1022 40 10000 5.7 100 17:38 06.09.2019
2402 Clouds 21 1022 40 10000 5.7 100 17:20 06.09.2019
2403 Clouds 21 1022 40 10000 5.7 100 17:20 06.09.2019
2404 Clouds 22 1021 37 10000 5.1 100 16:42 06.09.2019
2405 Clouds 22 1021 37 10000 5.1 100 16:19 06.09.2019
2406 Clouds 23 1021 33 10000 6.2 110 15:59 06.09.2019
2407 Clouds 26 1021 26 10000 4.6 110 15:39 06.09.2019
2408 Clouds 26 1021 26 10000 4.6 110 15:21 06.09.2019
2409 Clouds 27 1021 21 10000 2.1 100 14:40 06.09.2019
2410 Clouds 27 1021 21 10000 2.1 100 14:19 06.09.2019
2411 Clouds 28 1021 21 10000 2.6 360 13:43 06.09.2019
2412 Clouds 28 1021 21 10000 2.6 360 13:22 06.09.2019
2413 Clouds 28 1021 21 10000 2.6 360 13:22 06.09.2019
2414 Clouds 27 1022 21 10000 2.1 140 12:41 06.09.2019
2415 Clouds 27 1022 21 10000 2.1 140 12:23 06.09.2019
2416 Clouds 26 1022 24 10000 2.1 0 11:59 06.09.2019
2417 Clouds 25 1023 25 10000 4.1 170 11:40 06.09.2019
2418 Clouds 25 1023 25 10000 4.1 170 11:22 06.09.2019
2419 Clouds 25 1023 25 10000 4.1 180 10:54 06.09.2019
2420 Clouds 24 1023 29 10000 3.1 190 10:36 06.09.2019
2421 Clouds 24 1023 29 10000 3.1 190 10:18 06.09.2019
2422 Clear 22 1024 33 10000 1.5 0 09:37 06.09.2019
2423 Clear 22 1024 33 10000 1.5 0 09:19 06.09.2019
2424 Clouds 20 1024 49 8000 1.5 0 08:45 06.09.2019
2425 Clouds 20 1024 49 8000 1.5 0 08:45 06.09.2019
2426 Clouds 18 1024 63 7000 1.5 0 08:26 06.09.2019
2427 Clouds 18 1024 63 7000 1.5 0 08:26 06.09.2019
2428 Mist 17 1024 72 5000 1 0 07:51 06.09.2019
2429 Mist 16 1024 77 3500 2.1 90 07:28 06.09.2019
2430 Mist 13 1024 93 5000 1 0 06:59 06.09.2019
2431 Mist 12 1023 100 5000 0.9 160.496 06:41 06.09.2019
2432 Clouds 9 1023 100 7000 1.03 134.528 05:47 06.09.2019
2433 Clouds 10 1023 100 10000 1 0 04:55 06.09.2019
2434 Clouds 10 1022 100 10000 1.5 60 04:25 06.09.2019
2435 Clouds 11 1022 100 10000 1 60 02:46 06.09.2019
2436 Clouds 12 1023 93 10000 1.5 60 00:58 06.09.2019
2437 Clouds 12 1023 93 10000 0.5 0 00:22 06.09.2019
2438 Clouds 13 1024 93 10000 1 0 23:41 05.09.2019
2439 Clouds 13 1024 93 10000 1 0 23:22 05.09.2019
2440 Clouds 13 1024 93 10000 2.6 100 22:46 05.09.2019
2441 Clouds 14 1024 87 10000 3.6 100 22:26 05.09.2019
2442 Clouds 14 1024 87 10000 3.6 110 21:57 05.09.2019
2443 Clouds 14 1024 87 10000 3.1 110 21:39 05.09.2019
2444 Clouds 14 1024 87 10000 3.1 110 21:39 05.09.2019
2445 Clouds 14 1024 87 10000 3.1 110 21:20 05.09.2019
2446 Clouds 14 1024 87 10000 2.6 90 20:58 05.09.2019
2447 Clouds 15 1024 77 10000 3.6 90 20:38 05.09.2019
2448 Clouds 15 1024 77 10000 3.6 90 20:20 05.09.2019
2449 Clouds 15 1023 72 10000 3.1 80 19:57 05.09.2019
2450 Clouds 16 1023 67 10000 3.6 90 19:39 05.09.2019
2451 Clouds 16 1023 67 10000 3.6 90 19:19 05.09.2019
2452 Clouds 18 1023 59 10000 6.2 100 18:41 05.09.2019
2453 Clouds 18 1023 59 10000 6.2 100 18:23 05.09.2019
2454 Clouds 18 1022 59 10000 5.7 110 17:58 05.09.2019
2455 Clouds 20 1022 49 10000 6.2 90 17:39 05.09.2019
2456 Clouds 20 1022 49 10000 6.2 90 17:39 05.09.2019
2457 Clouds 20 1022 49 10000 6.2 90 17:20 05.09.2019
2458 Clouds 20 1022 49 10000 6.2 90 17:20 05.09.2019
2459 Clouds 22 1021 40 10000 5.7 110 16:42 05.09.2019
2460 Clouds 22 1021 40 10000 5.7 110 16:22 05.09.2019
2461 Clouds 23 1021 38 10000 5.1 90 15:59 05.09.2019
2462 Clouds 24 1021 33 10000 2.1 110 15:39 05.09.2019
2463 Clouds 24 1021 33 10000 2.1 110 15:19 05.09.2019
2464 Clouds 23 1021 35 10000 3.6 120 14:56 05.09.2019
2465 Clouds 24 1021 36 10000 2.6 110 14:38 05.09.2019
2466 Clouds 24 1021 36 10000 2.6 110 14:38 05.09.2019
2467 Clouds 24 1021 36 10000 2.6 110 14:18 05.09.2019
2468 Clouds 25 1021 33 10000 2.6 0 13:42 05.09.2019
2469 Clouds 25 1021 31 10000 3.6 110 13:19 05.09.2019
2470 Clouds 25 1021 31 10000 5.1 160 12:43 05.09.2019
2471 Clouds 25 1022 33 10000 4.1 0 12:25 05.09.2019
2472 Clouds 25 1022 33 10000 3.1 100 11:56 05.09.2019
2473 Clouds 23 1022 38 10000 4.1 150 11:37 05.09.2019
2474 Clouds 23 1022 38 10000 4.1 150 11:18 05.09.2019
2475 Clouds 22 1023 40 10000 5.7 180 10:40 05.09.2019
2476 Clouds 22 1023 40 10000 5.7 180 10:20 05.09.2019
2477 Clouds 22 1024 43 10000 2.6 0 09:57 05.09.2019
2478 Clouds 21 1024 46 10000 3.1 150 09:38 05.09.2019
2479 Clouds 21 1024 46 10000 3.1 150 09:18 05.09.2019
2480 Clouds 21 1024 46 10000 3.1 150 09:18 05.09.2019
2481 Clouds 18 1024 59 10000 3.1 110 08:43 05.09.2019
2482 Clouds 18 1024 59 10000 3.1 110 08:24 05.09.2019
2483 Clouds 17 1024 63 10000 3.1 130 07:44 05.09.2019
2484 Clouds 16 1024 67 10000 2.1 140 07:25 05.09.2019
2485 Clouds 14 1023 71 10000 2.6 120 06:50 05.09.2019
2486 Clouds 13 1023 82 10000 1 0 06:29 05.09.2019
2487 Clouds 10 1023 93 10000 2.1 100 05:49 05.09.2019
2488 Clouds 10 1023 93 10000 2.1 120 05:28 05.09.2019
2489 Clouds 11 1023 87 10000 2.1 140 04:45 05.09.2019
2490 Clouds 11 1022 87 10000 2.1 120 04:19 05.09.2019
2491 Clouds 12 1022 81 10000 1.5 130 03:22 05.09.2019
2492 Clouds 12 1023 87 10000 3.1 110 02:40 05.09.2019
2493 Clouds 12 1023 87 10000 3.1 110 02:18 05.09.2019
2494 Clouds 12 1023 87 10000 2.1 70 00:58 05.09.2019
2495 Clouds 12 1024 87 10000 2.6 60 00:40 05.09.2019
2496 Clouds 12 1024 87 10000 2.6 60 00:19 05.09.2019
2497 Clouds 13 1024 82 10000 2.1 50 23:42 04.09.2019
2498 Clouds 13 1023 87 10000 2.6 30 23:23 04.09.2019
2499 Clouds 12 1023 87 10000 2.1 50 22:49 04.09.2019
2500 Clouds 12 1023 87 10000 2.1 60 22:21 04.09.2019
2501 Clouds 13 1023 87 10000 4.1 90 21:58 04.09.2019
2502 Clouds 14 1023 82 10000 4.1 130 21:38 04.09.2019
2503 Clouds 14 1023 82 10000 4.1 130 21:19 04.09.2019
2504 Clouds 14 1023 82 10000 3.6 130 20:55 04.09.2019
2505 Clouds 14 1023 82 10000 3.6 130 20:55 04.09.2019
2506 Clouds 15 1023 72 10000 4.1 100 20:36 04.09.2019
2507 Clouds 15 1023 72 10000 4.1 100 20:18 04.09.2019
2508 Clouds 16 1023 67 10000 5.1 100 19:40 04.09.2019
2509 Clouds 16 1023 67 10000 5.1 100 19:21 04.09.2019
2510 Clouds 16 1022 67 10000 4.6 100 18:55 04.09.2019
2511 Clouds 17 1022 63 10000 5.1 100 18:36 04.09.2019
2512 Clouds 17 1022 63 10000 5.1 100 18:18 04.09.2019
2513 Clouds 19 1021 55 10000 5.7 100 17:41 04.09.2019
2514 Clouds 20 1021 49 10000 6.2 100 17:22 04.09.2019
2515 Clouds 20 1021 49 10000 6.2 100 16:56 04.09.2019
2516 Clouds 21 1021 46 10000 5.7 100 16:38 04.09.2019
2517 Clouds 21 1021 46 10000 5.7 100 16:19 04.09.2019
2518 Clouds 23 1021 40 10000 4.6 110 15:40 04.09.2019
2519 Clouds 23 1021 40 10000 4.6 110 15:22 04.09.2019
2520 Clouds 23 1020 40 10000 5.1 100 14:58 04.09.2019
2521 Clouds 23 1020 38 10000 3.6 140 14:38 04.09.2019
2522 Clouds 23 1020 38 10000 3.6 140 14:20 04.09.2019
2523 Clouds 24 1020 38 10000 4.1 100 13:57 04.09.2019
2524 Clouds 24 1020 38 10000 5.1 120 13:38 04.09.2019
2525 Clouds 24 1020 38 10000 5.1 120 13:38 04.09.2019
2526 Clouds 24 1020 38 10000 5.1 120 13:19 04.09.2019
2527 Clouds 24 1021 41 10000 4.6 100 12:43 04.09.2019
2528 Clouds 24 1021 41 10000 5.7 100 12:24 04.09.2019
2529 Clouds 23 1021 40 10000 4.1 120 11:56 04.09.2019
2530 Clouds 23 1022 40 10000 4.1 130 11:37 04.09.2019
2531 Clouds 23 1022 40 10000 4.1 130 11:19 04.09.2019
2532 Clouds 22 1023 43 10000 5.1 120 10:45 04.09.2019
2533 Clouds 22 1023 43 10000 5.1 120 10:26 04.09.2019
2534 Clouds 21 1023 46 10000 5.7 100 09:58 04.09.2019
2535 Clouds 20 1023 49 10000 5.1 130 09:40 04.09.2019
2536 Clouds 20 1023 49 10000 5.1 130 09:19 04.09.2019
2537 Clouds 19 1024 55 10000 3.6 150 08:41 04.09.2019
2538 Clouds 19 1024 55 10000 3.6 150 08:41 04.09.2019
2539 Clouds 17 1024 63 10000 3.6 140 08:23 04.09.2019
2540 Clouds 16 1024 67 10000 3.6 150 07:56 04.09.2019
2541 Clouds 14 1024 76 10000 3.1 140 07:34 04.09.2019
2542 Clouds 13 1024 82 10000 2.6 130 06:49 04.09.2019
2543 Clouds 12 1024 87 10000 2.6 100 06:21 04.09.2019
2544 Clear 9 1023 100 10000 1 0 04:53 04.09.2019
2545 Clear 9 1023 100 10000 2.1 70 04:20 04.09.2019
2546 Clear 11 1023 93 10000 3.1 80 01:49 04.09.2019
2547 Clouds 12 1023 87 10000 2.6 120 00:55 04.09.2019
2548 Clouds 13 1024 82 10000 3.1 130 00:35 04.09.2019
2549 Clouds 13 1024 82 10000 3.6 120 23:56 03.09.2019
2550 Clouds 14 1024 76 10000 3.1 130 23:38 03.09.2019
2551 Clouds 14 1024 76 10000 3.1 130 23:19 03.09.2019
2552 Clouds 14 1025 76 10000 3.1 140 22:40 03.09.2019
2553 Clouds 14 1025 76 10000 3.1 140 22:22 03.09.2019
2554 Clouds 14 1025 76 10000 3.1 140 22:22 03.09.2019
2555 Clouds 14 1025 82 10000 4.6 140 21:56 03.09.2019
2556 Clouds 15 1024 77 10000 4.1 120 21:38 03.09.2019
2557 Clouds 15 1024 77 10000 4.1 120 21:20 03.09.2019
2558 Clouds 15 1025 82 10000 4.6 100 20:43 03.09.2019
2559 Clouds 15 1025 82 10000 4.6 100 20:43 03.09.2019
2560 Clouds 15 1025 82 10000 4.6 100 20:24 03.09.2019
2561 Clouds 15 1025 82 10000 5.1 110 19:57 03.09.2019
2562 Clouds 15 1024 82 10000 5.1 110 19:38 03.09.2019
2563 Clouds 15 1024 82 10000 5.1 110 19:19 03.09.2019
2564 Clouds 16 1024 72 10000 6.2 110 18:56 03.09.2019
2565 Clouds 17 1023 63 10000 5.7 110 18:38 03.09.2019
2566 Clouds 17 1023 63 10000 5.7 110 18:18 03.09.2019
2567 Clouds 18 1023 48 10000 6.7 110 17:41 03.09.2019
2568 Clouds 18 1023 48 10000 6.7 110 17:20 03.09.2019
2569 Clouds 20 1022 42 10000 7.2 110 16:59 03.09.2019
2570 Clouds 21 1022 40 10000 6.2 120 16:39 03.09.2019
2571 Clouds 21 1022 40 10000 6.2 120 16:20 03.09.2019
2572 Clouds 23 1022 33 10000 5.7 140 15:41 03.09.2019
2573 Clouds 23 1022 33 10000 5.7 140 15:21 03.09.2019
2574 Clouds 24 1021 25 10000 6.2 160 14:58 03.09.2019
2575 Clouds 24 1021 22 10000 5.7 160 14:40 03.09.2019
2576 Clouds 24 1021 22 10000 5.7 160 14:20 03.09.2019
2577 Clouds 24 1022 22 10000 6.7 160 13:57 03.09.2019
2578 Clouds 24 1022 22 10000 6.2 170 13:37 03.09.2019
2579 Clouds 24 1022 22 10000 6.2 170 13:37 03.09.2019
2580 Clouds 24 1022 22 10000 6.2 170 13:37 03.09.2019
2581 Clouds 24 1022 22 10000 6.2 170 13:19 03.09.2019
2582 Clouds 24 1022 22 10000 6.2 170 13:19 03.09.2019
2583 Clouds 24 1022 25 10000 5.7 140 12:55 03.09.2019
2584 Clouds 24 1022 25 10000 5.7 140 12:55 03.09.2019
2585 Clouds 24 1022 31 10000 5.7 170 12:37 03.09.2019
2586 Clouds 24 1022 31 10000 5.7 170 12:19 03.09.2019
2587 Clouds 23 1023 33 10000 5.7 150 11:39 03.09.2019
2588 Clouds 23 1023 33 10000 5.7 150 11:39 03.09.2019
2589 Clouds 23 1023 33 10000 5.7 150 11:21 03.09.2019
2590 Clouds 22 1024 35 10000 5.1 150 10:56 03.09.2019
2591 Clouds 22 1024 35 10000 6.7 170 10:38 03.09.2019
2592 Clouds 22 1024 35 10000 6.7 170 10:19 03.09.2019
2593 Clouds 21 1024 40 10000 5.1 150 09:44 03.09.2019
2594 Clear 20 1025 42 10000 5.1 150 09:25 03.09.2019
2595 Clouds 19 1025 45 10000 6.2 140 08:44 03.09.2019
2596 Clouds 18 1025 48 10000 5.7 140 08:26 03.09.2019
2597 Clouds 16 1025 63 10000 3.1 170 07:58 03.09.2019
2598 Clouds 14 1025 76 10000 2.1 140 07:39 03.09.2019
2599 Clouds 14 1025 76 10000 2.1 140 07:21 03.09.2019
2600 Clouds 13 1025 93 8000 2.1 100 06:43 03.09.2019
2601 Clouds 9 1024 100 10000 1 90 05:36 03.09.2019
2602 Clouds 10 1023 100 10000 1.5 60 03:34 03.09.2019
2603 Clouds 10 1023 100 10000 2.1 60 02:43 03.09.2019
2604 Clouds 11 1023 93 10000 2.1 60 02:23 03.09.2019
2605 Clouds 11 1024 93 10000 1.5 60 01:47 03.09.2019
2606 Clouds 12 1023 93 10000 1 50 01:27 03.09.2019
2607 Clouds 12 1024 93 10000 1.5 60 00:40 03.09.2019
2608 Clouds 12 1024 93 10000 2.6 90 23:59 02.09.2019
2609 Clouds 13 1024 87 10000 3.6 110 23:39 02.09.2019
2610 Clouds 13 1024 87 10000 3.6 110 23:19 02.09.2019
2611 Clouds 13 1024 87 10000 3.6 110 23:19 02.09.2019
2612 Clouds 13 1025 87 10000 2.6 120 22:56 02.09.2019
2613 -273 0 0 0 0 0 22:56 02.09.2019
2614 Clouds 13 1025 93 10000 3.1 110 22:37 02.09.2019
2615 Clouds 13 1025 93 10000 3.1 110 22:19 02.09.2019
2616 Clouds 14 1025 87 10000 3.1 110 21:56 02.09.2019
2617 Clouds 14 1025 87 10000 2.6 120 21:37 02.09.2019
2618 Clouds 14 1025 87 10000 2.6 120 21:19 02.09.2019
2619 Clouds 15 1025 82 10000 3.1 130 20:42 02.09.2019
2620 Clouds 15 1025 82 10000 4.1 130 20:23 02.09.2019
2621 Clouds 15 1025 82 10000 3.6 120 19:59 02.09.2019
2622 Clouds 16 1024 77 10000 4.6 120 19:41 02.09.2019
2623 Clouds 16 1024 77 10000 4.6 120 19:41 02.09.2019
2624 Clouds 16 1024 77 10000 4.6 120 19:23 02.09.2019
2625 Clouds 17 1024 72 10000 4.6 130 18:57 02.09.2019
2626 Clouds 17 1023 72 10000 5.7 130 18:37 02.09.2019
2627 Clouds 17 1023 72 10000 5.7 130 18:19 02.09.2019
2628 Clouds 18 1023 63 10000 5.1 120 17:55 02.09.2019
2629 Clouds 18 1023 63 10000 5.7 100 17:37 02.09.2019
2630 Clouds 18 1023 63 10000 5.7 100 17:18 02.09.2019
2631 Clouds 21 1022 49 10000 6.2 110 16:41 02.09.2019
2632 Clouds 21 1022 49 10000 6.2 110 16:20 02.09.2019
2633 Clouds 22 1022 46 10000 4.6 110 15:52 02.09.2019
2634 Clouds 24 1021 41 10000 6.7 110 15:31 02.09.2019
2635 Clouds 24 1021 38 10000 4.1 110 14:59 02.09.2019
2636 Clouds 25 1021 36 10000 6.2 120 14:41 02.09.2019
2637 Clouds 25 1021 36 10000 6.2 120 14:22 02.09.2019
2638 Clouds 24 1021 38 10000 4.6 170 13:59 02.09.2019
2639 Clouds 24 1021 36 10000 2.6 150 13:41 02.09.2019
2640 Clouds 24 1021 36 10000 2.6 150 13:22 02.09.2019
2641 Clouds 24 1022 38 10000 4.6 150 12:45 02.09.2019
2642 Clouds 24 1022 38 10000 4.6 110 12:45 02.09.2019
2643 Clouds 24 1022 38 10000 4.6 110 12:26 02.09.2019
2644 Clouds 24 1022 38 10000 4.1 140 11:59 02.09.2019
2645 Clouds 24 1022 38 10000 4.1 140 11:59 02.09.2019
2646 Clouds 23 1023 40 10000 3.6 160 11:40 02.09.2019
2647 Clouds 23 1023 40 10000 3.6 160 11:21 02.09.2019
2648 Clouds 22 1023 43 10000 4.6 140 10:57 02.09.2019
2649 Clouds 21 1023 49 10000 4.6 150 10:38 02.09.2019
2650 Clouds 21 1023 49 10000 4.6 150 10:20 02.09.2019
2651 Clouds 21 1023 52 10000 4.1 170 09:55 02.09.2019
2652 Clouds 21 1024 56 10000 4.1 150 09:37 02.09.2019
2653 Clouds 21 1024 56 10000 4.1 150 09:18 02.09.2019
2654 Clouds 18 1024 68 10000 4.1 140 08:39 02.09.2019
2655 Clouds 18 1024 68 10000 4.1 140 08:39 02.09.2019
2656 Clouds 18 1024 68 10000 4.1 140 08:39 02.09.2019
2657 Clouds 18 1024 68 10000 4.1 140 08:18 02.09.2019
2658 Clouds 15 1023 82 10000 2.6 110 07:41 02.09.2019
2659 Clouds 15 1023 82 10000 2.6 110 07:21 02.09.2019
2660 Clouds 13 1023 93 10000 2.6 90 06:45 02.09.2019
2661 Clouds 12 1023 100 9000 2.1 70 06:25 02.09.2019
2662 Mist 11 1023 93 1000 2.1 60 05:48 02.09.2019
2663 Clouds 10 1022 100 10000 2.6 60 05:19 02.09.2019
2664 Clouds 11 1022 93 10000 2.1 70 04:20 02.09.2019
2665 Clouds 12 1022 93 10000 1 0 01:46 02.09.2019
2666 Clouds 12 1022 93 10000 2.1 60 00:49 02.09.2019
2667 Clouds 12 1023 100 10000 2.6 70 00:30 02.09.2019
2668 Clouds 13 1023 93 10000 2.1 70 23:45 01.09.2019
2669 Clouds 13 1023 93 10000 2.1 60 23:23 01.09.2019
2670 Clouds 13 1023 93 10000 2.1 60 23:23 01.09.2019
2671 Clouds 14 1023 87 10000 2.6 60 22:59 01.09.2019
2672 Clouds 14 1023 87 10000 2.6 60 22:59 01.09.2019
2673 Clouds 14 1023 93 10000 2.6 50 22:40 01.09.2019
2674 Clouds 14 1023 93 10000 2.6 50 22:19 01.09.2019
2675 Clouds 14 1023 87 10000 2.6 70 21:57 01.09.2019
2676 Clouds 15 1023 87 10000 2.1 70 21:38 01.09.2019
2677 Clouds 15 1023 87 10000 2.1 70 21:20 01.09.2019
2678 Clouds 16 1023 82 10000 4.1 110 20:56 01.09.2019
2679 Clouds 16 1023 82 10000 3.6 100 20:38 01.09.2019
2680 Clouds 16 1023 82 10000 3.6 100 20:18 01.09.2019
2681 Clouds 16 1023 82 10000 4.6 120 19:56 01.09.2019
2682 Clouds 17 1022 77 10000 4.1 110 19:37 01.09.2019
2683 Clouds 17 1022 77 10000 4.1 110 19:18 01.09.2019
2684 Clouds 18 1021 68 10000 6.2 110 18:43 01.09.2019
2685 Clouds 18 1021 68 10000 6.2 110 18:25 01.09.2019
2686 -273 0 0 0 0 0 17:55 01.09.2019
2687 Clouds 19 1021 63 10000 7.2 110 17:55 01.09.2019
2688 Clouds 20 1021 56 10000 7.7 110 17:37 01.09.2019
2689 Clouds 20 1021 56 10000 7.7 110 17:18 01.09.2019
2690 Clouds 20 1021 56 10000 7.7 110 17:18 01.09.2019
2691 Clouds 23 1020 38 10000 5.7 90 16:39 01.09.2019
2692 Clouds 23 1020 38 10000 5.7 90 16:19 01.09.2019
2693 Clouds 25 1020 33 10000 5.1 100 15:47 01.09.2019
2694 Clouds 26 1019 29 10000 3.6 110 15:29 01.09.2019
2695 Clouds 26 1019 29 10000 2.1 120 14:57 01.09.2019
2696 Clouds 26 1019 29 10000 3.1 70 14:38 01.09.2019
2697 Clouds 26 1019 29 10000 3.1 70 14:20 01.09.2019
2698 Clouds 26 1019 29 10000 3.1 0 13:43 01.09.2019
2699 Clouds 26 1019 29 10000 3.1 0 13:24 01.09.2019
2700 Clouds 26 1020 31 10000 3.1 130 12:59 01.09.2019
2701 Clouds 26 1020 34 10000 3.6 160 12:40 01.09.2019
2702 Clouds 26 1020 34 10000 3.6 160 12:40 01.09.2019
2703 Clouds 26 1020 34 10000 3.6 160 12:21 01.09.2019
2704 Clouds 26 1020 34 10000 3.6 160 12:21 01.09.2019
2705 Clouds 24 1021 38 10000 4.1 210 11:40 01.09.2019
2706 Clouds 24 1021 38 10000 4.1 210 11:20 01.09.2019
2707 Clouds 23 1021 40 10000 3.6 200 10:58 01.09.2019
2708 Clouds 22 1022 40 10000 2.1 150 10:39 01.09.2019
2709 Clouds 22 1022 40 10000 2.1 150 10:20 01.09.2019
2710 Clouds 21 1022 43 10000 1.5 0 09:42 01.09.2019
2711 Clear 20 1023 49 10000 2.1 150 09:24 01.09.2019
2712 Clear 19 1023 55 10000 2.1 150 08:44 01.09.2019
2713 Clouds 18 1023 59 10000 2.6 120 08:23 01.09.2019
2714 Clouds 17 1022 63 10000 2.1 120 07:49 01.09.2019
2715 Clouds 15 1022 77 10000 2.1 170 07:31 01.09.2019
2716 Clear 12 1022 93 10000 1 0 06:42 01.09.2019
2717 Clear 12 1022 93 10000 1 0 06:19 01.09.2019
2718 Clouds 10 1021 93 10000 1 60 05:38 01.09.2019
2719 Clouds 9 1020 100 10000 0.5 0 04:27 01.09.2019
2720 Clouds 10 1020 93 10000 1 0 03:39 01.09.2019
2721 Clouds 11 1020 93 10000 2.1 110 02:57 01.09.2019
2722 Clouds 11 1020 93 10000 1.5 0 02:25 01.09.2019
2723 Clouds 12 1021 93 10000 3.1 70 01:41 01.09.2019
2724 Clouds 12 1021 93 10000 3.1 70 01:22 01.09.2019
2725 Clouds 11 1021 93 10000 1 0 00:42 01.09.2019
2726 Clouds 11 1021 93 10000 1 0 00:21 01.09.2019
2727 Clouds 11 1021 100 10000 2.6 70 23:48 31.08.2019
2728 Clouds 11 1021 93 10000 2.6 70 23:21 31.08.2019
2729 Clouds 12 1021 93 10000 3.1 90 22:56 31.08.2019
2730 Clouds 12 1021 93 10000 3.1 90 22:56 31.08.2019
2731 Clouds 12 1021 93 10000 3.1 90 22:38 31.08.2019
2732 Clouds 12 1021 93 10000 3.1 90 22:20 31.08.2019
2733 Clouds 13 1021 87 10000 2.1 140 21:54 31.08.2019
2734 Clouds 13 1022 87 10000 2.6 120 21:36 31.08.2019
2735 Clouds 13 1022 87 10000 2.6 120 21:18 31.08.2019
2736 Clouds 14 1021 82 10000 3.6 100 20:42 31.08.2019
2737 Clouds 14 1021 82 10000 3.6 100 20:23 31.08.2019
2738 Clouds 14 1021 82 10000 5.1 100 19:43 31.08.2019
2739 Clouds 15 1021 67 10000 4.1 100 19:23 31.08.2019
2740 Clouds 14 1020 71 10000 2.6 80 18:58 31.08.2019
2741 Clouds 15 1020 67 10000 2.6 80 18:38 31.08.2019
2742 Clouds 15 1020 67 10000 2.6 80 18:19 31.08.2019
2743 Clouds 16 1020 63 10000 3.1 80 17:55 31.08.2019
2744 Clouds 17 1020 59 10000 4.1 80 17:36 31.08.2019
2745 Clouds 17 1020 59 10000 4.1 80 17:18 31.08.2019
2746 Clouds 19 1019 48 10000 5.7 90 16:54 31.08.2019
2747 Clouds 20 1019 49 10000 5.1 90 16:36 31.08.2019
2748 Clouds 20 1019 49 10000 5.1 90 16:18 31.08.2019
2749 Clouds 22 1019 43 10000 6.2 80 15:41 31.08.2019
2750 Clouds 22 1019 43 10000 6.2 80 15:18 31.08.2019
2751 Clouds 22 1019 43 10000 6.2 80 15:18 31.08.2019
2752 Clouds 22 1019 43 10000 4.6 120 14:42 31.08.2019
2753 Clouds 23 1019 43 10000 4.6 100 14:24 31.08.2019
2754 Clouds 23 1019 40 10000 5.1 120 13:59 31.08.2019
2755 Clouds 23 1019 40 10000 4.6 110 13:38 31.08.2019
2756 Clouds 23 1019 40 10000 4.6 110 13:19 31.08.2019
2757 Clouds 23 1019 40 10000 4.6 110 12:54 31.08.2019
2758 Clouds 22 1020 43 10000 4.1 140 12:36 31.08.2019
2759 Clouds 22 1020 43 10000 4.1 140 12:18 31.08.2019
2760 Clouds 22 1020 46 10000 3.6 140 11:42 31.08.2019
2761 Clouds 21 1021 49 10000 4.6 120 11:24 31.08.2019
2762 Clouds 21 1021 49 10000 6.2 110 10:55 31.08.2019
2763 Clouds 21 1021 49 10000 4.1 110 10:36 31.08.2019
2764 Clouds 21 1021 49 10000 4.1 110 10:18 31.08.2019
2765 Clouds 20 1022 52 10000 3.1 140 09:40 31.08.2019
2766 Clouds 20 1022 52 10000 3.1 140 09:21 31.08.2019
2767 Clouds 19 1022 55 10000 2.6 120 08:45 31.08.2019
2768 Clouds 19 1022 55 10000 2.6 120 08:45 31.08.2019
2769 Clouds 17 1022 63 10000 2.1 0 08:27 31.08.2019
2770 Clouds 16 1022 63 10000 2.1 130 07:58 31.08.2019
2771 Clear 14 1022 76 10000 1.5 0 07:37 31.08.2019
2772 Clear 14 1022 76 10000 1.5 0 07:18 31.08.2019
2773 Clouds 11 1021 93 10000 1 0 06:26 31.08.2019
2774 Clouds 9 1021 93 10000 1.31 88.426 05:50 31.08.2019
2775 Clouds 8 1021 100 10000 0.5 60 05:27 31.08.2019
2776 Clouds 9 1021 93 10000 1 0 04:28 31.08.2019
2777 Clouds 9 1021 93 10000 2.1 70 03:42 31.08.2019
2778 Clouds 9 1021 100 10000 1 80 02:22 31.08.2019
2779 Clouds 9 1021 100 10000 0.5 60 01:47 31.08.2019
2780 Clouds 10 1021 93 10000 1.5 100 01:28 31.08.2019
2781 Clouds 10 1022 93 10000 1 0 00:45 31.08.2019
2782 Clouds 10 1022 93 10000 2.1 70 00:26 31.08.2019
2783 Clouds 11 1022 93 10000 2.1 70 23:48 30.08.2019
2784 Clouds 11 1022 93 10000 2.1 80 23:19 30.08.2019
2785 Clouds 11 1022 93 10000 3.1 80 22:57 30.08.2019
2786 Clouds 12 1023 87 10000 3.1 90 22:37 30.08.2019
2787 Clouds 12 1023 87 10000 3.1 90 22:19 30.08.2019
2788 Clouds 12 1023 87 10000 3.1 80 21:56 30.08.2019
2789 Clouds 13 1023 87 10000 5.1 100 21:36 30.08.2019
2790 Clouds 13 1023 87 10000 5.1 100 21:36 30.08.2019
2791 Clouds 13 1023 87 10000 5.1 100 21:18 30.08.2019
2792 Clouds 13 1023 87 10000 5.1 100 21:18 30.08.2019
2793 Clouds 13 1023 87 10000 5.1 110 20:43 30.08.2019
2794 Clouds 13 1023 87 10000 4.6 110 20:22 30.08.2019
2795 Clouds 14 1023 82 10000 5.7 100 19:59 30.08.2019
2796 Clouds 14 1022 82 10000 6.2 110 19:41 30.08.2019
2797 Clouds 14 1022 82 10000 6.2 110 19:22 30.08.2019
2798 Clouds 15 1022 77 10000 4.6 90 18:58 30.08.2019
2799 Clouds 16 1022 63 10000 5.1 90 18:40 30.08.2019
2800 Clouds 16 1022 63 10000 5.1 90 18:22 30.08.2019
2801 Clouds 17 1021 59 10000 5.7 100 17:56 30.08.2019
2802 Clouds 18 1021 55 10000 4.6 100 17:37 30.08.2019
2803 Clouds 18 1021 55 10000 4.6 100 17:37 30.08.2019
2804 Clouds 18 1021 55 10000 4.6 100 17:18 30.08.2019
2805 Clouds 21 1020 43 10000 5.7 100 16:43 30.08.2019
2806 Clouds 21 1020 43 10000 5.7 100 16:25 30.08.2019
2807 Clouds 22 1020 40 10000 5.7 90 15:54 30.08.2019
2808 Clouds 23 1020 35 10000 3.6 100 15:36 30.08.2019
2809 Clouds 23 1020 35 10000 3.6 100 15:18 30.08.2019
2810 Clouds 24 1020 33 10000 3.6 110 14:42 30.08.2019
2811 Clouds 24 1020 33 10000 3.6 110 14:23 30.08.2019
2812 Clouds 24 1020 36 10000 3.6 0 13:45 30.08.2019
2813 Clouds 24 1020 36 10000 4.6 150 13:23 30.08.2019
2814 Clouds 24 1021 38 10000 5.1 130 12:58 30.08.2019
2815 Clouds 24 1021 38 10000 4.6 140 12:40 30.08.2019
2816 Clouds 24 1021 38 10000 4.6 140 12:22 30.08.2019
2817 Clouds 24 1021 38 10000 4.6 140 12:22 30.08.2019
2818 Clouds 23 1022 40 10000 3.6 130 11:43 30.08.2019
2819 Clouds 23 1022 40 10000 3.6 130 11:24 30.08.2019
2820 Clouds 21 1023 49 10000 2.6 160 10:43 30.08.2019
2821 Clouds 21 1023 49 10000 2.6 160 10:24 30.08.2019
2822 Clouds 20 1023 49 10000 3.1 140 09:59 30.08.2019
2823 Clouds 19 1024 52 10000 3.1 140 09:40 30.08.2019
2824 Clouds 19 1024 52 10000 3.1 140 09:19 30.08.2019
2825 Clouds 18 1024 59 10000 3.6 100 08:54 30.08.2019
2826 Clouds 18 1024 59 10000 3.6 100 08:54 30.08.2019
2827 Clouds 18 1024 59 10000 3.6 100 08:54 30.08.2019
2828 Clouds 17 1024 63 10000 2.6 90 08:36 30.08.2019
2829 Clouds 17 1024 63 10000 2.6 90 08:36 30.08.2019
2830 Clouds 17 1024 63 10000 2.6 90 08:18 30.08.2019
2831 Clouds 15 1024 77 10000 2.1 80 07:39 30.08.2019
2832 Clouds 15 1024 77 10000 2.1 80 07:21 30.08.2019
2833 Clouds 14 1024 76 10000 1.5 0 06:45 30.08.2019
2834 Clouds 11 1023 93 10000 1.5 70 06:27 30.08.2019
2835 Clouds 9 1023 93 10000 2.1 60 05:44 30.08.2019
2836 Clouds 10 1022 93 10000 1 60 03:59 30.08.2019
2837 Clouds 10 1022 93 10000 1 60 03:38 30.08.2019
2838 Clear 10 1022 93 10000 1 0 02:55 30.08.2019
2839 Clouds 10 1023 93 10000 2.1 80 02:24 30.08.2019
2840 Clouds 11 1023 87 10000 2.1 100 01:28 30.08.2019
2841 Clouds 11 1024 93 10000 3.1 100 00:29 30.08.2019
2842 Clouds 12 1024 87 10000 3.1 90 23:57 29.08.2019
2843 Clouds 12 1024 87 10000 2.6 80 23:38 29.08.2019
2844 Clouds 12 1024 87 10000 2.6 80 23:20 29.08.2019
2845 Clouds 12 1024 87 10000 2.6 80 23:20 29.08.2019
2846 Clouds 13 1024 87 10000 4.6 110 22:43 29.08.2019
2847 Clouds 13 1024 87 10000 4.6 100 22:24 29.08.2019
2848 Clouds 14 1025 82 10000 5.1 110 21:55 29.08.2019
2849 Clouds 14 1025 82 10000 5.1 110 21:55 29.08.2019
2850 Clouds 14 1024 82 10000 3.6 120 21:36 29.08.2019
2851 Clouds 14 1024 82 10000 3.6 120 21:18 29.08.2019
2852 Clouds 15 1024 72 10000 4.1 140 20:42 29.08.2019
2853 Clouds 15 1024 72 10000 5.7 110 20:20 29.08.2019
2854 Clouds 15 1024 72 10000 5.7 110 19:58 29.08.2019
2855 Clouds 15 1024 72 10000 5.7 110 19:58 29.08.2019
2856 Clouds 16 1023 67 10000 4.6 110 19:39 29.08.2019
2857 Clouds 16 1023 67 10000 4.6 110 19:21 29.08.2019
2858 Clouds 16 1023 63 10000 3.1 80 18:43 29.08.2019
2859 Clouds 16 1023 63 10000 3.1 80 18:21 29.08.2019
2860 Clouds 18 1022 55 10000 3.6 80 17:56 29.08.2019
2861 Clouds 19 1022 52 10000 4.6 90 17:38 29.08.2019
2862 Clouds 19 1022 52 10000 4.6 90 17:19 29.08.2019
2863 Clouds 21 1022 37 10000 5.1 90 16:57 29.08.2019
2864 Clouds 22 1021 37 10000 5.1 90 16:38 29.08.2019
2865 Clouds 22 1021 37 10000 5.1 90 16:20 29.08.2019
2866 Clouds 24 1021 27 10000 3.6 120 15:39 29.08.2019
2867 Clouds 24 1021 27 10000 3.6 120 15:20 29.08.2019
2868 Clouds 25 1021 29 10000 5.1 90 14:50 29.08.2019
2869 Clouds 25 1021 29 10000 4.1 120 14:24 29.08.2019
2870 Clouds 25 1021 27 10000 3.6 170 13:59 29.08.2019
2871 Clouds 25 1021 29 10000 3.1 150 13:39 29.08.2019
2872 Clouds 25 1021 29 10000 3.1 150 13:20 29.08.2019
2873 Clouds 25 1022 29 10000 3.1 0 12:59 29.08.2019
2874 Clouds 24 1022 36 10000 3.1 140 12:39 29.08.2019
2875 Clouds 24 1022 36 10000 3.1 140 12:21 29.08.2019
2876 Clouds 24 1023 38 10000 2.6 0 11:58 29.08.2019
2877 Clouds 23 1023 40 10000 3.6 140 11:38 29.08.2019
2878 Clouds 23 1023 40 10000 3.6 140 11:19 29.08.2019
2879 Clear 23 1024 40 10000 3.6 120 10:44 29.08.2019
2880 Clear 21 1024 43 10000 3.1 130 10:25 29.08.2019
2881 Clear 19 1025 48 10000 2.6 110 09:42 29.08.2019
2882 Clear 19 1025 48 10000 2.6 110 09:22 29.08.2019
2883 Clear 18 1025 55 10000 3.1 130 08:59 29.08.2019
2884 Clear 16 1025 63 10000 2.6 110 08:40 29.08.2019
2885 Clear 16 1025 63 10000 2.6 110 08:22 29.08.2019
2886 Clouds 15 1025 67 10000 2.1 130 07:49 29.08.2019
2887 Clouds 13 1025 76 10000 2.1 150 07:26 29.08.2019
2888 Clouds 12 1025 87 10000 1.5 100 06:48 29.08.2019
2889 Clouds 10 1025 93 10000 1 90 06:30 29.08.2019
2890 Clouds 8 1025 100 10000 0.5 90 05:42 29.08.2019
2891 Clouds 8 1024 100 10000 1.5 0 04:51 29.08.2019
2892 Clouds 8 1024 100 10000 1 0 04:29 29.08.2019
2893 Clouds 8 1024 93 10000 1.27 104.429 03:20 29.08.2019
2894 Clouds 9 1024 93 10000 1.27 104.429 01:49 29.08.2019
2895 Clouds 9 1024 93 10000 1.5 0 01:30 29.08.2019
2896 Clouds 10 1024 93 10000 2.6 120 00:40 29.08.2019
2897 Clouds 10 1024 93 10000 2.6 120 00:20 29.08.2019
2898 Clouds 10 1025 93 10000 2.1 110 23:43 28.08.2019
2899 Clouds 11 1025 93 10000 3.6 90 23:24 28.08.2019
2900 Clouds 10 1025 100 10000 3.6 90 22:59 28.08.2019
2901 Clouds 11 1024 93 10000 2.6 140 22:39 28.08.2019
2902 Clouds 11 1024 93 10000 2.6 140 22:18 28.08.2019
2903 Clouds 11 1024 93 10000 2.6 110 21:57 28.08.2019
2904 Clouds 12 1024 81 10000 2.1 100 21:38 28.08.2019
2905 Clouds 12 1024 81 10000 2.1 100 21:20 28.08.2019
2906 Clouds 13 1024 76 10000 4.6 90 20:41 28.08.2019
2907 Clouds 13 1024 76 10000 4.6 90 20:22 28.08.2019
2908 Clouds 13 1024 71 10000 3.1 100 19:55 28.08.2019
2909 Clouds 14 1024 67 10000 2.1 40 19:37 28.08.2019
2910 Clouds 14 1024 67 10000 2.1 40 19:18 28.08.2019
2911 Clouds 16 1023 59 10000 3.6 90 18:42 28.08.2019
2912 Clouds 16 1023 59 10000 3.6 90 18:21 28.08.2019
2913 Clouds 18 1022 48 10000 3.6 90 17:40 28.08.2019
2914 Clouds 18 1022 48 10000 3.6 90 17:21 28.08.2019
2915 Clouds 20 1022 40 10000 4.1 80 16:59 28.08.2019
2916 Clouds 22 1022 35 10000 3.6 80 16:41 28.08.2019
2917 Clouds 22 1022 35 10000 3.6 80 16:18 28.08.2019
2918 Clouds 23 1022 33 10000 3.1 130 15:39 28.08.2019
2919 Clouds 23 1022 33 10000 3.1 130 15:20 28.08.2019
2920 Clouds 23 1022 33 10000 3.1 120 14:59 28.08.2019
2921 Clouds 23 1022 33 10000 2.6 0 14:40 28.08.2019
2922 Clouds 23 1022 33 10000 2.6 0 14:21 28.08.2019
2923 Clouds 23 1022 33 10000 3.1 0 13:59 28.08.2019
2924 Clouds 23 1023 33 10000 3.6 130 13:39 28.08.2019
2925 Clouds 23 1023 33 10000 3.6 130 13:20 28.08.2019
2926 Clouds 23 1023 33 10000 3.6 130 13:20 28.08.2019
2927 Clouds 23 1023 33 10000 3.6 80 12:44 28.08.2019
2928 Clouds 22 1024 35 10000 3.1 0 12:26 28.08.2019
2929 Clouds 21 1024 40 10000 3.6 140 11:59 28.08.2019
2930 Clouds 21 1024 40 10000 3.6 140 11:40 28.08.2019
2931 Clouds 21 1024 40 10000 3.6 140 11:21 28.08.2019
2932 Clouds 21 1025 40 10000 4.1 120 10:56 28.08.2019
2933 Clouds 20 1025 45 10000 2.6 120 10:38 28.08.2019
2934 Clouds 20 1025 45 10000 2.6 120 10:19 28.08.2019
2935 Clouds 20 1026 45 10000 4.1 90 09:42 28.08.2019
2936 Clouds 18 1026 52 10000 4.1 110 09:21 28.08.2019
2937 Clouds 17 1026 59 10000 3.1 140 08:56 28.08.2019
2938 Clouds 16 1026 63 10000 3.1 110 08:37 28.08.2019
2939 Clouds 16 1026 63 10000 3.1 110 08:18 28.08.2019
2940 Clouds 14 1026 67 10000 2.1 110 07:38 28.08.2019
2941 Clouds 14 1026 67 10000 2.1 110 07:19 28.08.2019
2942 Clouds 12 1026 81 10000 1.87 78.834 06:49 28.08.2019
2943 Clouds 6 1025 100 10000 0.5 0 05:59 28.08.2019
2944 Clouds 8 1025 93 10000 1.5 90 04:41 28.08.2019
2945 Clouds 10 1025 93 10000 2.6 140 01:58 28.08.2019
2946 Clouds 9 1025 93 10000 3.1 90 01:30 28.08.2019
2947 Clouds 9 1025 93 10000 3.1 80 00:50 28.08.2019
2948 Clouds 10 1025 93 10000 4.6 100 00:32 28.08.2019
2949 Clouds 10 1025 93 10000 4.6 90 23:45 27.08.2019
2950 Clouds 10 1025 87 10000 3.1 80 23:22 27.08.2019
2951 Clouds 10 1025 87 10000 3.1 80 22:59 27.08.2019
2952 Clouds 10 1025 87 10000 3.1 80 22:59 27.08.2019
2953 Clouds 11 1026 87 10000 4.6 90 22:41 27.08.2019
2954 Clouds 11 1026 87 10000 4.6 90 22:21 27.08.2019
2955 Clouds 12 1026 87 10000 4.1 90 21:56 27.08.2019
2956 Clouds 12 1026 87 10000 3.1 70 21:38 27.08.2019
2957 Clouds 12 1026 87 10000 3.1 70 21:19 27.08.2019
2958 Clouds 13 1026 82 10000 3.1 60 20:56 27.08.2019
2959 Clouds 13 1026 82 10000 3.1 60 20:56 27.08.2019
2960 Clouds 13 1026 82 10000 2.6 50 20:37 27.08.2019
2961 Clouds 13 1026 82 10000 2.6 50 20:19 27.08.2019
2962 Clouds 13 1026 82 10000 2.6 80 19:43 27.08.2019
2963 Clouds 14 1026 76 10000 3.1 80 19:24 27.08.2019
2964 Clouds 15 1025 72 10000 4.6 80 18:55 27.08.2019
2965 Clouds 15 1025 77 10000 4.6 70 18:36 27.08.2019
2966 Clouds 15 1025 77 10000 4.6 70 18:36 27.08.2019
2967 Clouds 15 1025 77 10000 4.6 70 18:18 27.08.2019
2968 Clouds 17 1024 67 10000 5.1 100 17:43 27.08.2019
2969 Clouds 17 1024 67 10000 5.1 100 17:23 27.08.2019
2970 Clouds 18 1024 63 10000 5.1 80 16:49 27.08.2019
2971 Clouds 20 1023 56 10000 6.2 120 16:28 27.08.2019
2972 Clouds 21 1023 49 10000 5.1 100 15:59 27.08.2019
2973 Clouds 22 1023 46 10000 4.1 130 15:40 27.08.2019
2974 Clouds 22 1023 46 10000 4.1 130 15:22 27.08.2019
2975 Clouds 22 1023 46 10000 4.6 110 14:58 27.08.2019
2976 Clouds 23 1023 46 10000 4.6 130 14:40 27.08.2019
2977 Clouds 23 1023 46 10000 4.6 130 14:20 27.08.2019
2978 Clouds 22 1023 49 10000 5.1 120 13:42 27.08.2019
2979 Clouds 22 1023 49 10000 5.1 120 13:42 27.08.2019
2980 Clouds 22 1024 46 10000 5.1 110 13:23 27.08.2019
2981 Clouds 22 1024 49 10000 5.1 120 12:55 27.08.2019
2982 Clouds 22 1024 53 10000 6.2 120 12:37 27.08.2019
2983 Clouds 22 1024 53 10000 6.2 120 12:18 27.08.2019
2984 Clouds 21 1025 52 10000 6.2 110 11:43 27.08.2019
2985 Clouds 21 1025 52 10000 6.2 110 11:24 27.08.2019
2986 Clouds 22 1025 49 10000 6.7 110 10:42 27.08.2019
2987 Clouds 22 1025 49 10000 6.2 110 10:21 27.08.2019
2988 Clouds 21 1026 49 10000 6.2 100 09:58 27.08.2019
2989 Clouds 21 1026 49 10000 4.1 140 09:38 27.08.2019
2990 Clouds 21 1026 49 10000 4.1 140 09:20 27.08.2019
2991 Clouds 20 1026 52 10000 3.1 130 08:46 27.08.2019
2992 Clouds 17 1026 63 10000 2.6 190 08:27 27.08.2019
2993 Clouds 16 1026 67 10000 2.6 180 07:59 27.08.2019
2994 Clouds 15 1026 72 10000 2.6 180 07:38 27.08.2019
2995 Clouds 15 1026 72 10000 2.6 180 07:19 27.08.2019
2996 Clouds 14 1026 76 10000 1.5 170 06:50 27.08.2019
2997 Clouds 12 1025 87 10000 1.5 0 06:20 27.08.2019
2998 Clouds 9 1025 100 10000 2.1 110 05:29 27.08.2019
2999 Clouds 10 1024 87 10000 1 120 04:20 27.08.2019
3000 Clouds 11 1024 87 10000 2.6 110 03:31 27.08.2019
3001 Clouds 11 1024 93 10000 3.6 90 02:22 27.08.2019
3002 Clouds 12 1025 87 10000 3.6 80 01:34 27.08.2019
3003 Clouds 12 1025 93 10000 4.1 90 00:50 27.08.2019
3004 Clouds 12 1025 93 10000 4.1 100 00:29 27.08.2019
3005 Clouds 12 1025 87 10000 3.1 90 23:46 26.08.2019
3006 Clouds 12 1026 93 10000 3.6 80 23:26 26.08.2019
3007 Clouds 12 1026 93 10000 3.6 80 22:59 26.08.2019
3008 Clouds 13 1026 87 10000 4.1 90 22:38 26.08.2019
3009 Clouds 13 1026 87 10000 4.1 90 22:19 26.08.2019
3010 Clouds 14 1026 87 10000 5.1 110 21:40 26.08.2019
3011 Clouds 14 1026 87 10000 5.1 110 21:22 26.08.2019
3012 Clouds 13 1026 93 10000 2.6 100 20:59 26.08.2019
3013 Clouds 14 1026 87 10000 4.1 100 20:41 26.08.2019
3014 Clouds 14 1026 87 10000 4.1 100 20:21 26.08.2019
3015 Clouds 15 1026 82 10000 4.6 100 19:58 26.08.2019
3016 Clouds 15 1026 82 10000 4.6 100 19:58 26.08.2019
3017 Clouds 15 1026 82 10000 4.6 100 19:40 26.08.2019
3018 Clouds 15 1026 82 10000 4.6 100 19:19 26.08.2019
3019 Clouds 16 1025 72 10000 4.6 100 18:55 26.08.2019
3020 Clouds 16 1025 67 10000 3.1 80 18:37 26.08.2019
3021 Clouds 16 1025 67 10000 3.1 80 18:18 26.08.2019
3022 Clouds 18 1024 63 10000 4.6 90 17:43 26.08.2019
3023 Clouds 18 1024 63 10000 4.6 90 17:19 26.08.2019
3024 Clouds 20 1024 56 10000 5.1 90 16:56 26.08.2019
3025 Clouds 20 1024 56 10000 5.1 90 16:56 26.08.2019
3026 Clouds 22 1024 46 10000 5.1 90 16:38 26.08.2019
3027 Clouds 22 1024 46 10000 5.1 90 16:18 26.08.2019
3028 Clouds 24 1023 41 10000 2.6 120 15:42 26.08.2019
3029 Clouds 24 1023 41 10000 2.6 120 15:22 26.08.2019
3030 Clouds 24 1023 38 10000 2.6 130 14:56 26.08.2019
3031 Clouds 25 1023 38 10000 3.1 90 14:37 26.08.2019
3032 Clouds 25 1023 38 10000 3.1 90 14:18 26.08.2019
3033 Clouds 24 1023 41 10000 2.6 150 13:41 26.08.2019
3034 Clouds 24 1023 41 10000 2.6 150 13:21 26.08.2019
3035 Clouds 23 1024 43 10000 3.1 0 12:46 26.08.2019
3036 Clouds 24 1024 41 10000 2.1 0 12:28 26.08.2019
3037 Clouds 23 1025 40 10000 3.1 0 11:58 26.08.2019
3038 Clouds 22 1025 43 10000 3.6 120 11:37 26.08.2019
3039 Clouds 22 1025 43 10000 3.6 120 11:19 26.08.2019
3040 Clouds 22 1026 43 10000 3.6 130 10:54 26.08.2019
3041 Clouds 22 1026 43 10000 3.6 130 10:54 26.08.2019
3042 Clouds 21 1026 49 10000 2.1 0 10:36 26.08.2019
3043 Clouds 21 1026 49 10000 2.1 0 10:18 26.08.2019
3044 Clouds 19 1027 52 10000 5.1 130 09:41 26.08.2019
3045 Clouds 19 1027 52 10000 5.1 130 09:23 26.08.2019
3046 Clouds 18 1028 63 10000 3.6 150 08:55 26.08.2019
3047 Clouds 18 1028 63 10000 3.6 150 08:55 26.08.2019
3048 Clouds 17 1028 63 10000 3.6 130 08:37 26.08.2019
3049 Clouds 17 1028 63 10000 3.6 130 08:18 26.08.2019
3050 Clouds 14 1028 76 10000 2.6 130 07:42 26.08.2019
3051 Clouds 14 1028 76 10000 2.6 130 07:23 26.08.2019
3052 Clouds 13 1027 82 10000 1.5 130 06:48 26.08.2019
3053 Clouds 11 1027 93 10000 2.1 80 06:25 26.08.2019
3054 Clouds 9 1027 93 10000 2.6 70 05:49 26.08.2019
3055 Clouds 10 1026 93 10000 1.5 150 04:31 26.08.2019
3056 Clouds 10 1026 93 10000 2.1 160 02:56 26.08.2019
3057 Clouds 9 1026 93 10000 2.1 80 01:40 26.08.2019
3058 Clouds 9 1026 93 10000 2.1 80 01:21 26.08.2019
3059 Clouds 11 1026 87 10000 2.1 160 00:38 26.08.2019
3060 Clouds 11 1026 87 10000 2.1 160 00:19 26.08.2019
3061 Clouds 11 1026 87 10000 2.1 140 23:42 25.08.2019
3062 Clouds 11 1026 87 10000 2.1 140 23:19 25.08.2019
3063 Clouds 11 1026 87 10000 2.6 120 22:56 25.08.2019
3064 Clouds 11 1026 87 10000 3.1 110 22:38 25.08.2019
3065 Clouds 11 1026 87 10000 3.1 110 22:19 25.08.2019
3066 Clouds 11 1027 93 10000 2.1 70 21:56 25.08.2019
3067 Clouds 11 1026 93 10000 2.1 90 21:37 25.08.2019
3068 Clouds 11 1026 93 10000 2.1 90 21:18 25.08.2019
3069 Clouds 13 1026 82 10000 5.7 110 20:39 25.08.2019
3070 Clouds 13 1026 82 10000 5.7 110 20:19 25.08.2019
3071 Clouds 13 1027 76 10000 4.6 110 19:56 25.08.2019
3072 Clouds 14 1026 71 10000 4.1 120 19:37 25.08.2019
3073 Clouds 14 1026 71 10000 4.1 120 19:18 25.08.2019
3074 Clouds 14 1026 71 10000 4.6 120 18:57 25.08.2019
3075 Clouds 15 1026 67 10000 5.7 120 18:39 25.08.2019
3076 Clouds 15 1026 67 10000 5.7 120 18:39 25.08.2019
3077 Clouds 16 1026 59 10000 5.1 110 18:18 25.08.2019
3078 Clouds 17 1025 59 10000 5.1 130 17:42 25.08.2019
3079 Clouds 17 1025 59 10000 5.1 130 17:23 25.08.2019
3080 -273 0 0 0 0 0 16:45 25.08.2019
3081 Clouds 19 1024 45 10000 5.7 120 16:24 25.08.2019
3082 Clouds 20 1024 40 10000 5.7 120 15:59 25.08.2019
3083 Clouds 21 1024 40 10000 5.7 120 15:40 25.08.2019
3084 Clouds 21 1024 40 10000 5.7 120 15:40 25.08.2019
3085 Clouds 21 1024 40 10000 5.7 120 15:21 25.08.2019
3086 Clouds 22 1024 35 10000 5.1 130 14:42 25.08.2019
3087 Clouds 22 1024 35 10000 5.1 130 14:23 25.08.2019
3088 Clouds 22 1024 33 10000 4.6 130 13:55 25.08.2019
3089 Clouds 22 1024 33 10000 5.1 120 13:37 25.08.2019
3090 Clouds 22 1024 33 10000 5.1 120 13:36 25.08.2019
3091 Clouds 22 1024 33 10000 5.1 120 13:18 25.08.2019
3092 Clouds 22 1025 35 10000 5.1 100 12:41 25.08.2019
3093 Clouds 22 1025 35 10000 5.1 100 12:22 25.08.2019
3094 Clouds 21 1025 37 10000 5.1 110 11:57 25.08.2019
3095 Clouds 21 1026 37 10000 5.1 120 11:37 25.08.2019
3096 Clouds 21 1026 37 10000 5.1 120 11:19 25.08.2019
3097 Clouds 21 1026 37 10000 5.7 110 10:55 25.08.2019
3098 Clouds 20 1027 42 10000 4.6 140 10:37 25.08.2019
3099 Clouds 20 1027 42 10000 4.6 140 10:18 25.08.2019
3100 Clouds 18 1028 52 10000 5.7 140 09:42 25.08.2019
3101 Clouds 18 1028 52 10000 5.7 140 09:23 25.08.2019
3102 Clouds 17 1028 55 10000 7.2 120 08:47 25.08.2019
3103 Clouds 15 1028 62 10000 6.2 120 08:28 25.08.2019
3104 Clouds 14 1027 71 10000 4.6 150 07:49 25.08.2019
3105 Clouds 13 1027 82 10000 4.1 170 07:30 25.08.2019
3106 Clouds 12 1026 81 10000 2.6 150 06:38 25.08.2019
3107 Clouds 11 1026 81 10000 2.1 150 05:27 25.08.2019
3108 Clouds 12 1025 76 10000 3.1 150 03:43 25.08.2019
3109 Clouds 12 1025 76 10000 3.1 150 03:43 25.08.2019
3110 Clouds 12 1025 81 10000 4.6 140 02:42 25.08.2019
3111 Clouds 13 1025 76 10000 3.6 150 01:53 25.08.2019
3112 Clouds 13 1026 87 10000 2.1 120 00:45 25.08.2019
3113 Clouds 13 1026 82 10000 3.6 140 00:23 25.08.2019
3114 Clouds 13 1026 82 10000 3.6 140 23:57 24.08.2019
3115 Clouds 13 1026 82 10000 3.6 140 23:57 24.08.2019
3116 Clouds 12 1026 93 10000 4.6 110 23:39 24.08.2019
3117 Clouds 12 1026 93 10000 4.6 110 23:21 24.08.2019
3118 Clouds 13 1026 87 10000 6.2 110 22:40 24.08.2019
3119 Clouds 13 1026 87 10000 6.2 110 22:19 24.08.2019
3120 Clouds 14 1026 87 10000 5.7 110 21:58 24.08.2019
3121 Clouds 14 1026 87 10000 4.1 130 21:39 24.08.2019
3122 Clouds 14 1026 87 10000 4.1 130 21:21 24.08.2019
3123 Clouds 14 1026 82 10000 3.1 130 20:57 24.08.2019
3124 Clouds 15 1026 82 10000 3.1 150 20:38 24.08.2019
3125 Clouds 15 1026 82 10000 3.1 150 20:18 24.08.2019
3126 Clouds 15 1026 77 10000 3.6 130 19:57 24.08.2019
3127 Clouds 15 1026 77 10000 3.6 130 19:38 24.08.2019
3128 Clouds 15 1026 77 10000 3.6 130 19:19 24.08.2019
3129 Clouds 15 1026 77 10000 4.6 130 18:45 24.08.2019
3130 Clouds 16 1025 67 10000 5.7 120 18:23 24.08.2019
3131 Clouds 16 1025 67 10000 4.6 130 17:46 24.08.2019
3132 Clouds 17 1025 59 10000 5.7 130 17:27 24.08.2019
3133 Clouds 18 1024 59 10000 5.7 130 16:56 24.08.2019
3134 Clouds 20 1024 49 10000 7.2 110 16:36 24.08.2019
3135 Clouds 20 1024 49 10000 7.2 110 16:18 24.08.2019
3136 Clouds 22 1023 46 10000 5.7 130 15:43 24.08.2019
3137 Clouds 22 1023 46 10000 5.7 130 15:25 24.08.2019
3138 Clouds 23 1023 43 10000 5.1 130 14:56 24.08.2019
3139 Clouds 24 1023 41 10000 4.6 100 14:37 24.08.2019
3140 Clouds 24 1023 41 10000 4.6 100 14:18 24.08.2019
3141 Clouds 23 1024 38 10000 3.6 150 13:42 24.08.2019
3142 Clouds 23 1024 38 10000 3.6 150 13:22 24.08.2019
3143 Clouds 24 1024 41 10000 3.1 140 12:58 24.08.2019
3144 Clouds 23 1024 40 10000 4.1 160 12:39 24.08.2019
3145 Clouds 23 1024 40 10000 4.1 160 12:21 24.08.2019
3146 Clouds 23 1025 43 10000 4.6 110 11:46 24.08.2019
3147 Clouds 22 1025 43 10000 4.6 160 11:24 24.08.2019
3148 Clouds 21 1025 49 10000 5.1 170 10:57 24.08.2019
3149 Clouds 20 1026 52 10000 4.1 160 10:38 24.08.2019
3150 Clouds 20 1026 52 10000 4.1 160 10:19 24.08.2019
3151 Clouds 19 1026 55 10000 4.1 150 09:40 24.08.2019
3152 Clouds 19 1026 55 10000 4.1 150 09:18 24.08.2019
3153 Clouds 17 1027 63 10000 4.1 110 08:43 24.08.2019
3154 Clouds 17 1027 63 10000 4.1 110 08:23 24.08.2019
3155 Clouds 16 1026 67 10000 4.1 100 07:50 24.08.2019
3156 Clouds 15 1027 72 10000 3.1 140 07:29 24.08.2019
3157 Clouds 13 1026 82 10000 3.1 140 06:31 24.08.2019
3158 Clouds 11 1026 93 10000 2.6 150 05:57 24.08.2019
3159 Clouds 12 1026 87 10000 3.6 170 05:35 24.08.2019
3160 Clouds 13 1025 87 10000 3.6 120 03:40 24.08.2019
3161 Clouds 13 1025 93 10000 3.6 120 02:39 24.08.2019
3162 Clouds 13 1025 93 10000 2.6 150 01:52 24.08.2019
3163 Clouds 13 1026 93 10000 3.1 100 01:22 24.08.2019
3164 Clouds 13 1026 93 10000 2.6 130 00:44 24.08.2019
3165 Clouds 13 1026 93 10000 2.6 130 00:21 24.08.2019
3166 Clouds 14 1026 87 10000 2.6 100 23:43 23.08.2019
3167 Clouds 14 1026 87 10000 2.6 100 23:19 23.08.2019
3168 Clouds 14 1027 87 10000 3.6 110 22:43 23.08.2019
3169 Clouds 14 1027 87 10000 3.6 110 22:24 23.08.2019
3170 Clouds 14 1027 87 10000 3.1 110 21:54 23.08.2019
3171 Clouds 14 1027 87 10000 3.1 110 21:54 23.08.2019
3172 Clouds 14 1027 87 10000 3.1 130 21:36 23.08.2019
3173 Clouds 14 1027 87 10000 3.1 130 21:18 23.08.2019
3174 Clouds 14 1026 87 10000 3.1 140 20:45 23.08.2019
3175 Clouds 14 1026 87 10000 4.6 90 20:27 23.08.2019
3176 Clouds 14 1026 87 10000 6.2 100 19:45 23.08.2019
3177 Clouds 15 1026 82 10000 5.1 110 19:19 23.08.2019
3178 Clouds 15 1026 82 10000 5.1 110 19:19 23.08.2019
3179 Clouds 15 1026 82 10000 3.6 140 18:54 23.08.2019
3180 Clouds 15 1026 82 10000 5.7 110 18:36 23.08.2019
3181 Clouds 15 1026 82 10000 5.7 110 18:18 23.08.2019
3182 Clouds 16 1025 77 10000 6.7 100 17:41 23.08.2019
3183 Clouds 16 1025 77 10000 6.7 100 17:21 23.08.2019
3184 Clouds 18 1024 68 10000 6.2 100 16:49 23.08.2019
3185 Clouds 21 1024 60 10000 5.7 100 16:30 23.08.2019
3186 Clouds 22 1024 53 10000 5.1 100 15:59 23.08.2019
3187 Clouds 23 1023 49 10000 4.1 100 15:39 23.08.2019
3188 Clouds 23 1023 49 10000 4.1 100 15:21 23.08.2019
3189 Clouds 23 1023 53 10000 4.6 90 14:44 23.08.2019
3190 Clouds 23 1023 53 10000 4.6 90 14:21 23.08.2019
3191 Clouds 23 1024 53 10000 5.1 100 13:59 23.08.2019
3192 Clouds 24 1024 50 10000 4.6 100 13:41 23.08.2019
3193 Clouds 24 1024 50 10000 4.6 100 13:22 23.08.2019
3194 Clouds 23 1024 49 10000 4.1 120 12:58 23.08.2019
3195 Clouds 23 1024 49 10000 3.6 120 12:40 23.08.2019
3196 Clouds 23 1024 49 10000 3.6 120 12:21 23.08.2019
3197 Clouds 23 1024 49 10000 3.1 110 11:57 23.08.2019
3198 Clouds 22 1025 53 10000 3.1 0 11:38 23.08.2019
3199 Clouds 22 1025 53 10000 3.1 0 11:38 23.08.2019
3200 Clouds 22 1025 53 10000 3.1 0 11:18 23.08.2019
3201 Clouds 20 1026 60 10000 3.1 120 10:45 23.08.2019
3202 Clouds 20 1026 60 10000 3.1 120 10:23 23.08.2019
3203 Clouds 19 1026 59 10000 2.6 120 09:58 23.08.2019
3204 Clouds 18 1027 63 10000 3.6 130 09:40 23.08.2019
3205 Clouds 18 1027 63 10000 3.6 130 09:20 23.08.2019
3206 Clouds 15 1027 77 10000 3.6 160 08:44 23.08.2019
3207 Clouds 15 1027 77 10000 3.6 160 08:20 23.08.2019
3208 Clouds 13 1027 82 10000 4.1 140 07:44 23.08.2019
3209 Clouds 13 1027 82 10000 4.1 140 07:24 23.08.2019
3210 Clouds 13 1026 82 10000 4.1 120 06:59 23.08.2019
3211 Clouds 13 1026 82 10000 3.1 130 06:40 23.08.2019
3212 Clouds 13 1026 82 10000 3.1 130 06:21 23.08.2019
3213 Clouds 12 1026 87 10000 4.1 110 05:43 23.08.2019
3214 Clouds 12 1026 87 10000 4.1 110 05:22 23.08.2019
3215 Clouds 12 1025 87 10000 2.6 130 03:23 23.08.2019
3216 Clouds 13 1025 82 10000 3.1 140 02:24 23.08.2019
3217 Clouds 13 1025 82 10000 4.1 140 01:52 23.08.2019
3218 Clouds 13 1026 87 10000 3.6 150 00:46 23.08.2019
3219 Clouds 13 1026 87 10000 3.6 140 00:22 23.08.2019
3220 Clouds 13 1026 87 10000 3.6 140 00:22 23.08.2019
3221 Clouds 14 1026 82 10000 4.1 140 23:50 22.08.2019
3222 Clouds 14 1026 87 10000 3.6 140 23:32 22.08.2019
3223 Clouds 14 1026 82 10000 4.6 130 22:58 22.08.2019
3224 Clouds 14 1026 87 10000 4.6 130 22:40 22.08.2019
3225 Clouds 14 1026 87 10000 4.6 130 22:22 22.08.2019
3226 Clouds 14 1026 82 10000 5.1 110 21:57 22.08.2019
3227 Clouds 14 1026 82 10000 4.6 120 21:39 22.08.2019
3228 Clouds 14 1026 82 10000 4.6 120 21:19 22.08.2019
3229 Clouds 14 1026 82 10000 3.6 140 20:57 22.08.2019
3230 Clouds 15 1026 77 10000 4.1 140 20:38 22.08.2019
3231 Clouds 15 1026 77 10000 4.1 140 20:18 22.08.2019
3232 Clouds 15 1026 77 10000 4.1 140 20:18 22.08.2019
3233 Clouds 15 1026 77 10000 3.6 130 19:56 22.08.2019
3234 Clouds 15 1026 82 10000 5.1 130 19:37 22.08.2019
3235 Clouds 15 1026 82 10000 5.1 130 19:19 22.08.2019
3236 Clouds 15 1026 82 10000 4.1 130 18:56 22.08.2019
3237 Clouds 16 1026 77 10000 5.1 130 18:37 22.08.2019
3238 Clouds 16 1026 77 10000 5.1 130 18:18 22.08.2019
3239 Clouds 16 1025 77 10000 4.6 140 17:42 22.08.2019
3240 Clouds 16 1025 77 10000 4.6 140 17:23 22.08.2019
3241 Clouds 17 1025 72 10000 5.7 120 16:58 22.08.2019
3242 Clouds 17 1024 72 10000 6.2 100 16:39 22.08.2019
3243 Clouds 17 1024 72 10000 6.2 100 16:20 22.08.2019
3244 Clouds 18 1024 68 10000 6.7 110 15:58 22.08.2019
3245 Clouds 18 1024 68 10000 5.1 150 15:38 22.08.2019
3246 Clouds 18 1024 68 10000 5.1 150 15:38 22.08.2019
3247 Clouds 18 1024 68 10000 5.1 150 15:19 22.08.2019
3248 Clouds 18 1024 68 10000 5.1 150 15:19 22.08.2019
3249 Clouds 18 1024 68 10000 5.1 150 14:56 22.08.2019
3250 Clouds 19 1024 68 10000 5.7 170 14:38 22.08.2019
3251 Clouds 19 1024 68 10000 5.7 170 14:18 22.08.2019
3252 Clouds 18 1024 72 10000 5.7 160 13:41 22.08.2019
3253 Clouds 18 1024 72 10000 5.7 160 13:22 22.08.2019
3254 Clouds 19 1024 68 10000 5.7 180 12:59 22.08.2019
3255 Clouds 20 1024 64 10000 4.6 140 12:39 22.08.2019
3256 Clouds 20 1024 64 10000 4.6 140 12:20 22.08.2019
3257 Clouds 20 1024 64 10000 4.6 140 12:20 22.08.2019
3258 Clouds 19 1025 68 10000 6.2 160 11:43 22.08.2019
3259 Clouds 19 1025 68 10000 6.2 160 11:22 22.08.2019
3260 Clouds 19 1025 68 10000 6.2 150 10:59 22.08.2019
3261 Clouds 19 1025 68 10000 6.2 150 10:59 22.08.2019
3262 Clouds 19 1025 68 10000 6.7 160 10:41 22.08.2019
3263 Clouds 19 1025 68 10000 6.7 160 10:22 22.08.2019
3264 Clouds 19 1026 68 10000 6.7 170 09:59 22.08.2019
3265 Clouds 19 1026 68 10000 7.7 160 09:39 22.08.2019
3266 Clouds 19 1026 68 10000 7.7 160 09:21 22.08.2019
3267 Clouds 19 1026 68 10000 7.7 160 09:21 22.08.2019
3268 Clouds 18 1026 72 10000 6.7 160 08:56 22.08.2019
3269 Clouds 18 1026 72 10000 6.2 150 08:38 22.08.2019
3270 Clouds 18 1026 72 10000 6.2 150 08:20 22.08.2019
3271 Clouds 17 1026 77 10000 3.6 160 07:40 22.08.2019
3272 Clouds 17 1026 77 10000 3.6 160 07:20 22.08.2019
3273 Clouds 16 1025 82 10000 4.1 150 06:52 22.08.2019
3274 Clouds 16 1025 82 10000 5.1 160 06:24 22.08.2019
3275 Clouds 16 1024 87 10000 4.6 150 05:45 22.08.2019
3276 Clouds 16 1024 82 10000 4.1 150 04:29 22.08.2019
3277 Clouds 16 1024 82 10000 3.1 140 02:50 22.08.2019
3278 Clouds 16 1024 82 10000 3.1 140 02:50 22.08.2019
3279 Clouds 16 1024 82 10000 3.6 140 02:32 22.08.2019
3280 Clouds 16 1024 82 10000 3.1 140 01:23 22.08.2019
3281 Clouds 16 1025 82 10000 2.6 140 00:45 22.08.2019
3282 Clouds 16 1025 82 10000 2.6 140 00:26 22.08.2019
3283 Clouds 16 1025 82 10000 4.6 120 23:54 21.08.2019
3284 Clouds 16 1025 82 10000 3.1 130 23:36 21.08.2019
3285 Clouds 16 1025 82 10000 3.1 130 23:18 21.08.2019
3286 Clouds 17 1026 82 10000 3.1 130 22:41 21.08.2019
3287 Clouds 17 1026 82 10000 3.1 130 22:22 21.08.2019
3288 Clouds 17 1026 82 10000 4.6 110 21:58 21.08.2019
3289 Clouds 17 1026 82 10000 3.6 130 21:39 21.08.2019
3290 Clouds 17 1026 82 10000 3.6 130 21:20 21.08.2019
3291 Clouds 17 1026 82 10000 2.6 130 20:59 21.08.2019
3292 Clouds 17 1026 82 10000 4.1 140 20:41 21.08.2019
3293 Clouds 17 1026 82 10000 4.1 140 20:23 21.08.2019
3294 Clouds 17 1026 82 10000 3.1 130 19:56 21.08.2019
3295 Clouds 17 1026 82 10000 4.1 100 19:37 21.08.2019
3296 Clouds 17 1026 82 10000 4.1 100 19:19 21.08.2019
3297 Clouds 17 1025 88 10000 3.1 90 18:43 21.08.2019
3298 Clouds 17 1025 88 10000 3.1 90 18:23 21.08.2019
3299 Clouds 17 1025 88 10000 3.1 90 18:23 21.08.2019
3300 Clouds 18 1025 77 10000 3.6 90 17:54 21.08.2019
3301 Clouds 18 1025 77 10000 3.6 90 17:36 21.08.2019
3302 Clouds 18 1025 77 10000 3.6 90 17:18 21.08.2019
3303 Clouds 20 1024 68 10000 5.1 120 16:42 21.08.2019
3304 Clouds 20 1024 68 10000 5.1 120 16:23 21.08.2019
3305 Clouds 20 1024 64 10000 5.1 100 15:59 21.08.2019
3306 Rain 19 1023 72 10000 5.7 100 15:40 21.08.2019
3307 Rain 19 1023 72 10000 5.7 100 15:21 21.08.2019
3308 Clouds 21 1023 56 10000 4.6 110 14:57 21.08.2019
3309 Clouds 22 1023 53 10000 5.1 100 14:39 21.08.2019
3310 Clouds 22 1023 53 10000 5.1 100 14:20 21.08.2019
3311 Clouds 22 1023 53 10000 5.1 100 14:20 21.08.2019
3312 Clouds 22 1023 53 10000 5.1 100 14:20 21.08.2019
3313 Clouds 23 1023 53 10000 4.1 100 13:45 21.08.2019
3314 Clouds 23 1023 53 10000 4.1 100 13:22 21.08.2019
3315 Clouds 23 1023 53 10000 3.6 140 12:59 21.08.2019
3316 Clouds 23 1024 53 10000 3.1 150 12:40 21.08.2019
3317 Clouds 23 1024 53 10000 3.1 150 12:21 21.08.2019
3318 Clouds 21 1024 60 10000 2.6 190 11:58 21.08.2019
3319 Clouds 21 1024 60 10000 2.6 130 11:39 21.08.2019
3320 Clouds 21 1024 60 10000 2.6 130 11:39 21.08.2019
3321 Clouds 21 1024 60 10000 2.6 130 11:21 21.08.2019
3322 Clouds 20 1025 64 10000 2.6 170 10:56 21.08.2019
3323 Clouds 20 1025 64 10000 3.1 170 10:37 21.08.2019
3324 Clouds 20 1025 64 10000 3.1 170 10:37 21.08.2019
3325 Clouds 20 1025 64 10000 3.1 170 10:19 21.08.2019
3326 Clouds 18 1026 72 10000 3.1 180 09:43 21.08.2019
3327 Clouds 18 1026 72 10000 3.1 180 09:24 21.08.2019
3328 Clouds 17 1026 72 10000 3.1 150 08:59 21.08.2019
3329 Clouds 17 1026 77 10000 3.6 110 08:41 21.08.2019
3330 Clouds 17 1026 77 10000 3.6 110 08:21 21.08.2019
3331 Clouds 16 1025 82 10000 2.6 130 07:40 21.08.2019
3332 Clouds 16 1025 82 10000 2.6 130 07:21 21.08.2019
3333 Clouds 15 1025 87 10000 3.1 110 06:49 21.08.2019
3334 Clouds 15 1025 87 10000 2.6 100 06:22 21.08.2019
3335 Clouds 15 1025 87 10000 2.6 120 05:42 21.08.2019
3336 Clouds 15 1025 87 10000 2.6 120 05:23 21.08.2019
3337 Clouds 15 1024 87 10000 2.1 140 03:38 21.08.2019
3338 Clouds 15 1024 87 10000 2.1 140 01:47 21.08.2019
3339 Clouds 15 1025 87 10000 2.6 120 00:45 21.08.2019
3340 Clouds 15 1025 87 10000 2.6 120 00:24 21.08.2019
3341 Clouds 15 1025 87 10000 3.6 120 23:57 20.08.2019
3342 Clouds 16 1025 82 10000 3.1 100 23:38 20.08.2019
3343 Clouds 16 1025 82 10000 3.1 100 23:18 20.08.2019
3344 Clouds 16 1025 82 10000 3.1 100 23:18 20.08.2019
3345 Clouds 16 1025 82 10000 3.6 100 22:55 20.08.2019
3346 Clouds 16 1025 82 10000 3.6 80 22:36 20.08.2019
3347 Clouds 16 1025 82 10000 3.6 80 22:18 20.08.2019
3348 Clouds 16 1026 82 10000 3.1 120 21:56 20.08.2019
3349 Clouds 16 1025 82 10000 4.1 80 21:37 20.08.2019
3350 Clouds 16 1025 82 10000 4.1 80 21:18 20.08.2019
3351 Clouds 16 1025 87 10000 2.6 80 20:42 20.08.2019
3352 Clouds 16 1025 87 10000 2.6 80 20:24 20.08.2019
3353 Clouds 16 1025 82 10000 3.1 90 19:54 20.08.2019
3354 Clouds 17 1025 77 10000 3.6 100 19:36 20.08.2019
3355 Clouds 17 1025 77 10000 3.6 100 19:18 20.08.2019
3356 Clouds 17 1025 77 10000 4.6 90 18:55 20.08.2019
3357 Clouds 17 1025 77 10000 4.6 90 18:36 20.08.2019
3358 Clouds 17 1025 77 10000 4.6 90 18:18 20.08.2019
3359 Clouds 18 1024 68 10000 4.6 80 17:39 20.08.2019
3360 Clouds 18 1024 68 10000 4.6 80 17:20 20.08.2019
3361 Clouds 19 1024 63 10000 4.6 90 16:48 20.08.2019
3362 Clouds 20 1023 60 10000 5.1 100 16:28 20.08.2019
3363 Clouds 21 1023 52 10000 1.5 0 15:59 20.08.2019
3364 Clouds 22 1023 49 10000 3.1 110 15:41 20.08.2019
3365 Clouds 22 1023 49 10000 3.1 110 15:18 20.08.2019
3366 Clouds 22 1023 49 10000 3.1 110 15:18 20.08.2019
3367 Clouds 22 1023 53 10000 3.1 150 14:44 20.08.2019
3368 Clouds 22 1023 53 10000 4.1 120 14:22 20.08.2019
3369 Clouds 22 1023 53 10000 4.1 120 14:22 20.08.2019
3370 Clouds 23 1023 49 10000 3.6 110 13:59 20.08.2019
3371 Clouds 22 1023 53 10000 4.1 120 13:40 20.08.2019
3372 Clouds 22 1023 53 10000 4.1 120 13:21 20.08.2019
3373 Clouds 22 1023 56 10000 3.1 110 12:55 20.08.2019
3374 Clouds 20 1024 60 10000 3.6 120 12:37 20.08.2019
3375 Clouds 20 1024 60 10000 3.6 120 12:18 20.08.2019
3376 Clouds 19 1025 63 10000 4.6 80 11:42 20.08.2019
3377 Clouds 19 1025 63 10000 4.6 80 11:22 20.08.2019
3378 Clouds 18 1025 68 10000 4.1 120 10:58 20.08.2019
3379 Clouds 18 1025 68 10000 3.6 120 10:39 20.08.2019
3380 Clouds 18 1025 68 10000 3.6 120 10:39 20.08.2019
3381 Clouds 18 1025 68 10000 3.6 120 10:21 20.08.2019
3382 Clouds 18 1025 68 10000 4.6 110 09:58 20.08.2019
3383 Clouds 17 1026 72 10000 2.6 140 09:40 20.08.2019
3384 Clouds 17 1026 72 10000 2.6 140 09:40 20.08.2019
3385 Clouds 17 1026 72 10000 2.6 140 09:21 20.08.2019
3386 Clouds 17 1026 72 10000 2.6 140 09:21 20.08.2019
3387 Clouds 16 1025 77 10000 3.1 130 08:42 20.08.2019
3388 Clouds 16 1025 77 10000 3.1 130 08:23 20.08.2019
3389 Clouds 15 1025 82 10000 4.1 120 07:57 20.08.2019
3390 Clouds 15 1025 82 10000 5.7 120 07:38 20.08.2019
3391 Clouds 15 1025 82 10000 5.7 120 07:20 20.08.2019
3392 Clouds 15 1025 82 10000 4.1 120 06:43 20.08.2019
3393 Clouds 14 1025 87 10000 2.1 120 06:19 20.08.2019
3394 Clouds 13 1024 93 10000 2.6 120 05:41 20.08.2019
3395 Clouds 13 1024 87 10000 2.6 140 04:23 20.08.2019
3396 Clouds 13 1024 93 10000 3.1 80 02:48 20.08.2019
3397 Clouds 13 1025 87 10000 3.1 110 01:50 20.08.2019
3398 Clouds 13 1025 87 10000 3.1 90 01:20 20.08.2019
3399 Clouds 15 1025 77 10000 3.1 130 00:44 20.08.2019
3400 Clouds 15 1025 77 10000 3.1 130 00:21 20.08.2019
3401 Clouds 15 1025 77 10000 3.1 130 23:42 19.08.2019
3402 Clouds 14 1025 87 10000 2.6 110 23:19 19.08.2019
3403 Clouds 14 1025 87 10000 2.6 110 23:19 19.08.2019
3404 Clouds 14 1025 87 10000 2.6 110 22:58 19.08.2019
3405 Clouds 14 1026 87 10000 3.1 110 22:39 19.08.2019
3406 Clouds 14 1026 87 10000 3.1 110 22:19 19.08.2019
3407 Clouds 14 1026 87 10000 3.1 110 22:19 19.08.2019
3408 Clouds 14 1026 87 10000 3.6 100 21:56 19.08.2019
3409 Clouds 15 1026 82 10000 4.1 100 21:38 19.08.2019
3410 Clouds 15 1026 82 10000 4.1 100 21:19 19.08.2019
3411 Clouds 14 1026 87 10000 4.6 100 20:40 19.08.2019
3412 Clouds 14 1026 87 10000 4.6 100 20:21 19.08.2019
3413 Clouds 14 1026 87 10000 4.6 110 19:59 19.08.2019
3414 Clouds 15 1025 82 10000 4.6 110 19:40 19.08.2019
3415 Clouds 15 1025 82 10000 4.6 110 19:19 19.08.2019
3416 Clouds 15 1025 82 10000 4.6 100 18:58 19.08.2019
3417 Clouds 15 1025 82 10000 5.1 90 18:39 19.08.2019
3418 Clouds 15 1025 82 10000 5.1 90 18:20 19.08.2019
3419 Clouds 16 1024 72 10000 5.1 100 17:54 19.08.2019
3420 Clouds 17 1024 67 10000 5.1 100 17:36 19.08.2019
3421 Clouds 17 1024 67 10000 5.1 100 17:18 19.08.2019
3422 Clouds 19 1023 55 10000 5.7 90 16:38 19.08.2019
3423 Clouds 19 1023 55 10000 5.7 90 16:20 19.08.2019
3424 Clouds 21 1023 49 10000 5.7 100 15:56 19.08.2019
3425 Clouds 21 1022 49 10000 4.6 100 15:37 19.08.2019
3426 Clouds 21 1022 49 10000 4.6 100 15:18 19.08.2019
3427 Clouds 22 1022 43 10000 4.6 110 14:43 19.08.2019
3428 Clouds 22 1022 43 10000 4.6 110 14:23 19.08.2019
3429 Clouds 22 1022 46 10000 5.1 110 13:57 19.08.2019
3430 Clouds 21 1023 49 10000 6.2 140 13:38 19.08.2019
3431 Clouds 21 1023 49 10000 6.2 140 13:19 19.08.2019
3432 Clouds 22 1023 43 10000 6.2 90 12:56 19.08.2019
3433 Clouds 22 1023 43 10000 6.2 90 12:36 19.08.2019
3434 Clouds 22 1023 43 10000 6.2 90 12:18 19.08.2019
3435 Clouds 20 1024 49 10000 5.7 160 11:39 19.08.2019
3436 Clouds 20 1024 49 10000 5.7 160 11:21 19.08.2019
3437 Clouds 19 1025 52 10000 4.6 130 10:56 19.08.2019
3438 Clouds 20 1025 49 10000 6.2 120 10:37 19.08.2019
3439 Clouds 20 1025 49 10000 6.2 120 10:18 19.08.2019
3440 Clouds 21 1025 43 10000 5.7 120 09:44 19.08.2019
3441 Clouds 19 1025 52 10000 4.1 150 09:23 19.08.2019
3442 Clouds 18 1025 52 10000 4.6 150 08:56 19.08.2019
3443 Clouds 16 1025 63 10000 5.7 160 08:38 19.08.2019
3444 Clouds 16 1025 63 10000 5.7 160 08:18 19.08.2019
3445 Clouds 14 1025 71 10000 4.6 170 07:44 19.08.2019
3446 Clouds 14 1025 71 10000 4.6 170 07:26 19.08.2019
3447 Clouds 12 1025 81 10000 3.6 160 06:45 19.08.2019
3448 Clouds 12 1024 87 10000 3.6 160 06:24 19.08.2019
3449 Clouds 12 1023 81 10000 3.6 160 04:54 19.08.2019
3450 Clouds 12 1023 81 10000 3.6 170 04:23 19.08.2019
3451 Clouds 11 1023 87 10000 2.1 130 03:20 19.08.2019
3452 Clouds 12 1023 87 10000 3.1 140 01:48 19.08.2019
3453 Clouds 12 1024 87 10000 4.1 120 01:21 19.08.2019
3454 Clouds 13 1024 82 10000 5.1 110 00:43 19.08.2019
3455 Clouds 13 1024 82 10000 5.1 110 00:20 19.08.2019
3456 Clouds 12 1025 93 10000 4.6 110 23:41 18.08.2019
3457 Clouds 12 1025 93 10000 4.6 110 23:21 18.08.2019
3458 Clouds 13 1025 87 10000 2.6 70 22:40 18.08.2019
3459 Clouds 13 1025 87 10000 2.6 70 22:22 18.08.2019
3460 Clouds 13 1025 87 10000 3.1 110 21:58 18.08.2019
3461 Clouds 13 1025 87 10000 4.1 100 21:40 18.08.2019
3462 Clouds 13 1025 87 10000 4.1 100 21:21 18.08.2019
3463 Clouds 13 1025 82 10000 4.1 90 20:59 18.08.2019
3464 Clouds 13 1025 82 10000 3.6 110 20:41 18.08.2019
3465 Clouds 13 1025 82 10000 3.6 110 20:23 18.08.2019
3466 Clouds 14 1024 76 10000 5.1 110 19:43 18.08.2019
3467 Clouds 14 1024 76 10000 5.1 110 19:25 18.08.2019
3468 Clouds 14 1024 76 10000 4.6 100 18:59 18.08.2019
3469 Clouds 15 1023 67 10000 4.6 100 18:40 18.08.2019
3470 Clouds 15 1023 67 10000 4.6 100 18:21 18.08.2019
3471 Clouds 16 1023 59 10000 5.7 110 17:55 18.08.2019
3472 Clouds 17 1023 55 10000 6.2 110 17:37 18.08.2019
3473 Clouds 17 1023 55 10000 6.2 110 17:18 18.08.2019
3474 Clouds 18 1022 48 10000 7.2 120 16:55 18.08.2019
3475 Clouds 19 1022 45 10000 6.7 110 16:37 18.08.2019
3476 Clouds 21 1022 40 10000 5.7 120 16:18 18.08.2019
3477 Clouds 21 1022 40 10000 6.7 110 15:40 18.08.2019
3478 Clouds 21 1022 40 10000 6.7 110 15:20 18.08.2019
3479 Clouds 21 1021 40 10000 5.7 150 14:59 18.08.2019
3480 Clouds 21 1021 40 10000 5.7 150 14:59 18.08.2019
3481 Clouds 23 1021 35 10000 6.7 110 14:40 18.08.2019
3482 Clouds 23 1021 35 10000 6.7 110 14:19 18.08.2019
3483 Clouds 23 1021 33 10000 5.7 110 13:57 18.08.2019
3484 Clouds 23 1022 38 10000 5.1 170 13:39 18.08.2019
3485 Clouds 23 1022 38 10000 5.1 170 13:20 18.08.2019
3486 Clouds 22 1022 40 10000 5.7 180 12:45 18.08.2019
3487 Clouds 22 1022 40 10000 5.7 180 12:23 18.08.2019
3488 Clouds 22 1023 37 10000 4.6 130 11:59 18.08.2019
3489 Clouds 21 1023 43 10000 5.7 130 11:40 18.08.2019
3490 Clouds 21 1023 43 10000 5.7 130 11:21 18.08.2019
3491 Clouds 19 1024 48 10000 5.7 170 10:41 18.08.2019
3492 Clouds 19 1024 48 10000 5.7 170 10:22 18.08.2019
3493 Clouds 19 1024 48 10000 5.1 150 09:55 18.08.2019
3494 Clouds 18 1024 55 10000 5.7 180 09:36 18.08.2019
3495 Clouds 18 1024 55 10000 5.7 180 09:18 18.08.2019
3496 Clouds 16 1024 67 9000 4.1 170 08:42 18.08.2019
3497 Clouds 16 1024 67 9000 4.1 170 08:24 18.08.2019
3498 Clouds 15 1024 72 9000 3.1 190 07:49 18.08.2019
3499 Clouds 14 1024 76 8000 1 0 07:29 18.08.2019
3500 Clouds 8 1023 93 10000 1.77 153.928 05:50 18.08.2019
3501 Clouds 7 1022 93 10000 1.77 153.928 04:55 18.08.2019
3502 Clouds 8 1022 93 10000 1.77 153.928 03:43 18.08.2019
3503 Clouds 9 1022 93 10000 1.5 30 02:48 18.08.2019
3504 Clouds 9 1022 93 10000 1.75 145.838 02:25 18.08.2019
3505 Clouds 9 1022 87 10000 0.5 0 01:47 18.08.2019
3506 Clouds 10 1022 93 10000 0.5 0 01:20 18.08.2019
3507 Clouds 10 1023 81 10000 1.93 148.067 00:39 18.08.2019
3508 Clouds 10 1023 81 10000 1.39 135.174 00:19 18.08.2019
3509 Clouds 11 1023 81 10000 0.5 30 23:57 17.08.2019
3510 Clouds 11 1023 81 10000 1.5 50 23:37 17.08.2019
3511 Clouds 11 1023 81 10000 1.5 50 23:18 17.08.2019
3512 Clouds 11 1023 81 10000 1.5 50 23:18 17.08.2019
3513 Clouds 11 1023 81 10000 0.5 110 22:56 17.08.2019
3514 Clouds 12 1023 81 10000 1.39 135.174 22:37 17.08.2019
3515 Clouds 12 1023 81 10000 1.39 135.174 22:19 17.08.2019
3516 Clouds 13 1023 76 10000 0.5 40 21:41 17.08.2019
3517 Clouds 13 1023 76 10000 0.5 40 21:23 17.08.2019
3518 Clouds 13 1023 76 10000 0.5 40 21:23 17.08.2019
3519 Clouds 13 1023 71 10000 1.6 140.983 20:41 17.08.2019
3520 Clouds 13 1023 71 10000 1.6 140.983 20:21 17.08.2019
3521 Clouds 14 1023 71 10000 1.5 90 19:59 17.08.2019
3522 Clouds 15 1023 67 10000 3.6 100 19:41 17.08.2019
3523 Clouds 15 1023 67 10000 3.6 100 19:22 17.08.2019
3524 Clouds 16 1022 59 10000 5.1 90 18:54 17.08.2019
3525 Clouds 16 1022 55 10000 3.6 80 18:36 17.08.2019
3526 Clouds 16 1022 55 10000 3.6 80 18:18 17.08.2019
3527 Clouds 19 1021 42 10000 4.6 100 17:41 17.08.2019
3528 Clouds 19 1021 42 10000 4.6 100 17:21 17.08.2019
3529 Clouds 19 1021 42 10000 4.6 100 17:21 17.08.2019
3530 Clear 20 1021 42 10000 5.1 90 16:55 17.08.2019
3531 Clear 22 1020 37 10000 5.7 90 16:36 17.08.2019
3532 Clear 22 1020 37 10000 5.7 90 16:18 17.08.2019
3533 Clear 26 1020 47 10000 1 0 15:42 17.08.2019
3534 Clear 26 1020 17 10000 1 0 15:21 17.08.2019
3535 Clear 25 1020 17 10000 1.5 0 14:57 17.08.2019
3536 Clear 25 1020 20 10000 2.1 150 14:37 17.08.2019
3537 Clear 25 1020 20 10000 2.1 150 14:18 17.08.2019
3538 Clear 25 1021 22 10000 3.1 190 13:42 17.08.2019
3539 Clear 25 1021 22 10000 3.1 190 13:19 17.08.2019
3540 Clear 23 1022 25 10000 3.6 160 12:42 17.08.2019
3541 Clear 23 1022 25 10000 3.6 160 12:20 17.08.2019
3542 Clear 23 1022 27 10000 3.6 190 11:58 17.08.2019
3543 Clear 22 1023 37 10000 1.83 155.457 11:38 17.08.2019
3544 Clear 21 1024 40 10000 1.5 0 11:19 17.08.2019
3545 Clear 20 1024 49 10000 1.5 0 10:39 17.08.2019
3546 Clear 20 1024 49 10000 1.5 0 10:20 17.08.2019
3547 Clear 19 1024 55 9000 1.5 0 09:52 17.08.2019
3548 Clear 17 1025 67 8000 1 0 09:33 17.08.2019
3549 Clouds 16 1025 72 6000 1 0 08:58 17.08.2019
3550 Clouds 16 1025 72 6000 1 0 08:58 17.08.2019
3551 Mist 13 1025 87 5000 2.6 100 08:28 17.08.2019
3552 Mist 11 1025 100 4500 2.1 0 07:56 17.08.2019
3553 Mist 11 1024 93 3000 1.5 0 07:38 17.08.2019
3554 Mist 11 1024 93 3000 1.5 0 07:19 17.08.2019
3555 Mist 10 1024 100 4000 2.6 150 05:58 17.08.2019
3556 Mist 10 1023 100 2000 2.1 230 04:32 17.08.2019
3557 Mist 10 1023 100 2000 2.1 230 04:32 17.08.2019
3558 Clouds 10 1023 93 10000 1.5 210 03:37 17.08.2019
3559 Clouds 11 1023 93 10000 3.6 60 01:59 17.08.2019
3560 Clouds 11 1023 93 10000 5.1 110 01:36 17.08.2019
3561 Clouds 10 1024 100 10000 3.6 90 01:18 17.08.2019
3562 Clouds 11 1023 93 10000 5.1 110 01:18 17.08.2019
3563 Clouds 11 1024 100 10000 5.1 80 00:31 17.08.2019
3564 Clouds 11 1024 93 10000 3.6 90 23:57 16.08.2019
3565 Clouds 11 1025 93 10000 1.5 0 23:37 16.08.2019
3566 Clouds 11 1025 93 10000 1.5 0 23:18 16.08.2019
3567 Clouds 12 1025 93 10000 2.6 60 22:40 16.08.2019
3568 Clouds 12 1025 93 10000 2.6 60 22:19 16.08.2019
3569 Clouds 12 1025 93 10000 3.1 80 21:42 16.08.2019
3570 Clouds 12 1025 93 10000 3.1 80 21:22 16.08.2019
3571 Clouds 12 1025 87 10000 2.6 80 20:58 16.08.2019
3572 Clouds 12 1025 87 10000 2.6 80 20:39 16.08.2019
3573 Clouds 12 1025 87 10000 2.6 80 20:19 16.08.2019
3574 Clouds 13 1025 82 10000 3.1 90 19:44 16.08.2019
3575 Clouds 13 1025 82 10000 3.1 90 19:23 16.08.2019
3576 Clouds 14 1025 76 10000 2.1 80 18:55 16.08.2019
3577 Clouds 15 1025 72 10000 3.1 100 18:36 16.08.2019
3578 Clouds 15 1025 72 10000 3.1 100 18:18 16.08.2019
3579 Clouds 17 1024 59 10000 4.6 110 17:44 16.08.2019
3580 Clouds 17 1024 59 10000 4.6 110 17:25 16.08.2019
3581 Clouds 19 1024 52 10000 4.1 150 16:56 16.08.2019
3582 Clouds 19 1024 48 10000 5.1 130 16:37 16.08.2019
3583 Clouds 19 1024 48 10000 5.1 130 16:18 16.08.2019
3584 Clouds 21 1024 43 10000 5.7 130 15:41 16.08.2019
3585 Clouds 21 1024 43 10000 5.7 130 15:22 16.08.2019
3586 Clouds 22 1024 40 10000 6.2 130 14:58 16.08.2019
3587 Clouds 21 1024 46 10000 5.7 150 14:39 16.08.2019
3588 Clouds 21 1024 46 10000 5.7 150 14:19 16.08.2019
3589 Clouds 21 1024 46 10000 5.7 150 13:57 16.08.2019
3590 Clouds 22 1024 43 10000 5.7 130 13:37 16.08.2019
3591 Clouds 21 1025 46 10000 6.2 170 13:19 16.08.2019
3592 Clouds 21 1025 46 10000 5.7 170 12:39 16.08.2019
3593 Clouds 21 1025 46 10000 5.7 170 12:20 16.08.2019
3594 Clouds 21 1026 46 10000 6.2 110 11:42 16.08.2019
3595 Clouds 21 1026 46 10000 6.2 110 11:24 16.08.2019
3596 Clouds 21 1026 46 10000 6.2 130 10:45 16.08.2019
3597 Clouds 20 1027 45 10000 6.7 150 10:27 16.08.2019
3598 Clouds 19 1027 52 10000 6.2 140 09:58 16.08.2019
3599 Clouds 17 1027 59 10000 6.7 160 09:37 16.08.2019
3600 Clouds 17 1027 59 10000 6.7 160 09:18 16.08.2019
3601 Clouds 15 1027 72 10000 3.1 130 08:42 16.08.2019
3602 Clouds 15 1027 72 10000 3.1 130 08:21 16.08.2019
3603 Clouds 14 1027 76 10000 2.1 120 07:59 16.08.2019
3604 Clouds 14 1027 71 10000 3.1 120 07:41 16.08.2019
3605 Clouds 14 1027 71 10000 3.1 120 07:21 16.08.2019
3606 Clouds 11 1027 87 10000 0.5 0 06:32 16.08.2019
3607 Clouds 11 1026 87 10000 0.5 0 05:43 16.08.2019
3608 Clouds 10 1026 93 10000 1 0 04:32 16.08.2019
3609 Clouds 11 1026 93 10000 2.1 160 02:47 16.08.2019
3610 Clouds 12 1027 87 10000 3.1 160 01:42 16.08.2019
3611 Clouds 12 1027 87 10000 3.1 160 01:19 16.08.2019
3612 Clouds 12 1027 93 10000 3.1 130 00:41 16.08.2019
3613 Clouds 12 1027 93 10000 3.1 130 00:21 16.08.2019
3614 Clouds 13 1027 87 10000 3.6 130 23:45 15.08.2019
3615 Clouds 13 1027 87 10000 3.1 130 23:22 15.08.2019
3616 Clouds 12 1027 93 10000 2.6 120 22:58 15.08.2019
3617 Clouds 12 1027 93 10000 2.1 120 22:39 15.08.2019
3618 Clouds 12 1027 93 10000 2.1 120 22:20 15.08.2019
3619 Clouds 12 1027 93 10000 3.1 100 21:55 15.08.2019
3620 Clouds 13 1027 87 10000 4.1 100 21:37 15.08.2019
3621 Clouds 13 1027 87 10000 4.1 100 21:18 15.08.2019
3622 Clouds 14 1027 76 10000 3.6 90 20:43 15.08.2019
3623 Clouds 14 1027 76 10000 3.6 90 20:22 15.08.2019
3624 Clouds 15 1027 67 10000 2.1 130 19:57 15.08.2019
3625 Clouds 16 1027 59 10000 2.6 130 19:39 15.08.2019
3626 Clouds 16 1027 59 10000 2.6 130 19:20 15.08.2019
3627 Clouds 16 1026 55 10000 2.6 120 18:47 15.08.2019
3628 Clouds 16 1026 55 10000 2.6 120 18:23 15.08.2019
3629 Clouds 18 1026 45 10000 3.1 130 17:58 15.08.2019
3630 Clouds 19 1026 42 10000 5.1 110 17:38 15.08.2019
3631 Clouds 19 1026 42 10000 5.1 110 17:38 15.08.2019
3632 Clouds 19 1026 42 10000 5.1 110 17:19 15.08.2019
3633 Clouds 20 1025 40 10000 5.1 110 16:56 15.08.2019
3634 Clouds 22 1025 35 10000 4.6 120 16:38 15.08.2019
3635 Clouds 22 1025 35 10000 4.6 120 16:20 15.08.2019
3636 Clouds 24 1025 33 10000 4.6 160 15:38 15.08.2019
3637 Clouds 24 1025 33 10000 4.6 160 15:19 15.08.2019
3638 Clouds 24 1025 31 10000 4.6 160 14:55 15.08.2019
3639 Clouds 25 1025 33 10000 3.6 150 14:36 15.08.2019
3640 Clouds 25 1025 33 10000 3.6 150 14:18 15.08.2019
3641 Clouds 25 1025 33 10000 3.1 150 13:54 15.08.2019
3642 Clouds 24 1025 36 10000 3.6 150 13:36 15.08.2019
3643 Clouds 24 1025 36 10000 3.6 150 13:18 15.08.2019
3644 Clouds 24 1026 38 10000 3.6 150 12:39 15.08.2019
3645 Clouds 24 1026 38 10000 3.6 150 12:20 15.08.2019
3646 Clouds 23 1026 43 10000 2.6 0 11:57 15.08.2019
3647 Clouds 23 1026 46 10000 2.6 0 11:37 15.08.2019
3648 Clouds 23 1026 46 10000 2.6 0 11:37 15.08.2019
3649 Clouds 23 1026 46 10000 2.6 0 11:18 15.08.2019
3650 Clouds 21 1027 52 10000 2.1 0 10:57 15.08.2019
3651 Clouds 20 1027 52 10000 2.6 120 10:36 15.08.2019
3652 Clouds 20 1027 52 10000 2.6 120 10:18 15.08.2019
3653 Clouds 20 1027 52 10000 2.6 120 10:18 15.08.2019
3654 Clouds 18 1028 59 8000 2.1 140 09:41 15.08.2019
3655 Clouds 18 1028 59 8000 2.1 140 09:22 15.08.2019
3656 Clouds 14 1028 71 6000 1 0 08:38 15.08.2019
3657 Clouds 14 1028 71 6000 1 0 08:20 15.08.2019
3658 Clouds 13 1028 82 6000 0.5 0 07:54 15.08.2019
3659 Mist 10 1028 100 4500 2.1 180 07:36 15.08.2019
3660 Mist 10 1028 100 4500 2.1 180 07:18 15.08.2019
3661 Mist 10 1027 93 2500 1.5 180 06:40 15.08.2019
3662 Mist 10 1027 93 2500 1.5 180 06:40 15.08.2019
3663 Mist 10 1027 93 2500 1.5 180 06:21 15.08.2019
3664 Clouds 9 1027 100 7000 2.1 190 05:29 15.08.2019
3665 Clouds 8 1027 93 10000 1.79 149.124 04:51 15.08.2019
3666 Clear 7 1027 93 10000 1 0 03:49 15.08.2019
3667 Clear 9 1027 93 10000 1 0 02:52 15.08.2019
3668 Clear 9 1027 93 10000 1 0 02:18 15.08.2019
3669 Clear 10 1027 93 10000 1 0 01:38 15.08.2019
3670 Clear 10 1028 93 10000 1 0 00:42 15.08.2019
3671 Clear 10 1028 93 10000 1 0 00:22 15.08.2019
3672 Clear 10 1028 93 10000 1.5 130 23:59 14.08.2019
3673 Clear 9 1028 100 10000 2.6 80 23:40 14.08.2019
3674 Clear 9 1028 100 10000 2.6 80 23:20 14.08.2019
3675 Clear 10 1028 93 10000 3.6 70 22:59 14.08.2019
3676 Clear 10 1028 93 10000 3.1 80 22:40 14.08.2019
3677 Clear 10 1028 93 10000 3.1 80 22:21 14.08.2019
3678 Clear 11 1028 87 10000 1 0 21:57 14.08.2019
3679 Clear 11 1028 87 10000 1 0 21:38 14.08.2019
3680 Clear 11 1028 87 10000 1 0 21:19 14.08.2019
3681 Clear 12 1028 81 10000 3.1 90 20:42 14.08.2019
3682 Clear 12 1028 81 10000 3.1 90 20:22 14.08.2019
3683 Clear 12 1028 76 10000 3.1 100 19:56 14.08.2019
3684 Clear 13 1028 71 10000 4.1 80 19:38 14.08.2019
3685 Clear 13 1028 71 10000 4.1 80 19:20 14.08.2019
3686 Clear 13 1027 71 10000 4.1 80 18:57 14.08.2019
3687 Clear 15 1027 62 10000 4.1 90 18:38 14.08.2019
3688 Clear 15 1027 62 10000 4.1 90 18:20 14.08.2019
3689 Clear 16 1027 59 10000 4.6 100 17:56 14.08.2019
3690 Clear 16 1027 59 10000 4.6 90 17:37 14.08.2019
3691 Clear 16 1027 59 10000 4.6 90 17:19 14.08.2019
3692 Clouds 20 1026 42 10000 6.2 100 16:43 14.08.2019
3693 Clouds 20 1026 42 10000 6.2 100 16:20 14.08.2019
3694 Clouds 20 1026 42 10000 5.1 110 15:55 14.08.2019
3695 Clouds 21 1026 40 10000 4.6 100 15:37 14.08.2019
3696 Clouds 21 1026 43 10000 5.1 120 15:18 14.08.2019
3697 Clouds 21 1026 43 10000 4.1 120 14:41 14.08.2019
3698 Clouds 21 1026 43 10000 4.1 120 14:19 14.08.2019
3699 Clouds 22 1026 40 10000 3.6 140 13:59 14.08.2019
3700 Clouds 22 1026 40 10000 4.1 110 13:40 14.08.2019
3701 Clouds 22 1026 40 10000 4.1 110 13:22 14.08.2019
3702 Clouds 22 1026 40 10000 4.6 150 12:56 14.08.2019
3703 Clouds 22 1027 37 10000 5.7 100 12:37 14.08.2019
3704 Clouds 22 1027 37 10000 5.7 100 12:19 14.08.2019
3705 Clouds 21 1027 40 10000 5.1 100 11:46 14.08.2019
3706 Clouds 21 1027 43 10000 5.1 120 11:23 14.08.2019
3707 Clouds 20 1028 49 10000 4.6 120 10:58 14.08.2019
3708 Clouds 20 1028 49 10000 5.1 120 10:38 14.08.2019
3709 Clouds 20 1028 49 10000 5.1 120 10:38 14.08.2019
3710 Clouds 20 1028 49 10000 5.1 120 10:38 14.08.2019
3711 Clouds 20 1028 49 10000 5.1 120 10:20 14.08.2019
3712 Clouds 19 1028 55 10000 6.2 120 09:44 14.08.2019
3713 Clouds 19 1028 55 10000 6.2 120 09:44 14.08.2019
3714 Clouds 19 1028 55 10000 6.2 120 09:21 14.08.2019
3715 Clouds 19 1028 55 10000 6.2 120 09:21 14.08.2019
3716 Clouds 17 1028 63 10000 3.6 140 08:47 14.08.2019
3717 Clouds 17 1028 63 10000 3.6 140 08:29 14.08.2019
3718 Clouds 16 1028 67 10000 3.6 150 07:57 14.08.2019
3719 Clouds 15 1028 77 10000 3.1 120 07:38 14.08.2019
3720 Clouds 15 1028 77 10000 3.1 120 07:19 14.08.2019
3721 Clouds 13 1028 82 10000 2.1 150 06:43 14.08.2019
3722 Clouds 11 1027 93 10000 2.1 150 05:35 14.08.2019
3723 Clouds 13 1026 82 10000 2.1 150 04:43 14.08.2019
3724 Clouds 12 1026 87 10000 2.6 180 02:44 14.08.2019
3725 Clouds 11 1026 93 10000 2.6 170 02:18 14.08.2019
3726 Clouds 11 1026 93 10000 2.6 170 01:30 14.08.2019
3727 Clouds 12 1027 87 10000 2.1 160 00:38 14.08.2019
3728 Clouds 13 1027 87 10000 2.6 160 23:43 13.08.2019
3729 Clouds 13 1027 87 10000 2.6 160 23:20 13.08.2019
3730 Clouds 14 1027 82 10000 3.6 160 22:56 13.08.2019
3731 Clouds 13 1027 87 10000 2.6 160 22:38 13.08.2019
3732 Clouds 13 1027 87 10000 2.6 160 22:38 13.08.2019
3733 Clouds 13 1027 87 10000 2.6 160 22:19 13.08.2019
3734 Clouds 14 1027 82 10000 3.1 140 21:55 13.08.2019
3735 Clouds 14 1027 82 10000 2.6 130 21:36 13.08.2019
3736 Clouds 14 1027 82 10000 2.6 130 21:36 13.08.2019
3737 Clouds 14 1027 82 10000 2.6 130 21:18 13.08.2019
3738 Clouds 14 1027 87 10000 5.7 120 20:43 13.08.2019
3739 Clouds 14 1027 87 10000 5.7 120 20:20 13.08.2019
3740 Clouds 14 1027 87 10000 5.1 110 19:56 13.08.2019
3741 Clouds 14 1027 82 10000 5.7 120 19:38 13.08.2019
3742 Clouds 14 1027 82 10000 5.7 120 19:20 13.08.2019
3743 Clouds 15 1027 82 10000 6.2 100 18:42 13.08.2019
3744 Clouds 15 1027 82 10000 6.2 100 18:22 13.08.2019
3745 Clouds 15 1026 82 10000 5.7 110 17:56 13.08.2019
3746 Clouds 16 1026 67 10000 5.7 110 17:38 13.08.2019
3747 Clouds 16 1026 67 10000 5.7 110 17:18 13.08.2019
3748 Clouds 17 1026 67 10000 4.6 110 16:55 13.08.2019
3749 Clouds 18 1026 63 10000 5.7 120 16:36 13.08.2019
3750 Clouds 19 1025 59 10000 4.6 130 16:18 13.08.2019
3751 Clouds 21 1025 52 10000 3.6 140 15:38 13.08.2019
3752 Clouds 21 1025 52 10000 3.6 140 15:20 13.08.2019
3753 Clouds 21 1025 52 10000 3.1 150 14:55 13.08.2019
3754 Clouds 21 1025 52 10000 4.6 160 14:37 13.08.2019
3755 Clouds 21 1025 52 10000 5.7 160 14:18 13.08.2019
3756 Clouds 21 1025 52 10000 5.1 170 13:41 13.08.2019
3757 Clouds 21 1025 52 10000 5.1 170 13:21 13.08.2019
3758 Clouds 21 1025 52 10000 5.1 170 12:57 13.08.2019
3759 Clouds 21 1025 52 10000 4.1 150 12:39 13.08.2019
3760 Clouds 21 1025 52 10000 4.1 150 12:21 13.08.2019
3761 Clouds 20 1026 56 10000 6.7 120 11:43 13.08.2019
3762 Clouds 20 1026 56 10000 6.7 120 11:23 13.08.2019
3763 Clouds 20 1026 56 10000 6.2 120 10:59 13.08.2019
3764 Clouds 20 1027 56 10000 3.1 120 10:39 13.08.2019
3765 Clouds 20 1027 56 10000 3.1 120 10:20 13.08.2019
3766 Clouds 18 1028 59 10000 1 120 09:59 13.08.2019
3767 Clouds 19 1028 52 10000 3.6 170 09:40 13.08.2019
3768 Clouds 19 1028 52 10000 3.6 170 09:22 13.08.2019
3769 Clouds 15 1028 67 10000 3.6 150 08:42 13.08.2019
3770 Clouds 15 1028 67 10000 3.6 150 08:22 13.08.2019
3771 Clouds 14 1028 76 10000 3.1 160 07:51 13.08.2019
3772 Clouds 14 1028 82 10000 1 0 07:31 13.08.2019
3773 Clouds 10 1027 100 10000 2.1 130 06:45 13.08.2019
3774 Clouds 10 1027 100 10000 2.1 130 06:19 13.08.2019
3775 Clouds 10 1026 93 10000 1.5 150 05:32 13.08.2019
3776 Clouds 10 1026 93 10000 2.6 120 02:37 13.08.2019
3777 Clouds 10 1026 93 10000 2.1 130 01:55 13.08.2019
3778 Clouds 11 1026 93 10000 2.1 120 00:54 13.08.2019
3779 Clouds 11 1026 93 10000 2.1 140 00:35 13.08.2019
3780 Clouds 11 1027 93 10000 2.6 90 23:48 12.08.2019
3781 Clouds 11 1027 93 10000 3.1 100 23:24 12.08.2019
3782 Clouds 11 1027 93 10000 2.6 70 22:57 12.08.2019
3783 Clouds 12 1027 87 10000 3.6 100 22:38 12.08.2019
3784 Clouds 12 1027 87 10000 3.6 100 22:19 12.08.2019
3785 Clouds 12 1027 93 10000 3.6 110 21:55 12.08.2019
3786 Clouds 12 1027 93 10000 4.1 110 21:36 12.08.2019
3787 Clouds 12 1027 93 10000 4.1 110 21:18 12.08.2019
3788 Clouds 13 1027 87 10000 3.1 140 20:42 12.08.2019
3789 Clouds 13 1027 87 10000 3.1 140 20:21 12.08.2019
3790 Clouds 14 1027 82 10000 3.6 140 19:59 12.08.2019
3791 Clouds 14 1026 82 10000 5.1 140 19:39 12.08.2019
3792 Clouds 14 1026 82 10000 5.1 140 19:21 12.08.2019
3793 Clouds 15 1026 82 10000 3.6 140 18:59 12.08.2019
3794 Clouds 15 1026 82 10000 4.1 130 18:40 12.08.2019
3795 Clouds 15 1026 82 10000 4.1 130 18:21 12.08.2019
3796 Clouds 15 1026 82 10000 3.6 130 17:56 12.08.2019
3797 Clouds 15 1026 82 10000 3.6 130 17:38 12.08.2019
3798 Clouds 15 1026 82 10000 3.6 130 17:20 12.08.2019
3799 Clouds 17 1025 72 10000 5.7 120 16:55 12.08.2019
3800 Clouds 17 1025 72 10000 5.1 120 16:36 12.08.2019
3801 Clouds 17 1025 72 10000 5.1 120 16:18 12.08.2019
3802 Clouds 19 1025 63 10000 6.2 110 15:42 12.08.2019
3803 Clouds 19 1025 63 10000 6.2 110 15:42 12.08.2019
3804 Clouds 19 1025 63 10000 6.2 110 15:23 12.08.2019
3805 Clouds 19 1024 63 10000 4.6 130 14:59 12.08.2019
3806 Clouds 18 1025 68 10000 7.2 90 14:41 12.08.2019
3807 Clouds 18 1025 68 10000 7.2 90 14:23 12.08.2019
3808 Clouds 18 1025 72 10000 7.7 110 13:57 12.08.2019
3809 Rain 19 1024 63 10000 5.7 110 13:39 12.08.2019
3810 Rain 19 1024 63 10000 5.7 110 13:20 12.08.2019
3811 Rain 17 1025 82 10000 4.1 130 12:43 12.08.2019
3812 Rain 17 1025 82 10000 4.1 130 12:21 12.08.2019
3813 Clouds 19 1026 63 10000 4.6 110 11:45 12.08.2019
3814 Clouds 19 1026 63 10000 4.6 110 11:44 12.08.2019
3815 Clouds 19 1026 63 10000 4.6 110 11:26 12.08.2019
3816 Clouds 19 1026 63 10000 3.6 120 10:57 12.08.2019
3817 Clouds 18 1027 68 10000 5.1 100 10:38 12.08.2019
3818 Clouds 18 1027 68 10000 5.1 100 10:20 12.08.2019
3819 Clouds 20 1027 56 10000 6.2 100 09:43 12.08.2019
3820 Clouds 20 1027 56 10000 6.2 100 09:23 12.08.2019
3821 Clouds 19 1027 68 10000 6.2 110 08:59 12.08.2019
3822 Clouds 19 1027 68 10000 6.2 110 08:59 12.08.2019
3823 Clouds 19 1027 68 10000 6.2 110 08:59 12.08.2019
3824 Clouds 17 1027 72 10000 5.7 110 08:39 12.08.2019
3825 Clouds 17 1027 72 10000 5.7 110 08:21 12.08.2019
3826 Clouds 17 1027 72 10000 5.7 110 08:21 12.08.2019
3827 Clouds 17 1027 82 10000 5.7 100 07:55 12.08.2019
3828 Clouds 15 1027 93 10000 2.6 130 07:33 12.08.2019
3829 Clouds 14 1026 93 10000 2.1 140 06:53 12.08.2019
3830 Drizzle 13 1026 100 4000 2.1 160 05:41 12.08.2019
3831 Drizzle 13 1025 100 6000 2.1 170 03:25 12.08.2019
3832 Clouds 14 1025 87 10000 2.1 170 02:41 12.08.2019
3833 Clouds 14 1025 87 10000 1 220 01:22 12.08.2019
3834 Clouds 14 1025 87 10000 2.1 190 00:58 12.08.2019
3835 Clouds 14 1025 87 10000 2.1 190 00:58 12.08.2019
3836 Clouds 14 1026 87 10000 2.6 180 00:40 12.08.2019
3837 Clouds 14 1026 87 10000 2.6 180 00:20 12.08.2019
3838 Clouds 14 1026 87 10000 1 0 23:56 11.08.2019
3839 Clouds 13 1026 87 10000 1 0 23:38 11.08.2019
3840 Clouds 13 1026 87 10000 1 0 23:19 11.08.2019
3841 Clouds 13 1027 87 10000 2.6 140 22:40 11.08.2019
3842 Clouds 13 1027 87 10000 2.6 140 22:20 11.08.2019
3843 Clouds 13 1027 87 10000 2.6 120 21:59 11.08.2019
3844 Clouds 13 1027 87 10000 3.6 110 21:41 11.08.2019
3845 Clouds 13 1027 87 10000 3.6 110 21:22 11.08.2019
3846 Clouds 13 1027 93 10000 3.6 110 20:58 11.08.2019
3847 Clouds 14 1027 87 10000 4.1 120 20:40 11.08.2019
3848 Clouds 14 1027 87 10000 4.1 120 20:22 11.08.2019
3849 Clouds 14 1027 87 10000 4.1 120 20:22 11.08.2019
3850 Clouds 14 1027 87 10000 2.6 120 19:45 11.08.2019
3851 Clouds 14 1027 87 10000 2.6 120 19:45 11.08.2019
3852 Clouds 14 1027 87 10000 2.6 120 19:20 11.08.2019
3853 Clouds 15 1027 82 10000 4.1 110 18:54 11.08.2019
3854 Clouds 15 1026 82 10000 3.6 130 18:36 11.08.2019
3855 Clouds 15 1026 82 10000 3.6 130 18:18 11.08.2019
3856 Clouds 16 1026 77 10000 4.6 120 17:41 11.08.2019
3857 Clouds 16 1026 77 10000 4.6 120 17:20 11.08.2019
3858 Clouds 16 1026 77 10000 4.6 130 16:57 11.08.2019
3859 Clouds 17 1025 72 10000 4.6 150 16:38 11.08.2019
3860 Clouds 17 1025 72 10000 4.6 150 16:20 11.08.2019
3861 Clouds 17 1025 72 10000 4.6 150 16:20 11.08.2019
3862 Clouds 18 1025 68 10000 6.2 160 15:44 11.08.2019
3863 Clouds 18 1025 68 10000 6.2 160 15:44 11.08.2019
3864 Clouds 18 1025 68 10000 6.2 160 15:25 11.08.2019
3865 Clouds 18 1025 68 10000 6.2 170 14:59 11.08.2019
3866 Clouds 19 1024 63 10000 6.2 150 14:39 11.08.2019
3867 Clouds 19 1024 63 10000 6.2 150 14:21 11.08.2019
3868 Clouds 20 1025 56 10000 6.2 130 13:45 11.08.2019
3869 Clouds 20 1025 56 10000 6.2 130 13:26 11.08.2019
3870 Clouds 21 1025 52 10000 6.2 130 12:57 11.08.2019
3871 Clouds 20 1025 56 10000 6.7 130 12:37 11.08.2019
3872 Clouds 20 1025 56 10000 6.7 130 12:19 11.08.2019
3873 Clouds 20 1026 52 10000 5.7 140 11:40 11.08.2019
3874 Clouds 20 1026 52 10000 5.7 140 11:22 11.08.2019
3875 Clouds 20 1026 52 10000 6.2 140 10:56 11.08.2019
3876 Clouds 20 1026 52 10000 6.2 140 10:56 11.08.2019
3877 Clouds 21 1026 49 10000 6.2 150 10:37 11.08.2019
3878 Clouds 19 1027 52 10000 6.7 170 10:19 11.08.2019
3879 Clouds 18 1027 52 10000 6.2 160 09:43 11.08.2019
3880 Clouds 18 1027 52 10000 6.2 160 09:24 11.08.2019
3881 Clouds 18 1027 52 10000 5.1 140 08:49 11.08.2019
3882 Clouds 16 1028 63 10000 5.7 160 08:30 11.08.2019
3883 Clouds 15 1028 72 10000 3.6 160 07:59 11.08.2019
3884 Clouds 14 1028 76 10000 3.1 160 07:31 11.08.2019
3885 Clouds 12 1028 81 10000 2.6 130 06:46 11.08.2019
3886 Clouds 11 1027 87 10000 2.6 120 06:28 11.08.2019
3887 Clouds 10 1026 93 10000 1.5 0 04:40 11.08.2019
3888 Clouds 11 1026 87 10000 3.6 170 02:50 11.08.2019
3889 Clouds 11 1026 87 10000 2.6 180 01:56 11.08.2019
3890 Clouds 11 1026 87 10000 3.1 170 01:28 11.08.2019
3891 Clouds 11 1027 93 10000 3.6 170 00:54 11.08.2019
3892 Clouds 11 1027 93 10000 2.6 160 00:34 11.08.2019
3893 Clouds 12 1028 87 10000 2.6 180 23:49 10.08.2019
3894 Clouds 12 1028 87 10000 3.1 160 23:29 10.08.2019
3895 Clouds 12 1028 87 10000 3.1 160 22:48 10.08.2019
3896 Clouds 12 1028 87 10000 3.1 160 22:27 10.08.2019
3897 Clouds 13 1028 82 10000 3.1 160 21:59 10.08.2019
3898 Clouds 13 1028 82 10000 3.1 160 21:58 10.08.2019
3899 Clouds 13 1028 76 10000 3.1 160 21:39 10.08.2019
3900 Clouds 13 1028 76 10000 3.1 160 21:21 10.08.2019
3901 Clouds 13 1028 76 10000 3.1 160 21:21 10.08.2019
3902 Clouds 13 1028 82 10000 3.1 160 20:57 10.08.2019
3903 Clouds 13 1028 76 10000 2.6 150 20:39 10.08.2019
3904 Clouds 13 1028 76 10000 2.6 150 20:18 10.08.2019
3905 Clouds 15 1028 67 10000 3.6 160 19:41 10.08.2019
3906 Clouds 15 1028 67 10000 3.6 160 19:22 10.08.2019
3907 Clouds 15 1028 62 10000 4.1 150 18:42 10.08.2019
3908 Clouds 15 1028 62 10000 4.1 150 18:23 10.08.2019
3909 Clouds 16 1027 59 10000 3.6 140 17:56 10.08.2019
3910 Clouds 16 1027 59 10000 3.6 140 17:56 10.08.2019
3911 Clouds 16 1027 55 10000 4.6 130 17:37 10.08.2019
3912 Clouds 16 1027 55 10000 4.6 130 17:18 10.08.2019
3913 Clouds 18 1027 52 10000 4.6 140 16:42 10.08.2019
3914 Clouds 18 1027 52 10000 4.6 140 16:20 10.08.2019
3915 Clouds 20 1026 45 10000 6.7 120 15:44 10.08.2019
3916 Clouds 20 1026 45 10000 6.7 120 15:21 10.08.2019
3917 Clouds 21 1026 46 10000 6.2 140 14:43 10.08.2019
3918 Clouds 21 1026 46 10000 6.2 140 14:19 10.08.2019
3919 Clouds 21 1026 46 10000 6.2 140 14:19 10.08.2019
3920 Clouds 22 1026 40 10000 7.2 130 13:40 10.08.2019
3921 Clouds 22 1026 40 10000 7.2 130 13:19 10.08.2019
3922 Clouds 21 1027 40 10000 8.7 120 12:44 10.08.2019
3923 Clouds 21 1027 40 10000 8.7 120 12:23 10.08.2019
3924 Clouds 21 1027 40 10000 7.7 140 11:58 10.08.2019
3925 Clouds 20 1028 40 10000 8.2 140 11:39 10.08.2019
3926 Clouds 20 1028 40 10000 8.2 140 11:21 10.08.2019
3927 Clouds 19 1028 45 10000 7.2 140 10:55 10.08.2019
3928 Clouds 19 1028 45 10000 7.7 130 10:36 10.08.2019
3929 Clouds 19 1028 45 10000 7.7 130 10:18 10.08.2019
3930 Clouds 19 1028 45 10000 7.7 130 10:18 10.08.2019
3931 Clouds 18 1029 45 10000 5.7 160 09:40 10.08.2019
3932 Clouds 18 1029 45 10000 5.7 160 09:21 10.08.2019
3933 Clouds 16 1028 44 10000 4.6 150 08:39 10.08.2019
3934 Clouds 16 1028 44 10000 4.6 150 08:20 10.08.2019
3935 Clear 14 1028 50 9000 3.1 140 07:54 10.08.2019
3936 Clear 12 1028 71 9000 1.5 100 07:28 10.08.2019
3937 Clear 9 1027 87 10000 1 0 06:49 10.08.2019
3938 Clear 6 1027 93 10000 0.5 0 06:25 10.08.2019
3939 Clear 6 1026 100 10000 1 110 05:24 10.08.2019
3940 Clear 7 1026 93 10000 1 60 04:26 10.08.2019
3941 Clear 5 1026 100 10000 2.13 144.409 02:54 10.08.2019
3942 Clear 6 1026 93 10000 2.13 144.409 02:24 10.08.2019
3943 Clear 6 1026 93 10000 2.13 144.409 01:41 10.08.2019
3944 Clear 6 1026 93 10000 2.12 144.604 01:21 10.08.2019
3945 Clear 7 1026 87 10000 0.5 0 00:46 10.08.2019
3946 Clear 6 1027 93 10000 1 0 00:22 10.08.2019
3947 Clear 8 1027 87 10000 0.5 0 23:44 09.08.2019
3948 Clear 8 1027 87 10000 0.5 0 23:24 09.08.2019
3949 Clear 8 1027 81 10000 1 240 22:58 09.08.2019
3950 Clear 10 1028 71 10000 0.5 0 22:38 09.08.2019
3951 Clear 10 1028 71 10000 0.5 0 22:20 09.08.2019
3952 Clear 11 1028 71 10000 1 180 21:43 09.08.2019
3953 Clear 11 1028 71 10000 1 180 21:24 09.08.2019
3954 Clear 11 1028 71 10000 1 180 21:24 09.08.2019
3955 Clear 11 1028 71 10000 1 180 21:24 09.08.2019
3956 Clear 10 1027 71 10000 1 180 20:59 09.08.2019
3957 Clear 12 1027 62 10000 1.5 160 20:41 09.08.2019
3958 Clear 12 1027 62 10000 1.5 160 20:22 09.08.2019
3959 Clear 13 1027 62 10000 1 0 19:59 09.08.2019
3960 Clear 14 1027 62 10000 2.1 100 19:41 09.08.2019
3961 Clear 14 1027 62 10000 2.1 100 19:19 09.08.2019
3962 Clear 14 1027 62 10000 2.1 100 19:19 09.08.2019
3963 Clear 16 1026 51 10000 2.6 130 18:41 09.08.2019
3964 Clear 16 1026 51 10000 2.6 130 18:22 09.08.2019
3965 Clear 17 1026 51 10000 4.6 110 17:58 09.08.2019
3966 Clear 18 1026 45 10000 5.1 110 17:39 09.08.2019
3967 Clear 18 1026 45 10000 5.1 110 17:21 09.08.2019
3968 Clear 21 1026 37 10000 5.7 110 16:42 09.08.2019
3969 Clear 21 1026 37 10000 5.7 110 16:23 09.08.2019
3970 Clear 22 1025 35 10000 5.7 140 15:57 09.08.2019
3971 Clear 23 1025 31 10000 5.1 140 15:39 09.08.2019
3972 Clear 23 1025 31 10000 5.1 140 15:20 09.08.2019
3973 Clear 23 1025 31 10000 5.1 140 15:20 09.08.2019
3974 Clear 24 1025 29 10000 6.2 120 14:55 09.08.2019
3975 Clear 24 1025 29 10000 6.2 120 14:55 09.08.2019
3976 Clear 24 1025 29 10000 5.7 120 14:36 09.08.2019
3977 Clear 25 1025 27 10000 5.1 120 14:18 09.08.2019
3978 Clear 25 1025 27 10000 4.1 140 13:42 09.08.2019
3979 Clear 25 1025 27 10000 4.1 140 13:20 09.08.2019
3980 Clear 25 1026 25 10000 5.7 110 12:46 09.08.2019
3981 Clear 24 1026 23 10000 4.6 140 12:24 09.08.2019
3982 Clear 24 1026 27 10000 4.6 130 11:58 09.08.2019
3983 Clear 24 1027 27 10000 5.7 110 11:37 09.08.2019
3984 Clear 24 1027 27 10000 5.7 110 11:18 09.08.2019
3985 Clear 22 1028 35 10000 4.1 130 10:40 09.08.2019
3986 Clear 22 1028 35 10000 4.1 130 10:21 09.08.2019
3987 Clear 19 1028 52 10000 3.1 120 09:46 09.08.2019
3988 Clear 19 1028 52 10000 3.1 120 09:20 09.08.2019
3989 Clear 17 1029 59 10000 2.6 130 08:57 09.08.2019
3990 Clear 15 1028 67 10000 3.6 90 08:39 09.08.2019
3991 Clear 15 1028 67 10000 3.6 90 08:19 09.08.2019
3992 Clouds 11 1028 93 8000 2.6 80 07:43 09.08.2019
3993 Clouds 11 1028 93 8000 2.6 80 07:43 09.08.2019
3994 Clouds 11 1028 93 8000 2.6 80 07:23 09.08.2019
3995 Clouds 9 1028 100 6000 2.1 70 06:56 09.08.2019
3996 Clouds 8 1028 100 7000 2.1 100 06:29 09.08.2019
3997 Clouds 7 1027 93 10000 2.1 120 05:57 09.08.2019
3998 Clouds 7 1027 100 10000 2.1 60 04:21 09.08.2019
3999 Mist 9 1026 100 3500 2.1 60 01:45 09.08.2019
4000 Clouds 9 1026 93 10000 1.87 137.124 00:48 09.08.2019
4001 Clouds 10 1027 93 10000 2.1 120 00:26 09.08.2019
4002 Clouds 10 1027 93 10000 2.6 100 23:59 08.08.2019
4003 Clouds 11 1027 93 10000 1.5 70 23:38 08.08.2019
4004 Clouds 11 1027 93 10000 1.5 70 23:19 08.08.2019
4005 Clouds 11 1027 93 10000 0.5 0 22:57 08.08.2019
4006 Clouds 11 1027 93 10000 1 80 22:37 08.08.2019
4007 Clouds 11 1027 93 10000 1 80 22:18 08.08.2019
4008 Clouds 11 1027 93 10000 2.1 70 21:57 08.08.2019
4009 Clouds 11 1027 87 10000 1.5 90 21:38 08.08.2019
4010 Clouds 11 1027 87 10000 1.5 90 21:20 08.08.2019
4011 Clouds 13 1027 76 10000 2.1 70 20:42 08.08.2019
4012 Clouds 13 1027 76 10000 2.1 70 20:22 08.08.2019
4013 Clouds 13 1027 71 10000 2.6 70 19:59 08.08.2019
4014 Clouds 14 1027 67 10000 2.6 60 19:40 08.08.2019
4015 Clouds 14 1027 67 10000 2.6 60 19:20 08.08.2019
4016 Clouds 15 1026 62 10000 3.1 100 18:41 08.08.2019
4017 Clouds 15 1026 62 10000 3.1 100 18:41 08.08.2019
4018 Clouds 15 1026 62 10000 3.1 100 18:22 08.08.2019
4019 Clouds 16 1026 55 10000 3.6 110 17:55 08.08.2019
4020 Clouds 17 1026 48 10000 4.1 100 17:36 08.08.2019
4021 Clouds 17 1026 48 10000 4.1 100 17:18 08.08.2019
4022 Clear 20 1025 40 10000 5.7 120 16:42 08.08.2019
4023 Clear 20 1025 40 10000 5.7 120 16:24 08.08.2019
4024 Clear 21 1025 35 10000 6.7 110 15:58 08.08.2019
4025 Clear 22 1025 33 10000 6.7 110 15:39 08.08.2019
4026 Clear 22 1025 33 10000 6.7 110 15:39 08.08.2019
4027 Clear 22 1025 33 10000 6.7 110 15:20 08.08.2019
4028 Clear 24 1025 31 10000 6.7 90 14:41 08.08.2019
4029 Clear 24 1025 31 10000 6.7 90 14:22 08.08.2019
4030 Clear 24 1025 29 10000 7.2 100 13:57 08.08.2019
4031 Clear 24 1025 29 10000 8.2 110 13:37 08.08.2019
4032 Clear 24 1025 29 10000 8.2 110 13:18 08.08.2019
4033 Clear 24 1025 23 10000 8.7 100 12:39 08.08.2019
4034 Clear 24 1025 23 10000 8.7 100 12:19 08.08.2019
4035 Clear 24 1025 23 10000 8.7 100 12:19 08.08.2019
4036 Clear 24 1025 23 10000 8.7 100 12:19 08.08.2019
4037 Clear 24 1025 24 10000 8.2 100 11:47 08.08.2019
4038 Clear 23 1026 23 10000 5.7 100 11:26 08.08.2019
4039 Clear 22 1026 24 10000 7.2 120 10:57 08.08.2019
4040 Clear 22 1026 24 10000 7.2 120 10:57 08.08.2019
4041 Clear 22 1026 26 10000 6.2 120 10:39 08.08.2019
4042 Clear 22 1026 26 10000 6.2 120 10:20 08.08.2019
4043 Clear 19 1027 32 10000 3.1 140 09:43 08.08.2019
4044 Clear 19 1027 32 10000 3.1 140 09:23 08.08.2019
4045 Clear 16 1027 38 10000 4.1 160 08:44 08.08.2019
4046 Clear 16 1027 38 10000 4.1 160 08:23 08.08.2019
4047 Clear 14 1027 41 10000 4.1 160 07:58 08.08.2019
4048 Clear 13 1027 47 10000 2.6 160 07:39 08.08.2019
4049 Clear 13 1027 47 10000 2.6 160 07:19 08.08.2019
4050 Clear 8 1026 65 10000 2.6 160 06:45 08.08.2019
4051 Clear 7 1026 70 10000 2.6 150 05:58 08.08.2019
4052 Clear 7 1026 70 10000 2.1 150 05:40 08.08.2019
4053 Clouds 8 1026 70 10000 3.1 160 04:21 08.08.2019
4054 Clouds 9 1026 66 10000 3.1 160 03:47 08.08.2019
4055 Clouds 10 1026 61 10000 3.6 150 01:54 08.08.2019
4056 Clouds 9 1026 76 10000 2.6 140 01:20 08.08.2019
4057 Clouds 10 1027 71 10000 2.6 160 00:25 08.08.2019
4058 Clouds 12 1027 62 10000 3.1 140 23:39 07.08.2019
4059 Clouds 12 1027 62 10000 3.1 140 23:18 07.08.2019
4060 Clouds 10 1028 76 10000 3.1 130 22:41 07.08.2019
4061 Clouds 10 1028 76 10000 3.1 130 22:21 07.08.2019
4062 Clouds 12 1028 62 10000 3.1 130 21:58 07.08.2019
4063 Clouds 11 1028 71 10000 2.6 130 21:40 07.08.2019
4064 Clouds 11 1028 71 10000 2.6 130 21:21 07.08.2019
4065 Clouds 11 1028 71 10000 2.6 130 21:21 07.08.2019
4066 Clouds 13 1028 62 10000 3.1 130 20:59 07.08.2019
4067 Clouds 14 1027 58 10000 4.1 140 20:41 07.08.2019
4068 Clouds 14 1027 58 10000 4.1 140 20:20 07.08.2019
4069 Clouds 14 1027 58 10000 4.1 130 19:55 07.08.2019
4070 Clouds 15 1027 51 10000 3.6 130 19:36 07.08.2019
4071 Clouds 15 1027 51 10000 3.6 130 19:18 07.08.2019
4072 Clouds 16 1026 44 10000 4.6 140 18:40 07.08.2019
4073 Clouds 16 1026 44 10000 4.6 140 18:20 07.08.2019
4074 Clear 17 1026 42 10000 5.1 140 17:55 07.08.2019
4075 Clear 17 1026 42 10000 5.1 140 17:55 07.08.2019
4076 Clear 18 1025 39 10000 5.1 140 17:37 07.08.2019
4077 Clear 18 1025 39 10000 5.1 140 17:19 07.08.2019
4078 Clear 19 1025 37 10000 5.1 130 16:56 07.08.2019
4079 Clear 21 1025 30 10000 6.2 120 16:38 07.08.2019
4080 Clear 21 1025 30 10000 6.2 120 16:19 07.08.2019
4081 Clear 23 1024 23 10000 6.7 120 15:43 07.08.2019
4082 Clear 23 1024 23 10000 6.7 120 15:21 07.08.2019
4083 Clear 24 1024 19 10000 8.2 90 14:50 07.08.2019
4084 Clouds 24 1024 17 10000 8.2 110 14:31 07.08.2019
4085 Clouds 24 1024 19 10000 7.2 100 13:59 07.08.2019
4086 Clouds 24 1024 19 10000 7.2 100 13:59 07.08.2019
4087 Clear 23 1024 23 10000 6.7 130 13:40 07.08.2019
4088 Clear 23 1024 23 10000 6.7 130 13:19 07.08.2019
4089 Clear 23 1024 20 10000 7.2 130 12:57 07.08.2019
4090 Clear 23 1025 21 10000 6.2 140 12:38 07.08.2019
4091 Clear 23 1025 21 10000 6.2 140 12:38 07.08.2019
4092 Clear 23 1025 18 10000 6.2 140 12:19 07.08.2019
4093 Clear 23 1025 18 10000 6.2 120 11:57 07.08.2019
4094 Clear 23 1025 18 10000 6.2 130 11:39 07.08.2019
4095 Clear 23 1025 18 10000 5.7 120 11:18 07.08.2019
4096 Clear 22 1026 21 10000 6.2 120 10:40 07.08.2019
4097 Clear 22 1026 21 10000 6.2 120 10:20 07.08.2019
4098 Clear 21 1026 26 10000 6.2 130 09:55 07.08.2019
4099 Clear 21 1026 26 10000 6.7 120 09:37 07.08.2019
4100 Clear 21 1026 26 10000 6.7 120 09:18 07.08.2019
4101 Clear 18 1026 36 10000 4.1 170 08:45 07.08.2019
4102 Clear 16 1026 48 10000 3.1 150 08:24 07.08.2019
4103 Clear 15 1026 51 10000 2.1 140 07:50 07.08.2019
4104 Clear 12 1026 62 10000 2.1 140 07:29 07.08.2019
4105 Clear 9 1025 81 10000 1.5 90 06:44 07.08.2019
4106 -273 0 0 0 0 0 06:21 07.08.2019
4107 Clear 8 1025 87 10000 1.5 60 05:41 07.08.2019
4108 Clouds 8 1025 93 10000 2.1 100 04:29 07.08.2019
4109 Clouds 8 1025 93 10000 1.5 80 02:54 07.08.2019
4110 Clear 8 1025 100 10000 1.5 70 02:36 07.08.2019
4111 Clear 7 1025 100 10000 1 70 01:49 07.08.2019
4112 Clouds 9 1025 93 10000 1 0 00:53 07.08.2019
4113 Clouds 7 1026 93 10000 1.95 145.83 00:23 07.08.2019
4114 Clouds 9 1026 93 10000 1 80 23:48 06.08.2019
4115 Clouds 8 1026 93 10000 1.95 145.83 23:23 06.08.2019
4116 Clouds 9 1026 93 10000 1.95 145.83 22:59 06.08.2019
4117 Clouds 10 1026 81 10000 1.95 145.83 22:40 06.08.2019
4118 Clouds 10 1026 81 10000 1.95 145.83 22:21 06.08.2019
4119 Clouds 11 1026 81 10000 1.5 90 21:56 06.08.2019
4120 Clouds 12 1026 76 10000 1 80 21:38 06.08.2019
4121 Clouds 12 1026 76 10000 1 80 21:18 06.08.2019
4122 Clouds 13 1026 71 10000 2.6 60 20:42 06.08.2019
4123 Clouds 13 1026 71 10000 2.6 60 20:23 06.08.2019
4124 Clouds 14 1026 67 10000 2.1 120 19:48 06.08.2019
4125 Clouds 15 1026 62 10000 2.1 140 19:29 06.08.2019
4126 Clouds 16 1026 59 10000 3.6 130 18:57 06.08.2019
4127 Clouds 16 1025 59 10000 3.6 130 18:38 06.08.2019
4128 Clouds 16 1025 59 10000 3.6 130 18:19 06.08.2019
4129 Clouds 16 1025 59 10000 3.6 130 18:19 06.08.2019
4130 Clouds 17 1025 55 10000 4.1 130 17:56 06.08.2019
4131 Clouds 17 1025 55 10000 5.7 120 17:37 06.08.2019
4132 Clouds 17 1025 55 10000 5.7 120 17:18 06.08.2019
4133 Clouds 20 1024 42 10000 5.7 140 16:43 06.08.2019
4134 Clouds 20 1024 42 10000 5.7 140 16:24 06.08.2019
4135 Clouds 21 1024 40 10000 5.7 140 15:58 06.08.2019
4136 Clouds 22 1024 40 10000 6.2 130 15:39 06.08.2019
4137 Clouds 22 1024 40 10000 6.2 130 15:20 06.08.2019
4138 Clouds 23 1023 35 10000 6.2 110 14:45 06.08.2019
4139 Clouds 23 1023 35 10000 6.2 110 14:27 06.08.2019
4140 Clouds 24 1023 33 10000 5.7 130 13:59 06.08.2019
4141 Clouds 23 1023 35 10000 6.2 140 13:41 06.08.2019
4142 Clouds 23 1023 35 10000 6.2 140 13:23 06.08.2019
4143 Clouds 24 1024 29 10000 6.7 120 12:59 06.08.2019
4144 Clouds 24 1024 29 10000 6.2 130 12:39 06.08.2019
4145 Clouds 24 1024 29 10000 6.2 130 12:21 06.08.2019
4146 Clouds 23 1024 27 10000 6.2 150 11:43 06.08.2019
4147 Clouds 23 1024 27 10000 6.2 150 11:19 06.08.2019
4148 Clear 23 1025 28 10000 6.7 130 10:56 06.08.2019
4149 Clear 22 1025 28 10000 5.7 140 10:37 06.08.2019
4150 Clear 22 1025 28 10000 5.7 140 10:19 06.08.2019
4151 Clear 20 1025 42 10000 4.1 190 09:40 06.08.2019
4152 Clear 20 1025 42 10000 4.1 190 09:20 06.08.2019
4153 Clear 18 1025 52 10000 1.5 190 08:48 06.08.2019
4154 Clear 17 1025 55 10000 2.1 180 08:26 06.08.2019
4155 Clouds 14 1025 71 10000 1 0 07:47 06.08.2019
4156 Clouds 14 1025 71 10000 1 0 07:23 06.08.2019
4157 Clouds 8 1024 93 10000 3.5 129.265 06:43 06.08.2019
4158 Clouds 6 1024 93 10000 1 0 05:55 06.08.2019
4159 Clear 6 1023 93 10000 1 330 04:35 06.08.2019
4160 Clear 8 1023 87 10000 2.1 156.59 01:59 06.08.2019
4161 Clear 8 1023 81 10000 0.5 280 01:24 06.08.2019
4162 Clear 9 1024 81 10000 2.04 157.248 00:39 06.08.2019
4163 Clear 9 1024 76 10000 1 0 23:51 05.08.2019
4164 Clear 10 1024 71 10000 1 0 23:19 05.08.2019
4165 Clear 12 1024 71 10000 1.5 110 22:42 05.08.2019
4166 Clear 12 1024 71 10000 1.5 110 22:23 05.08.2019
4167 Clear 13 1024 58 10000 2.6 130 21:56 05.08.2019
4168 Clear 13 1024 62 10000 2.1 90 21:37 05.08.2019
4169 Clear 13 1024 62 10000 2.1 90 21:19 05.08.2019
4170 Clear 13 1024 62 10000 2.6 110 20:55 05.08.2019
4171 Clear 14 1024 54 10000 2.1 80 20:37 05.08.2019
4172 Clear 14 1024 54 10000 2.1 80 20:18 05.08.2019
4173 Clear 15 1023 54 10000 1.5 130 19:43 05.08.2019
4174 Clear 15 1023 54 10000 1.5 130 19:23 05.08.2019
4175 Clear 16 1023 44 10000 3.1 110 18:57 05.08.2019
4176 Clear 18 1023 39 10000 2.6 140 18:39 05.08.2019
4177 Clear 18 1023 39 10000 2.6 140 18:18 05.08.2019
4178 Clear 20 1023 30 10000 5.1 150 17:42 05.08.2019
4179 Clear 20 1023 30 10000 5.1 150 17:24 05.08.2019
4180 Clear 21 1023 26 10000 5.1 170 16:46 05.08.2019
4181 Clear 22 1023 24 10000 6.2 180 16:25 05.08.2019
4182 Clear 23 1022 23 10000 5.7 170 15:46 05.08.2019
4183 Clear 24 1022 22 10000 5.7 150 15:28 05.08.2019
4184 Clear 24 1022 22 10000 5.7 160 14:59 05.08.2019
4185 Clear 25 1022 17 10000 5.1 160 14:38 05.08.2019
4186 Clear 25 1022 17 10000 5.1 160 14:19 05.08.2019
4187 Clear 25 1022 23 10000 3.1 0 13:43 05.08.2019
4188 Clear 25 1022 23 10000 3.1 0 13:22 05.08.2019
4189 Clear 25 1023 23 10000 4.1 160 12:46 05.08.2019
4190 Clear 24 1023 23 10000 4.6 170 12:20 05.08.2019
4191 Clear 24 1023 22 10000 4.6 160 11:46 05.08.2019
4192 Clear 23 1024 31 10000 4.1 190 11:27 05.08.2019
4193 Clear 22 1024 37 10000 3.1 170 10:58 05.08.2019
4194 Clear 21 1024 40 10000 2.6 0 10:40 05.08.2019
4195 Clear 21 1024 40 10000 2.6 0 10:21 05.08.2019
4196 Clear 19 1025 48 10000 2.6 120 09:41 05.08.2019
4197 Clear 19 1025 48 10000 2.6 120 09:21 05.08.2019
4198 Clouds 16 1025 67 10000 1.5 130 08:47 05.08.2019
4199 Clouds 14 1025 76 10000 2.1 90 08:25 05.08.2019
4200 Mist 12 1025 93 5000 2.1 70 07:54 05.08.2019
4201 Mist 10 1025 100 3000 2.1 80 07:31 05.08.2019
4202 Fog 9 1025 100 300 1.5 0 06:59 05.08.2019
4203 Fog 9 1025 100 250 2.1 80 06:29 05.08.2019
4204 Fog 9 1024 100 500 2.1 110 05:41 05.08.2019
4205 Fog 10 1024 93 200 2.1 150 04:55 05.08.2019
4206 Fog 10 1023 100 200 3.1 110 03:53 05.08.2019
4207 Fog 10 1024 100 350 2.6 170 03:20 05.08.2019
4208 Clouds 9 1024 100 7000 1.5 80 02:26 05.08.2019
4209 Clouds 10 1024 93 7000 1 0 01:31 05.08.2019
4210 Clouds 9 1024 100 10000 1.39 139.538 00:41 05.08.2019
4211 Clouds 9 1024 100 10000 1.35 140.863 00:21 05.08.2019
4212 Clouds 10 1025 100 10000 0.5 0 23:43 04.08.2019
4213 Clouds 10 1025 100 10000 0.5 0 23:23 04.08.2019
4214 Clouds 11 1025 93 10000 2.1 120 22:57 04.08.2019
4215 Clouds 11 1025 93 10000 0.5 0 22:38 04.08.2019
4216 Clouds 11 1025 93 10000 0.5 0 22:20 04.08.2019
4217 Clouds 11 1025 93 10000 0.5 0 21:56 04.08.2019
4218 Clouds 11 1025 93 10000 2.6 70 21:37 04.08.2019
4219 Clouds 11 1025 93 10000 2.6 70 21:19 04.08.2019
4220 Clouds 12 1025 81 10000 1.5 40 20:41 04.08.2019
4221 Clouds 12 1025 81 10000 1.5 40 20:19 04.08.2019
4222 Clouds 13 1025 76 10000 2.6 40 19:49 04.08.2019
4223 Clouds 13 1024 76 10000 2.1 60 19:28 04.08.2019
4224 Clouds 13 1024 76 10000 2.1 80 18:58 04.08.2019
4225 Clouds 15 1024 67 10000 3.6 110 18:40 04.08.2019
4226 Clouds 15 1024 67 10000 3.6 110 18:20 04.08.2019
4227 Clouds 16 1024 59 10000 3.1 100 17:43 04.08.2019
4228 Clouds 16 1024 59 10000 3.1 100 17:24 04.08.2019
4229 Clouds 18 1024 52 10000 4.6 110 16:46 04.08.2019
4230 Clouds 19 1024 45 10000 3.6 130 16:27 04.08.2019
4231 Clouds 20 1024 45 10000 5.1 110 15:56 04.08.2019
4232 Clouds 21 1023 40 10000 4.1 130 15:37 04.08.2019
4233 Clouds 21 1023 40 10000 4.1 130 15:37 04.08.2019
4234 Clouds 21 1023 40 10000 4.1 130 15:18 04.08.2019
4235 Clouds 21 1023 43 10000 4.1 150 14:42 04.08.2019
4236 Clouds 21 1023 43 10000 4.1 150 14:21 04.08.2019
4237 Clouds 21 1023 43 10000 4.1 150 13:43 04.08.2019
4238 Clouds 21 1023 43 10000 4.1 150 13:24 04.08.2019
4239 Clouds 22 1024 40 10000 5.1 110 12:55 04.08.2019
4240 Clouds 22 1024 40 10000 5.7 110 12:37 04.08.2019
4241 Clouds 22 1024 40 10000 5.7 110 12:18 04.08.2019
4242 Clouds 21 1025 43 10000 5.7 130 11:41 04.08.2019
4243 Clouds 21 1025 43 10000 5.7 130 11:22 04.08.2019
4244 Clouds 20 1025 45 10000 5.7 130 10:43 04.08.2019
4245 Clouds 20 1025 45 10000 5.7 130 10:43 04.08.2019
4246 Clouds 20 1025 45 10000 5.7 130 10:21 04.08.2019
4247 Clouds 18 1026 52 10000 5.7 120 09:46 04.08.2019
4248 Clouds 18 1026 52 10000 5.7 120 09:25 04.08.2019
4249 Clouds 17 1026 59 10000 3.6 130 08:57 04.08.2019
4250 Clouds 15 1026 72 10000 3.1 160 08:32 04.08.2019
4251 Clouds 13 1026 82 10000 2.1 170 07:54 04.08.2019
4252 Clouds 11 1026 93 8000 2.6 160 07:22 04.08.2019
4253 Fog 9 1026 100 900 2.1 160 06:28 04.08.2019
4254 Mist 9 1026 100 2500 2.6 120 05:43 04.08.2019
4255 Clouds 9 1025 100 10000 0.5 0 02:47 04.08.2019
4256 Clouds 10 1026 93 10000 2.1 150 01:51 04.08.2019
4257 Clouds 10 1026 93 10000 1.5 0 01:27 04.08.2019
4258 Clouds 10 1027 93 10000 1.5 60 00:41 04.08.2019
4259 Clouds 10 1027 93 10000 1.5 60 00:21 04.08.2019
4260 Clouds 11 1027 93 10000 3.6 100 23:41 03.08.2019
4261 Clouds 11 1027 93 10000 4.1 110 23:19 03.08.2019
4262 Clouds 11 1027 93 10000 4.1 110 22:55 03.08.2019
4263 Clouds 12 1027 87 10000 3.6 120 22:37 03.08.2019
4264 Clouds 12 1027 87 10000 3.6 120 22:18 03.08.2019
4265 Clouds 12 1027 87 10000 3.6 120 22:18 03.08.2019
4266 Clouds 12 1027 93 10000 2.1 150 21:37 03.08.2019
4267 Clouds 12 1027 87 10000 2.6 110 21:19 03.08.2019
4268 Clouds 13 1027 87 10000 5.1 110 20:42 03.08.2019
4269 Clouds 13 1027 87 10000 5.1 110 20:22 03.08.2019
4270 Clouds 13 1026 87 10000 3.6 100 19:43 03.08.2019
4271 Clouds 13 1026 87 10000 3.6 100 19:24 03.08.2019
4272 Clouds 14 1026 76 10000 3.1 90 18:56 03.08.2019
4273 Clouds 15 1026 72 10000 4.6 90 18:27 03.08.2019
4274 Clouds 15 1026 72 10000 5.1 110 17:50 03.08.2019
4275 Clouds 16 1025 63 10000 6.2 110 17:22 03.08.2019
4276 Clouds 17 1025 59 10000 6.2 110 16:57 03.08.2019
4277 Clouds 19 1025 45 10000 5.7 140 16:37 03.08.2019
4278 Clouds 19 1025 45 10000 5.7 140 16:19 03.08.2019
4279 Clouds 20 1024 42 10000 6.2 140 15:43 03.08.2019
4280 Clouds 20 1024 42 10000 6.2 140 15:23 03.08.2019
4281 Clouds 20 1024 45 10000 6.7 150 14:41 03.08.2019
4282 Clouds 20 1024 45 10000 6.7 150 14:21 03.08.2019
4283 Clouds 21 1024 43 10000 7.2 120 13:52 03.08.2019
4284 Clouds 22 1024 43 10000 7.7 120 13:25 03.08.2019
4285 Clouds 22 1024 43 10000 7.2 120 12:58 03.08.2019
4286 Clouds 22 1025 43 10000 8.2 120 12:39 03.08.2019
4287 Clouds 22 1025 43 10000 8.2 120 12:21 03.08.2019
4288 Clouds 22 1025 40 10000 8.2 120 11:48 03.08.2019
4289 Clouds 22 1025 40 10000 6.2 130 11:26 03.08.2019
4290 Clouds 21 1026 40 10000 6.7 130 10:42 03.08.2019
4291 Clouds 21 1026 40 10000 6.7 130 10:22 03.08.2019
4292 Clouds 18 1026 55 10000 5.7 150 09:42 03.08.2019
4293 Clouds 18 1026 55 10000 5.7 150 09:21 03.08.2019
4294 Clouds 17 1026 59 10000 4.6 180 08:51 03.08.2019
4295 Clouds 16 1026 63 10000 4.1 190 07:52 03.08.2019
4296 Clouds 14 1026 76 10000 4.6 170 07:31 03.08.2019
4297 Clouds 12 1026 87 10000 3.1 170 06:24 03.08.2019
4298 Clouds 12 1025 87 10000 2.6 160 03:58 03.08.2019
4299 Clouds 12 1025 87 10000 2.6 130 02:36 03.08.2019
4300 Clouds 12 1025 87 10000 3.6 130 01:36 03.08.2019
4301 Clouds 12 1026 87 10000 3.1 150 00:49 03.08.2019
4302 Clouds 11 1026 93 10000 2.6 120 23:58 02.08.2019
4303 Clouds 12 1026 93 10000 3.6 110 23:40 02.08.2019
4304 Clouds 12 1026 93 10000 3.6 110 23:18 02.08.2019
4305 Clouds 13 1026 87 10000 3.1 140 22:56 02.08.2019
4306 Clouds 12 1026 93 10000 3.1 110 22:38 02.08.2019
4307 Clouds 12 1026 93 10000 3.1 110 22:18 02.08.2019
4308 Clouds 13 1026 87 10000 3.1 110 21:42 02.08.2019
4309 Clouds 13 1026 87 10000 3.1 110 21:22 02.08.2019
4310 Clouds 14 1026 76 10000 2.6 150 20:46 02.08.2019
4311 Clouds 15 1026 72 10000 2.1 140 20:28 02.08.2019
4312 Clouds 15 1026 72 10000 2.6 130 19:56 02.08.2019
4313 Clouds 16 1026 67 10000 3.1 140 19:35 02.08.2019
4314 Clouds 16 1025 63 10000 2.6 140 18:57 02.08.2019
4315 Clouds 17 1025 59 10000 3.6 140 18:39 02.08.2019
4316 Clouds 17 1025 59 10000 3.6 140 18:20 02.08.2019
4317 Clouds 17 1025 59 10000 3.6 140 18:20 02.08.2019
4318 Clouds 18 1025 55 10000 4.1 140 17:42 02.08.2019
4319 Clouds 18 1025 55 10000 4.1 140 17:22 02.08.2019
4320 Clouds 20 1024 52 10000 4.6 150 16:40 02.08.2019
4321 Clouds 20 1024 52 10000 4.6 150 16:40 02.08.2019
4322 Clouds 20 1024 52 10000 4.6 150 16:21 02.08.2019
4323 Clouds 21 1024 46 10000 6.2 140 15:58 02.08.2019
4324 Clouds 21 1024 46 10000 5.7 150 15:38 02.08.2019
4325 Clouds 21 1024 46 10000 5.7 150 15:18 02.08.2019
4326 Clouds 22 1024 43 10000 7.7 150 14:45 02.08.2019
4327 Clouds 22 1024 43 10000 7.7 150 14:18 02.08.2019
4328 Clouds 24 1024 38 10000 6.2 140 13:47 02.08.2019
4329 Clouds 24 1024 38 10000 6.2 140 13:23 02.08.2019
4330 Clouds 24 1024 36 10000 8.2 120 12:44 02.08.2019
4331 Clouds 24 1024 36 10000 8.2 120 12:21 02.08.2019
4332 Clouds 24 1025 38 10000 7.7 120 11:46 02.08.2019
4333 Clouds 23 1025 35 10000 7.2 140 11:26 02.08.2019
4334 Clouds 23 1025 35 10000 6.7 140 10:55 02.08.2019
4335 Clouds 22 1025 40 10000 5.7 160 10:37 02.08.2019
4336 Clouds 22 1025 40 10000 5.7 160 10:18 02.08.2019
4337 Clouds 20 1026 56 10000 4.6 140 09:44 02.08.2019
4338 Clouds 20 1026 56 10000 4.6 140 09:24 02.08.2019
4339 Clouds 17 1026 77 10000 3.6 150 08:44 02.08.2019
4340 Clouds 17 1026 77 10000 3.6 150 08:21 02.08.2019
4341 Clouds 15 1026 82 10000 4.1 160 07:48 02.08.2019
4342 Clouds 15 1026 87 10000 2.6 160 07:28 02.08.2019
4343 Clouds 13 1026 93 10000 2.1 140 06:42 02.08.2019
4344 Clouds 12 1026 100 10000 2.1 170 05:50 02.08.2019
4345 Clouds 13 1025 93 10000 2.1 130 03:55 02.08.2019
4346 Clouds 12 1025 93 10000 2.6 100 03:25 02.08.2019
4347 Clouds 14 1025 93 10000 1.5 160 01:44 02.08.2019
4348 Clouds 14 1026 93 10000 2.6 160 00:35 02.08.2019
4349 Clouds 14 1026 93 10000 2.1 160 23:46 01.08.2019
4350 Clouds 14 1026 93 10000 2.1 160 23:27 01.08.2019
4351 Clouds 14 1026 93 10000 2.1 120 22:46 01.08.2019
4352 Clouds 14 1026 93 10000 2.1 120 22:26 01.08.2019
4353 Clouds 14 1026 93 10000 1.5 0 22:00 01.08.2019
4354 Clouds 15 1026 87 10000 1.5 70 21:41 01.08.2019
4355 Clouds 15 1026 87 10000 1.5 70 21:23 01.08.2019
4356 Clouds 15 1026 93 10000 2.1 100 20:47 01.08.2019
4357 Clouds 15 1026 93 10000 1.5 80 20:23 01.08.2019
4358 Clouds 15 1026 87 10000 1.5 50 19:59 01.08.2019
4359 Clouds 16 1026 87 10000 3.6 110 19:38 01.08.2019
4360 Clouds 16 1026 87 10000 3.6 110 19:18 01.08.2019
4361 Clouds 17 1025 82 10000 4.1 100 18:43 01.08.2019
4362 Clouds 17 1025 82 10000 4.1 100 18:24 01.08.2019
4363 Clouds 18 1025 77 10000 4.6 100 17:50 01.08.2019
4364 Clouds 19 1025 68 10000 3.6 90 17:31 01.08.2019
4365 Clouds 20 1024 64 10000 5.7 90 16:45 01.08.2019
4366 Clouds 21 1024 64 10000 6.2 110 16:23 01.08.2019
4367 Clouds 23 1024 53 10000 6.7 100 15:56 01.08.2019
4368 Clouds 23 1023 53 10000 5.7 120 15:38 01.08.2019
4369 Clouds 23 1023 53 10000 5.7 120 15:18 01.08.2019
4370 Clouds 24 1023 53 10000 6.2 110 14:42 01.08.2019
4371 Clouds 24 1023 53 10000 6.2 110 14:19 01.08.2019
4372 Clouds 25 1023 50 10000 5.7 120 13:57 01.08.2019
4373 Clouds 25 1023 50 10000 5.1 120 13:39 01.08.2019
4374 Clouds 25 1023 50 10000 5.1 120 13:20 01.08.2019
4375 Clouds 25 1024 50 10000 4.6 100 12:43 01.08.2019
4376 Clouds 25 1024 50 10000 4.6 100 12:25 01.08.2019
4377 Clouds 24 1025 53 10000 5.1 150 11:43 01.08.2019
4378 Clouds 24 1025 53 10000 5.1 150 11:24 01.08.2019
4379 Clouds 24 1025 53 10000 5.1 100 10:54 01.08.2019
4380 Clouds 24 1026 57 10000 5.1 120 10:36 01.08.2019
4381 Clouds 23 1026 56 10000 4.1 110 10:18 01.08.2019
4382 Clouds 20 1027 64 10000 3.1 140 09:41 01.08.2019
4383 Clouds 20 1027 64 10000 3.1 140 09:23 01.08.2019
4384 Clouds 20 1027 64 10000 3.1 140 09:23 01.08.2019
4385 Clouds 18 1027 63 10000 3.6 160 08:45 01.08.2019
4386 Clouds 18 1027 63 10000 3.6 160 08:20 01.08.2019
4387 Clouds 17 1027 77 10000 2.1 160 07:50 01.08.2019
4388 Clouds 16 1027 82 10000 1.5 0 07:25 01.08.2019
4389 Clouds 14 1026 87 10000 1.5 0 06:49 01.08.2019
4390 Clouds 11 1026 100 10000 2.6 100 05:51 01.08.2019
4391 Clouds 12 1025 93 10000 1.5 70 04:24 01.08.2019
4392 Clouds 12 1025 100 10000 2.1 110 02:35 01.08.2019
4393 Clouds 14 1025 93 10000 1.5 0 00:46 01.08.2019
4394 Clouds 14 1025 93 10000 1.5 0 00:24 01.08.2019
4395 Clouds 14 1025 93 10000 1.5 0 00:24 01.08.2019
4396 Clouds 15 1026 87 10000 2.1 110 23:43 31.07.2019
4397 Clouds 15 1026 87 10000 2.1 110 23:21 31.07.2019
4398 Clouds 16 1026 87 10000 1.5 120 22:56 31.07.2019
4399 Clouds 16 1026 87 10000 1.5 90 22:38 31.07.2019
4400 Clouds 16 1026 87 10000 1.5 90 22:19 31.07.2019
4401 Clouds 16 1026 87 10000 2.1 90 21:38 31.07.2019
4402 Clouds 16 1026 87 10000 2.1 90 21:18 31.07.2019
4403 Clouds 16 1026 87 10000 2.6 120 20:43 31.07.2019
4404 Clouds 16 1026 87 10000 2.6 120 20:22 31.07.2019
4405 Clouds 16 1026 87 10000 2.6 100 19:42 31.07.2019
4406 Clouds 16 1026 87 10000 2.6 100 19:23 31.07.2019
4407 Clouds 16 1025 87 10000 2.6 90 18:53 31.07.2019
4408 Clouds 16 1025 87 10000 3.1 80 18:28 31.07.2019
4409 Clouds 16 1024 82 10000 4.6 100 17:59 31.07.2019
4410 Clouds 17 1024 82 10000 3.1 100 17:40 31.07.2019
4411 Clouds 17 1024 82 10000 3.1 100 17:19 31.07.2019
4412 Clouds 18 1024 77 10000 6.2 110 16:43 31.07.2019
4413 Clouds 18 1024 77 10000 6.2 110 16:20 31.07.2019
4414 Clouds 19 1024 68 10000 4.6 120 15:44 31.07.2019
4415 Clouds 19 1024 68 10000 4.6 120 15:24 31.07.2019
4416 Clouds 21 1023 60 10000 5.1 110 14:43 31.07.2019
4417 Clouds 21 1023 60 10000 5.1 110 14:22 31.07.2019
4418 Clouds 21 1023 60 10000 4.6 110 13:58 31.07.2019
4419 Clouds 21 1023 60 10000 5.7 100 13:38 31.07.2019
4420 Clouds 21 1023 60 10000 5.7 100 13:20 31.07.2019
4421 Clouds 20 1024 64 10000 5.7 130 12:45 31.07.2019
4422 Clouds 20 1024 64 10000 5.7 130 12:45 31.07.2019
4423 Clouds 20 1024 64 10000 5.7 130 12:26 31.07.2019
4424 Clouds 19 1024 72 10000 5.7 120 11:55 31.07.2019
4425 Clouds 20 1024 64 10000 6.7 120 11:36 31.07.2019
4426 Clouds 20 1024 64 10000 6.7 120 11:18 31.07.2019
4427 Clouds 19 1025 72 10000 5.7 120 10:41 31.07.2019
4428 Clouds 19 1025 72 10000 5.7 120 10:20 31.07.2019
4429 Clouds 18 1025 77 10000 6.2 110 09:43 31.07.2019
4430 Clouds 18 1025 77 10000 6.2 110 09:24 31.07.2019
4431 Clouds 17 1025 82 10000 5.1 130 08:44 31.07.2019
4432 Clouds 17 1025 82 10000 5.1 130 08:26 31.07.2019
4433 Clouds 17 1025 82 10000 3.6 150 07:56 31.07.2019
4434 Clouds 17 1025 82 10000 3.6 150 07:56 31.07.2019
4435 Clouds 17 1024 82 10000 4.1 140 07:33 31.07.2019
4436 Rain 16 1023 93 10000 3.6 110 05:54 31.07.2019
4437 Clouds 16 1022 93 10000 3.6 110 04:41 31.07.2019
4438 Clouds 16 1023 93 10000 2.6 140 00:57 31.07.2019
4439 Clouds 16 1024 93 10000 2.6 100 23:51 30.07.2019
4440 Clouds 16 1024 93 10000 2.6 110 23:30 30.07.2019
4441 Clouds 16 1024 93 10000 3.6 110 22:59 30.07.2019
4442 Clouds 16 1024 93 10000 4.1 90 22:41 30.07.2019
4443 Clouds 16 1024 93 10000 4.1 90 22:21 30.07.2019
4444 Clouds 17 1024 82 10000 2.6 90 21:38 30.07.2019
4445 Clouds 17 1024 82 10000 2.6 90 21:19 30.07.2019
4446 Clouds 17 1024 82 10000 3.1 90 20:57 30.07.2019
4447 Clouds 17 1024 82 10000 4.1 100 20:38 30.07.2019
4448 Clouds 17 1024 82 10000 4.1 100 20:19 30.07.2019
4449 Clouds 17 1024 82 10000 5.1 110 19:47 30.07.2019
4450 Clouds 16 1024 87 10000 5.1 110 19:29 30.07.2019
4451 Clouds 18 1023 82 10000 3.6 120 18:48 30.07.2019
4452 Clouds 18 1023 82 10000 3.6 140 18:26 30.07.2019
4453 Clouds 18 1023 82 10000 4.6 130 17:58 30.07.2019
4454 Clouds 18 1023 82 10000 4.6 130 17:40 30.07.2019
4455 Clouds 18 1023 82 10000 4.6 130 17:18 30.07.2019
4456 Clouds 18 1022 82 10000 5.1 120 16:46 30.07.2019
4457 Clouds 18 1022 82 10000 5.1 120 16:46 30.07.2019
4458 Clouds 19 1022 82 10000 3.6 150 16:19 30.07.2019
4459 Clouds 21 1022 68 10000 5.1 130 15:41 30.07.2019
4460 Clouds 21 1022 68 10000 5.1 130 15:22 30.07.2019
4461 Clouds 20 1022 77 10000 5.7 140 14:46 30.07.2019
4462 Clouds 21 1022 73 10000 5.1 140 14:26 30.07.2019
4463 Clouds 21 1022 68 10000 7.2 100 13:59 30.07.2019
4464 Clouds 22 1022 64 10000 5.7 130 13:38 30.07.2019
4465 Clouds 22 1022 64 10000 5.7 130 13:20 30.07.2019
4466 Clouds 21 1023 73 10000 2.1 80 12:46 30.07.2019
4467 Clouds 21 1023 73 10000 5.7 150 12:28 30.07.2019
4468 Clouds 21 1023 68 10000 5.7 150 11:48 30.07.2019
4469 Clouds 20 1024 72 10000 4.1 160 11:30 30.07.2019
4470 Clouds 20 1024 72 10000 6.2 120 10:59 30.07.2019
4471 Clouds 20 1024 72 10000 5.7 120 10:39 30.07.2019
4472 Clouds 20 1024 72 10000 5.7 120 10:20 30.07.2019
4473 Rain 19 1024 77 10000 5.1 140 09:48 30.07.2019
4474 Rain 19 1024 77 10000 6.2 140 09:28 30.07.2019
4475 Clouds 19 1024 72 10000 5.1 150 08:42 30.07.2019
4476 Clouds 19 1024 72 10000 5.1 150 08:19 30.07.2019
4477 Clouds 17 1024 82 10000 4.1 150 07:44 30.07.2019
4478 Clouds 17 1024 82 10000 4.1 150 07:23 30.07.2019
4479 Clouds 16 1023 87 10000 3.1 150 06:45 30.07.2019
4480 Clouds 16 1023 82 10000 3.1 170 05:36 30.07.2019
4481 Clouds 15 1022 87 10000 1.5 180 04:59 30.07.2019
4482 Clouds 16 1022 82 10000 3.6 150 01:30 30.07.2019
4483 Clouds 16 1023 87 10000 3.1 160 00:28 30.07.2019
4484 Clouds 16 1023 87 10000 3.6 150 23:59 29.07.2019
4485 Clouds 16 1023 87 10000 3.6 160 23:41 29.07.2019
4486 Clouds 16 1023 87 10000 3.6 160 23:22 29.07.2019
4487 Clouds 16 1023 87 10000 4.6 160 22:56 29.07.2019
4488 Clouds 17 1024 82 10000 3.1 140 22:38 29.07.2019
4489 Clouds 17 1024 82 10000 3.1 140 22:18 29.07.2019
4490 Clouds 17 1024 82 10000 3.1 160 21:42 29.07.2019
4491 Clouds 17 1024 82 10000 3.1 160 21:23 29.07.2019
4492 Clouds 17 1024 82 10000 2.6 140 20:57 29.07.2019
4493 Clouds 17 1024 82 10000 2.6 140 20:57 29.07.2019
4494 Clouds 17 1024 82 10000 3.6 170 20:38 29.07.2019
4495 Clouds 17 1024 82 10000 3.6 170 20:19 29.07.2019
4496 Clouds 17 1023 82 10000 3.6 130 19:45 29.07.2019
4497 Clouds 17 1023 82 10000 3.6 130 19:23 29.07.2019
4498 Clouds 17 1023 82 10000 3.6 160 18:57 29.07.2019
4499 Clouds 18 1023 77 10000 4.1 150 18:38 29.07.2019
4500 Clouds 18 1023 77 10000 4.1 150 18:19 29.07.2019
4501 Clouds 18 1023 77 10000 3.6 130 17:47 29.07.2019
4502 Clouds 18 1022 77 10000 4.6 120 17:27 29.07.2019
4503 Clouds 18 1022 77 10000 4.6 110 16:47 29.07.2019
4504 Clouds 19 1022 72 10000 5.7 120 16:29 29.07.2019
4505 Clouds 20 1021 64 10000 5.7 120 15:54 29.07.2019
4506 Clouds 21 1021 64 10000 5.7 120 15:36 29.07.2019
4507 Clouds 22 1021 60 10000 5.7 110 14:59 29.07.2019
4508 Clouds 22 1021 60 10000 4.6 120 14:40 29.07.2019
4509 Clouds 22 1021 60 10000 4.6 120 14:21 29.07.2019
4510 Clouds 22 1021 60 10000 4.6 130 13:46 29.07.2019
4511 Clouds 22 1021 60 10000 4.6 130 13:24 29.07.2019
4512 Clouds 22 1022 60 10000 5.1 130 12:45 29.07.2019
4513 Clouds 22 1022 60 10000 5.1 130 12:26 29.07.2019
4514 Clouds 23 1022 56 10000 4.6 120 11:59 29.07.2019
4515 Clouds 22 1023 60 10000 4.1 130 11:39 29.07.2019
4516 Clouds 22 1023 60 10000 4.1 130 11:18 29.07.2019
4517 Clouds 19 1024 72 10000 4.1 150 10:42 29.07.2019
4518 Clouds 19 1024 72 10000 4.1 150 10:21 29.07.2019
4519 Clouds 18 1024 72 10000 3.1 170 09:43 29.07.2019
4520 Clouds 18 1024 72 10000 3.1 170 09:21 29.07.2019
4521 Clouds 18 1024 72 10000 3.1 170 09:21 29.07.2019
4522 Clouds 17 1024 77 10000 5.1 140 08:43 29.07.2019
4523 Clouds 17 1024 77 10000 5.1 140 08:24 29.07.2019
4524 Clouds 15 1023 87 10000 4.1 150 07:46 29.07.2019
4525 Clouds 15 1023 87 10000 4.1 150 07:26 29.07.2019
4526 Clouds 14 1023 93 10000 2.6 180 06:37 29.07.2019
4527 Clouds 14 1022 87 10000 2.1 150 05:32 29.07.2019
4528 Clouds 14 1022 87 10000 3.1 170 02:49 29.07.2019
4529 Clouds 14 1022 87 10000 2.6 160 01:48 29.07.2019
4530 Clouds 14 1022 87 10000 2.6 160 01:27 29.07.2019
4531 Clouds 14 1022 87 10000 2.1 150 00:56 29.07.2019
4532 Clouds 14 1022 87 10000 3.1 110 00:23 29.07.2019
4533 Clouds 14 1023 87 10000 1.5 160 23:41 28.07.2019
4534 Clouds 14 1023 87 10000 1.5 160 23:22 28.07.2019
4535 Clouds 14 1023 87 10000 1.5 160 23:22 28.07.2019
4536 Clouds 14 1023 93 10000 2.1 90 22:43 28.07.2019
4537 Clouds 14 1023 93 10000 2.1 90 22:24 28.07.2019
4538 Clouds 13 1023 93 10000 2.6 90 21:50 28.07.2019
4539 Clouds 14 1023 87 10000 2.1 130 21:20 28.07.2019
4540 Clouds 14 1023 87 10000 2.6 90 20:49 28.07.2019
4541 Clouds 13 1023 93 10000 2.1 100 20:30 28.07.2019
4542 Clouds 14 1023 87 10000 3.1 100 19:57 28.07.2019
4543 Clouds 14 1023 87 10000 4.1 100 19:38 28.07.2019
4544 Clouds 14 1023 87 10000 4.1 100 19:20 28.07.2019
4545 Clouds 14 1023 87 10000 3.6 80 18:45 28.07.2019
4546 Clouds 14 1023 87 10000 3.6 80 18:25 28.07.2019
4547 Clouds 15 1022 82 10000 3.1 80 17:55 28.07.2019
4548 Clouds 15 1022 82 10000 3.1 80 17:55 28.07.2019
4549 Clouds 16 1022 77 10000 4.1 100 17:37 28.07.2019
4550 Clouds 16 1022 77 10000 4.1 100 17:19 28.07.2019
4551 Clouds 18 1022 68 10000 5.1 100 16:41 28.07.2019
4552 Clouds 18 1022 68 10000 5.1 100 16:22 28.07.2019
4553 Clouds 18 1022 68 10000 4.6 120 15:44 28.07.2019
4554 Clouds 18 1022 68 10000 4.6 120 15:24 28.07.2019
4555 Clouds 19 1021 59 10000 5.1 120 14:39 28.07.2019
4556 Clouds 19 1021 59 10000 5.1 120 14:20 28.07.2019
4557 Clouds 19 1021 63 10000 4.6 110 13:56 28.07.2019
4558 -273 0 0 0 0 0 13:56 28.07.2019
4559 Clouds 19 1021 59 10000 5.7 140 13:37 28.07.2019
4560 Clouds 19 1021 59 10000 5.7 140 13:19 28.07.2019
4561 Clouds 21 1021 52 10000 5.7 120 12:41 28.07.2019
4562 Clouds 21 1021 52 10000 5.7 120 12:23 28.07.2019
4563 Clouds 21 1021 52 10000 5.7 120 12:23 28.07.2019
4564 Clouds 20 1022 56 10000 3.6 120 11:48 28.07.2019
4565 Clouds 22 1022 53 10000 3.1 140 11:27 28.07.2019
4566 Clouds 18 1023 63 10000 3.6 150 10:42 28.07.2019
4567 Clouds 18 1023 63 10000 3.6 150 10:23 28.07.2019
4568 Clouds 18 1023 63 10000 3.6 150 10:23 28.07.2019
4569 Clouds 18 1023 63 10000 3.6 150 10:23 28.07.2019
4570 Clouds 17 1023 67 10000 4.6 140 09:57 28.07.2019
4571 Clouds 15 1023 77 10000 2.6 180 09:38 28.07.2019
4572 Clouds 15 1023 77 10000 2.6 180 09:19 28.07.2019
4573 Clouds 13 1024 82 10000 3.1 170 08:41 28.07.2019
4574 Clouds 13 1024 82 10000 3.1 170 08:21 28.07.2019
4575 Clouds 11 1023 93 10000 2.1 180 07:39 28.07.2019
4576 Clouds 10 1023 87 10000 2.6 140 06:56 28.07.2019
4577 Clouds 9 1023 100 10000 2.1 110 06:28 28.07.2019
4578 Clouds 9 1022 93 10000 1.5 140 05:18 28.07.2019
4579 Clouds 9 1022 93 10000 0.5 0 02:24 28.07.2019
4580 Clouds 9 1023 93 10000 2.1 130 01:25 28.07.2019
4581 Clouds 9 1023 93 10000 1.5 110 00:49 28.07.2019
4582 Clouds 10 1023 87 10000 2.6 130 00:25 28.07.2019
4583 Clouds 10 1024 87 10000 2.6 140 23:48 27.07.2019
4584 Clouds 10 1024 87 10000 2.6 130 23:26 27.07.2019
4585 Clouds 11 1024 87 10000 2.6 140 22:43 27.07.2019
4586 Clouds 11 1024 87 10000 2.6 140 22:23 27.07.2019
4587 Clouds 12 1024 81 10000 4.1 120 21:44 27.07.2019
4588 Clouds 12 1024 81 10000 4.1 120 21:23 27.07.2019
4589 Clouds 12 1024 81 10000 3.1 130 20:54 27.07.2019
4590 Clouds 14 1024 67 10000 4.6 130 20:30 27.07.2019
4591 Clouds 14 1024 71 10000 4.1 130 19:58 27.07.2019
4592 Clouds 14 1024 67 10000 5.1 130 19:38 27.07.2019
4593 Clouds 14 1024 67 10000 5.1 130 19:19 27.07.2019
4594 Clouds 14 1023 67 10000 4.6 150 18:46 27.07.2019
4595 Clouds 14 1023 67 10000 4.6 150 18:28 27.07.2019
4596 Clouds 14 1023 67 10000 3.1 140 17:49 27.07.2019
4597 Clouds 14 1023 67 10000 4.1 140 17:31 27.07.2019
4598 Clouds 15 1022 62 10000 5.7 140 16:53 27.07.2019
4599 Clouds 16 1022 59 10000 5.7 130 16:34 27.07.2019
4600 Clouds 17 1022 55 10000 6.7 140 15:56 27.07.2019
4601 Clouds 18 1022 52 10000 6.2 110 15:25 27.07.2019
4602 Clouds 18 1022 52 10000 7.2 150 14:51 27.07.2019
4603 Clouds 19 1021 48 10000 5.7 150 14:33 27.07.2019
4604 Clouds 19 1021 48 10000 6.2 130 13:58 27.07.2019
4605 Clouds 19 1021 48 10000 7.2 130 13:40 27.07.2019
4606 Clouds 19 1021 48 10000 7.2 130 13:20 27.07.2019
4607 Clouds 20 1022 49 10000 7.7 100 12:45 27.07.2019
4608 Clouds 20 1022 49 10000 7.7 110 12:25 27.07.2019
4609 Clouds 20 1022 49 10000 7.2 110 11:46 27.07.2019
4610 Clouds 18 1023 55 10000 5.7 150 11:25 27.07.2019
4611 Clouds 19 1023 52 10000 5.7 150 10:56 27.07.2019
4612 Clouds 18 1023 55 10000 6.2 140 10:38 27.07.2019
4613 Clouds 18 1023 55 10000 6.2 140 10:18 27.07.2019
4614 Clouds 17 1024 59 10000 6.7 150 09:39 27.07.2019
4615 Clouds 17 1024 59 10000 6.7 150 09:21 27.07.2019
4616 Clouds 16 1024 59 10000 7.2 160 08:45 27.07.2019
4617 Clouds 15 1024 67 10000 6.2 150 08:25 27.07.2019
4618 Clouds 13 1024 76 10000 5.1 160 07:45 27.07.2019
4619 Clouds 13 1024 76 10000 5.1 160 07:22 27.07.2019
4620 Clouds 13 1023 71 10000 4.1 160 06:52 27.07.2019
4621 Clouds 13 1023 71 10000 5.7 140 06:25 27.07.2019
4622 Clouds 12 1023 76 10000 5.7 160 05:37 27.07.2019
4623 Clouds 12 1023 76 10000 6.2 160 04:51 27.07.2019
4624 Clouds 12 1023 76 10000 5.7 160 03:55 27.07.2019
4625 Clouds 13 1022 71 10000 5.7 160 02:43 27.07.2019
4626 Clouds 13 1022 71 10000 6.2 160 01:59 27.07.2019
4627 Clouds 13 1023 66 10000 4.6 170 01:38 27.07.2019
4628 Clouds 12 1023 71 10000 4.6 170 00:49 27.07.2019
4629 Clouds 12 1023 76 10000 4.6 150 00:31 27.07.2019
4630 Clouds 12 1023 71 10000 4.6 140 23:44 26.07.2019
4631 Clouds 12 1023 71 10000 4.6 140 23:26 26.07.2019
4632 Clouds 13 1024 66 10000 5.1 140 22:44 26.07.2019
4633 Clouds 13 1024 66 10000 5.1 140 22:26 26.07.2019
4634 Clouds 13 1024 66 10000 5.7 140 21:52 26.07.2019
4635 Clouds 13 1024 71 10000 4.1 140 21:21 26.07.2019
4636 Clouds 13 1024 66 10000 6.2 140 20:52 26.07.2019
4637 Clouds 13 1024 71 10000 5.1 130 20:33 26.07.2019
4638 Clouds 13 1024 71 10000 4.1 140 19:57 26.07.2019
4639 Clouds 13 1024 71 10000 5.1 150 19:38 26.07.2019
4640 Clouds 13 1024 71 10000 5.1 150 19:20 26.07.2019
4641 Clouds 13 1024 71 10000 5.1 150 19:20 26.07.2019
4642 Clouds 14 1024 71 10000 3.6 140 18:41 26.07.2019
4643 Clouds 14 1024 71 10000 3.6 140 18:21 26.07.2019
4644 Clouds 14 1023 71 10000 3.6 110 17:56 26.07.2019
4645 Clouds 15 1023 62 10000 4.6 120 17:37 26.07.2019
4646 Clouds 16 1023 59 10000 5.7 130 17:18 26.07.2019
4647 Clouds 16 1023 59 10000 5.7 130 16:54 26.07.2019
4648 Clouds 17 1023 55 10000 5.1 140 16:36 26.07.2019
4649 Clouds 17 1023 55 10000 5.1 140 16:18 26.07.2019
4650 Clouds 19 1022 52 10000 5.7 140 15:44 26.07.2019
4651 Clouds 19 1022 52 10000 5.7 140 15:21 26.07.2019
4652 Clouds 20 1022 45 10000 6.2 110 14:45 26.07.2019
4653 Clouds 20 1022 45 10000 5.1 140 14:25 26.07.2019
4654 Clouds 20 1022 49 10000 6.7 100 13:47 26.07.2019
4655 Clouds 20 1022 49 10000 5.7 140 13:28 26.07.2019
4656 Clouds 20 1022 49 10000 6.2 150 12:50 26.07.2019
4657 Clouds 20 1023 49 10000 6.2 160 12:24 26.07.2019
4658 Clouds 20 1023 49 10000 5.7 170 11:58 26.07.2019
4659 Clouds 19 1023 52 10000 6.2 170 11:37 26.07.2019
4660 Clouds 19 1023 52 10000 6.2 170 11:18 26.07.2019
4661 Clouds 18 1024 55 10000 6.2 170 10:42 26.07.2019
4662 Clouds 18 1024 55 10000 6.2 170 10:24 26.07.2019
4663 Clouds 18 1024 55 10000 6.7 160 09:50 26.07.2019
4664 Clouds 17 1025 59 10000 7.2 150 09:30 26.07.2019
4665 Clouds 15 1025 67 10000 6.7 160 08:41 26.07.2019
4666 Clouds 15 1025 67 10000 6.7 160 08:21 26.07.2019
4667 Clouds 13 1025 76 10000 3.6 170 07:43 26.07.2019
4668 Clouds 13 1025 76 10000 3.6 170 07:24 26.07.2019
4669 Clouds 10 1024 87 10000 1 0 06:30 26.07.2019
4670 Clouds 10 1023 87 10000 2.1 170 04:30 26.07.2019
4671 Clouds 9 1023 93 10000 1.5 0 03:54 26.07.2019
4672 Clouds 10 1023 87 10000 1.5 0 01:49 26.07.2019
4673 Clouds 11 1023 81 10000 1.5 150 01:24 26.07.2019
4674 Clouds 11 1024 76 10000 2.6 190 00:29 26.07.2019
4675 Clouds 12 1025 76 10000 4.1 160 23:46 25.07.2019
4676 Clouds 12 1025 76 10000 4.1 160 23:20 25.07.2019
4677 Clouds 12 1025 81 10000 3.1 150 22:42 25.07.2019
4678 Clouds 12 1025 81 10000 3.1 150 22:22 25.07.2019
4679 Clouds 12 1025 81 10000 3.1 130 21:48 25.07.2019
4680 Clouds 12 1025 81 10000 3.1 140 21:23 25.07.2019
4681 Clouds 12 1025 81 10000 4.1 140 20:58 25.07.2019
4682 Clouds 13 1025 82 10000 4.1 140 20:38 25.07.2019
4683 Clouds 13 1025 76 10000 3.1 130 20:18 25.07.2019
4684 Clouds 13 1025 76 10000 4.1 140 19:40 25.07.2019
4685 Clouds 13 1025 76 10000 4.1 140 19:22 25.07.2019
4686 Clouds 14 1024 67 10000 4.6 160 18:42 25.07.2019
4687 Clouds 14 1024 67 10000 4.6 160 18:23 25.07.2019
4688 -273 0 0 0 0 0 17:50 25.07.2019
4689 Clouds 15 1024 62 10000 4.6 140 17:32 25.07.2019
4690 Clouds 16 1024 59 10000 4.6 130 16:57 25.07.2019
4691 Clouds 17 1023 59 10000 6.7 150 16:38 25.07.2019
4692 Clouds 17 1023 59 10000 6.7 150 16:20 25.07.2019
4693 Clouds 18 1023 52 10000 6.7 130 15:44 25.07.2019
4694 Clouds 18 1023 52 10000 6.7 130 15:19 25.07.2019
4695 Clouds 19 1023 48 10000 6.2 140 14:43 25.07.2019
4696 Clouds 19 1023 48 10000 6.2 140 14:23 25.07.2019
4697 Clouds 19 1023 52 10000 7.2 130 13:55 25.07.2019
4698 Clouds 20 1022 49 10000 7.7 130 13:36 25.07.2019
4699 Clouds 20 1022 49 10000 7.2 150 13:18 25.07.2019
4700 Clouds 20 1022 49 10000 7.2 150 13:18 25.07.2019
4701 Clouds 20 1023 49 10000 7.7 140 12:30 25.07.2019
4702 Clouds 19 1023 52 10000 7.7 140 11:47 25.07.2019
4703 Clouds 19 1023 55 10000 6.7 140 11:26 25.07.2019
4704 Clouds 20 1024 49 10000 8.2 120 10:59 25.07.2019
4705 Clouds 19 1024 52 10000 6.2 140 10:40 25.07.2019
4706 Clouds 19 1024 52 10000 6.2 140 10:22 25.07.2019
4707 Clouds 17 1024 59 10000 6.7 170 09:44 25.07.2019
4708 Clouds 17 1024 59 10000 6.7 170 09:25 25.07.2019
4709 Clouds 15 1024 67 10000 7.2 160 08:44 25.07.2019
4710 Clouds 14 1024 71 10000 4.6 130 08:19 25.07.2019
4711 Clouds 13 1024 71 10000 5.1 150 07:36 25.07.2019
4712 Clouds 11 1024 81 10000 2.6 160 06:43 25.07.2019
4713 Clouds 10 1023 87 10000 2.1 160 05:48 25.07.2019
4714 Clouds 10 1023 87 10000 2.1 160 05:28 25.07.2019
4715 Clouds 10 1023 87 10000 2.1 160 04:37 25.07.2019
4716 Clouds 12 1023 81 10000 3.1 170 01:46 25.07.2019
4717 Clouds 12 1023 87 10000 3.1 160 01:18 25.07.2019
4718 Clouds 12 1024 93 10000 3.6 180 00:20 25.07.2019
4719 Clouds 13 1024 82 10000 5.1 180 23:47 24.07.2019
4720 Clouds 13 1024 82 10000 5.1 180 23:29 24.07.2019
4721 Clouds 13 1024 87 10000 2.6 160 22:56 24.07.2019
4722 Clouds 13 1024 87 10000 2.6 160 22:56 24.07.2019
4723 Drizzle 13 1024 87 8000 4.1 170 22:36 24.07.2019
4724 Clouds 14 1024 76 10000 3.6 160 22:18 24.07.2019
4725 Clouds 14 1024 76 10000 4.1 170 21:43 24.07.2019
4726 Clouds 14 1024 76 10000 4.1 170 21:22 24.07.2019
4727 Clouds 13 1024 82 10000 2.6 160 20:56 24.07.2019
4728 Clouds 13 1024 82 10000 3.1 140 20:37 24.07.2019
4729 Clouds 13 1024 82 10000 3.1 140 20:19 24.07.2019
4730 Clouds 13 1024 87 10000 3.1 120 19:42 24.07.2019
4731 Clouds 13 1024 87 10000 3.1 120 19:22 24.07.2019
4732 Clouds 14 1023 82 10000 2.6 130 18:58 24.07.2019
4733 Clouds 15 1023 72 10000 3.1 140 18:37 24.07.2019
4734 Clouds 15 1023 72 10000 3.1 140 18:19 24.07.2019
4735 Clouds 16 1023 67 10000 4.6 130 17:42 24.07.2019
4736 Clouds 16 1023 67 10000 4.6 130 17:19 24.07.2019
4737 Clouds 18 1022 55 10000 5.7 130 16:40 24.07.2019
4738 Clouds 18 1022 55 10000 5.7 130 16:40 24.07.2019
4739 Clouds 18 1022 55 10000 5.7 130 16:21 24.07.2019
4740 Clouds 20 1022 52 10000 6.2 130 15:39 24.07.2019
4741 Clouds 20 1022 52 10000 6.2 130 15:21 24.07.2019
4742 Clouds 20 1021 52 10000 6.2 130 14:50 24.07.2019
4743 Clouds 20 1021 52 10000 6.7 120 14:23 24.07.2019
4744 Clouds 20 1021 52 10000 5.1 150 13:58 24.07.2019
4745 Clouds 21 1021 52 10000 6.2 130 13:36 24.07.2019
4746 Clouds 21 1021 52 10000 6.2 130 13:18 24.07.2019
4747 Clouds 21 1021 52 10000 6.2 150 12:46 24.07.2019
4748 -273 0 0 0 0 0 12:23 24.07.2019
4749 Clouds 19 1022 55 10000 6.2 140 11:37 24.07.2019
4750 Clouds 19 1022 55 10000 6.2 140 11:19 24.07.2019
4751 Clouds 17 1023 63 10000 6.7 160 10:43 24.07.2019
4752 Clouds 17 1023 63 10000 6.7 160 10:24 24.07.2019
4753 Clouds 17 1023 63 10000 5.7 150 09:44 24.07.2019
4754 Clouds 17 1023 63 10000 5.7 150 09:24 24.07.2019
4755 Clouds 16 1023 67 10000 5.7 160 08:54 24.07.2019
4756 Clouds 15 1023 72 10000 5.7 160 08:27 24.07.2019
4757 Clouds 14 1023 76 10000 5.7 160 07:50 24.07.2019
4758 Clouds 13 1023 76 10000 4.6 160 07:23 24.07.2019
4759 Clouds 12 1023 81 10000 4.1 170 06:28 24.07.2019
4760 Clouds 12 1022 81 10000 3.6 170 05:26 24.07.2019
4761 Clouds 11 1022 81 10000 5.7 170 01:57 24.07.2019
4762 Clouds 12 1022 76 10000 6.2 150 01:28 24.07.2019
4763 Clouds 12 1023 76 10000 5.7 160 00:52 24.07.2019
4764 Clouds 11 1023 81 10000 4.6 150 00:21 24.07.2019
4765 Clouds 11 1023 81 10000 3.6 140 23:38 23.07.2019
4766 Clouds 11 1023 81 10000 3.6 140 23:19 23.07.2019
4767 Clouds 11 1023 81 10000 3.6 170 22:39 23.07.2019
4768 Clouds 11 1023 81 10000 3.6 170 22:19 23.07.2019
4769 Clouds 11 1023 81 10000 3.1 150 21:54 23.07.2019
4770 Clouds 11 1023 81 10000 3.1 150 21:54 23.07.2019
4771 Clouds 11 1024 81 10000 3.6 150 21:36 23.07.2019
4772 Clouds 11 1024 81 10000 3.6 150 21:36 23.07.2019
4773 Clouds 11 1024 81 10000 3.6 150 21:18 23.07.2019
4774 Clouds 11 1024 81 10000 3.1 130 20:41 23.07.2019
4775 Clouds 11 1024 81 10000 3.1 130 20:21 23.07.2019
4776 Clouds 12 1023 71 10000 3.6 160 19:40 23.07.2019
4777 Clouds 12 1023 71 10000 3.6 160 19:19 23.07.2019
4778 Clouds 12 1023 71 10000 3.6 130 18:43 23.07.2019
4779 Clouds 12 1023 71 10000 3.6 130 18:22 23.07.2019
4780 Clouds 14 1023 62 10000 4.6 130 17:44 23.07.2019
4781 Clouds 14 1023 62 10000 4.6 130 17:24 23.07.2019
4782 Clouds 15 1022 54 10000 4.6 130 16:50 23.07.2019
4783 Clouds 16 1022 51 10000 6.2 130 16:28 23.07.2019
4784 Clouds 17 1022 45 10000 6.2 140 15:58 23.07.2019
4785 Clouds 18 1022 45 10000 5.7 130 15:39 23.07.2019
4786 Clouds 18 1022 45 10000 5.7 130 15:21 23.07.2019
4787 Clouds 19 1021 42 10000 5.1 160 14:37 23.07.2019
4788 Clouds 19 1021 42 10000 5.1 160 14:19 23.07.2019
4789 Clouds 19 1021 39 10000 6.7 120 13:56 23.07.2019
4790 Clouds 19 1021 39 10000 5.7 140 13:38 23.07.2019
4791 Clouds 19 1021 39 10000 5.7 140 13:19 23.07.2019
4792 Clouds 19 1022 37 10000 6.7 150 12:42 23.07.2019
4793 Clouds 19 1022 37 10000 6.7 150 12:24 23.07.2019
4794 Clouds 18 1023 39 10000 6.2 140 11:42 23.07.2019
4795 Clouds 18 1023 39 10000 6.2 140 11:23 23.07.2019
4796 Clouds 17 1023 39 10000 7.2 150 10:51 23.07.2019
4797 Clouds 17 1023 42 10000 5.7 150 10:26 23.07.2019
4798 Clouds 15 1024 51 10000 7.7 140 09:44 23.07.2019
4799 Clouds 15 1024 51 10000 7.7 140 09:22 23.07.2019
4800 Clouds 13 1024 62 10000 7.7 170 08:57 23.07.2019
4801 Clouds 12 1024 66 10000 6.7 150 08:38 23.07.2019
4802 Clouds 12 1024 66 10000 6.7 150 08:18 23.07.2019
4803 Clouds 10 1024 76 10000 4.1 160 07:44 23.07.2019
4804 Clouds 10 1024 76 10000 4.1 160 07:26 23.07.2019
4805 Clouds 7 1023 87 10000 3.1 130 06:37 23.07.2019
4806 Clouds 7 1022 87 10000 1 180 04:45 23.07.2019
4807 Clouds 7 1022 87 10000 2.1 170 01:46 23.07.2019
4808 Clouds 6 1023 93 10000 1.5 170 00:54 23.07.2019
4809 Clouds 7 1023 87 10000 2.1 160 00:26 23.07.2019
4810 Clouds 7 1024 87 10000 2.6 140 23:39 22.07.2019
4811 Clouds 7 1024 87 10000 2.6 140 23:20 22.07.2019
4812 Clouds 8 1024 81 10000 3.6 150 22:46 22.07.2019
4813 Clouds 8 1024 81 10000 3.6 150 22:46 22.07.2019
4814 Clouds 8 1024 81 10000 3.6 150 22:26 22.07.2019
4815 Clouds 9 1024 76 10000 5.1 160 21:57 22.07.2019
4816 Clouds 9 1024 76 10000 5.1 160 21:39 22.07.2019
4817 Clouds 9 1024 76 10000 5.1 160 21:19 22.07.2019
4818 Clouds 9 1024 76 10000 3.1 140 20:42 22.07.2019
4819 Clouds 9 1024 76 10000 3.1 140 20:22 22.07.2019
4820 Clouds 10 1024 71 10000 4.6 140 19:43 22.07.2019
4821 Clouds 10 1024 71 10000 4.6 140 19:23 22.07.2019
4822 Clouds 11 1023 66 10000 4.1 160 18:49 22.07.2019
4823 Clouds 11 1023 71 10000 4.1 120 18:28 22.07.2019
4824 Clouds 12 1023 66 10000 5.7 120 17:59 22.07.2019
4825 Clouds 13 1022 66 10000 6.2 120 17:38 22.07.2019
4826 Clouds 13 1022 66 10000 6.2 120 17:20 22.07.2019
4827 Clouds 15 1021 62 10000 6.7 110 16:41 22.07.2019
4828 Clouds 15 1021 62 10000 6.7 110 16:21 22.07.2019
4829 Clouds 17 1021 55 10000 5.7 90 15:46 22.07.2019
4830 Clouds 18 1021 52 10000 6.2 90 15:22 22.07.2019
4831 Clouds 19 1020 48 10000 5.7 90 14:59 22.07.2019
4832 Clouds 20 1020 45 10000 5.1 100 14:41 22.07.2019
4833 Clouds 20 1020 45 10000 5.1 100 14:41 22.07.2019
4834 Clouds 20 1020 45 10000 5.1 100 14:19 22.07.2019
4835 Clouds 20 1020 45 10000 3.1 110 13:44 22.07.2019
4836 Clouds 20 1020 45 10000 3.1 110 13:22 22.07.2019
4837 Clouds 20 1021 45 10000 3.6 120 12:43 22.07.2019
4838 Clouds 20 1021 45 10000 3.6 120 12:23 22.07.2019
4839 Clouds 19 1021 48 10000 4.6 110 11:44 22.07.2019
4840 Clouds 19 1021 48 10000 4.6 110 11:20 22.07.2019
4841 Clouds 18 1022 55 10000 5.1 120 10:43 22.07.2019
4842 Clouds 18 1022 55 10000 5.1 120 10:24 22.07.2019
4843 Clouds 15 1022 72 10000 4.1 170 09:42 22.07.2019
4844 Clouds 15 1022 72 10000 4.1 170 09:23 22.07.2019
4845 Clouds 14 1022 76 7000 4.1 190 08:44 22.07.2019
4846 Clouds 14 1022 76 7000 4.1 190 08:24 22.07.2019
4847 Clouds 13 1022 76 6000 1.5 0 07:54 22.07.2019
4848 Clouds 11 1022 87 10000 1 0 07:32 22.07.2019
4849 Clouds 8 1021 93 10000 2.1 310 06:42 22.07.2019
4850 Clouds 7 1021 93 10000 1 100 03:50 22.07.2019
4851 Clouds 8 1021 87 10000 0.5 0 01:51 22.07.2019
4852 Clouds 9 1021 81 10000 0.5 0 00:50 22.07.2019
4853 Clouds 8 1021 87 10000 1.5 290 00:24 22.07.2019
4854 Clouds 9 1021 81 10000 1 0 23:54 21.07.2019
4855 Clouds 9 1021 81 10000 1.36 106.188 23:26 21.07.2019
4856 Clouds 11 1021 71 10000 0.5 0 22:41 21.07.2019
4857 Clouds 11 1021 71 10000 0.5 0 22:21 21.07.2019
4858 Clouds 12 1021 66 10000 1.5 0 21:56 21.07.2019
4859 Clouds 12 1022 66 10000 1.5 0 21:37 21.07.2019
4860 Clouds 12 1022 66 10000 1.5 0 21:18 21.07.2019
4861 Clouds 14 1021 58 10000 2.6 260 20:43 21.07.2019
4862 Clouds 14 1021 58 10000 2.6 260 20:23 21.07.2019
4863 Clouds 15 1021 54 10000 4.6 270 19:53 21.07.2019
4864 Clouds 15 1021 54 10000 4.6 260 19:32 21.07.2019
4865 Clouds 16 1021 48 10000 4.6 250 18:59 21.07.2019
4866 Clouds 16 1020 51 10000 3.6 270 18:41 21.07.2019
4867 Clouds 16 1020 51 10000 3.6 270 18:22 21.07.2019
4868 Clouds 18 1019 45 10000 3.6 260 17:41 21.07.2019
4869 Clouds 18 1019 45 10000 3.6 260 17:19 21.07.2019
4870 Clear 21 1019 30 10000 3.6 280 16:43 21.07.2019
4871 Clear 21 1019 30 10000 3.6 280 16:25 21.07.2019
4872 Clear 22 1019 28 10000 4.1 270 15:47 21.07.2019
4873 Clear 22 1019 28 10000 5.7 300 15:24 21.07.2019
4874 Clear 23 1019 27 10000 5.1 270 14:58 21.07.2019
4875 Clear 23 1019 31 10000 5.7 270 14:39 21.07.2019
4876 Clear 23 1019 31 10000 5.7 270 14:18 21.07.2019
4877 Clear 23 1019 28 10000 6.7 300 13:42 21.07.2019
4878 Clear 23 1019 28 10000 6.7 300 13:24 21.07.2019
4879 Clear 23 1019 33 10000 7.2 300 12:42 21.07.2019
4880 Clear 23 1019 33 10000 7.2 300 12:24 21.07.2019
4881 Clear 22 1020 35 10000 7.2 290 11:46 21.07.2019
4882 Clear 22 1020 35 10000 7.2 290 11:28 21.07.2019
4883 Clear 22 1021 35 10000 7.2 300 10:47 21.07.2019
4884 Clear 21 1021 40 10000 6.7 300 10:26 21.07.2019
4885 Clear 20 1021 45 10000 5.1 300 09:56 21.07.2019
4886 Clear 19 1021 45 10000 4.1 290 09:36 21.07.2019
4887 Clear 19 1021 45 10000 4.1 290 09:36 21.07.2019
4888 Clear 18 1021 48 10000 4.6 290 08:50 21.07.2019
4889 Clear 17 1022 48 10000 4.1 290 08:32 21.07.2019
4890 Clear 17 1021 51 10000 3.6 300 07:58 21.07.2019
4891 Clear 15 1021 62 10000 2.1 320 07:19 21.07.2019
4892 Clear 10 1020 81 10000 2.6 320 06:34 21.07.2019
4893 Clouds 8 1019 81 10000 3.1 310 04:19 21.07.2019
4894 Clear 10 1020 71 10000 1.5 290 01:53 21.07.2019
4895 Clouds 11 1020 71 10000 1.5 330 00:47 21.07.2019
4896 Clouds 12 1020 66 10000 2.1 340 00:21 21.07.2019
4897 Clouds 11 1020 71 10000 2.6 320 23:46 20.07.2019
4898 Clouds 11 1020 71 10000 2.6 320 23:27 20.07.2019
4899 Clouds 12 1020 66 10000 2.1 310 22:55 20.07.2019
4900 Clouds 13 1020 66 10000 3.1 330 22:37 20.07.2019
4901 Clouds 13 1020 66 10000 3.1 330 22:18 20.07.2019
4902 Clouds 15 1020 58 10000 3.6 340 21:42 20.07.2019
4903 Clouds 15 1020 58 10000 3.6 340 21:24 20.07.2019
4904 Clouds 14 1020 62 10000 2.1 320 20:43 20.07.2019
4905 Clouds 14 1020 62 10000 2.1 320 20:22 20.07.2019
4906 Clouds 14 1020 62 10000 3.1 320 19:49 20.07.2019
4907 Clouds 15 1020 58 10000 2.6 340 19:27 20.07.2019
4908 Clear 16 1020 55 2600 2.6 310 18:46 20.07.2019
4909 Clouds 16 1020 55 10000 2.1 320 18:26 20.07.2019
4910 Clouds 18 1019 52 10000 2.6 360 17:58 20.07.2019
4911 Clouds 20 1019 49 10000 2.6 10 17:37 20.07.2019
4912 Clouds 20 1019 49 10000 2.6 10 17:19 20.07.2019
4913 Clouds 23 1019 40 10000 4.1 350 16:39 20.07.2019
4914 Clouds 23 1019 40 10000 4.1 350 16:21 20.07.2019
4915 Clouds 24 1018 38 10000 5.1 30 15:41 20.07.2019
4916 -273 0 0 0 0 0 15:21 20.07.2019
4917 Clouds 24 1019 38 10000 4.6 30 14:49 20.07.2019
4918 Clouds 24 1019 38 10000 5.7 50 14:29 20.07.2019
4919 Clouds 25 1019 36 10000 4.6 20 13:57 20.07.2019
4920 Clouds 24 1019 36 10000 3.6 0 13:37 20.07.2019
4921 Clouds 24 1019 36 10000 3.6 0 13:19 20.07.2019
4922 Clouds 24 1019 36 10000 3.6 360 12:48 20.07.2019
4923 Clouds 25 1020 33 10000 3.1 20 12:19 20.07.2019
4924 Clouds 22 1021 53 10000 1.5 180 11:43 20.07.2019
4925 Clouds 22 1021 53 10000 1.5 180 11:20 20.07.2019
4926 Clouds 20 1022 60 10000 2.1 180 10:41 20.07.2019
4927 Clouds 20 1022 60 10000 2.1 180 10:22 20.07.2019
4928 Clouds 18 1022 68 10000 2.1 0 09:48 20.07.2019
4929 Clouds 18 1023 68 10000 2.1 0 09:25 20.07.2019
4930 Clouds 16 1023 77 10000 1 0 08:49 20.07.2019
4931 Clouds 17 1023 72 10000 2.6 90 08:23 20.07.2019
4932 Clouds 13 1023 93 10000 0.66 187.308 07:35 20.07.2019
4933 Clouds 13 1023 87 10000 0.5 0 06:46 20.07.2019
4934 Clouds 12 1022 93 10000 1 0 05:24 20.07.2019
4935 Clouds 12 1022 93 10000 1.5 0 04:31 20.07.2019
4936 Clouds 10 1023 93 10000 0.84 128.883 01:30 20.07.2019
4937 Clouds 10 1023 93 10000 0.84 128.883 01:30 20.07.2019
4938 Clouds 11 1023 93 10000 1 0 00:52 20.07.2019
4939 Clouds 10 1023 100 10000 1.5 60 00:33 20.07.2019
4940 Clouds 11 1023 93 10000 1 0 23:57 19.07.2019
4941 Clouds 11 1024 100 10000 1.5 160 23:39 19.07.2019
4942 Clouds 11 1024 100 10000 1.5 160 23:20 19.07.2019
4943 Clouds 11 1024 100 10000 2.1 120 22:41 19.07.2019
4944 Clouds 11 1024 100 10000 2.1 120 22:20 19.07.2019
4945 Clouds 11 1024 100 10000 2.1 120 22:20 19.07.2019
4946 Clouds 12 1024 93 10000 3.6 110 21:43 19.07.2019
4947 Clouds 12 1024 93 10000 3.6 110 21:25 19.07.2019
4948 Clouds 12 1024 93 10000 2.6 110 20:44 19.07.2019
4949 Clouds 12 1024 93 10000 2.6 110 20:25 19.07.2019
4950 Clouds 13 1024 87 10000 2.6 80 19:40 19.07.2019
4951 Clouds 13 1024 87 10000 2.6 80 19:19 19.07.2019
4952 Clouds 14 1023 87 10000 3.1 100 18:41 19.07.2019
4953 Clouds 14 1023 87 10000 3.1 100 18:19 19.07.2019
4954 Clouds 15 1023 82 10000 3.1 100 17:47 19.07.2019
4955 Clouds 16 1023 72 10000 3.1 100 17:26 19.07.2019
4956 Clouds 17 1022 72 10000 3.6 100 16:48 19.07.2019
4957 Clouds 20 1022 56 10000 2.1 100 16:25 19.07.2019
4958 Clouds 21 1022 56 10000 1.5 0 15:49 19.07.2019
4959 Clouds 18 1022 68 10000 2.6 90 15:30 19.07.2019
4960 Clouds 18 1022 63 10000 4.1 90 14:56 19.07.2019
4961 Clouds 19 1022 59 10000 5.7 100 14:38 19.07.2019
4962 Clouds 19 1022 59 10000 5.7 100 14:20 19.07.2019
4963 Clouds 19 1022 59 10000 3.1 90 13:43 19.07.2019
4964 Clouds 19 1022 59 10000 3.1 90 13:43 19.07.2019
4965 Clouds 19 1022 59 10000 3.1 90 13:23 19.07.2019
4966 Clouds 19 1023 59 10000 4.1 130 12:49 19.07.2019
4967 Clouds 19 1023 59 10000 4.1 120 12:30 19.07.2019
4968 Clouds 18 1024 63 10000 4.1 120 11:48 19.07.2019
4969 Clouds 18 1024 63 10000 2.6 110 11:20 19.07.2019
4970 Rain 18 1025 63 10000 4.6 80 10:58 19.07.2019
4971 Clouds 17 1025 67 10000 4.6 100 10:40 19.07.2019
4972 Clouds 17 1025 67 10000 4.6 100 10:20 19.07.2019
4973 Rain 14 1026 87 10000 3.1 140 09:44 19.07.2019
4974 Rain 14 1026 87 10000 3.1 140 09:22 19.07.2019
4975 Rain 14 1026 82 10000 2.6 180 08:56 19.07.2019
4976 Rain 14 1026 82 10000 2.6 180 08:56 19.07.2019
4977 Rain 14 1026 82 10000 3.1 160 08:38 19.07.2019
4978 Rain 13 1025 87 10000 2.6 150 07:43 19.07.2019
4979 Rain 13 1025 87 10000 2.6 150 07:25 19.07.2019
4980 Clouds 12 1024 87 10000 4.6 120 05:40 19.07.2019
4981 Clouds 13 1024 87 10000 2.6 170 01:59 19.07.2019
4982 Clouds 13 1025 82 10000 3.1 160 00:59 19.07.2019
4983 Clouds 13 1025 82 10000 2.6 170 00:25 19.07.2019
4984 Clouds 13 1025 82 10000 4.1 140 23:42 18.07.2019
4985 Clouds 13 1025 82 10000 4.1 140 23:23 18.07.2019
4986 Clouds 13 1025 82 10000 4.1 120 22:57 18.07.2019
4987 Clouds 13 1025 82 10000 3.6 140 22:39 18.07.2019
4988 Clouds 13 1025 82 10000 3.6 140 22:18 18.07.2019
4989 Clouds 13 1025 82 10000 4.1 150 21:39 18.07.2019
4990 Clouds 13 1025 82 10000 4.1 150 21:20 18.07.2019
4991 Clouds 14 1025 76 10000 4.1 140 20:48 18.07.2019
4992 Clouds 14 1025 76 10000 3.6 140 20:27 18.07.2019
4993 Clouds 14 1025 76 10000 3.6 130 19:51 18.07.2019
4994 Clouds 14 1025 76 10000 3.6 140 19:28 18.07.2019
4995 Clouds 13 1025 82 10000 3.6 130 18:52 18.07.2019
4996 Clouds 14 1025 76 10000 3.1 130 18:23 18.07.2019
4997 Clouds 14 1025 76 10000 4.1 140 17:57 18.07.2019
4998 Clouds 15 1025 72 10000 4.1 140 17:38 18.07.2019
4999 Clouds 15 1025 72 10000 4.1 140 17:38 18.07.2019
5000 Clouds 15 1025 72 10000 4.1 140 17:19 18.07.2019
5001 Clouds 15 1025 67 10000 3.6 150 16:53 18.07.2019
5002 Clouds 16 1025 63 10000 4.1 140 16:26 18.07.2019
5003 Clouds 17 1025 59 10000 6.2 110 15:58 18.07.2019
5004 Clouds 17 1025 59 10000 5.1 140 15:36 18.07.2019
5005 -273 0 0 0 0 0 14:56 18.07.2019
5006 Clouds 17 1025 59 10000 5.7 130 14:38 18.07.2019
5007 Clouds 17 1025 59 10000 5.7 130 14:19 18.07.2019
5008 Clouds 19 1025 52 10000 6.2 120 13:43 18.07.2019
5009 Clouds 19 1025 52 10000 6.2 120 13:21 18.07.2019
5010 Clouds 19 1026 48 10000 5.7 130 12:46 18.07.2019
5011 Clouds 19 1026 48 10000 5.7 130 12:21 18.07.2019
5012 Clouds 19 1026 52 10000 4.1 120 11:52 18.07.2019
5013 Clouds 19 1027 48 10000 4.6 150 11:33 18.07.2019
5014 Clouds 19 1027 48 10000 5.1 110 10:52 18.07.2019
5015 Clouds 19 1027 48 10000 5.1 110 10:52 18.07.2019
5016 Clouds 19 1028 42 10000 3.6 120 10:30 18.07.2019
5017 Clouds 16 1028 48 10000 3.1 150 09:45 18.07.2019
5018 Clouds 16 1028 48 10000 3.1 150 09:23 18.07.2019
5019 Clouds 15 1029 51 10000 3.6 150 08:47 18.07.2019
5020 Clouds 14 1029 62 10000 3.6 150 08:20 18.07.2019
5021 Clouds 12 1029 76 10000 4.1 150 07:39 18.07.2019
5022 Clouds 12 1029 76 10000 4.1 150 07:20 18.07.2019
5023 Clouds 11 1028 87 10000 2.6 160 06:36 18.07.2019
5024 Clouds 11 1027 93 10000 3.1 170 04:21 18.07.2019
5025 Clouds 10 1026 93 10000 3.6 140 02:52 18.07.2019
5026 Clouds 10 1027 100 10000 3.1 160 01:38 18.07.2019
5027 Clouds 11 1028 93 10000 4.1 150 00:28 18.07.2019
5028 Clouds 11 1028 87 10000 4.6 140 23:49 17.07.2019
5029 Clouds 11 1028 87 10000 3.1 150 23:19 17.07.2019
5030 Clouds 11 1029 87 10000 3.1 120 22:44 17.07.2019
5031 Clouds 11 1029 87 10000 3.1 120 22:23 17.07.2019
5032 Clouds 11 1029 87 10000 1.5 140 21:59 17.07.2019
5033 Clouds 11 1029 87 10000 2.6 130 21:40 17.07.2019
5034 Clouds 11 1029 87 10000 2.6 130 21:40 17.07.2019
5035 Clouds 11 1029 87 10000 2.6 130 21:21 17.07.2019
5036 Clouds 11 1029 87 10000 2.6 130 20:57 17.07.2019
5037 Clouds 11 1029 87 10000 3.6 120 20:39 17.07.2019
5038 Clouds 11 1029 87 10000 3.6 120 20:20 17.07.2019
5039 Clouds 12 1029 81 10000 4.1 170 19:43 17.07.2019
5040 Clouds 12 1029 81 10000 4.1 170 19:21 17.07.2019
5041 Clouds 13 1029 76 10000 4.6 150 18:56 17.07.2019
5042 Clouds 13 1029 76 10000 5.1 150 18:37 17.07.2019
5043 Clouds 13 1029 76 10000 5.1 150 18:18 17.07.2019
5044 Clouds 14 1029 71 10000 5.7 140 17:43 17.07.2019
5045 Clouds 14 1029 71 10000 5.7 140 17:22 17.07.2019
5046 Clouds 14 1029 82 10000 5.1 140 16:42 17.07.2019
5047 Clouds 14 1029 82 10000 5.1 140 16:22 17.07.2019
5048 Clouds 15 1028 72 10000 5.1 150 15:51 17.07.2019
5049 Clouds 15 1028 72 10000 6.7 110 15:31 17.07.2019
5050 Clouds 17 1028 59 10000 8.2 120 14:57 17.07.2019
5051 Clouds 18 1028 55 10000 7.7 120 14:39 17.07.2019
5052 Clouds 18 1028 55 10000 7.7 120 14:20 17.07.2019
5053 Clouds 18 1028 55 10000 8.7 110 13:49 17.07.2019
5054 Clouds 18 1028 52 10000 5.7 140 13:31 17.07.2019
5055 Clouds 19 1028 48 10000 6.7 130 12:56 17.07.2019
5056 Clouds 18 1029 52 10000 7.2 140 12:38 17.07.2019
5057 Clouds 18 1029 52 10000 7.2 140 12:19 17.07.2019
5058 Rain 14 1030 71 10000 7.2 140 11:40 17.07.2019
5059 Rain 14 1030 71 10000 7.2 140 11:19 17.07.2019
5060 Drizzle 15 1030 67 10000 7.7 140 10:45 17.07.2019
5061 Rain 15 1030 67 10000 6.7 160 10:21 17.07.2019
5062 Clouds 16 1031 63 10000 6.2 140 09:45 17.07.2019
5063 Clouds 16 1031 63 10000 6.2 140 09:27 17.07.2019
5064 Clouds 14 1031 71 10000 5.7 140 08:45 17.07.2019
5065 Clouds 13 1031 76 10000 6.2 140 08:24 17.07.2019
5066 Rain 13 1031 76 10000 7.2 150 07:58 17.07.2019
5067 Drizzle 12 1030 87 10000 3.1 160 07:38 17.07.2019
5068 Drizzle 12 1030 87 10000 3.1 160 07:19 17.07.2019
5069 Drizzle 12 1030 87 10000 3.6 180 06:45 17.07.2019
5070 Clouds 12 1029 81 10000 2.6 180 06:22 17.07.2019
5071 Clouds 11 1029 87 10000 3.1 180 05:38 17.07.2019
5072 Clouds 11 1029 87 10000 2.1 170 04:57 17.07.2019
5073 Clouds 10 1028 87 10000 2.1 130 03:52 17.07.2019
5074 Clouds 10 1028 87 10000 1.5 0 02:43 17.07.2019
5075 Clouds 11 1029 81 10000 3.1 150 01:41 17.07.2019
5076 Clouds 11 1029 81 10000 3.1 150 01:21 17.07.2019
5077 Clouds 11 1030 87 10000 3.1 160 00:39 17.07.2019
5078 Clouds 11 1030 87 10000 3.1 160 00:20 17.07.2019
5079 Clouds 11 1030 81 10000 4.6 140 23:44 16.07.2019
5080 Clouds 11 1030 81 10000 4.6 140 23:22 16.07.2019
5081 Clouds 11 1030 93 10000 4.6 140 22:44 16.07.2019
5082 Clouds 11 1030 93 10000 4.6 140 22:25 16.07.2019
5083 Clouds 12 1030 87 10000 6.2 140 21:59 16.07.2019
5084 Clouds 13 1030 76 10000 4.6 140 21:40 16.07.2019
5085 Clouds 13 1030 76 10000 4.6 140 21:19 16.07.2019
5086 Clouds 13 1030 82 10000 3.6 150 20:41 16.07.2019
5087 Clouds 13 1030 82 10000 3.6 150 20:41 16.07.2019
5088 Clouds 13 1030 82 10000 3.6 150 20:23 16.07.2019
5089 Clouds 13 1030 82 10000 3.6 150 20:23 16.07.2019
5090 Clouds 13 1030 82 10000 5.1 140 19:54 16.07.2019
5091 Clouds 13 1030 87 10000 3.6 130 19:30 16.07.2019
5092 Clouds 13 1030 87 10000 3.6 130 19:30 16.07.2019
5093 Clouds 13 1029 87 10000 5.1 140 18:59 16.07.2019
5094 Clouds 13 1029 87 10000 4.1 130 18:41 16.07.2019
5095 Clouds 13 1029 87 10000 4.1 130 18:20 16.07.2019
5096 Clouds 14 1029 82 10000 4.6 150 17:49 16.07.2019
5097 Clouds 14 1029 82 10000 4.6 150 17:49 16.07.2019
5098 Clouds 14 1029 82 10000 4.6 140 17:28 16.07.2019
5099 Clouds 15 1028 72 10000 5.1 150 16:50 16.07.2019
5100 Clouds 15 1028 72 10000 6.2 140 16:27 16.07.2019
5101 Clouds 15 1028 72 10000 6.2 140 15:57 16.07.2019
5102 Clouds 16 1028 67 10000 6.2 140 15:38 16.07.2019
5103 Clouds 16 1028 67 10000 6.2 140 15:19 16.07.2019
5104 Clouds 17 1028 67 10000 6.7 140 14:55 16.07.2019
5105 Clouds 17 1028 67 10000 6.7 160 14:36 16.07.2019
5106 Clouds 17 1028 67 10000 6.7 160 14:18 16.07.2019
5107 Clouds 18 1028 59 10000 7.2 130 13:38 16.07.2019
5108 Clouds 18 1028 59 10000 7.2 130 13:18 16.07.2019
5109 Clouds 19 1028 52 10000 5.7 150 12:43 16.07.2019
5110 Clouds 19 1028 52 10000 5.7 150 12:20 16.07.2019
5111 Clouds 18 1029 55 10000 6.7 150 11:54 16.07.2019
5112 Clouds 19 1029 55 10000 8.7 120 11:36 16.07.2019
5113 Clouds 19 1029 55 10000 8.7 120 11:36 16.07.2019
5114 Clouds 19 1029 55 10000 8.7 120 11:18 16.07.2019
5115 Clouds 15 1029 77 10000 7.7 140 10:43 16.07.2019
5116 Clouds 17 1029 63 10000 7.2 140 10:20 16.07.2019
5117 Drizzle 16 1029 77 10000 5.7 140 09:44 16.07.2019
5118 Drizzle 16 1029 77 10000 5.7 140 09:21 16.07.2019
5119 Clouds 16 1029 77 10000 5.7 140 08:49 16.07.2019
5120 Rain 15 1029 82 10000 5.7 120 08:28 16.07.2019
5121 Rain 15 1029 77 10000 6.7 120 07:57 16.07.2019
5122 Clouds 14 1029 87 10000 4.6 130 07:36 16.07.2019
5123 Rain 13 1028 87 10000 5.1 130 06:59 16.07.2019
5124 Rain 12 1028 93 10000 5.7 150 06:37 16.07.2019
5125 Drizzle 13 1027 93 10000 4.6 150 05:52 16.07.2019
5126 Drizzle 13 1027 93 9000 3.1 160 05:28 16.07.2019
5127 Drizzle 13 1026 93 10000 4.6 160 04:36 16.07.2019
5128 Drizzle 12 1026 100 8000 1.5 160 03:43 16.07.2019
5129 Drizzle 12 1027 100 4000 2.6 180 02:44 16.07.2019
5130 Drizzle 12 1027 100 4000 2.6 180 02:24 16.07.2019
5131 Clouds 13 1027 87 10000 2.6 160 01:26 16.07.2019
5132 Clouds 13 1027 82 10000 3.1 170 00:24 16.07.2019
5133 Clouds 13 1027 82 10000 4.1 160 23:58 15.07.2019
5134 Clouds 13 1028 82 10000 4.6 170 23:38 15.07.2019
5135 Clouds 13 1028 82 10000 4.6 170 23:18 15.07.2019
5136 Clouds 14 1028 76 10000 3.1 170 22:43 15.07.2019
5137 Clouds 13 1028 82 10000 2.6 160 22:20 15.07.2019
5138 Clouds 13 1028 82 10000 2.6 140 21:57 15.07.2019
5139 Clouds 13 1028 82 10000 2.6 130 21:38 15.07.2019
5140 Clouds 13 1028 82 10000 2.6 130 21:19 15.07.2019
5141 Clouds 14 1028 71 10000 3.1 140 20:44 15.07.2019
5142 Clouds 14 1028 71 10000 3.1 140 20:23 15.07.2019
5143 -273 0 0 0 0 0 19:56 15.07.2019
5144 Clouds 14 1027 71 10000 4.6 140 19:38 15.07.2019
5145 Clouds 14 1027 71 10000 4.6 140 19:18 15.07.2019
5146 Clouds 15 1027 62 10000 4.6 140 18:44 15.07.2019
5147 Clouds 15 1027 62 10000 4.6 140 18:20 15.07.2019
5148 Clouds 15 1027 58 10000 3.6 150 17:56 15.07.2019
5149 Clouds 14 1026 67 10000 4.1 120 17:37 15.07.2019
5150 Clouds 14 1026 67 10000 4.1 120 17:19 15.07.2019
5151 Clouds 16 1026 51 10000 6.2 110 16:40 15.07.2019
5152 Clouds 16 1026 51 10000 6.2 110 16:21 15.07.2019
5153 Clouds 16 1026 51 10000 6.2 110 16:21 15.07.2019
5154 Clouds 17 1026 48 10000 5.7 130 15:59 15.07.2019
5155 Clouds 18 1025 45 10000 5.7 140 15:38 15.07.2019
5156 Clouds 18 1025 45 10000 5.7 140 15:20 15.07.2019
5157 Clouds 19 1025 39 10000 6.7 130 14:45 15.07.2019
5158 Clouds 19 1025 39 10000 6.7 130 14:27 15.07.2019
5159 Clouds 19 1025 39 10000 7.7 110 13:57 15.07.2019
5160 Clouds 19 1025 39 10000 7.7 110 13:36 15.07.2019
5161 Clouds 19 1025 39 10000 7.7 110 13:18 15.07.2019
5162 Clouds 19 1025 42 10000 7.7 110 12:42 15.07.2019
5163 Clouds 19 1025 42 10000 7.7 110 12:22 15.07.2019
5164 Clouds 19 1026 42 10000 7.2 120 11:43 15.07.2019
5165 Clouds 19 1026 42 10000 7.2 120 11:25 15.07.2019
5166 Clouds 19 1026 42 10000 7.2 120 11:25 15.07.2019
5167 Clouds 19 1027 39 10000 6.7 120 10:48 15.07.2019
5168 Clouds 18 1027 45 10000 6.2 120 10:29 15.07.2019
5169 Clouds 17 1027 48 10000 6.2 130 09:55 15.07.2019
5170 Clouds 16 1027 59 10000 5.1 140 09:36 15.07.2019
5171 Clouds 16 1027 59 10000 5.1 140 09:18 15.07.2019
5172 Clouds 13 1027 66 10000 5.1 160 08:41 15.07.2019
5173 Clouds 13 1027 66 10000 5.1 160 08:41 15.07.2019
5174 Clouds 13 1027 66 10000 5.1 160 08:23 15.07.2019
5175 Clouds 13 1027 66 10000 5.1 160 08:23 15.07.2019
5176 Clouds 11 1027 76 10000 4.6 170 07:41 15.07.2019
5177 Clouds 11 1027 76 10000 4.6 170 07:19 15.07.2019
5178 Clouds 9 1026 87 9000 2.1 150 06:39 15.07.2019
5179 Clouds 8 1026 93 10000 1.5 0 05:47 15.07.2019
5180 Clouds 8 1026 93 10000 2.6 120 05:27 15.07.2019
5181 Clouds 9 1026 87 10000 3.1 140 04:42 15.07.2019
5182 Clouds 9 1026 87 10000 2.6 150 03:48 15.07.2019
5183 Clouds 9 1026 93 10000 2.1 150 02:44 15.07.2019
5184 Clouds 9 1026 93 10000 3.1 110 01:43 15.07.2019
5185 Clouds 9 1026 93 10000 3.1 110 01:24 15.07.2019
5186 Clouds 10 1026 87 10000 3.6 120 00:51 15.07.2019
5187 Clouds 10 1027 87 10000 3.6 120 00:19 15.07.2019
5188 Clouds 9 1027 87 10000 2.6 100 23:55 14.07.2019
5189 Clouds 10 1027 87 10000 2.6 130 23:36 14.07.2019
5190 Clouds 10 1027 87 10000 2.6 130 23:18 14.07.2019
5191 Clouds 11 1027 81 10000 3.1 140 22:40 14.07.2019
5192 Clouds 11 1027 81 10000 3.1 140 22:22 14.07.2019
5193 Clouds 11 1027 81 10000 3.1 130 21:58 14.07.2019
5194 Clouds 11 1027 81 10000 4.6 120 21:39 14.07.2019
5195 Clouds 11 1027 81 10000 4.6 120 21:18 14.07.2019
5196 Clouds 11 1027 81 10000 4.6 120 21:18 14.07.2019
5197 Clouds 12 1027 76 10000 4.1 130 20:54 14.07.2019
5198 Clouds 12 1027 81 10000 3.1 150 20:36 14.07.2019
5199 Clouds 12 1027 81 10000 3.1 150 20:18 14.07.2019
5200 Clouds 13 1027 76 10000 4.1 120 19:41 14.07.2019
5201 Clouds 13 1027 76 10000 4.1 120 19:23 14.07.2019
5202 Clouds 13 1026 71 10000 3.6 140 18:45 14.07.2019
5203 Clouds 13 1026 71 10000 3.6 140 18:27 14.07.2019
5204 Clouds 14 1026 67 10000 4.1 130 17:58 14.07.2019
5205 Clouds 14 1025 67 10000 4.1 130 17:39 14.07.2019
5206 Clouds 14 1025 67 10000 4.1 130 17:18 14.07.2019
5207 Clouds 17 1025 55 10000 5.7 130 16:44 14.07.2019
5208 Clouds 17 1025 55 10000 5.7 130 16:21 14.07.2019
5209 Clouds 18 1024 48 10000 6.2 140 15:43 14.07.2019
5210 Clouds 18 1024 48 10000 6.2 140 15:24 14.07.2019
5211 Clouds 19 1024 45 10000 6.2 130 14:47 14.07.2019
5212 Clouds 20 1024 42 10000 5.7 120 14:21 14.07.2019
5213 Clouds 20 1024 42 10000 5.1 140 13:47 14.07.2019
5214 Clouds 20 1024 42 10000 6.2 130 13:25 14.07.2019
5215 Clouds 20 1024 42 10000 5.7 120 12:58 14.07.2019
5216 Clouds 20 1025 45 10000 5.7 120 12:40 14.07.2019
5217 Clouds 20 1025 45 10000 5.7 120 12:19 14.07.2019
5218 Clouds 19 1025 45 10000 5.7 160 11:50 14.07.2019
5219 Clouds 18 1026 52 10000 4.6 160 11:20 14.07.2019
5220 Clouds 18 1026 52 10000 4.6 160 10:46 14.07.2019
5221 Clouds 17 1026 55 10000 5.7 160 10:21 14.07.2019
5222 Clouds 17 1026 55 10000 5.7 160 10:21 14.07.2019
5223 Clouds 16 1026 55 10000 5.1 140 09:48 14.07.2019
5224 Clouds 16 1026 55 10000 5.1 140 09:48 14.07.2019
5225 Clouds 16 1027 59 10000 6.2 160 09:30 14.07.2019
5226 Clouds 15 1027 58 10000 5.1 140 08:47 14.07.2019
5227 Clouds 14 1027 67 10000 5.1 160 08:29 14.07.2019
5228 Clouds 12 1027 76 10000 3.6 160 07:43 14.07.2019
5229 Clouds 12 1027 76 10000 3.6 160 07:20 14.07.2019
5230 Clouds 9 1026 93 10000 2.6 160 05:46 14.07.2019
5231 Clouds 9 1026 93 10000 2.6 160 05:46 14.07.2019
5232 Clouds 8 1026 100 10000 1 180 03:53 14.07.2019
5233 Clouds 8 1026 93 10000 0.5 0 03:34 14.07.2019
5234 Clouds 8 1026 93 10000 1.5 0 02:52 14.07.2019
5235 Clouds 9 1026 93 10000 2.6 210 02:23 14.07.2019
5236 Clouds 10 1026 87 10000 1.5 0 01:45 14.07.2019
5237 Clouds 10 1026 87 10000 1.5 0 01:24 14.07.2019
5238 Clouds 10 1026 93 10000 1.5 0 00:41 14.07.2019
5239 Clouds 10 1026 93 10000 1.5 0 00:20 14.07.2019
5240 Clouds 10 1026 93 10000 1.5 110 23:56 13.07.2019
5241 Clouds 11 1026 87 10000 2.1 140 23:37 13.07.2019
5242 Clouds 11 1026 87 10000 2.1 140 23:19 13.07.2019
5243 Clouds 11 1026 93 10000 3.6 110 22:41 13.07.2019
5244 Clouds 11 1026 93 10000 3.6 110 22:21 13.07.2019
5245 Clouds 12 1026 81 10000 2.6 140 21:45 13.07.2019
5246 Clouds 12 1026 81 10000 2.6 140 21:20 13.07.2019
5247 Clouds 13 1026 76 10000 2.1 130 20:51 13.07.2019
5248 Clouds 13 1026 82 10000 2.1 140 20:32 13.07.2019
5249 Clouds 13 1025 76 10000 1.5 0 19:50 13.07.2019
5250 Clouds 13 1025 82 10000 2.1 140 19:29 13.07.2019
5251 Clouds 14 1025 71 10000 3.1 110 18:46 13.07.2019
5252 Clouds 14 1025 71 10000 3.6 110 18:24 13.07.2019
5253 Clouds 15 1025 67 10000 4.1 100 17:49 13.07.2019
5254 Clouds 16 1024 63 10000 4.6 100 17:22 13.07.2019
5255 Clouds 17 1024 63 10000 4.1 90 16:59 13.07.2019
5256 Clouds 19 1024 52 10000 5.7 100 16:39 13.07.2019
5257 Clouds 19 1024 52 10000 5.7 100 16:21 13.07.2019
5258 Clouds 21 1024 46 10000 4.1 100 15:45 13.07.2019
5259 Clouds 21 1024 46 10000 4.1 100 15:22 13.07.2019
5260 Clouds 22 1024 43 10000 3.6 90 14:46 13.07.2019
5261 Clouds 22 1024 43 10000 3.6 130 14:25 13.07.2019
5262 Clouds 23 1024 40 10000 3.6 90 13:47 13.07.2019
5263 Clouds 23 1024 40 10000 3.6 90 13:47 13.07.2019
5264 Clouds 23 1024 40 10000 3.6 100 13:27 13.07.2019
5265 Clouds 22 1024 40 10000 3.6 150 12:59 13.07.2019
5266 Clouds 23 1024 38 10000 3.1 90 12:39 13.07.2019
5267 Clouds 23 1024 38 10000 3.1 90 12:20 13.07.2019
5268 Clouds 22 1025 40 10000 2.1 170 11:43 13.07.2019
5269 Clouds 22 1025 40 10000 2.1 170 11:19 13.07.2019
5270 Clouds 22 1025 40 10000 2.6 0 10:45 13.07.2019
5271 Clouds 21 1026 46 10000 2.1 0 10:23 13.07.2019
5272 Clouds 21 1026 46 10000 2.1 0 10:23 13.07.2019
5273 Clouds 19 1026 52 10000 2.6 130 09:54 13.07.2019
5274 Clouds 19 1026 52 10000 2.6 130 09:54 13.07.2019
5275 Clouds 18 1027 59 10000 3.1 110 09:31 13.07.2019
5276 Clouds 17 1027 59 10000 3.1 150 08:58 13.07.2019
5277 Clouds 16 1027 67 10000 2.6 130 08:33 13.07.2019
5278 Clouds 15 1027 72 9000 2.6 120 07:58 13.07.2019
5279 Clouds 14 1026 82 7000 0.5 0 07:30 13.07.2019
5280 Clouds 9 1026 100 8000 2.02 132.949 06:39 13.07.2019
5281 Clouds 9 1025 100 10000 1 0 05:57 13.07.2019
5282 Clouds 10 1025 93 10000 1.5 90 04:42 13.07.2019
5283 Clouds 9 1024 100 10000 1 90 04:22 13.07.2019
5284 Clouds 10 1025 93 10000 1 70 03:55 13.07.2019
5285 Clouds 10 1024 93 10000 1.5 60 03:37 13.07.2019
5286 Clouds 12 1025 87 10000 3.1 100 01:54 13.07.2019
5287 Clouds 12 1025 87 10000 2.6 100 01:36 13.07.2019
5288 Clouds 12 1025 87 10000 2.6 100 01:18 13.07.2019
5289 Clouds 12 1025 87 10000 2.6 100 01:18 13.07.2019
5290 Clouds 13 1025 87 10000 3.6 90 00:46 13.07.2019
5291 Clouds 14 1025 82 10000 3.1 130 00:18 13.07.2019
5292 Clouds 14 1025 87 10000 2.1 130 23:42 12.07.2019
5293 Clouds 14 1025 87 10000 2.1 130 23:23 12.07.2019
5294 Clouds 15 1025 82 10000 3.1 120 22:42 12.07.2019
5295 Clouds 15 1025 82 10000 3.1 120 22:23 12.07.2019
5296 Clouds 14 1025 87 10000 3.6 130 21:42 12.07.2019
5297 Clouds 14 1025 87 10000 3.6 130 21:22 12.07.2019
5298 Clouds 14 1025 87 10000 4.1 110 20:54 12.07.2019
5299 Clouds 14 1025 87 10000 3.1 130 20:24 12.07.2019
5300 Clouds 13 1024 87 10000 2.1 90 19:45 12.07.2019
5301 Clouds 13 1024 87 10000 2.1 90 19:27 12.07.2019
5302 Clouds 14 1024 82 10000 2.6 60 18:59 12.07.2019
5303 Clouds 14 1024 82 10000 3.1 70 18:38 12.07.2019
5304 Clouds 14 1024 82 10000 3.1 70 18:19 12.07.2019
5305 Clouds 15 1023 77 10000 3.6 90 17:47 12.07.2019
5306 Clouds 16 1023 67 10000 4.1 100 17:27 12.07.2019
5307 Clouds 19 1023 59 10000 5.7 110 16:43 12.07.2019
5308 Clouds 19 1023 59 10000 5.7 110 16:20 12.07.2019
5309 Clouds 21 1022 49 10000 4.1 100 15:41 12.07.2019
5310 Clouds 21 1022 49 10000 4.1 100 15:21 12.07.2019
5311 Clouds 21 1022 49 10000 3.6 100 14:56 12.07.2019
5312 Clouds 21 1022 49 10000 4.1 140 14:38 12.07.2019
5313 Clouds 21 1022 49 10000 4.1 140 14:19 12.07.2019
5314 Clouds 20 1022 52 10000 3.1 150 13:39 12.07.2019
5315 Clouds 22 1022 49 10000 4.1 140 12:58 12.07.2019
5316 Clouds 22 1023 49 10000 4.6 120 12:39 12.07.2019
5317 Clouds 22 1023 49 10000 4.6 120 12:20 12.07.2019
5318 Clouds 22 1023 49 10000 5.1 110 11:44 12.07.2019
5319 Clouds 21 1023 52 10000 4.1 120 11:20 12.07.2019
5320 Clouds 21 1024 52 10000 3.6 110 10:44 12.07.2019
5321 Clouds 20 1024 56 10000 2.6 0 10:24 12.07.2019
5322 Clouds 19 1025 55 10000 4.1 180 09:54 12.07.2019
5323 Clouds 18 1024 55 10000 4.6 160 09:30 12.07.2019
5324 Clouds 18 1024 55 10000 4.6 160 09:30 12.07.2019
5325 Clouds 18 1024 55 10000 4.6 160 09:30 12.07.2019
5326 Clouds 18 1025 59 10000 2.6 170 08:59 12.07.2019
5327 Clouds 18 1025 63 10000 2.1 190 08:39 12.07.2019
5328 Clouds 18 1025 63 10000 2.1 190 08:18 12.07.2019
5329 Clouds 16 1025 72 10000 2.1 130 07:44 12.07.2019
5330 Clouds 15 1024 77 10000 2.1 90 07:26 12.07.2019
5331 Clouds 11 1024 93 10000 2.6 110 06:29 12.07.2019
5332 Clouds 12 1023 87 10000 2.1 140 05:47 12.07.2019
5333 Clouds 13 1022 87 10000 3.6 130 03:22 12.07.2019
5334 Clouds 15 1022 87 10000 2.6 150 01:41 12.07.2019
5335 Clouds 16 1022 87 10000 2.6 150 00:58 12.07.2019
5336 Clouds 16 1022 87 10000 2.6 150 00:20 12.07.2019
5337 Clouds 16 1022 87 10000 2.6 150 00:20 12.07.2019
5338 Clouds 16 1022 87 10000 2.6 150 00:20 12.07.2019
5339 Clouds 15 1023 93 10000 2.6 130 23:49 11.07.2019
5340 Clouds 16 1022 87 10000 3.1 80 23:26 11.07.2019
5341 Clouds 16 1022 87 10000 3.1 80 23:26 11.07.2019
5342 Clouds 16 1023 87 10000 2.6 80 22:55 11.07.2019
5343 Clouds 16 1023 87 10000 2.1 80 22:37 11.07.2019
5344 Clouds 16 1023 87 10000 2.1 80 22:19 11.07.2019
5345 Clouds 16 1023 87 10000 3.1 110 21:40 11.07.2019
5346 Clouds 16 1023 87 10000 3.1 110 21:18 11.07.2019
5347 Clouds 16 1023 87 10000 2.1 140 20:43 11.07.2019
5348 Clouds 16 1023 87 10000 2.1 140 20:24 11.07.2019
5349 Clouds 16 1023 87 10000 2.1 140 20:24 11.07.2019
5350 Clouds 16 1022 87 10000 2.6 140 19:59 11.07.2019
5351 Clouds 16 1022 87 10000 6.2 120 19:40 11.07.2019
5352 Clouds 16 1022 87 10000 6.2 120 19:22 11.07.2019
5353 Clouds 18 1021 63 10000 3.6 90 18:43 11.07.2019
5354 Clouds 18 1021 63 10000 3.6 90 18:43 11.07.2019
5355 Clouds 18 1021 63 10000 3.6 90 18:24 11.07.2019
5356 Clouds 18 1021 59 10000 1 70 17:50 11.07.2019
5357 Clouds 19 1021 55 10000 1.5 70 17:31 11.07.2019
5358 Clouds 20 1020 49 10000 3.1 100 16:56 11.07.2019
5359 Clouds 22 1020 40 10000 1.5 0 16:37 11.07.2019
5360 Clouds 22 1020 40 10000 1.5 0 16:18 11.07.2019
5361 Clouds 25 1020 36 10000 1 0 15:40 11.07.2019
5362 Clouds 25 1020 36 10000 1 0 15:21 11.07.2019
5363 Clouds 25 1020 36 10000 2.1 260 14:45 11.07.2019
5364 Clouds 25 1020 38 10000 2.6 200 14:25 11.07.2019
5365 Clouds 24 1020 41 10000 2.1 0 13:59 11.07.2019
5366 Clouds 25 1020 38 10000 2.1 0 13:40 11.07.2019
5367 Clouds 25 1020 38 10000 2.1 0 13:22 11.07.2019
5368 Clouds 25 1020 41 10000 2.1 350 12:38 11.07.2019
5369 Clouds 25 1020 41 10000 2.1 350 12:19 11.07.2019
5370 Clouds 24 1021 44 10000 1.5 0 11:45 11.07.2019
5371 Clouds 23 1021 49 10000 2.1 200 11:27 11.07.2019
5372 Clouds 22 1022 53 10000 1.5 0 10:52 11.07.2019
5373 Clouds 22 1022 53 10000 1.5 0 10:52 11.07.2019
5374 Clouds 21 1022 60 10000 2.6 180 10:20 11.07.2019
5375 Clouds 21 1023 60 10000 2.6 170 09:53 11.07.2019
5376 Clouds 20 1023 64 10000 2.6 150 09:32 11.07.2019
5377 Clouds 19 1023 68 10000 2.6 150 08:59 11.07.2019
5378 Clouds 17 1023 77 10000 3.1 150 08:39 11.07.2019
5379 Clouds 17 1023 77 10000 3.1 150 08:19 11.07.2019
5380 Clouds 16 1023 82 10000 3.1 130 07:43 11.07.2019
5381 Clouds 15 1023 87 10000 2.1 130 06:55 11.07.2019
5382 Clouds 13 1022 93 10000 1.5 110 06:18 11.07.2019
5383 Clouds 14 1022 93 10000 1.5 130 05:32 11.07.2019
5384 Clouds 15 1021 87 10000 2.6 150 04:56 11.07.2019
5385 Clouds 14 1021 93 10000 0.5 0 03:43 11.07.2019
5386 Clouds 15 1021 87 10000 2.1 140 02:20 11.07.2019
5387 Clouds 15 1021 93 10000 2.1 140 00:33 11.07.2019
5388 Clouds 15 1021 87 10000 2.1 130 23:50 10.07.2019
5389 Clouds 15 1022 93 10000 2.6 140 23:24 10.07.2019
5390 Clouds 15 1022 93 10000 2.1 140 22:57 10.07.2019
5391 Clouds 15 1022 93 10000 2.1 140 22:25 10.07.2019
5392 Clouds 15 1022 93 10000 3.1 110 21:56 10.07.2019
5393 Clouds 15 1022 93 10000 2.1 130 21:38 10.07.2019
5394 Clouds 15 1022 93 10000 2.1 130 21:19 10.07.2019
5395 Clouds 15 1021 93 10000 2.6 120 20:44 10.07.2019
5396 Clouds 16 1021 87 10000 2.6 130 20:26 10.07.2019
5397 Clouds 16 1021 87 10000 3.6 100 19:56 10.07.2019
5398 Clouds 16 1021 87 10000 4.1 100 19:37 10.07.2019
5399 Clouds 16 1021 87 10000 4.1 100 19:19 10.07.2019
5400 Clouds 17 1020 77 10000 5.7 100 18:44 10.07.2019
5401 Clouds 17 1020 72 10000 2.6 70 18:23 10.07.2019
5402 Clouds 18 1019 59 10000 1.5 330 17:44 10.07.2019
5403 Clouds 19 1019 52 10000 2.1 320 17:25 10.07.2019
5404 Clouds 25 1019 36 10000 1 0 16:41 10.07.2019
5405 Clouds 25 1019 36 10000 1 0 16:21 10.07.2019
5406 Clouds 25 1019 36 10000 2.6 300 15:47 10.07.2019
5407 Clouds 26 1019 31 10000 2.6 0 15:25 10.07.2019
5408 Clouds 26 1019 31 10000 3.1 320 14:48 10.07.2019
5409 Clouds 26 1019 29 10000 2.6 320 14:28 10.07.2019
5410 Clouds 26 1019 29 10000 3.6 330 13:54 10.07.2019
5411 Clouds 26 1019 27 10000 3.1 260 13:23 10.07.2019
5412 Clouds 26 1020 29 10000 3.6 300 12:59 10.07.2019
5413 Clouds 25 1020 31 10000 3.6 300 12:39 10.07.2019
5414 Clouds 25 1020 31 10000 3.6 300 12:20 10.07.2019
5415 Clouds 25 1021 33 10000 3.1 300 11:47 10.07.2019
5416 Clouds 24 1021 44 10000 2.6 290 11:21 10.07.2019
5417 Clouds 23 1022 53 10000 2.1 0 10:52 10.07.2019
5418 Clouds 21 1022 60 10000 2.1 190 10:23 10.07.2019
5419 Clouds 21 1023 64 10000 2.1 80 09:45 10.07.2019
5420 Clouds 21 1023 64 10000 2.1 80 09:21 10.07.2019
5421 Clouds 21 1023 68 10000 1.5 0 08:55 10.07.2019
5422 Clouds 17 1023 88 10000 1.5 0 08:37 10.07.2019
5423 Clouds 17 1023 88 10000 1.5 0 08:18 10.07.2019
5424 Clouds 16 1023 93 10000 1.5 140 07:42 10.07.2019
5425 Clouds 16 1023 93 10000 1.5 140 07:21 10.07.2019
5426 Clouds 14 1022 100 10000 1.5 0 06:21 10.07.2019
5427 Clouds 15 1021 93 10000 0.58 59.765 05:39 10.07.2019
5428 Mist 14 1021 100 4000 0.5 0 04:29 10.07.2019
5429 Clouds 15 1021 100 10000 0.5 0 01:25 10.07.2019
5430 Clouds 16 1022 100 10000 0.5 0 00:42 10.07.2019
5431 Clouds 16 1022 100 10000 1 0 23:42 09.07.2019
5432 Clouds 16 1022 100 10000 1.1 123.013 23:22 09.07.2019
5433 Clouds 15 1022 100 10000 0.5 0 22:43 09.07.2019
5434 Clouds 16 1022 93 10000 1.5 0 22:25 09.07.2019
5435 Clouds 16 1022 93 10000 1.5 70 21:59 09.07.2019
5436 Clouds 16 1022 93 10000 2.6 80 21:41 09.07.2019
5437 Clouds 16 1022 93 10000 2.6 80 21:23 09.07.2019
5438 Clouds 17 1022 88 10000 3.1 110 20:43 09.07.2019
5439 Clouds 17 1022 88 10000 3.1 110 20:25 09.07.2019
5440 Clouds 18 1022 82 10000 3.6 90 19:43 09.07.2019
5441 Clouds 18 1022 82 10000 3.6 90 19:24 09.07.2019
5442 Clouds 18 1022 82 10000 3.1 120 18:49 09.07.2019
5443 Clouds 19 1021 77 10000 4.6 110 18:27 09.07.2019
5444 Clouds 19 1021 55 10000 1 0 17:57 09.07.2019
5445 Clouds 20 1021 52 10000 2.1 320 17:39 09.07.2019
5446 Clouds 20 1021 52 10000 2.1 320 17:20 09.07.2019
5447 Clouds 23 1020 46 10000 1.5 320 16:50 09.07.2019
5448 Clouds 25 1020 38 10000 2.6 310 16:25 09.07.2019
5449 Clouds 26 1020 36 10000 4.1 310 15:51 09.07.2019
5450 Clouds 27 1020 34 10000 3.6 0 15:33 09.07.2019
5451 Clouds 27 1020 39 10000 2.6 210 14:58 09.07.2019
5452 Clouds 28 1020 37 10000 2.1 0 14:39 09.07.2019
5453 Clouds 28 1020 37 10000 2.1 0 14:19 09.07.2019
5454 Clouds 27 1020 42 10000 2.1 220 13:45 09.07.2019
5455 Clouds 26 1020 44 10000 1.5 0 13:27 09.07.2019
5456 Clouds 26 1020 44 10000 1.5 0 13:27 09.07.2019
5457 Clouds 26 1021 47 10000 2.1 0 12:41 09.07.2019
5458 Clouds 26 1021 47 10000 2.1 0 12:22 09.07.2019
5459 Clouds 25 1022 50 10000 1.5 0 11:58 09.07.2019
5460 Clouds 25 1022 50 10000 1.5 0 11:39 09.07.2019
5461 Clouds 25 1022 50 10000 1.5 0 11:21 09.07.2019
5462 Clouds 25 1022 50 10000 1.5 0 11:21 09.07.2019
5463 Clouds 25 1022 50 10000 1.5 50 10:54 09.07.2019
5464 Clouds 24 1023 53 10000 2.1 40 10:33 09.07.2019
5465 Clouds 21 1023 73 10000 2.6 100 09:42 09.07.2019
5466 Clouds 21 1023 73 10000 2.6 100 09:22 09.07.2019
5467 Clouds 21 1024 73 10000 3.1 90 08:55 09.07.2019
5468 Clouds 22 1024 68 10000 2.1 80 08:37 09.07.2019
5469 Clouds 12 1023 93 10000 1 0 03:59 05.07.2019
5470 Clouds 12 1023 93 10000 0.5 0 03:38 05.07.2019
5471 Clouds 12 1023 93 10000 0.5 0 03:19 05.07.2019
5472 Clouds 11 1023 93 10000 1.5 60 02:45 05.07.2019
5473 Clouds 10 1023 93 10000 1 60 01:42 05.07.2019
5474 Clouds 10 1023 93 10000 1 60 01:23 05.07.2019
5475 Clouds 10 1023 100 10000 1.5 80 00:46 05.07.2019
5476 Clouds 10 1024 100 10000 2.1 60 23:56 04.07.2019
5477 Clouds 11 1024 93 10000 2.1 100 23:21 04.07.2019
5478 Clouds 11 1024 93 10000 2.1 80 22:57 04.07.2019
5479 Clouds 11 1024 93 10000 1.5 60 22:39 04.07.2019
5480 Clouds 11 1024 93 10000 1.5 60 22:18 04.07.2019
5481 Clouds 11 1025 93 10000 2.1 70 21:40 04.07.2019
5482 Clouds 11 1025 93 10000 2.1 70 21:22 04.07.2019
5483 Clouds 11 1025 93 10000 2.1 80 20:54 04.07.2019
5484 Clouds 11 1024 87 10000 2.6 80 20:36 04.07.2019
5485 Clouds 11 1024 87 10000 2.6 80 20:18 04.07.2019
5486 Clouds 13 1024 82 10000 3.1 100 19:41 04.07.2019
5487 Clouds 13 1024 82 10000 3.1 100 19:20 04.07.2019
5488 Clouds 13 1024 76 10000 3.1 120 18:44 04.07.2019
5489 Clouds 13 1024 76 10000 2.6 90 18:25 04.07.2019
5490 Clouds 15 1024 67 10000 4.1 110 17:47 04.07.2019
5491 Clouds 16 1023 63 10000 4.1 90 17:19 04.07.2019
5492 Clouds 20 1023 45 10000 5.7 120 15:59 04.07.2019
5493 Clouds 20 1022 45 10000 5.1 140 15:41 04.07.2019
5494 Clouds 20 1022 45 10000 5.1 140 15:22 04.07.2019
5495 Clouds 21 1022 46 10000 5.1 110 14:56 04.07.2019
5496 Clouds 22 1022 40 10000 3.6 140 14:37 04.07.2019
5497 Clouds 22 1022 40 10000 3.6 140 14:18 04.07.2019
5498 Clouds 22 1022 40 10000 3.6 140 14:18 04.07.2019
5499 Clouds 21 1022 43 10000 5.1 130 13:54 04.07.2019
5500 Clouds 21 1022 43 10000 5.1 130 13:54 04.07.2019
5501 Clouds 22 1022 37 10000 6.2 110 13:36 04.07.2019
5502 Clouds 22 1022 37 10000 6.2 110 13:18 04.07.2019
5503 Clouds 21 1023 43 10000 6.2 140 12:37 04.07.2019
5504 Clouds 21 1023 43 10000 6.2 140 12:19 04.07.2019
5505 Clouds 21 1024 37 10000 5.7 160 11:39 04.07.2019
5506 Clouds 21 1024 37 10000 5.7 160 11:19 04.07.2019
5507 Clouds 21 1024 37 10000 5.7 160 11:19 04.07.2019
5508 Clear 20 1024 42 10000 6.7 140 10:40 04.07.2019
5509 Clear 20 1024 42 10000 6.7 140 10:22 04.07.2019
5510 Clear 20 1024 40 10000 7.7 120 09:45 04.07.2019
5511 Clear 18 1024 52 10000 3.6 160 09:26 04.07.2019
5512 Clear 17 1024 55 10000 3.1 150 08:56 04.07.2019
5513 Clear 17 1024 55 10000 3.1 150 08:56 04.07.2019
5514 Clear 16 1025 63 10000 3.1 180 08:25 04.07.2019
5515 Clear 14 1024 67 10000 3.1 170 07:46 04.07.2019
5516 Clear 12 1024 81 7000 1.5 0 07:23 04.07.2019
5517 Clouds 11 1024 87 10000 1 0 06:55 04.07.2019
5518 Clouds 8 1023 93 10000 1 0 05:52 04.07.2019
5519 Clouds 7 1023 100 10000 1 80 05:33 04.07.2019
5520 Clouds 8 1023 93 10000 2.32 151.667 02:51 04.07.2019
5521 Clouds 10 1023 87 10000 1 150 01:42 04.07.2019
5522 Clouds 10 1023 87 10000 1 150 01:42 04.07.2019
5523 Clouds 10 1023 87 10000 1.5 90 01:22 04.07.2019
5524 Clouds 11 1024 87 10000 2.1 70 23:59 03.07.2019
5525 Clouds 11 1024 93 10000 1.5 80 23:41 03.07.2019
5526 Clouds 11 1024 93 10000 1.5 80 23:20 03.07.2019
5527 Clouds 11 1024 93 10000 0.5 0 22:55 03.07.2019
5528 Clouds 11 1024 93 10000 2.1 110 22:36 03.07.2019
5529 Clouds 11 1024 93 10000 2.1 110 22:18 03.07.2019
5530 Clouds 12 1024 81 10000 3.1 80 21:45 03.07.2019
5531 Clouds 12 1024 81 10000 3.1 80 21:26 03.07.2019
5532 Clouds 12 1024 76 10000 2.6 80 20:46 03.07.2019
5533 Clouds 13 1024 71 10000 2.6 80 20:24 03.07.2019
5534 Clouds 13 1024 71 10000 2.6 70 19:51 03.07.2019
5535 Clouds 14 1024 67 10000 2.1 90 19:32 03.07.2019
5536 Clouds 14 1023 67 10000 2.1 80 18:50 03.07.2019
5537 Clouds 15 1023 58 10000 2.1 70 18:30 03.07.2019
5538 Clouds 16 1022 55 10000 3.1 80 17:58 03.07.2019
5539 Clouds 17 1022 51 10000 3.6 100 17:39 03.07.2019
5540 Clouds 17 1022 51 10000 3.6 100 17:18 03.07.2019
5541 Clouds 20 1022 40 10000 4.1 130 16:44 03.07.2019
5542 Clouds 20 1022 40 10000 4.1 130 16:22 03.07.2019
5543 Clouds 21 1021 32 10000 5.7 140 15:50 03.07.2019
5544 Clouds 22 1021 33 10000 4.6 150 15:31 03.07.2019
5545 Clouds 22 1021 33 10000 5.7 140 14:58 03.07.2019
5546 Clouds 23 1021 31 10000 4.6 140 14:38 03.07.2019
5547 Clouds 23 1021 31 10000 4.6 140 14:19 03.07.2019
5548 Clouds 23 1021 31 10000 5.7 150 13:40 03.07.2019
5549 Clouds 23 1021 31 10000 5.7 150 13:18 03.07.2019
5550 Clouds 23 1021 31 10000 5.7 160 12:43 03.07.2019
5551 Clouds 23 1021 31 10000 5.7 160 12:18 03.07.2019
5552 Clouds 23 1022 31 10000 5.7 160 11:42 03.07.2019
5553 Clouds 23 1022 31 10000 5.7 160 11:21 03.07.2019
5554 Clouds 22 1022 37 10000 3.6 170 10:43 03.07.2019
5555 Clouds 20 1023 45 10000 1.5 0 10:24 03.07.2019
5556 Clouds 19 1023 59 6000 1 0 09:55 03.07.2019
5557 Clouds 18 1023 63 6000 1.5 0 09:36 03.07.2019
5558 Clouds 18 1023 63 6000 1.5 0 09:18 03.07.2019
5559 Clouds 14 1023 82 6000 1 0 08:41 03.07.2019
5560 Clouds 14 1023 82 6000 1 0 08:22 03.07.2019
5561 Mist 11 1023 100 4500 1 0 07:38 03.07.2019
5562 Mist 10 1023 100 2500 1.5 220 06:56 03.07.2019
5563 Fog 10 1022 100 900 1 0 05:57 03.07.2019
5564 Fog 10 1022 100 400 1.5 0 05:27 03.07.2019
5565 Fog 11 1021 100 800 1.38 155.312 03:58 03.07.2019
5566 Mist 11 1021 93 4000 0.5 0 02:55 03.07.2019
5567 Clouds 9 1022 100 10000 0.84 147.98 01:39 03.07.2019
5568 Clouds 9 1022 100 10000 0.84 147.98 01:21 03.07.2019
5569 Clouds 9 1022 100 10000 0.84 147.98 00:40 03.07.2019
5570 Clouds 11 1023 93 10000 1.17 152.182 23:55 02.07.2019
5571 Clouds 11 1023 100 10000 1 0 23:37 02.07.2019
5572 Clouds 11 1023 100 10000 1 0 23:18 02.07.2019
5573 Clouds 12 1023 93 10000 0.5 160 22:41 02.07.2019
5574 Clouds 12 1023 93 10000 0.5 160 22:23 02.07.2019
5575 Clouds 12 1024 93 10000 1.5 0 21:58 02.07.2019
5576 Clouds 13 1023 87 10000 1.5 80 21:39 02.07.2019
5577 Clouds 13 1023 87 10000 1.5 80 21:20 02.07.2019
5578 Clouds 13 1023 93 10000 2.1 150 20:42 02.07.2019
5579 Clouds 13 1023 93 10000 2.1 150 20:24 02.07.2019
5580 Clouds 13 1023 93 10000 2.1 150 20:24 02.07.2019
5581 Clouds 14 1023 87 10000 2.6 130 20:00 02.07.2019
5582 Clouds 13 1022 93 10000 2.1 100 19:40 02.07.2019
5583 Clouds 13 1022 93 10000 2.1 100 19:21 02.07.2019
5584 Clouds 14 1022 87 10000 4.1 100 18:45 02.07.2019
5585 Clouds 15 1022 77 10000 2.6 80 18:18 02.07.2019
5586 Clouds 16 1021 72 10000 3.1 80 17:41 02.07.2019
5587 Clouds 16 1021 72 10000 3.1 80 17:22 02.07.2019
5588 Clouds 17 1021 67 10000 4.1 110 16:49 02.07.2019
5589 Clouds 19 1021 59 10000 2.6 120 16:31 02.07.2019
5590 Clouds 20 1021 60 10000 4.1 140 15:45 02.07.2019
5591 Clouds 20 1021 60 10000 4.1 140 15:25 02.07.2019
5592 Clouds 20 1021 60 10000 4.1 140 15:25 02.07.2019
5593 Clouds 21 1021 56 10000 4.1 110 14:54 02.07.2019
5594 Clouds 21 1021 56 10000 3.6 140 14:36 02.07.2019
5595 Clouds 21 1021 56 10000 3.6 160 13:56 02.07.2019
5596 Clouds 20 1021 60 10000 3.1 170 13:36 02.07.2019
5597 Clouds 20 1021 60 10000 3.1 170 13:18 02.07.2019
5598 Clouds 20 1022 60 10000 4.1 160 12:43 02.07.2019
5599 Clouds 20 1022 60 10000 4.1 160 12:21 02.07.2019
5600 Clouds 19 1022 63 10000 3.6 140 11:42 02.07.2019
5601 Clouds 19 1022 63 10000 3.6 140 11:22 02.07.2019
5602 Clouds 19 1023 63 10000 3.6 160 10:47 02.07.2019
5603 Clouds 18 1023 68 10000 3.6 170 10:26 02.07.2019
5604 Clouds 17 1024 72 10000 3.6 160 09:46 02.07.2019
5605 Clouds 24 1012 100 7000 3.4 139.691 09:22 02.07.2019
5606 Clouds 15 1024 77 10000 3.6 180 08:43 02.07.2019
5607 Clouds 15 1024 77 10000 3.6 180 08:23 02.07.2019
5608 Clouds 14 1024 76 10000 4.6 160 07:54 02.07.2019
5609 Clouds 13 1024 82 10000 3.6 160 07:21 02.07.2019
5610 Clouds 12 1024 87 10000 3.1 150 06:51 02.07.2019
5611 Clouds 12 1023 87 10000 2.1 160 06:30 02.07.2019
5612 Clouds 12 1023 87 10000 3.6 140 04:58 02.07.2019
5613 Clouds 12 1023 87 10000 2.6 150 02:26 02.07.2019
5614 Clouds 12 1024 87 10000 2.6 170 23:55 01.07.2019
5615 Clouds 12 1024 93 10000 3.1 160 23:24 01.07.2019
5616 Clouds 13 1025 87 10000 2.6 160 22:47 01.07.2019
5617 Clouds 13 1025 87 10000 3.1 150 22:27 01.07.2019
5618 Clouds 13 1025 87 10000 3.6 150 21:48 01.07.2019
5619 Clouds 14 1025 82 10000 3.6 160 21:28 01.07.2019
5620 Clouds 14 1025 82 10000 4.6 170 20:53 01.07.2019
5621 Clouds 14 1025 82 10000 4.6 170 20:53 01.07.2019
5622 Clouds 14 1025 82 10000 4.1 160 20:23 01.07.2019
5623 Clouds 14 1025 82 10000 3.1 150 19:59 01.07.2019
5624 Clouds 14 1024 82 10000 4.1 150 19:41 01.07.2019
5625 Clouds 14 1024 82 10000 4.1 150 19:23 01.07.2019
5626 Clouds 14 1024 82 10000 3.6 140 18:53 01.07.2019
5627 Clouds 15 1024 77 10000 3.6 130 18:31 01.07.2019
5628 Clouds 15 1024 77 10000 3.6 130 18:00 01.07.2019
5629 Clouds 16 1024 67 10000 7.2 110 17:41 01.07.2019
5630 Clouds 16 1024 67 10000 7.2 110 17:21 01.07.2019
5631 Clouds 16 1024 67 10000 7.2 110 16:47 01.07.2019
5632 Clouds 17 1023 63 10000 6.2 140 16:26 01.07.2019
5633 Clouds 17 1023 63 10000 6.2 140 16:26 01.07.2019
5634 Clouds 18 1023 59 10000 5.1 150 15:55 01.07.2019
5635 Clouds 19 1023 55 10000 5.7 130 15:36 01.07.2019
5636 Clouds 19 1023 55 10000 5.7 130 15:18 01.07.2019
5637 Clouds 20 1023 52 10000 6.7 140 14:42 01.07.2019
5638 Clouds 20 1023 52 10000 6.7 140 14:19 01.07.2019
5639 Clouds 21 1023 52 10000 6.7 120 13:41 01.07.2019
5640 Clouds 21 1023 52 10000 6.7 120 13:22 01.07.2019
5641 Clouds 21 1023 49 10000 6.2 130 12:46 01.07.2019
5642 Clouds 21 1023 49 10000 6.7 120 12:27 01.07.2019
5643 Clouds 20 1024 56 10000 5.7 130 11:59 01.07.2019
5644 Clouds 20 1024 52 10000 5.7 140 11:39 01.07.2019
5645 Clouds 20 1024 52 10000 5.7 140 11:19 01.07.2019
5646 Clouds 19 1025 55 10000 6.2 170 10:46 01.07.2019
5647 Clouds 19 1025 55 10000 5.7 170 10:22 01.07.2019
5648 Clouds 17 1026 67 10000 6.2 160 09:45 01.07.2019
5649 Clouds 17 1026 67 10000 6.2 160 09:27 01.07.2019
5650 Clouds 17 1026 67 10000 6.7 160 08:59 01.07.2019
5651 Clouds 16 1026 67 10000 7.2 170 08:35 01.07.2019
5652 Clouds 14 1026 76 10000 4.6 170 07:37 01.07.2019
5653 Clouds 13 1026 82 10000 4.6 180 06:51 01.07.2019
5654 Clouds 11 1025 87 10000 4.1 170 05:34 01.07.2019
5655 Clouds 12 1026 87 10000 3.1 150 01:27 01.07.2019
5656 Clouds 12 1026 87 10000 3.1 120 00:44 01.07.2019
5657 Clouds 12 1026 87 10000 3.1 120 00:22 01.07.2019
5658 Clouds 13 1026 87 10000 2.6 140 23:39 30.06.2019
5659 Clouds 13 1026 87 10000 2.6 140 23:18 30.06.2019
5660 Clouds 13 1027 87 10000 2.1 150 22:39 30.06.2019
5661 Clouds 13 1027 87 10000 2.1 150 22:19 30.06.2019
5662 Clouds 14 1027 82 10000 3.1 160 21:41 30.06.2019
5663 Clouds 14 1027 82 10000 3.1 160 21:41 30.06.2019
5664 Clouds 14 1027 82 10000 3.1 160 21:19 30.06.2019
5665 Clouds 14 1027 87 10000 3.1 160 20:54 30.06.2019
5666 Clouds 15 1027 82 10000 4.1 150 20:36 30.06.2019
5667 Clouds 15 1026 82 10000 4.1 140 20:18 30.06.2019
5668 Clouds 15 1026 82 10000 3.6 140 19:42 30.06.2019
5669 Clouds 15 1026 82 10000 3.6 140 19:24 30.06.2019
5670 Clouds 16 1026 72 10000 4.1 140 18:26 30.06.2019
5671 Clouds 17 1025 67 10000 4.6 140 17:56 30.06.2019
5672 Clouds 17 1025 67 10000 3.6 130 17:37 30.06.2019
5673 Clouds 17 1025 67 10000 3.6 130 17:18 30.06.2019
5674 Clouds 19 1025 59 10000 5.7 140 16:44 30.06.2019
5675 Clouds 19 1025 59 10000 5.7 140 16:25 30.06.2019
5676 Clouds 20 1024 60 10000 6.2 130 15:37 30.06.2019
5677 Clouds 20 1024 60 10000 6.2 130 15:18 30.06.2019
5678 Clouds 21 1024 52 10000 6.2 140 14:50 30.06.2019
5679 Clouds 21 1024 52 10000 6.2 140 14:50 30.06.2019
5680 Clouds 21 1024 56 10000 5.1 160 14:29 30.06.2019
5681 Clouds 22 1024 49 10000 5.7 140 13:46 30.06.2019
5682 Clouds 22 1025 53 10000 5.7 150 13:25 30.06.2019
5683 Clouds 22 1025 53 10000 5.7 150 12:50 30.06.2019
5684 Clouds 22 1025 53 10000 5.7 150 12:27 30.06.2019
5685 Clouds 22 1025 53 10000 5.7 140 11:56 30.06.2019
5686 Clouds 21 1026 56 10000 6.7 160 11:38 30.06.2019
5687 Clouds 21 1026 56 10000 6.7 160 11:18 30.06.2019
5688 Clouds 21 1027 60 10000 6.2 140 10:42 30.06.2019
5689 Clouds 21 1027 60 10000 6.2 140 10:19 30.06.2019
5690 Clouds 19 1027 72 10000 5.1 150 09:44 30.06.2019
5691 Clouds 19 1027 72 10000 5.1 150 09:44 30.06.2019
5692 Clouds 19 1027 72 10000 5.1 150 09:23 30.06.2019
5693 Clouds 18 1027 77 10000 5.1 150 08:59 30.06.2019
5694 Clouds 17 1027 88 10000 3.1 140 08:38 30.06.2019
5695 Clouds 16 1027 93 10000 3.1 150 08:18 30.06.2019
5696 Clouds 16 1027 93 10000 2.6 140 07:37 30.06.2019
5697 Clouds 16 1027 93 10000 2.6 140 07:18 30.06.2019
5698 Rain 15 1026 93 8000 2.1 160 05:54 30.06.2019
5699 Clouds 14 1025 93 10000 2.6 170 02:59 30.06.2019
5700 Clouds 15 1026 87 10000 4.1 170 01:30 30.06.2019
5701 Clouds 15 1026 87 10000 3.1 160 00:38 30.06.2019
5702 Clouds 15 1026 87 10000 3.6 170 23:56 29.06.2019
5703 Clouds 15 1026 87 10000 4.1 170 23:25 29.06.2019
5704 Clouds 14 1027 87 10000 2.6 150 22:58 29.06.2019
5705 Clouds 14 1027 87 10000 3.1 150 22:40 29.06.2019
5706 Clouds 14 1027 87 10000 3.1 150 22:21 29.06.2019
5707 Clouds 15 1027 87 10000 2.6 130 21:49 29.06.2019
5708 Clouds 15 1027 87 10000 2.6 130 21:23 29.06.2019
5709 Clouds 15 1027 93 10000 3.6 100 20:42 29.06.2019
5710 Clouds 15 1027 93 10000 3.6 100 20:24 29.06.2019
5711 Clouds 15 1027 93 10000 4.1 120 19:48 29.06.2019
5712 Clouds 15 1027 93 10000 3.1 110 19:24 29.06.2019
5713 Clouds 16 1027 87 10000 3.6 120 18:51 29.06.2019
5714 Clouds 16 1027 87 10000 4.1 130 18:26 29.06.2019
5715 Clouds 16 1026 93 10000 5.7 120 17:43 29.06.2019
5716 Clouds 16 1026 93 10000 5.7 120 17:23 29.06.2019
5717 Clouds 16 1026 93 10000 5.7 120 17:23 29.06.2019
5718 Clouds 17 1025 88 10000 5.7 120 16:58 29.06.2019
5719 Clouds 17 1025 93 10000 5.7 120 16:39 29.06.2019
5720 Drizzle 19 1025 82 4500 4.6 170 15:53 29.06.2019
5721 Clouds 18 1024 88 10000 4.1 160 15:30 29.06.2019
5722 Drizzle 19 1025 88 6000 5.1 130 14:44 29.06.2019
5723 Drizzle 19 1025 88 6000 5.1 130 14:26 29.06.2019
5724 Drizzle 20 1025 77 10000 4.6 160 13:47 29.06.2019
5725 Drizzle 21 1025 73 10000 4.6 150 13:27 29.06.2019
5726 Clouds 20 1025 72 10000 5.7 150 12:53 29.06.2019
5727 Clouds 21 1025 68 10000 4.6 130 12:34 29.06.2019
5728 Clouds 20 1026 72 10000 4.6 150 11:55 29.06.2019
5729 Clouds 20 1026 68 10000 4.6 130 11:37 29.06.2019
5730 Clouds 20 1026 68 10000 4.6 130 11:19 29.06.2019
5731 Clouds 20 1027 72 10000 5.1 140 10:39 29.06.2019
5732 Clouds 20 1027 72 10000 5.1 140 10:20 29.06.2019
5733 Clouds 20 1027 72 10000 4.6 150 09:45 29.06.2019
5734 Clouds 20 1027 72 10000 5.7 120 08:51 29.06.2019
5735 Clouds 18 1027 82 10000 5.7 130 08:22 29.06.2019
5736 Clouds 17 1026 93 10000 3.1 150 07:44 29.06.2019
5737 Clouds 16 1026 93 10000 3.1 150 06:47 29.06.2019
5738 Drizzle 16 1026 93 10000 4.1 150 06:24 29.06.2019
5739 Drizzle 16 1026 93 10000 4.1 150 06:24 29.06.2019
5740 Clouds 15 1024 93 10000 2.1 120 02:51 29.06.2019
5741 Clouds 15 1025 93 10000 3.6 110 01:22 29.06.2019
5742 Clouds 16 1025 93 10000 3.1 100 00:29 29.06.2019
5743 Clouds 16 1026 93 10000 3.1 100 23:36 28.06.2019
5744 Clouds 16 1026 93 10000 3.1 100 23:18 28.06.2019
5745 Clouds 16 1026 93 10000 3.1 100 22:44 28.06.2019
5746 Clouds 16 1026 93 10000 2.6 130 21:58 28.06.2019
5747 Clouds 16 1026 93 10000 2.6 130 21:26 28.06.2019
5748 Clouds 16 1026 93 10000 2.6 140 20:49 28.06.2019
5749 Clouds 16 1025 93 10000 2.6 130 20:29 28.06.2019
5750 Drizzle 16 1025 93 8000 3.1 110 19:57 28.06.2019
5751 Drizzle 17 1025 93 6000 5.1 100 19:37 28.06.2019
5752 Drizzle 17 1025 93 6000 5.1 100 19:18 28.06.2019
5753 Clouds 18 1024 88 10000 3.6 110 18:40 28.06.2019
5754 Clouds 18 1024 88 10000 3.6 110 18:20 28.06.2019
5755 Clouds 18 1023 88 10000 2.6 140 17:33 28.06.2019
5756 Rain 18 1023 93 10000 4.1 140 16:54 28.06.2019
5757 Clouds 20 1023 77 10000 5.1 120 16:29 28.06.2019
5758 Clouds 21 1023 73 10000 5.1 120 15:49 28.06.2019
5759 Clouds 21 1023 68 10000 4.1 100 15:26 28.06.2019
5760 Clouds 21 1022 73 10000 3.6 80 14:57 28.06.2019
5761 Clouds 22 1022 68 10000 4.6 90 14:38 28.06.2019
5762 Clouds 22 1022 68 10000 4.6 90 14:20 28.06.2019
5763 Clouds 22 1023 64 10000 4.6 120 13:44 28.06.2019
5764 Clouds 22 1023 64 10000 4.6 120 13:22 28.06.2019
5765 Clouds 23 1023 60 10000 5.1 120 12:49 28.06.2019
5766 Clouds 23 1023 60 10000 4.6 120 12:24 28.06.2019
5767 Clouds 22 1024 64 10000 4.1 120 11:28 28.06.2019
5768 Clouds 21 1025 68 10000 4.6 110 10:47 28.06.2019
5769 Clouds 21 1025 68 10000 4.6 110 10:23 28.06.2019
5770 Clouds 20 1025 72 10000 3.1 130 09:49 28.06.2019
5771 Clouds 18 1025 82 10000 3.6 150 09:31 28.06.2019
5772 Clouds 18 1025 82 10000 4.1 180 08:50 28.06.2019
5773 Clouds 17 1025 88 10000 4.6 160 08:27 28.06.2019
5774 Clouds 17 1025 82 10000 3.1 160 07:58 28.06.2019
5775 Clouds 17 1024 82 10000 2.6 160 07:40 28.06.2019
5776 Clouds 16 1024 87 10000 2.6 160 06:33 28.06.2019
5777 Clouds 16 1023 82 10000 3.1 170 02:26 28.06.2019
5778 Clouds 16 1024 82 10000 2.1 160 00:44 28.06.2019
5779 Clouds 15 1024 87 10000 1.5 170 23:57 27.06.2019
5780 Clouds 15 1024 87 10000 1.5 170 23:57 27.06.2019
5781 Clouds 15 1024 87 10000 2.1 170 23:39 27.06.2019
5782 Clouds 15 1024 87 10000 2.1 170 23:20 27.06.2019
5783 Clouds 16 1025 82 10000 2.6 170 22:41 27.06.2019
5784 Clouds 16 1025 82 10000 2.6 170 22:23 27.06.2019
5785 Clouds 16 1025 82 10000 3.6 170 21:49 27.06.2019
5786 Clouds 16 1025 82 10000 2.1 170 21:31 27.06.2019
5787 Clouds 16 1025 82 10000 2.6 140 20:58 27.06.2019
5788 Clouds 16 1025 82 10000 3.6 140 20:40 27.06.2019
5789 Clouds 16 1025 82 10000 3.6 140 20:21 27.06.2019
5790 Clouds 16 1025 82 10000 3.6 140 19:46 27.06.2019
5791 Clouds 16 1025 82 10000 3.6 140 19:25 27.06.2019
5792 Clouds 16 1024 82 10000 2.1 150 18:44 27.06.2019
5793 Clouds 16 1024 82 10000 2.1 150 18:25 27.06.2019
5794 Clouds 17 1024 77 10000 3.6 140 17:46 27.06.2019
5795 Clouds 17 1024 77 10000 4.1 140 17:23 27.06.2019
5796 Clouds 19 1023 68 10000 4.1 130 16:41 27.06.2019
5797 Clouds 19 1023 68 10000 4.1 130 16:20 27.06.2019
5798 Clouds 19 1023 68 10000 4.6 130 15:58 27.06.2019
5799 Clouds 20 1023 64 10000 5.7 120 15:40 27.06.2019
5800 Clouds 20 1022 64 10000 5.7 170 14:59 27.06.2019
5801 Clouds 20 1022 64 10000 4.6 150 14:39 27.06.2019
5802 Clouds 20 1022 64 10000 4.6 150 14:21 27.06.2019
5803 Clouds 22 1022 53 10000 6.7 120 13:44 27.06.2019
5804 Clouds 22 1022 53 10000 6.7 120 13:25 27.06.2019
5805 Clouds 22 1023 53 10000 6.7 120 12:49 27.06.2019
5806 Clouds 22 1023 53 10000 5.7 150 12:31 27.06.2019
5807 Clouds 21 1023 56 10000 5.7 150 11:49 27.06.2019
5808 Clouds 21 1023 56 10000 5.7 150 11:25 27.06.2019
5809 Clouds 21 1024 60 10000 5.7 160 10:59 27.06.2019
5810 Clouds 19 1024 63 10000 5.7 170 10:41 27.06.2019
5811 Clouds 19 1024 63 10000 5.7 170 10:20 27.06.2019
5812 Clouds 18 1025 68 10000 6.2 150 09:41 27.06.2019
5813 Clouds 18 1025 68 10000 6.2 150 09:20 27.06.2019
5814 Clouds 17 1025 72 10000 4.6 170 08:50 27.06.2019
5815 Clouds 17 1024 72 10000 5.1 170 08:28 27.06.2019
5816 Clouds 15 1024 82 10000 3.6 150 07:46 27.06.2019
5817 Clouds 14 1024 82 10000 2.6 130 06:59 27.06.2019
5818 Clouds 13 1024 82 10000 3.1 160 06:37 27.06.2019
5819 Clouds 14 1022 82 10000 4.6 170 03:52 27.06.2019
5820 Clouds 15 1023 82 10000 3.6 150 02:43 27.06.2019
5821 Clouds 15 1023 87 10000 2.1 140 01:39 27.06.2019
5822 Clouds 15 1023 82 10000 2.1 160 00:52 27.06.2019
5823 Clouds 15 1024 82 10000 1.5 170 00:26 27.06.2019
5824 Clouds 15 1024 82 10000 2.1 140 23:51 26.06.2019
5825 Clouds 14 1024 87 10000 1.5 170 23:23 26.06.2019
5826 Clouds 14 1024 87 10000 1.5 170 23:23 26.06.2019
5827 Clouds 14 1024 87 10000 1.5 0 22:58 26.06.2019
5828 Clouds 14 1024 87 10000 2.1 150 22:40 26.06.2019
5829 Clouds 14 1024 87 10000 2.1 150 22:40 26.06.2019
5830 Clouds 14 1024 87 10000 2.1 150 22:19 26.06.2019
5831 Clouds 14 1025 87 10000 3.1 130 21:42 26.06.2019
5832 Clouds 14 1025 87 10000 3.1 130 21:21 26.06.2019
5833 Clouds 14 1024 87 10000 3.1 130 20:57 26.06.2019
5834 Clouds 14 1024 87 10000 2.6 140 20:37 26.06.2019
5835 Clouds 14 1024 87 10000 2.6 140 20:19 26.06.2019
5836 Clouds 15 1024 82 10000 3.6 120 19:42 26.06.2019
5837 Clouds 15 1024 82 10000 3.6 120 19:23 26.06.2019
5838 Clouds 16 1024 77 10000 2.6 140 18:46 26.06.2019
5839 Clouds 16 1024 77 10000 2.6 140 18:22 26.06.2019
5840 Clouds 17 1023 72 10000 3.6 120 17:57 26.06.2019
5841 Clouds 17 1023 72 10000 4.1 130 17:37 26.06.2019
5842 Clouds 17 1023 72 10000 4.1 130 17:18 26.06.2019
5843 Clouds 18 1022 68 10000 2.6 140 16:46 26.06.2019
5844 Clouds 18 1022 68 10000 2.6 140 16:22 26.06.2019
5845 Clouds 18 1022 68 10000 4.6 140 15:37 26.06.2019
5846 Clouds 18 1022 68 10000 4.6 140 15:19 26.06.2019
5847 Clouds 19 1022 63 10000 5.1 120 14:38 26.06.2019
5848 Clouds 19 1022 63 10000 5.1 120 14:19 26.06.2019
5849 Clouds 20 1022 60 10000 2.6 160 13:42 26.06.2019
5850 Clouds 20 1022 60 10000 2.6 160 13:20 26.06.2019
5851 Clouds 19 1022 63 10000 4.1 140 12:41 26.06.2019
5852 Clouds 19 1022 63 10000 4.1 140 12:22 26.06.2019
5853 Clouds 19 1023 63 10000 5.1 130 11:45 26.06.2019
5854 Clouds 19 1023 63 10000 5.1 130 11:19 26.06.2019
5855 Clouds 18 1024 68 10000 5.1 180 10:41 26.06.2019
5856 Clouds 18 1024 68 10000 5.1 180 10:22 26.06.2019
5857 Clouds 17 1024 72 10000 5.1 160 09:42 26.06.2019
5858 Clouds 17 1024 72 10000 5.1 160 09:18 26.06.2019
5859 Clouds 16 1023 82 10000 3.6 160 08:41 26.06.2019
5860 Clouds 16 1023 82 10000 3.6 160 08:19 26.06.2019
5861 Clouds 14 1023 87 10000 2.6 160 07:45 26.06.2019
5862 Clouds 13 1022 93 10000 2.1 140 06:38 26.06.2019
5863 Clouds 13 1022 93 10000 2.1 140 06:20 26.06.2019
5864 Clouds 15 1021 87 10000 2.1 160 01:24 26.06.2019
5865 Clouds 15 1021 87 10000 2.6 170 00:24 26.06.2019
5866 Clouds 15 1022 87 9000 3.1 120 23:45 25.06.2019
5867 Clouds 15 1022 87 9000 3.1 120 23:27 25.06.2019
5868 Rain 15 1022 87 8000 3.1 140 22:56 25.06.2019
5869 Clouds 16 1022 87 10000 2.1 170 22:37 25.06.2019
5870 Clouds 16 1022 87 10000 2.1 170 22:19 25.06.2019
5871 Clouds 17 1022 82 10000 2.1 160 21:41 25.06.2019
5872 Clouds 17 1022 82 10000 2.1 160 21:21 25.06.2019
5873 Clouds 16 1022 82 10000 2.1 150 20:44 25.06.2019
5874 Clouds 16 1022 82 10000 2.1 150 20:21 25.06.2019
5875 Clouds 17 1021 77 10000 4.1 110 19:45 25.06.2019
5876 Clouds 17 1021 77 10000 4.1 110 19:45 25.06.2019
5877 Clouds 17 1021 77 10000 4.1 110 19:23 25.06.2019
5878 Clouds 18 1021 68 10000 2.1 140 18:44 25.06.2019
5879 Clouds 18 1021 68 10000 2.1 140 18:26 25.06.2019
5880 -273 0 0 0 0 0 17:56 25.06.2019
5881 -273 0 0 0 0 0 17:29 25.06.2019
5882 -273 0 0 0 0 0 17:29 25.06.2019
5883 -273 0 0 0 0 0 17:29 25.06.2019
5884 Clouds 19 1020 63 10000 4.1 130 17:29 25.06.2019
5885 Clouds 20 1019 64 10000 3.6 150 16:57 25.06.2019
5886 Clouds 23 1019 40 10000 2.1 330 16:38 25.06.2019
5887 Clouds 23 1019 40 10000 2.1 330 16:19 25.06.2019
5888 Clouds 25 1018 36 10000 1.5 0 15:40 25.06.2019
5889 Clouds 25 1018 36 10000 1.5 0 15:21 25.06.2019
5890 Clouds 24 1018 41 10000 1.5 0 14:53 25.06.2019
5891 Clouds 24 1018 41 10000 1.5 0 14:53 25.06.2019
5892 Clouds 23 1018 43 10000 2.1 210 14:33 25.06.2019
5893 Clouds 24 1019 38 10000 2.1 190 13:45 25.06.2019
5894 Clouds 24 1019 38 10000 2.1 190 13:26 25.06.2019
5895 Clouds 24 1019 44 10000 1.5 0 12:43 25.06.2019
5896 Clouds 24 1019 44 10000 1.5 0 12:24 25.06.2019
5897 Clouds 23 1020 46 10000 2.1 0 11:48 25.06.2019
5898 Clouds 22 1020 56 10000 2.1 190 11:26 25.06.2019
5899 Clouds 21 1021 60 10000 2.6 190 10:59 25.06.2019
5900 Clouds 21 1021 60 10000 2.6 190 10:58 25.06.2019
5901 Clouds 21 1021 60 10000 2.6 200 10:37 25.06.2019
5902 Clouds 21 1021 60 10000 2.6 200 10:37 25.06.2019
5903 Clouds 21 1021 60 10000 2.6 200 10:19 25.06.2019
5904 Clouds 19 1021 72 10000 1.5 0 09:39 25.06.2019
5905 Clouds 19 1021 72 10000 1.5 0 09:21 25.06.2019
5906 Clouds 18 1022 77 10000 1.5 0 08:54 25.06.2019
5907 Clouds 17 1022 82 10000 1.5 0 08:31 25.06.2019
5908 Clouds 16 1021 87 10000 1 0 07:45 25.06.2019
5909 Clouds 16 1021 87 10000 1 0 07:26 25.06.2019
5910 Clouds 12 1021 100 10000 1 350 06:47 25.06.2019
5911 Clouds 13 1021 93 10000 0.5 0 05:58 25.06.2019
5912 Clouds 12 1019 100 10000 1 0 02:43 25.06.2019
5913 Clouds 13 1020 93 10000 1 0 00:57 25.06.2019
5914 Clouds 13 1020 100 10000 2.1 60 00:20 25.06.2019
5915 Clouds 13 1020 100 10000 2.1 70 23:51 24.06.2019
5916 Clouds 14 1020 93 10000 2.6 110 23:32 24.06.2019
5917 Clouds 14 1021 93 10000 2.6 110 22:48 24.06.2019
5918 Clouds 15 1021 87 10000 3.1 90 22:22 24.06.2019
5919 Clouds 15 1021 87 10000 2.1 130 21:57 24.06.2019
5920 Clouds 15 1021 87 10000 3.6 100 21:37 24.06.2019
5921 Clouds 15 1021 87 10000 3.6 100 21:18 24.06.2019
5922 Clouds 16 1021 87 10000 1 0 20:43 24.06.2019
5923 Clouds 16 1021 87 10000 1 0 20:23 24.06.2019
5924 Clouds 16 1020 82 10000 1.5 80 19:49 24.06.2019
5925 Clouds 16 1020 82 10000 2.1 110 19:30 24.06.2019
5926 Clouds 16 1020 82 10000 3.1 110 18:58 24.06.2019
5927 Clouds 17 1020 77 10000 3.6 130 18:38 24.06.2019
5928 Clouds 17 1020 77 10000 3.6 130 18:20 24.06.2019
5929 Clouds 18 1019 72 10000 2.1 190 17:37 24.06.2019
5930 Clouds 18 1019 68 10000 2.6 210 17:18 24.06.2019
5931 Clouds 19 1019 63 10000 1.5 0 16:40 24.06.2019
5932 Clouds 19 1019 63 10000 1.5 0 16:19 24.06.2019
5933 Clouds 21 1018 52 10000 1 0 15:41 24.06.2019
5934 Clouds 21 1018 52 10000 1 0 15:22 24.06.2019
5935 Clouds 23 1018 43 10000 1 0 14:35 24.06.2019
5936 Clouds 24 1018 41 10000 1.5 0 13:59 24.06.2019
5937 Clouds 24 1018 44 10000 1 0 13:33 24.06.2019
5938 Clouds 23 1018 49 10000 2.6 240 12:57 24.06.2019
5939 Clouds 23 1019 49 10000 1 0 12:38 24.06.2019
5940 Clouds 23 1019 49 10000 1 0 12:20 24.06.2019
5941 Clouds 21 1020 56 10000 2.1 0 11:43 24.06.2019
5942 -273 0 0 0 0 0 11:24 24.06.2019
5943 Clouds 20 1020 64 10000 2.1 190 10:51 24.06.2019
5944 Clouds 18 1021 68 10000 1.5 190 10:31 24.06.2019
5945 Clouds 18 1021 63 10000 2.1 200 09:51 24.06.2019
5946 Clouds 17 1022 72 10000 1.5 0 09:23 24.06.2019
5947 Clouds 15 1022 82 10000 1.5 0 08:53 24.06.2019
5948 Clouds 15 1022 77 10000 2.1 0 08:32 24.06.2019
5949 Clouds 14 1021 82 10000 1.5 160 07:47 24.06.2019
5950 Clouds 14 1021 82 10000 1.5 160 07:26 24.06.2019
5951 Clouds 14 1021 87 10000 2.1 80 06:49 24.06.2019
5952 Clouds 13 1021 87 10000 2.1 110 06:21 24.06.2019
5953 Clouds 13 1020 93 10000 3.6 80 05:28 24.06.2019
5954 Clouds 13 1020 93 10000 3.1 110 04:28 24.06.2019
5955 Clouds 13 1020 93 10000 0.5 0 03:30 24.06.2019
5956 Clouds 14 1020 93 10000 0.5 0 02:33 24.06.2019
5957 Clouds 14 1020 87 10000 1.5 0 01:54 24.06.2019
5958 Clouds 13 1020 100 10000 1.5 100 01:26 24.06.2019
5959 Clouds 13 1021 93 10000 1.5 140 00:41 24.06.2019
5960 Clouds 13 1021 93 10000 1.5 140 00:19 24.06.2019
5961 Clouds 13 1021 93 10000 1.5 140 00:19 24.06.2019
5962 Clouds 13 1021 93 10000 1.5 0 23:44 23.06.2019
5963 Clouds 13 1021 93 10000 1.5 0 23:23 23.06.2019
5964 Clouds 14 1022 93 10000 2.1 180 22:43 23.06.2019
5965 Clouds 14 1022 93 10000 2.1 180 22:20 23.06.2019
5966 Clouds 14 1022 93 10000 2.1 150 21:56 23.06.2019
5967 Clouds 14 1022 93 10000 2.6 150 21:36 23.06.2019
5968 Clouds 14 1022 93 10000 2.6 150 21:18 23.06.2019
5969 Clouds 15 1022 82 10000 3.1 150 20:40 23.06.2019
5970 Clouds 15 1022 82 10000 3.1 150 20:22 23.06.2019
5971 Clouds 16 1022 77 10000 3.1 130 19:44 23.06.2019
5972 Clouds 16 1022 77 10000 3.1 130 19:21 23.06.2019
5973 Clouds 16 1021 82 10000 3.6 110 18:52 23.06.2019
5974 Clouds 16 1021 77 10000 4.1 130 18:22 23.06.2019
5975 Clouds 16 1021 77 10000 3.6 90 17:50 23.06.2019
5976 Clouds 16 1020 77 10000 3.6 90 17:25 23.06.2019
5977 Clouds 17 1020 72 10000 4.6 90 16:55 23.06.2019
5978 Clouds 18 1020 68 10000 5.1 90 16:36 23.06.2019
5979 Clouds 18 1020 68 10000 5.1 90 16:18 23.06.2019
5980 Clouds 22 1019 53 10000 3.6 80 15:40 23.06.2019
5981 Clouds 22 1019 53 10000 3.6 80 15:19 23.06.2019
5982 Clouds 22 1019 53 10000 3.1 90 14:40 23.06.2019
5983 Clouds 22 1019 53 10000 3.1 90 14:22 23.06.2019
5984 Clouds 22 1019 53 10000 2.1 60 13:56 23.06.2019
5985 Clouds 22 1020 53 10000 3.1 80 13:36 23.06.2019
5986 Clouds 21 1020 56 10000 3.1 100 13:18 23.06.2019
5987 Clouds 21 1020 56 10000 3.6 90 12:42 23.06.2019
5988 Clouds 21 1020 56 10000 3.6 90 12:21 23.06.2019
5989 Clouds 20 1021 60 10000 4.1 130 11:50 23.06.2019
5990 Clouds 19 1021 63 10000 4.6 140 11:29 23.06.2019
5991 Clouds 18 1022 68 10000 4.1 150 10:53 23.06.2019
5992 Clouds 17 1022 77 10000 3.6 150 10:22 23.06.2019
5993 Clouds 17 1022 77 10000 3.6 150 10:22 23.06.2019
5994 Clouds 16 1023 77 10000 2.6 170 09:59 23.06.2019
5995 Clouds 16 1023 82 10000 2.6 130 09:25 23.06.2019
5996 Clouds 16 1023 82 10000 3.1 130 08:55 23.06.2019
5997 Clouds 15 1023 87 10000 2.1 130 08:37 23.06.2019
5998 Clouds 15 1023 82 10000 2.6 150 08:18 23.06.2019
5999 Clouds 14 1023 93 10000 2.1 140 07:48 23.06.2019
6000 Clouds 13 1022 93 10000 1 0 07:19 23.06.2019
6001 Clouds 13 1022 93 10000 1 0 06:53 23.06.2019
6002 Clouds 12 1022 100 10000 1 0 05:53 23.06.2019
6003 Clouds 13 1021 93 10000 1.5 0 02:52 23.06.2019
6004 Clouds 13 1022 93 10000 1.5 150 01:42 23.06.2019
6005 Clouds 13 1022 93 10000 1.5 150 01:24 23.06.2019
6006 Clouds 12 1022 100 10000 2.1 150 00:32 23.06.2019
6007 Clouds 12 1022 93 10000 0.5 0 23:49 22.06.2019
6008 Clouds 12 1022 100 10000 1.5 0 23:26 22.06.2019
6009 Clouds 13 1023 93 10000 0.5 0 22:47 22.06.2019
6010 Clouds 13 1023 93 10000 0.5 0 22:29 22.06.2019
6011 Clouds 13 1023 93 10000 1 0 21:59 22.06.2019
6012 Drizzle 14 1023 87 10000 3.1 200 21:36 22.06.2019
6013 Drizzle 14 1023 87 10000 3.1 200 21:18 22.06.2019
6014 Drizzle 14 1023 87 10000 3.1 200 21:18 22.06.2019
6015 Clouds 14 1023 87 10000 2.1 160 20:43 22.06.2019
6016 Clouds 14 1023 87 10000 2.1 160 20:24 22.06.2019
6017 Clouds 14 1023 93 10000 1 0 19:41 22.06.2019
6018 Clouds 14 1023 93 10000 1 0 19:20 22.06.2019
6019 Clouds 14 1023 87 10000 3.1 110 18:43 22.06.2019
6020 Clouds 14 1023 87 10000 3.1 110 18:23 22.06.2019
6021 Clouds 15 1023 82 10000 2.6 130 17:46 22.06.2019
6022 Clouds 15 1023 82 10000 2.6 130 17:46 22.06.2019
6023 Clouds 15 1023 82 10000 2.6 130 17:25 22.06.2019
6024 Clouds 15 1023 82 10000 2.1 120 16:44 22.06.2019
6025 Clouds 15 1023 82 10000 2.1 120 16:24 22.06.2019
6026 Clouds 14 1022 93 10000 4.6 140 15:45 22.06.2019
6027 Clouds 14 1022 93 10000 4.6 140 15:27 22.06.2019
6028 Rain 17 1022 77 10000 4.6 130 14:52 22.06.2019
6029 Clouds 17 1022 77 10000 5.1 130 14:32 22.06.2019
6030 Clouds 18 1022 68 10000 4.6 130 13:57 22.06.2019
6031 Clouds 18 1022 72 10000 6.2 120 13:39 22.06.2019
6032 Clouds 18 1022 72 10000 6.2 120 13:18 22.06.2019
6033 Clouds 18 1023 68 10000 5.7 140 12:43 22.06.2019
6034 Clouds 18 1023 68 10000 5.7 140 12:19 22.06.2019
6035 Clouds 17 1023 72 10000 5.7 160 11:41 22.06.2019
6036 Clouds 17 1023 72 10000 5.7 160 11:19 22.06.2019
6037 Clouds 15 1024 87 10000 3.6 180 10:22 22.06.2019
6038 Clouds 13 1024 87 10000 5.1 180 09:56 22.06.2019
6039 Clouds 12 1025 93 10000 3.6 200 09:35 22.06.2019
6040 Drizzle 12 1025 93 8000 1.5 0 08:48 22.06.2019
6041 Drizzle 12 1025 93 8000 1.5 0 08:29 22.06.2019
6042 Drizzle 12 1025 93 7000 1.5 250 07:44 22.06.2019
6043 Drizzle 12 1025 93 7000 1.5 250 07:20 22.06.2019
6044 Drizzle 11 1025 100 10000 1 0 06:35 22.06.2019
6045 Drizzle 12 1022 93 10000 3.1 180 03:42 22.06.2019
6046 Clouds 12 1023 93 10000 3.6 190 02:21 22.06.2019
6047 Clouds 12 1024 87 10000 4.6 150 00:48 22.06.2019
6048 Drizzle 12 1025 87 10000 5.7 150 00:24 22.06.2019
6049 Drizzle 13 1025 82 10000 5.7 140 23:49 21.06.2019
6050 Clouds 13 1025 82 10000 5.1 150 23:22 21.06.2019
6051 Clouds 13 1025 82 10000 5.7 140 22:54 21.06.2019
6052 Clouds 14 1025 82 10000 6.7 140 22:27 21.06.2019
6053 Clouds 14 1025 82 10000 6.2 140 21:56 21.06.2019
6054 Clouds 14 1025 82 10000 6.2 140 21:37 21.06.2019
6055 Clouds 14 1025 82 10000 6.2 140 21:19 21.06.2019
6056 Clouds 14 1025 82 10000 5.7 140 20:47 21.06.2019
6057 Clouds 14 1025 87 10000 6.2 150 20:22 21.06.2019
6058 Clouds 14 1025 87 10000 4.1 150 19:38 21.06.2019
6059 Clouds 15 1025 87 10000 4.6 130 18:55 21.06.2019
6060 Clouds 15 1025 87 10000 4.1 140 18:34 21.06.2019
6061 Clouds 15 1025 87 10000 4.6 160 17:48 21.06.2019
6062 Clouds 16 1025 77 10000 4.1 140 17:48 21.06.2019
6063 Clouds 16 1025 77 10000 4.1 140 17:30 21.06.2019
6064 Rain 16 1025 82 10000 4.6 150 16:42 21.06.2019
6065 Rain 16 1025 82 10000 4.6 150 16:23 21.06.2019
6066 Clouds 16 1024 87 10000 3.6 150 15:45 21.06.2019
6067 Clouds 16 1024 87 10000 3.6 150 15:24 21.06.2019
6068 Drizzle 17 1024 77 10000 6.2 150 14:53 21.06.2019
6069 Rain 18 1024 72 10000 4.6 140 14:31 21.06.2019
6070 Rain 17 1024 77 10000 4.6 150 13:58 21.06.2019
6071 Rain 17 1025 77 10000 4.6 140 13:36 21.06.2019
6072 Rain 17 1025 77 10000 4.6 140 13:18 21.06.2019
6073 Drizzle 16 1025 82 7000 3.6 170 12:40 21.06.2019
6074 Drizzle 16 1025 82 7000 3.6 170 12:18 21.06.2019
6075 Drizzle 16 1026 82 8000 5.7 140 11:47 21.06.2019
6076 Drizzle 16 1026 77 10000 5.7 150 11:26 21.06.2019
6077 Clouds 16 1026 77 10000 6.7 150 10:52 21.06.2019
6078 Clouds 17 1026 67 10000 7.7 140 10:23 21.06.2019
6079 Clouds 17 1026 67 10000 7.2 140 09:59 21.06.2019
6080 Clouds 17 1026 72 10000 5.1 140 09:40 21.06.2019
6081 Clouds 17 1026 72 10000 5.1 140 09:19 21.06.2019
6082 Clouds 15 1026 82 10000 5.7 150 08:43 21.06.2019
6083 Clouds 15 1026 82 10000 5.7 150 08:24 21.06.2019
6084 Clouds 15 1026 82 10000 5.1 160 07:52 21.06.2019
6085 Clouds 14 1026 82 10000 6.7 160 07:30 21.06.2019
6086 Clouds 14 1025 82 10000 5.7 150 06:54 21.06.2019
6087 Clouds 14 1025 82 10000 4.6 160 06:21 21.06.2019
6088 Clouds 13 1025 87 10000 4.6 170 05:26 21.06.2019
6089 Clouds 13 1025 87 10000 4.1 160 04:29 21.06.2019
6090 Clouds 13 1024 87 10000 3.6 150 03:34 21.06.2019
6091 Clouds 13 1025 87 10000 3.6 150 02:52 21.06.2019
6092 Clouds 13 1025 87 10000 3.1 160 01:49 21.06.2019
6093 Clouds 13 1025 87 10000 2.6 140 00:55 21.06.2019
6094 Clouds 13 1025 87 10000 3.1 150 00:22 21.06.2019
6095 Clouds 13 1025 87 10000 3.6 160 23:47 20.06.2019
6096 Clouds 13 1025 87 10000 2.6 150 23:23 20.06.2019
6097 Clouds 13 1026 87 10000 2.6 140 22:58 20.06.2019
6098 Clouds 13 1026 87 10000 2.6 140 22:58 20.06.2019
6099 Clouds 13 1026 87 10000 3.6 150 22:38 20.06.2019
6100 Clouds 13 1026 87 10000 3.6 150 22:20 20.06.2019
6101 Clouds 13 1026 82 10000 3.1 150 21:48 20.06.2019
6102 Clouds 13 1026 82 10000 3.1 140 21:19 20.06.2019
6103 Clouds 13 1026 82 10000 3.1 140 20:48 20.06.2019
6104 Clouds 13 1026 82 10000 3.1 140 20:26 20.06.2019
6105 Clouds 13 1025 82 10000 4.1 120 19:58 20.06.2019
6106 Clouds 13 1025 82 10000 4.1 140 19:39 20.06.2019
6107 Clouds 13 1025 82 10000 4.1 140 19:18 20.06.2019
6108 Clouds 13 1025 87 10000 3.6 140 18:43 20.06.2019
6109 Clouds 13 1025 87 10000 3.6 140 18:23 20.06.2019
6110 Clouds 14 1024 82 10000 5.7 130 17:53 20.06.2019
6111 Clouds 14 1024 82 10000 5.7 130 17:35 20.06.2019
6112 Clouds 15 1024 77 10000 4.1 150 16:56 20.06.2019
6113 Clouds 15 1023 72 10000 5.1 150 16:37 20.06.2019
6114 Clouds 15 1023 77 10000 5.7 150 16:18 20.06.2019
6115 Clouds 15 1023 77 10000 5.7 150 16:18 20.06.2019
6116 Clouds 17 1023 67 10000 5.7 110 15:41 20.06.2019
6117 Clouds 17 1023 67 10000 5.7 110 15:22 20.06.2019
6118 Clouds 18 1023 55 10000 6.7 120 14:46 20.06.2019
6119 Clouds 18 1023 55 10000 6.7 120 14:23 20.06.2019
6120 Clouds 18 1023 55 10000 6.7 120 14:23 20.06.2019
6121 Clouds 20 1023 49 10000 7.7 90 13:41 20.06.2019
6122 Clouds 20 1023 49 10000 7.7 90 13:21 20.06.2019
6123 Clouds 19 1023 52 10000 7.7 100 12:50 20.06.2019
6124 Clouds 19 1023 52 10000 5.7 120 12:25 20.06.2019
6125 Clouds 17 1024 63 10000 7.2 120 11:55 20.06.2019
6126 Clouds 17 1024 63 10000 7.2 120 11:55 20.06.2019
6127 Clouds 18 1024 63 10000 7.2 90 11:37 20.06.2019
6128 Clouds 18 1024 63 10000 7.2 90 11:18 20.06.2019
6129 Drizzle 16 1024 77 8000 6.2 110 10:41 20.06.2019
6130 Drizzle 16 1024 77 8000 6.2 110 10:21 20.06.2019
6131 Clouds 15 1025 77 10000 4.1 110 09:40 20.06.2019
6132 Clouds 15 1025 77 10000 4.1 110 09:22 20.06.2019
6133 Clouds 15 1025 77 10000 4.1 100 08:47 20.06.2019
6134 Clouds 14 1025 87 10000 2.6 140 08:27 20.06.2019
6135 Clouds 14 1025 82 10000 3.1 140 07:54 20.06.2019
6136 Clouds 13 1024 87 10000 3.1 150 07:30 20.06.2019
6137 Clouds 13 1024 87 10000 2.1 150 06:38 20.06.2019
6138 Clouds 12 1023 93 10000 2.1 150 05:54 20.06.2019
6139 Drizzle 12 1023 93 10000 2.1 160 03:37 20.06.2019
6140 Clouds 12 1023 93 10000 4.1 80 00:34 20.06.2019
6141 Clouds 12 1023 93 10000 3.6 60 23:59 19.06.2019
6142 Drizzle 12 1023 93 8000 5.1 80 23:41 19.06.2019
6143 Drizzle 12 1023 93 8000 5.1 80 23:23 19.06.2019
6144 Drizzle 12 1023 93 8000 4.6 90 22:47 19.06.2019
6145 Drizzle 13 1024 87 8000 7.2 90 22:20 19.06.2019
6146 Drizzle 14 1024 87 8000 4.6 100 21:47 19.06.2019
6147 Clouds 14 1024 93 10000 3.6 80 21:26 19.06.2019
6148 Clouds 14 1024 93 10000 3.6 90 20:57 19.06.2019
6149 Clouds 15 1024 87 10000 3.1 100 20:37 19.06.2019
6150 Clouds 15 1024 87 10000 3.1 100 20:37 19.06.2019
6151 Clouds 15 1024 87 10000 3.1 100 20:37 19.06.2019
6152 Clouds 15 1024 87 10000 3.1 100 20:19 19.06.2019
6153 Clouds 16 1023 82 10000 5.1 100 19:41 19.06.2019
6154 Clouds 16 1023 82 10000 5.1 100 19:20 19.06.2019
6155 Clouds 16 1022 77 10000 4.6 100 18:48 19.06.2019
6156 Clouds 16 1022 77 10000 4.6 100 18:21 19.06.2019
6157 Clouds 17 1022 72 10000 4.6 100 17:38 19.06.2019
6158 Clouds 17 1022 72 10000 4.6 100 17:18 19.06.2019
6159 Clouds 18 1021 68 10000 5.1 90 16:40 19.06.2019
6160 Clouds 18 1021 68 10000 5.1 90 16:21 19.06.2019
6161 Clouds 18 1021 68 10000 5.7 100 15:54 19.06.2019
6162 Clouds 20 1021 60 10000 2.6 110 15:28 19.06.2019
6163 Clouds 21 1020 49 10000 1.5 0 14:57 19.06.2019
6164 Clouds 21 1020 49 10000 1.5 0 14:57 19.06.2019
6165 Clouds 22 1021 43 10000 1 0 14:38 19.06.2019
6166 Clouds 23 1021 46 10000 2.6 60 14:20 19.06.2019
6167 Clouds 23 1021 49 10000 1.5 0 13:43 19.06.2019
6168 Clouds 23 1021 49 10000 1.5 0 13:24 19.06.2019
6169 Clouds 21 1022 56 10000 3.1 140 12:44 19.06.2019
6170 Clouds 21 1022 56 10000 3.1 140 12:22 19.06.2019
6171 Clouds 20 1022 60 10000 2.6 90 11:56 19.06.2019
6172 Clouds 20 1023 60 10000 3.1 90 11:37 19.06.2019
6173 Clouds 20 1023 60 10000 3.1 90 11:19 19.06.2019
6174 Clouds 17 1024 72 10000 2.1 100 10:43 19.06.2019
6175 Clouds 17 1024 72 10000 2.1 100 10:43 19.06.2019
6176 Clouds 17 1024 72 10000 2.1 100 10:24 19.06.2019
6177 Clouds 16 1024 77 10000 2.1 120 09:42 19.06.2019
6178 Clouds 16 1024 77 10000 2.1 120 09:22 19.06.2019
6179 Clouds 15 1024 82 10000 2.1 100 08:51 19.06.2019
6180 Clouds 14 1024 87 10000 2.1 50 08:29 19.06.2019
6181 Clouds 14 1024 87 10000 3.1 70 07:49 19.06.2019
6182 Clouds 14 1024 87 10000 2.6 80 07:30 19.06.2019
6183 Clouds 13 1024 93 10000 2.1 70 06:55 19.06.2019
6184 Clouds 13 1024 93 10000 1.5 90 06:30 19.06.2019
6185 Clouds 12 1024 100 10000 1 80 05:50 19.06.2019
6186 Clouds 12 1023 100 10000 2.6 80 04:41 19.06.2019
6187 Clouds 12 1024 100 10000 2.6 40 03:36 19.06.2019
6188 Clouds 12 1024 93 10000 1.5 0 02:28 19.06.2019
6189 Clouds 11 1024 100 10000 1 80 01:27 19.06.2019
6190 Clouds 11 1025 100 10000 0.5 0 00:43 19.06.2019
6191 Clouds 11 1025 100 10000 0.5 0 00:20 19.06.2019
6192 Clouds 12 1025 93 10000 1 60 23:53 18.06.2019
6193 Clouds 12 1025 93 10000 2.1 70 23:28 18.06.2019
6194 Clouds 12 1026 93 10000 1.27 97.214 22:49 18.06.2019
6195 Clouds 12 1026 93 10000 1.27 97.214 22:25 18.06.2019
6196 Clouds 13 1025 93 10000 2.1 80 21:58 18.06.2019
6197 Clouds 13 1025 93 10000 2.6 80 21:39 18.06.2019
6198 Clouds 13 1025 93 10000 2.6 80 21:21 18.06.2019
6199 Clouds 15 1026 87 10000 2.6 120 20:44 18.06.2019
6200 Clouds 15 1026 87 10000 2.6 120 20:25 18.06.2019
6201 Clouds 15 1025 82 10000 2.6 90 19:47 18.06.2019
6202 Clouds 15 1025 82 10000 2.6 90 19:25 18.06.2019
6203 Clouds 15 1025 82 10000 3.1 80 18:59 18.06.2019
6204 Clouds 15 1025 82 10000 3.1 80 18:39 18.06.2019
6205 Clouds 15 1025 82 10000 3.1 80 18:21 18.06.2019
6206 Clouds 16 1025 77 10000 4.1 100 17:39 18.06.2019
6207 Clouds 16 1025 77 10000 4.1 100 17:20 18.06.2019
6208 Clouds 16 1024 77 10000 3.1 100 16:46 18.06.2019
6209 Clouds 17 1024 72 10000 4.1 90 16:27 18.06.2019
6210 Clouds 18 1024 68 10000 5.1 120 15:55 18.06.2019
6211 Clouds 18 1024 68 10000 5.1 120 15:55 18.06.2019
6212 Clouds 18 1024 63 10000 4.1 110 15:36 18.06.2019
6213 Clouds 18 1024 63 10000 4.1 110 15:36 18.06.2019
6214 Clouds 18 1024 63 10000 4.1 110 15:18 18.06.2019
6215 Clouds 19 1024 63 10000 5.1 90 14:42 18.06.2019
6216 Clouds 19 1024 63 10000 5.1 90 14:21 18.06.2019
6217 Clouds 20 1024 56 10000 5.1 120 13:53 18.06.2019
6218 Clouds 19 1024 63 10000 5.1 140 13:32 18.06.2019
6219 Clouds 20 1024 60 10000 7.7 110 12:56 18.06.2019
6220 Clouds 20 1024 60 10000 5.7 110 12:36 18.06.2019
6221 Clouds 20 1024 60 10000 5.7 110 12:18 18.06.2019
6222 Clouds 20 1025 60 10000 5.7 130 11:42 18.06.2019
6223 Clouds 20 1025 60 10000 5.7 130 11:21 18.06.2019
6224 Clouds 20 1026 56 10000 5.1 130 10:56 18.06.2019
6225 Clouds 20 1026 56 10000 5.1 140 10:36 18.06.2019
6226 Clouds 20 1026 56 10000 5.1 140 10:18 18.06.2019
6227 Clouds 18 1026 63 10000 4.6 170 09:37 18.06.2019
6228 Clouds 18 1026 63 10000 4.6 170 09:18 18.06.2019
6229 Clouds 16 1027 77 10000 4.6 150 08:43 18.06.2019
6230 Clouds 16 1027 77 10000 4.6 150 08:21 18.06.2019
6231 Clouds 15 1027 77 10000 4.6 140 07:37 18.06.2019
6232 Clouds 15 1027 77 10000 4.6 140 07:18 18.06.2019
6233 Clouds 13 1026 100 10000 3.1 120 05:39 18.06.2019
6234 Drizzle 13 1025 100 8000 4.1 100 04:23 18.06.2019
6235 Drizzle 14 1025 93 6000 2.6 130 02:51 18.06.2019
6236 Clouds 15 1026 87 10000 3.1 160 01:54 18.06.2019
6237 Clouds 15 1026 87 10000 2.6 160 01:24 18.06.2019
6238 Clouds 15 1026 87 10000 3.1 150 00:54 18.06.2019
6239 Clouds 15 1026 87 10000 3.1 160 00:24 18.06.2019
6240 Clouds 14 1027 93 10000 3.6 160 23:40 17.06.2019
6241 Clouds 14 1027 93 10000 3.6 160 23:19 17.06.2019
6242 Clouds 15 1027 87 10000 3.6 160 22:42 17.06.2019
6243 Clouds 15 1027 87 10000 3.6 160 22:22 17.06.2019
6244 Clouds 15 1027 87 10000 3.6 160 21:58 17.06.2019
6245 Clouds 15 1027 93 10000 4.1 160 21:40 17.06.2019
6246 Clouds 15 1027 93 10000 4.1 160 21:20 17.06.2019
6247 Clouds 15 1027 93 10000 3.6 170 20:37 17.06.2019
6248 Clouds 16 1027 82 10000 4.1 160 20:18 17.06.2019
6249 Clouds 15 1027 93 10000 3.6 170 20:18 17.06.2019
6250 -273 0 0 0 0 0 19:42 17.06.2019
6251 Clouds 16 1027 82 10000 3.6 150 19:22 17.06.2019
6252 Clouds 16 1027 87 10000 3.1 140 18:57 17.06.2019
6253 Clouds 16 1026 82 10000 3.6 130 18:37 17.06.2019
6254 Clouds 17 1026 77 10000 4.6 140 18:18 17.06.2019
6255 Clouds 17 1026 72 10000 4.6 130 17:42 17.06.2019
6256 Clouds 17 1026 72 10000 4.6 130 17:24 17.06.2019
6257 Clouds 17 1026 77 10000 4.1 100 16:46 17.06.2019
6258 Clouds 18 1026 72 10000 4.1 140 16:28 17.06.2019
6259 Clouds 19 1025 63 10000 5.1 150 15:56 17.06.2019
6260 Clouds 19 1025 68 10000 4.6 140 15:38 17.06.2019
6261 Clouds 19 1025 68 10000 4.6 140 15:18 17.06.2019
6262 Clouds 19 1025 63 10000 4.1 140 14:48 17.06.2019
6263 Clouds 19 1026 63 10000 4.6 160 14:29 17.06.2019
6264 Clouds 20 1026 64 10000 3.6 150 13:50 17.06.2019
6265 Clouds 19 1026 68 10000 5.7 160 13:23 17.06.2019
6266 Clouds 20 1026 60 10000 4.1 160 12:51 17.06.2019
6267 Clouds 21 1026 56 10000 7.7 110 12:31 17.06.2019
6268 Clouds 19 1026 63 10000 6.2 140 11:49 17.06.2019
6269 Clouds 18 1027 68 10000 5.7 140 11:26 17.06.2019
6270 Clouds 19 1027 63 10000 5.7 160 10:58 17.06.2019
6271 Clouds 19 1027 59 10000 6.2 140 10:40 17.06.2019
6272 Clouds 19 1027 59 10000 6.2 140 10:21 17.06.2019
6273 Clouds 18 1028 63 10000 5.1 150 09:51 17.06.2019
6274 Clouds 18 1028 63 10000 4.6 150 09:28 17.06.2019
6275 Clouds 16 1028 72 10000 5.1 150 08:41 17.06.2019
6276 Clouds 16 1028 72 10000 5.1 150 08:23 17.06.2019
6277 Clouds 14 1028 76 10000 4.6 150 07:46 17.06.2019
6278 Clouds 14 1028 76 10000 4.6 150 07:27 17.06.2019
6279 Clouds 14 1027 87 10000 3.1 130 06:42 17.06.2019
6280 Clouds 14 1026 87 10000 3.1 130 05:47 17.06.2019
6281 Clouds 14 1026 93 10000 3.1 130 04:41 17.06.2019
6282 Clouds 14 1025 93 10000 2.6 140 03:47 17.06.2019
6283 Clouds 14 1025 93 10000 3.1 140 02:59 17.06.2019
6284 Clouds 14 1025 93 10000 3.1 120 02:40 17.06.2019
6285 Clouds 14 1025 93 10000 2.1 140 01:47 17.06.2019
6286 Clouds 14 1025 93 10000 2.1 150 01:25 17.06.2019
6287 Clouds 14 1026 93 10000 2.6 130 00:44 17.06.2019
6288 Clouds 14 1026 93 10000 2.6 140 00:21 17.06.2019
6289 Clouds 14 1027 93 10000 3.1 130 23:43 16.06.2019
6290 Clouds 14 1027 93 10000 3.1 130 23:22 16.06.2019
6291 Clouds 14 1027 93 10000 3.6 130 22:56 16.06.2019
6292 Clouds 14 1027 87 10000 3.1 130 22:38 16.06.2019
6293 Clouds 14 1027 87 10000 3.1 130 22:18 16.06.2019
6294 Clouds 14 1027 87 10000 2.6 130 21:41 16.06.2019
6295 Clouds 14 1027 87 10000 2.6 130 21:22 16.06.2019
6296 Clouds 15 1027 82 10000 2.6 140 20:59 16.06.2019
6297 Clouds 14 1027 87 10000 2.6 150 20:37 16.06.2019
6298 Clouds 14 1027 87 10000 2.6 150 20:18 16.06.2019
6299 Clouds 15 1027 77 10000 4.1 140 19:41 16.06.2019
6300 Clouds 15 1027 77 10000 4.1 140 19:22 16.06.2019
6301 Clouds 16 1026 72 10000 4.1 140 18:58 16.06.2019
6302 Clouds 16 1026 72 10000 3.6 140 18:39 16.06.2019
6303 Clouds 16 1026 72 10000 3.6 140 18:20 16.06.2019
6304 Clouds 16 1026 72 10000 3.6 140 18:20 16.06.2019
6305 Clouds 16 1026 72 10000 3.6 140 17:47 16.06.2019
6306 Clouds 16 1025 72 10000 4.6 120 17:22 16.06.2019
6307 Clouds 17 1025 63 10000 4.6 130 16:57 16.06.2019
6308 -273 0 0 0 0 0 16:57 16.06.2019
6309 Clouds 18 1025 59 10000 5.7 140 16:39 16.06.2019
6310 Clouds 18 1025 59 10000 5.7 140 16:20 16.06.2019
6311 Clouds 19 1024 55 10000 4.6 160 15:42 16.06.2019
6312 Clouds 19 1024 55 10000 4.6 160 15:24 16.06.2019
6313 Clouds 20 1024 52 10000 5.7 150 14:44 16.06.2019
6314 Clouds 20 1024 52 10000 5.7 150 14:23 16.06.2019
6315 Clouds 20 1024 52 10000 5.7 150 13:52 16.06.2019
6316 Clouds 20 1024 56 10000 5.7 140 13:28 16.06.2019
6317 Clouds 20 1024 56 10000 7.2 120 12:58 16.06.2019
6318 Clouds 20 1025 56 10000 6.7 130 12:38 16.06.2019
6319 Clouds 20 1025 56 10000 6.7 130 12:19 16.06.2019
6320 Clouds 18 1025 63 10000 6.2 160 11:45 16.06.2019
6321 Clouds 18 1026 63 10000 5.1 150 11:20 16.06.2019
6322 Clouds 18 1026 63 10000 5.1 160 10:45 16.06.2019
6323 Clouds 18 1026 63 10000 5.1 160 10:21 16.06.2019
6324 Clouds 18 1026 63 10000 6.2 170 09:48 16.06.2019
6325 Clouds 17 1027 63 10000 6.2 160 09:26 16.06.2019
6326 Clouds 16 1027 67 10000 5.1 150 08:59 16.06.2019
6327 Clouds 17 1027 67 10000 5.1 140 08:38 16.06.2019
6328 Clouds 17 1027 67 10000 5.1 140 08:18 16.06.2019
6329 Clouds 16 1026 72 10000 4.1 150 07:43 16.06.2019
6330 Clouds 15 1026 77 10000 3.6 170 06:59 16.06.2019
6331 Clouds 13 1025 87 10000 3.6 160 06:37 16.06.2019
6332 Clouds 13 1025 87 10000 4.6 140 05:43 16.06.2019
6333 Clouds 14 1024 82 10000 4.1 160 04:36 16.06.2019
6334 Clouds 13 1024 87 10000 3.1 170 03:54 16.06.2019
6335 Clouds 13 1024 87 10000 2.6 170 03:31 16.06.2019
6336 Clouds 12 1024 87 10000 2.1 140 02:18 16.06.2019
6337 Clouds 13 1024 87 10000 3.6 150 01:41 16.06.2019
6338 Clouds 13 1024 87 10000 3.6 150 01:23 16.06.2019
6339 Clouds 14 1025 87 10000 3.1 150 00:40 16.06.2019
6340 Clouds 14 1025 87 10000 3.1 150 00:19 16.06.2019
6341 Clouds 13 1025 93 10000 3.1 130 23:42 15.06.2019
6342 Clouds 13 1025 93 10000 3.1 130 23:23 15.06.2019
6343 Clouds 13 1025 93 10000 3.1 130 22:49 15.06.2019
6344 Clouds 13 1026 93 10000 3.6 140 22:26 15.06.2019
6345 Clouds 14 1026 87 10000 3.1 130 21:49 15.06.2019
6346 Clouds 14 1026 87 10000 3.1 130 21:29 15.06.2019
6347 Clouds 14 1026 87 10000 3.1 140 20:57 15.06.2019
6348 Clouds 14 1026 87 10000 3.6 140 20:39 15.06.2019
6349 Clouds 14 1026 87 10000 3.6 140 20:18 15.06.2019
6350 Clouds 15 1025 82 10000 3.6 150 19:41 15.06.2019
6351 Clouds 15 1025 82 10000 3.6 150 19:23 15.06.2019
6352 Clouds 15 1024 87 10000 2.6 140 18:39 15.06.2019
6353 Clouds 15 1024 87 10000 2.6 140 18:20 15.06.2019
6354 Clouds 16 1024 82 10000 4.1 130 17:43 15.06.2019
6355 Clouds 16 1024 82 10000 4.1 130 17:22 15.06.2019
6356 Clouds 16 1023 82 10000 4.1 130 16:48 15.06.2019
6357 Clouds 18 1023 68 10000 5.1 140 16:20 15.06.2019
6358 Clouds 18 1023 68 10000 5.1 140 15:44 15.06.2019
6359 Clouds 19 1023 63 10000 6.2 140 15:23 15.06.2019
6360 Clouds 19 1022 63 10000 5.7 130 14:42 15.06.2019
6361 Clouds 19 1022 63 10000 5.7 130 14:19 15.06.2019
6362 Clouds 20 1022 60 10000 4.6 130 13:57 15.06.2019
6363 Clouds 20 1023 60 10000 5.1 120 13:38 15.06.2019
6364 Clouds 20 1023 60 10000 5.1 120 13:38 15.06.2019
6365 Clouds 20 1023 60 10000 5.1 120 13:38 15.06.2019
6366 Clouds 20 1023 60 10000 5.1 120 13:18 15.06.2019
6367 Clouds 19 1023 72 10000 5.1 170 12:44 15.06.2019
6368 Clouds 19 1023 68 10000 4.6 140 12:23 15.06.2019
6369 Clouds 19 1023 68 10000 5.7 110 11:49 15.06.2019
6370 Clouds 18 1024 68 10000 6.2 110 11:30 15.06.2019
6371 Clouds 18 1024 72 10000 2.6 160 10:46 15.06.2019
6372 Clouds 18 1024 72 10000 2.6 160 10:25 15.06.2019
6373 Clouds 17 1025 72 10000 3.1 150 09:48 15.06.2019
6374 Clouds 17 1025 72 10000 4.1 130 09:27 15.06.2019
6375 Clouds 17 1025 72 10000 3.6 160 08:56 15.06.2019
6376 Clouds 17 1024 72 10000 5.7 140 08:38 15.06.2019
6377 Clouds 17 1024 72 10000 5.7 140 08:18 15.06.2019
6378 Clouds 16 1024 82 10000 4.1 170 07:26 15.06.2019
6379 Clouds 16 1024 82 10000 4.1 170 07:26 15.06.2019
6380 Clouds 16 1024 82 10000 4.1 170 07:26 15.06.2019
6381 Clouds 15 1023 87 10000 4.1 150 06:48 15.06.2019
6382 Clouds 15 1023 87 10000 3.6 160 06:28 15.06.2019
6383 Clouds 15 1022 87 10000 1.5 160 05:39 15.06.2019
6384 Clouds 15 1022 87 10000 1.5 150 04:52 15.06.2019
6385 Clouds 15 1022 87 10000 2.1 150 04:20 15.06.2019
6386 Clouds 15 1022 87 10000 2.1 140 03:22 15.06.2019
6387 Clouds 15 1022 87 10000 2.1 130 02:34 15.06.2019
6388 Clouds 15 1022 87 10000 2.6 140 01:57 15.06.2019
6389 Clouds 15 1022 87 10000 2.1 150 01:24 15.06.2019
6390 Clouds 15 1023 82 10000 3.6 160 00:42 15.06.2019
6391 Clouds 15 1023 82 10000 3.6 160 00:23 15.06.2019
6392 Clouds 16 1023 77 10000 3.1 140 23:46 14.06.2019
6393 Clouds 16 1023 82 10000 2.6 170 23:19 14.06.2019
6394 Clouds 16 1024 82 10000 2.1 150 22:41 14.06.2019
6395 Clouds 16 1024 82 10000 2.1 150 22:21 14.06.2019
6396 Clouds 16 1024 82 10000 1.5 160 21:48 14.06.2019
6397 Clouds 16 1024 82 10000 2.1 150 21:27 14.06.2019
6398 Clouds 15 1024 87 10000 3.1 90 20:44 14.06.2019
6399 Clouds 15 1024 87 10000 3.1 90 20:19 14.06.2019
6400 Clouds 14 1024 93 10000 2.6 90 19:58 14.06.2019
6401 Clouds 14 1024 87 10000 2.6 100 19:37 14.06.2019
6402 Clouds 14 1024 87 10000 2.6 100 19:18 14.06.2019
6403 Clouds 15 1023 82 10000 3.6 80 18:45 14.06.2019
6404 Clouds 15 1023 82 10000 3.6 80 18:26 14.06.2019
6405 Clouds 16 1022 77 10000 3.6 90 17:58 14.06.2019
6406 Clouds 17 1022 67 10000 4.6 100 17:39 14.06.2019
6407 Clouds 17 1022 67 10000 4.6 100 17:21 14.06.2019
6408 Clouds 19 1021 59 10000 4.6 100 16:46 14.06.2019
6409 Clouds 19 1021 59 10000 4.6 100 16:22 14.06.2019
6410 Clouds 19 1021 59 10000 4.6 100 16:22 14.06.2019
6411 Clouds 21 1021 52 10000 5.1 110 15:57 14.06.2019
6412 Clouds 21 1021 52 10000 5.1 110 15:38 14.06.2019
6413 Clouds 21 1021 52 10000 5.1 110 15:38 14.06.2019
6414 Clouds 21 1021 52 10000 5.1 110 15:19 14.06.2019
6415 Clouds 23 1021 43 10000 2.6 110 14:42 14.06.2019
6416 Clouds 23 1021 43 10000 2.6 110 14:24 14.06.2019
6417 Clouds 23 1021 43 10000 3.6 110 13:45 14.06.2019
6418 Clouds 23 1021 43 10000 3.6 110 13:45 14.06.2019
6419 Clouds 23 1021 43 10000 3.6 110 13:26 14.06.2019
6420 Clouds 22 1021 46 10000 3.1 150 12:49 14.06.2019
6421 Clouds 22 1021 46 10000 3.1 150 12:49 14.06.2019
6422 Clouds 23 1021 43 10000 3.6 130 12:27 14.06.2019
6423 Clouds 22 1022 49 10000 3.1 160 11:59 14.06.2019
6424 Clouds 21 1022 49 10000 3.6 140 11:41 14.06.2019
6425 Clouds 21 1022 49 10000 3.6 140 11:22 14.06.2019
6426 Clouds 19 1023 55 10000 3.6 170 10:45 14.06.2019
6427 Clouds 19 1023 55 10000 3.6 170 10:20 14.06.2019
6428 Clouds 18 1023 59 10000 4.1 160 09:49 14.06.2019
6429 Clouds 18 1024 59 10000 3.6 170 09:31 14.06.2019
6430 Clouds 15 1025 67 10000 2.1 120 08:47 14.06.2019
6431 Clouds 15 1025 67 10000 2.1 120 08:20 14.06.2019
6432 Clouds 14 1025 76 10000 1 0 07:52 14.06.2019
6433 Clouds 14 1025 76 10000 1 0 07:52 14.06.2019
6434 Clouds 12 1024 81 10000 2.1 80 07:22 14.06.2019
6435 Clouds 10 1024 100 10000 2.1 70 06:48 14.06.2019
6436 -273 0 0 0 0 0 05:58 14.06.2019
6437 Clouds 7 1023 100 10000 2.39 153.124 05:33 14.06.2019
6438 Clouds 7 1023 93 10000 1 0 04:48 14.06.2019
6439 Clouds 8 1023 100 10000 2.6 70 03:56 14.06.2019
6440 Clouds 8 1023 100 10000 2.1 70 03:26 14.06.2019
6441 Clouds 8 1023 100 10000 2.6 120 02:56 14.06.2019
6442 Clouds 9 1023 93 10000 1.5 90 02:27 14.06.2019
6443 Clouds 9 1023 93 10000 1.5 90 02:27 14.06.2019
6444 Clouds 9 1024 93 10000 0.5 230 00:59 14.06.2019
6445 Clouds 10 1024 93 10000 1.5 220 00:24 14.06.2019
6446 Clouds 10 1024 100 10000 1.5 210 23:59 13.06.2019
6447 Clouds 10 1025 100 10000 1 0 23:41 13.06.2019
6448 Clouds 10 1025 100 10000 1 0 23:22 13.06.2019
6449 Clouds 10 1025 93 10000 1 0 22:40 13.06.2019
6450 Clouds 10 1025 93 10000 1 0 22:22 13.06.2019
6451 Clouds 10 1025 93 10000 1 0 22:22 13.06.2019
6452 Clouds 11 1026 93 10000 1 50 21:40 13.06.2019
6453 Clouds 11 1026 93 10000 1 50 21:20 13.06.2019
6454 Clouds 11 1026 93 10000 2.1 90 20:58 13.06.2019
6455 Clouds 11 1026 100 10000 2.6 90 20:39 13.06.2019
6456 Clouds 11 1026 100 10000 2.6 90 20:19 13.06.2019
6457 Clouds 12 1025 87 10000 2.6 80 19:42 13.06.2019
6458 Clouds 12 1025 87 10000 2.6 80 19:42 13.06.2019
6459 Clouds 12 1025 87 10000 2.6 80 19:22 13.06.2019
6460 Clouds 12 1025 93 10000 2.6 80 18:58 13.06.2019
6461 Clouds 13 1025 82 10000 3.6 80 18:40 13.06.2019
6462 Clouds 13 1025 82 10000 3.6 80 18:21 13.06.2019
6463 Clouds 15 1024 72 10000 5.1 120 17:43 13.06.2019
6464 Clouds 15 1024 72 10000 5.1 120 17:20 13.06.2019
6465 Clouds 15 1024 67 10000 4.6 110 16:53 13.06.2019
6466 Clouds 17 1024 55 10000 4.6 150 16:22 13.06.2019
6467 Clouds 18 1024 55 10000 4.6 140 15:59 13.06.2019
6468 Clouds 19 1023 55 10000 4.6 140 15:39 13.06.2019
6469 Clouds 19 1023 55 10000 4.6 140 15:19 13.06.2019
6470 Clouds 19 1023 52 10000 6.2 160 14:47 13.06.2019
6471 Clouds 19 1023 55 10000 5.7 150 14:27 13.06.2019
6472 Clouds 20 1023 52 10000 5.1 170 13:47 13.06.2019
6473 Clouds 19 1024 55 10000 6.2 130 13:22 13.06.2019
6474 Clouds 20 1024 52 10000 5.7 110 12:58 13.06.2019
6475 Clouds 20 1024 52 10000 5.7 110 12:38 13.06.2019
6476 Clouds 20 1024 52 10000 5.7 110 12:19 13.06.2019
6477 Clouds 20 1025 52 10000 6.7 120 11:43 13.06.2019
6478 Clouds 20 1025 52 10000 6.7 120 11:24 13.06.2019
6479 Clouds 19 1025 55 10000 5.7 140 10:47 13.06.2019
6480 Clouds 19 1025 55 10000 6.7 130 10:28 13.06.2019
6481 Clouds 17 1026 63 10000 6.2 170 09:50 13.06.2019
6482 Clouds 17 1026 63 10000 6.2 170 09:50 13.06.2019
6483 Clouds 17 1026 63 10000 6.2 170 09:27 13.06.2019
6484 Clouds 16 1026 67 10000 6.2 160 08:51 13.06.2019
6485 Clouds 14 1026 76 10000 4.6 150 08:30 13.06.2019
6486 Clouds 14 1026 76 10000 5.1 150 07:59 13.06.2019
6487 Clouds 13 1026 76 10000 5.7 150 07:32 13.06.2019
6488 Clouds 13 1026 76 10000 6.2 160 06:54 13.06.2019
6489 Clouds 12 1026 81 10000 4.6 150 06:36 13.06.2019
6490 Clouds 12 1026 81 10000 4.6 150 06:18 13.06.2019
6491 Clouds 12 1025 81 10000 2.6 150 05:38 13.06.2019
6492 Clouds 12 1025 81 10000 2.6 150 05:18 13.06.2019
6493 Clouds 13 1025 82 10000 5.1 160 03:45 13.06.2019
6494 Clouds 13 1025 87 10000 4.1 140 01:55 13.06.2019
6495 Clouds 13 1026 87 10000 2.6 140 00:31 13.06.2019
6496 Clouds 13 1027 82 10000 3.1 140 23:26 12.06.2019
6497 Clouds 13 1027 76 10000 5.1 160 22:59 12.06.2019
6498 Clouds 13 1027 82 10000 4.1 140 22:40 12.06.2019
6499 Clouds 13 1027 82 10000 4.1 140 22:21 12.06.2019
6500 Clouds 14 1027 82 10000 4.1 150 21:43 12.06.2019
6501 Clouds 14 1027 82 10000 4.1 150 21:25 12.06.2019
6502 Clouds 14 1027 82 10000 4.1 140 20:48 12.06.2019
6503 Clouds 14 1027 82 10000 4.1 140 20:48 12.06.2019
6504 Clouds 14 1027 82 10000 3.6 140 20:29 12.06.2019
6505 Clouds 14 1027 82 10000 5.7 150 19:57 12.06.2019
6506 Clouds 14 1027 82 10000 5.7 150 19:57 12.06.2019
6507 Clouds 15 1027 72 10000 3.6 140 19:38 12.06.2019
6508 Clouds 15 1027 72 10000 3.6 140 19:19 12.06.2019
6509 Clouds 15 1027 67 10000 5.7 140 18:44 12.06.2019
6510 Clouds 15 1027 67 10000 5.7 160 18:24 12.06.2019
6511 Clouds 15 1026 72 10000 4.1 140 17:46 12.06.2019
6512 Clouds 15 1026 72 10000 4.1 140 17:23 12.06.2019
6513 Clouds 16 1026 67 10000 5.7 140 16:43 12.06.2019
6514 Clouds 17 1026 63 10000 7.7 110 16:25 12.06.2019
6515 Clouds 18 1025 59 10000 8.2 110 15:58 12.06.2019
6516 Clouds 19 1025 55 10000 6.2 130 15:33 12.06.2019
6517 Clouds 19 1025 55 10000 5.7 110 14:57 12.06.2019
6518 Clouds 19 1025 55 10000 7.7 120 14:32 12.06.2019
6519 Clouds 20 1024 56 10000 7.2 110 13:57 12.06.2019
6520 Clouds 20 1025 52 10000 6.2 110 13:38 12.06.2019
6521 Clouds 20 1025 52 10000 6.2 110 13:19 12.06.2019
6522 Clouds 20 1025 52 10000 6.2 110 13:19 12.06.2019
6523 Clouds 20 1025 52 10000 5.7 140 12:40 12.06.2019
6524 Clouds 20 1025 52 10000 5.7 140 12:21 12.06.2019
6525 Clouds 19 1026 55 10000 5.7 150 11:48 12.06.2019
6526 Clouds 18 1026 59 10000 5.7 160 11:30 12.06.2019
6527 Clouds 16 1027 67 10000 5.7 160 10:57 12.06.2019
6528 Clouds 17 1028 63 10000 5.7 150 10:39 12.06.2019
6529 Clouds 17 1028 63 10000 5.7 150 10:39 12.06.2019
6530 Clouds 17 1028 63 10000 5.1 150 10:00 12.06.2019
6531 Clouds 16 1028 63 10000 5.7 140 09:41 12.06.2019
6532 Clouds 16 1028 63 10000 5.7 140 09:19 12.06.2019
6533 Clouds 15 1028 72 10000 6.2 170 08:28 12.06.2019
6534 Clouds 15 1027 72 10000 5.1 150 07:56 12.06.2019
6535 Clouds 14 1027 76 10000 4.6 170 07:18 12.06.2019
6536 Clouds 12 1027 81 10000 3.1 170 06:38 12.06.2019
6537 Clouds 11 1026 87 10000 3.1 150 05:25 12.06.2019
6538 Clouds 10 1026 93 10000 2.1 130 02:21 12.06.2019
6539 Clouds 12 1027 81 10000 3.1 150 00:46 12.06.2019
6540 Clouds 12 1027 87 10000 3.6 140 23:54 11.06.2019
6541 Clouds 12 1027 87 10000 3.1 170 23:35 11.06.2019
6542 Clouds 12 1027 87 10000 2.6 160 22:57 11.06.2019
6543 Clouds 12 1028 87 10000 4.1 170 22:38 11.06.2019
6544 Clouds 12 1028 87 10000 4.1 170 22:18 11.06.2019
6545 Clouds 12 1028 87 10000 4.1 170 22:18 11.06.2019
6546 Clouds 13 1027 82 10000 3.1 150 21:41 11.06.2019
6547 Clouds 13 1027 82 10000 3.1 150 21:23 11.06.2019
6548 Clouds 13 1028 87 10000 3.6 150 20:58 11.06.2019
6549 Clouds 13 1028 87 10000 3.6 150 20:58 11.06.2019
6550 Clouds 13 1028 87 10000 3.6 120 20:39 11.06.2019
6551 Clouds 13 1028 87 10000 3.6 120 20:21 11.06.2019
6552 Clouds 13 1027 87 10000 4.1 130 19:50 11.06.2019
6553 Clouds 14 1027 82 10000 3.1 140 19:28 11.06.2019
6554 Clouds 14 1027 82 10000 3.1 140 19:28 11.06.2019
6555 Clouds 14 1027 82 10000 3.1 140 19:28 11.06.2019
6556 Clouds 14 1027 82 10000 3.6 140 18:49 11.06.2019
6557 Clouds 14 1026 82 10000 4.6 150 18:20 11.06.2019
6558 Clouds 15 1026 77 10000 5.1 160 17:42 11.06.2019
6559 Clouds 15 1026 77 10000 5.1 160 17:21 11.06.2019
6560 Clouds 17 1025 67 10000 5.7 150 16:46 11.06.2019
6561 Clouds 17 1025 67 10000 5.7 160 16:24 11.06.2019
6562 Clouds 18 1025 63 10000 5.7 160 15:59 11.06.2019
6563 Clouds 18 1025 63 10000 6.7 160 15:41 11.06.2019
6564 Clouds 18 1025 63 10000 6.7 160 15:19 11.06.2019
6565 Clouds 19 1024 63 10000 7.2 160 14:41 11.06.2019
6566 Clouds 19 1024 63 10000 7.2 160 14:20 11.06.2019
6567 Clouds 19 1025 63 10000 7.2 160 13:50 11.06.2019
6568 Clouds 19 1025 63 10000 6.7 160 13:23 11.06.2019
6569 Clouds 19 1025 63 10000 6.2 160 12:43 11.06.2019
6570 Clouds 20 1025 60 10000 7.2 150 12:22 11.06.2019
6571 Clouds 20 1025 60 10000 7.2 130 11:57 11.06.2019
6572 Clouds 20 1026 60 10000 7.2 130 11:34 11.06.2019
6573 Clouds 20 1026 60 10000 7.7 130 10:58 11.06.2019
6574 Clouds 20 1026 60 10000 6.2 150 10:40 11.06.2019
6575 Clouds 20 1026 60 10000 6.2 150 10:21 11.06.2019
6576 Clouds 18 1026 68 10000 5.7 150 09:45 11.06.2019
6577 Clouds 18 1026 68 10000 5.7 160 09:23 11.06.2019
6578 Clouds 18 1026 68 10000 5.7 160 09:23 11.06.2019
6579 Clouds 17 1027 67 10000 5.1 160 08:42 11.06.2019
6580 Clouds 17 1027 67 10000 5.1 160 08:23 11.06.2019
6581 Clouds 15 1026 77 10000 4.1 170 07:36 11.06.2019
6582 Clouds 15 1026 72 10000 2.6 190 06:54 11.06.2019
6583 Clouds 13 1026 87 10000 3.6 160 06:23 11.06.2019
6584 Clouds 13 1025 87 10000 2.6 130 04:48 11.06.2019
6585 Drizzle 14 1025 93 7000 5.1 160 02:27 11.06.2019
6586 Drizzle 14 1025 93 7000 5.1 160 02:27 11.06.2019
6587 Clouds 14 1025 93 10000 3.6 170 00:54 11.06.2019
6588 Clouds 15 1025 87 10000 3.6 170 00:31 11.06.2019
6589 Clouds 14 1025 93 10000 3.6 140 23:46 10.06.2019
6590 Clouds 14 1025 93 10000 3.6 140 23:21 10.06.2019
6591 Clouds 14 1026 93 10000 3.1 170 22:46 10.06.2019
6592 Clouds 14 1026 93 10000 3.1 170 22:46 10.06.2019
6593 Clouds 14 1026 93 10000 2.1 160 22:27 10.06.2019
6594 Clouds 14 1026 93 10000 3.6 140 21:58 10.06.2019
6595 Clouds 14 1026 93 10000 4.6 170 21:38 10.06.2019
6596 Clouds 14 1026 93 10000 4.6 170 21:20 10.06.2019
6597 Clouds 14 1026 93 10000 3.6 160 20:44 10.06.2019
6598 Clouds 14 1026 93 10000 3.6 160 20:21 10.06.2019
6599 Clouds 15 1026 82 10000 5.1 140 19:48 10.06.2019
6600 Clouds 15 1026 87 10000 4.1 150 19:23 10.06.2019
6601 Clouds 15 1026 82 10000 4.1 160 18:58 10.06.2019
6602 Clouds 15 1026 82 10000 5.7 140 18:40 10.06.2019
6603 Clouds 15 1026 82 10000 5.7 140 18:20 10.06.2019
6604 Clouds 15 1025 93 10000 3.6 140 17:44 10.06.2019
6605 Rain 16 1025 82 7000 5.1 140 17:24 10.06.2019
6606 Clouds 17 1025 77 10000 5.7 160 16:56 10.06.2019
6607 Clouds 17 1024 77 10000 7.7 150 16:37 10.06.2019
6608 Clouds 17 1024 77 10000 7.7 150 16:18 10.06.2019
6609 Clouds 18 1024 72 10000 8.2 160 15:41 10.06.2019
6610 Clouds 18 1024 72 10000 8.2 160 15:23 10.06.2019
6611 Clouds 18 1024 72 10000 8.2 170 14:46 10.06.2019
6612 Clouds 19 1024 68 10000 8.7 170 14:28 10.06.2019
6613 Clouds 20 1024 60 10000 5.1 140 13:47 10.06.2019
6614 Clouds 20 1024 60 10000 5.1 140 13:28 10.06.2019
6615 Clouds 19 1025 63 10000 6.2 170 12:55 10.06.2019
6616 Clouds 20 1025 56 10000 7.2 170 12:32 10.06.2019
6617 Clouds 21 1025 49 10000 6.7 150 11:59 10.06.2019
6618 Clouds 20 1026 49 10000 7.2 150 11:39 10.06.2019
6619 Clouds 20 1026 49 10000 7.2 150 11:19 10.06.2019
6620 Clouds 20 1026 52 10000 7.2 130 10:41 10.06.2019
6621 Clouds 20 1026 52 10000 7.2 130 10:19 10.06.2019
6622 Clouds 18 1027 55 10000 7.7 130 09:52 10.06.2019
6623 Clouds 18 1027 63 10000 6.7 140 09:29 10.06.2019
6624 Clouds 17 1027 67 10000 7.7 140 08:50 10.06.2019
6625 Clouds 16 1027 77 10000 5.7 140 08:27 10.06.2019
6626 Clouds 15 1026 77 10000 6.2 140 07:46 10.06.2019
6627 Clouds 13 1025 82 10000 3.6 140 04:44 10.06.2019
6628 Clouds 14 1024 76 10000 6.2 140 03:29 10.06.2019
6629 Clouds 14 1024 87 10000 4.1 150 01:56 10.06.2019
6630 Clouds 14 1024 82 10000 3.6 170 01:22 10.06.2019
6631 Clouds 15 1024 82 10000 5.7 170 00:47 10.06.2019
6632 Clouds 15 1025 72 10000 6.7 170 23:49 09.06.2019
6633 Clouds 15 1025 72 10000 6.7 170 23:23 09.06.2019
6634 Clouds 14 1025 82 10000 3.1 150 22:48 09.06.2019
6635 Clouds 14 1026 87 10000 2.6 170 22:26 09.06.2019
6636 Clouds 14 1026 87 10000 2.1 180 21:57 09.06.2019
6637 Clouds 14 1026 82 10000 2.6 160 21:37 09.06.2019
6638 Clouds 14 1026 82 10000 2.6 160 21:18 09.06.2019
6639 Clouds 14 1026 87 10000 4.1 140 20:41 09.06.2019
6640 Clouds 14 1026 87 10000 4.1 140 20:22 09.06.2019
6641 Clouds 15 1026 82 10000 4.6 130 19:45 09.06.2019
6642 Clouds 15 1026 82 10000 3.6 130 19:18 09.06.2019
6643 Clouds 15 1026 82 10000 3.6 130 19:18 09.06.2019
6644 Clouds 15 1026 82 10000 3.6 130 19:18 09.06.2019
6645 Clouds 16 1025 77 10000 4.1 140 18:44 09.06.2019
6646 Clouds 16 1025 77 10000 4.6 130 18:25 09.06.2019
6647 Clouds 16 1024 77 10000 3.6 130 17:56 09.06.2019
6648 Clouds 17 1024 67 10000 4.1 140 17:32 09.06.2019
6649 Clouds 18 1024 59 10000 4.6 140 16:59 09.06.2019
6650 Clouds 18 1024 59 10000 4.6 140 16:59 09.06.2019
6651 Clouds 19 1024 59 10000 4.6 130 16:40 09.06.2019
6652 Clouds 19 1024 59 10000 4.6 130 16:40 09.06.2019
6653 Clouds 19 1024 59 10000 4.6 130 16:20 09.06.2019